﻿<?xml version="1.0" encoding="UTF-8" standalone="no" ?><gpx xmlns="http://www.topografix.com/GPX/1/1" xmlns:gpxx="http://www.garmin.com/xmlschemas/GpxExtensions/v3" xmlns:gpxtrkx="http://www.garmin.com/xmlschemas/TrackStatsExtension/v1" xmlns:wptx1="http://www.garmin.com/xmlschemas/WaypointExtension/v1" xmlns:gpxtpx="http://www.garmin.com/xmlschemas/TrackPointExtension/v1" creator="GPSMAP 66sr" version="1.1" xmlns:xsi="http://www.w3.org/2001/XMLSchema-instance" xsi:schemaLocation="http://www.topografix.com/GPX/1/1 http://www.topografix.com/GPX/1/1/gpx.xsd http://www.garmin.com/xmlschemas/GpxExtensions/v3 http://www8.garmin.com/xmlschemas/GpxExtensionsv3.xsd http://www.garmin.com/xmlschemas/TrackStatsExtension/v1 http://www8.garmin.com/xmlschemas/TrackStatsExtension.xsd http://www.garmin.com/xmlschemas/WaypointExtension/v1 http://www8.garmin.com/xmlschemas/WaypointExtensionv1.xsd http://www.garmin.com/xmlschemas/TrackPointExtension/v1 http://www.garmin.com/xmlschemas/TrackPointExtensionv1.xsd"><metadata><link href="http://www.garmin.com"><text>Garmin International</text></link><time>2026-08-28T08:22:15Z</time></metadata><trk><name>2026-08-28 19:16:52</name><trkseg><trkpt lat="42.2294037964" lon="13.4185929508"><ele>1552.45</ele><time>2026-8-28T8:22:42Z</time></trkpt><trkpt lat="42.2294420704" lon="13.4186356750"><ele>1552.01</ele><time>2026-8-28T8:23:21Z</time></trkpt><trkpt lat="42.2294121038" lon="13.4187685582"><ele>1551.75</ele><time>2026-8-28T8:23:36Z</time></trkpt><trkpt lat="42.2292859526" lon="13.4188493807"><ele>1551.74</ele><time>2026-8-28T8:23:43Z</time></trkpt><trkpt lat="42.2291953373" lon="13.4189506341"><ele>1552.00</ele><time>2026-8-28T8:23:50Z</time></trkpt><trkpt lat="42.2291788319" lon="13.4191216668"><ele>1552.18</ele><time>2026-8-28T8:23:57Z</time></trkpt><trkpt lat="42.2291709529" lon="13.4193005506"><ele>1552.22</ele><time>2026-8-28T8:24:3Z</time></trkpt><trkpt lat="42.2291899799" lon="13.4194734274"><ele>1552.34</ele><time>2026-8-28T8:24:9Z</time></trkpt><trkpt lat="42.2292489465" lon="13.4196466953"><ele>1552.86</ele><time>2026-8-28T8:24:15Z</time></trkpt><trkpt lat="42.2293103579" lon="13.4197449624"><ele>1552.72</ele><time>2026-8-28T8:24:27Z</time></trkpt><trkpt lat="42.2294418365" lon="13.4198748060"><ele>1552.45</ele><time>2026-8-28T8:24:38Z</time></trkpt><trkpt lat="42.2295764624" lon="13.4199616802"><ele>1552.58</ele><time>2026-8-28T8:24:42Z</time></trkpt><trkpt lat="42.2297104821" lon="13.4200430755"><ele>1552.13</ele><time>2026-8-28T8:24:46Z</time></trkpt><trkpt lat="42.2298167087" lon="13.4201147966"><ele>1551.72</ele><time>2026-8-28T8:24:48Z</time></trkpt><trkpt lat="42.2299053055" lon="13.4201867972"><ele>1551.42</ele><time>2026-8-28T8:24:50Z</time></trkpt><trkpt lat="42.2300356440" lon="13.4203265235"><ele>1551.01</ele><time>2026-8-28T8:24:52Z</time></trkpt><trkpt lat="42.2301127576" lon="13.4204446245"><ele>1550.66</ele><time>2026-8-28T8:24:54Z</time></trkpt><trkpt lat="42.2302026115" lon="13.4206050262"><ele>1550.42</ele><time>2026-8-28T8:24:57Z</time></trkpt><trkpt lat="42.2302958602" lon="13.4207683755"><ele>1549.98</ele><time>2026-8-28T8:24:59Z</time></trkpt><trkpt lat="42.2303786735" lon="13.4208971216"><ele>1549.58</ele><time>2026-8-28T8:25:1Z</time></trkpt><trkpt lat="42.2304762807" lon="13.4210114507"><ele>1549.33</ele><time>2026-8-28T8:25:3Z</time></trkpt><trkpt lat="42.2305797972" lon="13.4211187391"><ele>1548.77</ele><time>2026-8-28T8:25:5Z</time></trkpt><trkpt lat="42.2306901869" lon="13.4212076711"><ele>1548.35</ele><time>2026-8-28T8:25:7Z</time></trkpt><trkpt lat="42.2308062762" lon="13.4212761931"><ele>1547.98</ele><time>2026-8-28T8:25:9Z</time></trkpt><trkpt lat="42.2309508361" lon="13.4213422705"><ele>1547.48</ele><time>2026-8-28T8:25:12Z</time></trkpt><trkpt lat="42.2310891655" lon="13.4214045620"><ele>1546.94</ele><time>2026-8-28T8:25:14Z</time></trkpt><trkpt lat="42.2311955737" lon="13.4214511654"><ele>1546.54</ele><time>2026-8-28T8:25:16Z</time></trkpt><trkpt lat="42.2313253395" lon="13.4215149656"><ele>1546.38</ele><time>2026-8-28T8:25:19Z</time></trkpt><trkpt lat="42.2314513056" lon="13.4215838509"><ele>1546.36</ele><time>2026-8-28T8:25:21Z</time></trkpt><trkpt lat="42.2315728571" lon="13.4216518980"><ele>1546.32</ele><time>2026-8-28T8:25:24Z</time></trkpt><trkpt lat="42.2317123041" lon="13.4217373654"><ele>1545.85</ele><time>2026-8-28T8:25:27Z</time></trkpt><trkpt lat="42.2318263119" lon="13.4218032472"><ele>1545.53</ele><time>2026-8-28T8:25:29Z</time></trkpt><trkpt lat="42.2319416608" lon="13.4218577016"><ele>1545.44</ele><time>2026-8-28T8:25:32Z</time></trkpt><trkpt lat="42.2320836224" lon="13.4219042491"><ele>1545.35</ele><time>2026-8-28T8:25:35Z</time></trkpt><trkpt lat="42.2322322614" lon="13.4219228011"><ele>1545.24</ele><time>2026-8-28T8:25:38Z</time></trkpt><trkpt lat="42.2323573055" lon="13.4219015250"><ele>1545.09</ele><time>2026-8-28T8:25:40Z</time></trkpt><trkpt lat="42.2324788571" lon="13.4218514990"><ele>1544.86</ele><time>2026-8-28T8:25:43Z</time></trkpt><trkpt lat="42.2326175496" lon="13.4217713960"><ele>1544.51</ele><time>2026-8-28T8:25:46Z</time></trkpt><trkpt lat="42.2327276599" lon="13.4216893790"><ele>1544.23</ele><time>2026-8-28T8:25:48Z</time></trkpt><trkpt lat="42.2328374349" lon="13.4216002933"><ele>1543.91</ele><time>2026-8-28T8:25:51Z</time></trkpt><trkpt lat="42.2329666279" lon="13.4214911051"><ele>1543.68</ele><time>2026-8-28T8:25:54Z</time></trkpt><trkpt lat="42.2330738744" lon="13.4213897260"><ele>1543.61</ele><time>2026-8-28T8:25:56Z</time></trkpt><trkpt lat="42.2331850883" lon="13.4212925937"><ele>1543.58</ele><time>2026-8-28T8:25:59Z</time></trkpt><trkpt lat="42.2332914267" lon="13.4211888118"><ele>1543.52</ele><time>2026-8-28T8:26:1Z</time></trkpt><trkpt lat="42.2334052809" lon="13.4211090859"><ele>1543.07</ele><time>2026-8-28T8:26:4Z</time></trkpt><trkpt lat="42.2335440782" lon="13.4211296984"><ele>1542.79</ele><time>2026-8-28T8:26:7Z</time></trkpt><trkpt lat="42.2336536297" lon="13.4211555461"><ele>1542.81</ele><time>2026-8-28T8:26:13Z</time></trkpt><trkpt lat="42.2336556287" lon="13.4210459422"><ele>1542.54</ele><time>2026-8-28T8:26:22Z</time></trkpt><trkpt lat="42.2335678499" lon="13.4211007479"><ele>1542.81</ele><time>2026-8-28T8:26:31Z</time></trkpt><trkpt lat="42.2335729469" lon="13.4212903865"><ele>1543.03</ele><time>2026-8-28T8:26:37Z</time></trkpt><trkpt lat="42.2335795127" lon="13.4214595892"><ele>1543.03</ele><time>2026-8-28T8:26:42Z</time></trkpt><trkpt lat="42.2335689655" lon="13.4216419654"><ele>1542.52</ele><time>2026-8-28T8:26:47Z</time></trkpt><trkpt lat="42.2335609551" lon="13.4218297172"><ele>1542.52</ele><time>2026-8-28T8:26:53Z</time></trkpt><trkpt lat="42.2335538780" lon="13.4220130043"><ele>1542.77</ele><time>2026-8-28T8:26:58Z</time></trkpt><trkpt lat="42.2335487176" lon="13.4221839365"><ele>1543.00</ele><time>2026-8-28T8:27:4Z</time></trkpt><trkpt lat="42.2335392237" lon="13.4223666787"><ele>1543.15</ele><time>2026-8-28T8:27:9Z</time></trkpt><trkpt lat="42.2335184589" lon="13.4225501921"><ele>1543.25</ele><time>2026-8-28T8:27:15Z</time></trkpt><trkpt lat="42.2335007060" lon="13.4227234796"><ele>1543.28</ele><time>2026-8-28T8:27:20Z</time></trkpt><trkpt lat="42.2334816121" lon="13.4229101613"><ele>1543.38</ele><time>2026-8-28T8:27:25Z</time></trkpt><trkpt lat="42.2334598694" lon="13.4230965413"><ele>1543.56</ele><time>2026-8-28T8:27:31Z</time></trkpt><trkpt lat="42.2334425691" lon="13.4232754782"><ele>1543.50</ele><time>2026-8-28T8:27:36Z</time></trkpt><trkpt lat="42.2334283199" lon="13.4234505761"><ele>1543.70</ele><time>2026-8-28T8:27:41Z</time></trkpt><trkpt lat="42.2334106593" lon="13.4236344835"><ele>1543.81</ele><time>2026-8-28T8:27:46Z</time></trkpt><trkpt lat="42.2333930824" lon="13.4238117188"><ele>1543.98</ele><time>2026-8-28T8:27:52Z</time></trkpt><trkpt lat="42.2333750446" lon="13.4239791557"><ele>1544.13</ele><time>2026-8-28T8:27:57Z</time></trkpt><trkpt lat="42.2333525727" lon="13.4241567319"><ele>1544.63</ele><time>2026-8-28T8:28:2Z</time></trkpt><trkpt lat="42.2333375271" lon="13.4243449615"><ele>1544.21</ele><time>2026-8-28T8:28:8Z</time></trkpt><trkpt lat="42.2333189696" lon="13.4245258234"><ele>1543.92</ele><time>2026-8-28T8:28:14Z</time></trkpt><trkpt lat="42.2332994314" lon="13.4247068781"><ele>1543.97</ele><time>2026-8-28T8:28:19Z</time></trkpt><trkpt lat="42.2332801949" lon="13.4248911738"><ele>1544.22</ele><time>2026-8-28T8:28:25Z</time></trkpt><trkpt lat="42.2332623415" lon="13.4250714490"><ele>1544.57</ele><time>2026-8-28T8:28:30Z</time></trkpt><trkpt lat="42.2332433648" lon="13.4252520986"><ele>1544.78</ele><time>2026-8-28T8:28:36Z</time></trkpt><trkpt lat="42.2332238686" lon="13.4254119415"><ele>1544.70</ele><time>2026-8-28T8:28:41Z</time></trkpt><trkpt lat="42.2332029697" lon="13.4256051108"><ele>1544.77</ele><time>2026-8-28T8:28:46Z</time></trkpt><trkpt lat="42.2331827301" lon="13.4257899821"><ele>1544.83</ele><time>2026-8-28T8:28:52Z</time></trkpt><trkpt lat="42.2331618089" lon="13.4259665720"><ele>1544.70</ele><time>2026-8-28T8:28:57Z</time></trkpt><trkpt lat="42.2331385408" lon="13.4261545446"><ele>1544.56</ele><time>2026-8-28T8:29:2Z</time></trkpt><trkpt lat="42.2331182985" lon="13.4263316752"><ele>1544.51</ele><time>2026-8-28T8:29:6Z</time></trkpt><trkpt lat="42.2331024357" lon="13.4264959395"><ele>1544.54</ele><time>2026-8-28T8:29:10Z</time></trkpt><trkpt lat="42.2330824868" lon="13.4266701783"><ele>1544.59</ele><time>2026-8-28T8:29:14Z</time></trkpt><trkpt lat="42.2330654715" lon="13.4268472460"><ele>1544.66</ele><time>2026-8-28T8:29:18Z</time></trkpt><trkpt lat="42.2330464865" lon="13.4270254453"><ele>1544.59</ele><time>2026-8-28T8:29:22Z</time></trkpt><trkpt lat="42.2330283816" lon="13.4272066620"><ele>1544.47</ele><time>2026-8-28T8:29:26Z</time></trkpt><trkpt lat="42.2330094175" lon="13.4273909801"><ele>1544.38</ele><time>2026-8-28T8:29:30Z</time></trkpt><trkpt lat="42.2329881694" lon="13.4275810188"><ele>1544.34</ele><time>2026-8-28T8:29:34Z</time></trkpt><trkpt lat="42.2329688073" lon="13.4277756885"><ele>1544.33</ele><time>2026-8-28T8:29:38Z</time></trkpt><trkpt lat="42.2329533845" lon="13.4279439412"><ele>1544.31</ele><time>2026-8-28T8:29:42Z</time></trkpt><trkpt lat="42.2329367674" lon="13.4281132696"><ele>1544.32</ele><time>2026-8-28T8:29:45Z</time></trkpt><trkpt lat="42.2329186415" lon="13.4282970638"><ele>1544.33</ele><time>2026-8-28T8:29:49Z</time></trkpt><trkpt lat="42.2329001175" lon="13.4284831002"><ele>1544.35</ele><time>2026-8-28T8:29:53Z</time></trkpt><trkpt lat="42.2328826622" lon="13.4286674601"><ele>1544.18</ele><time>2026-8-28T8:29:57Z</time></trkpt><trkpt lat="42.2328629438" lon="13.4288469167"><ele>1544.20</ele><time>2026-8-28T8:30:1Z</time></trkpt><trkpt lat="42.2328439378" lon="13.4290342732"><ele>1544.21</ele><time>2026-8-28T8:30:5Z</time></trkpt><trkpt lat="42.2328273766" lon="13.4292020369"><ele>1544.20</ele><time>2026-8-28T8:30:9Z</time></trkpt><trkpt lat="42.2328118561" lon="13.4293657984"><ele>1544.19</ele><time>2026-8-28T8:30:12Z</time></trkpt><trkpt lat="42.2327927244" lon="13.4295575973"><ele>1544.09</ele><time>2026-8-28T8:30:16Z</time></trkpt><trkpt lat="42.2327736556" lon="13.4297451004"><ele>1543.89</ele><time>2026-8-28T8:30:20Z</time></trkpt><trkpt lat="42.2327531199" lon="13.4299300471"><ele>1543.89</ele><time>2026-8-28T8:30:24Z</time></trkpt><trkpt lat="42.2327280161" lon="13.4301185981"><ele>1543.83</ele><time>2026-8-28T8:30:28Z</time></trkpt><trkpt lat="42.2327037156" lon="13.4302850626"><ele>1543.77</ele><time>2026-8-28T8:30:32Z</time></trkpt><trkpt lat="42.2326735128" lon="13.4304435644"><ele>1543.79</ele><time>2026-8-28T8:30:35Z</time></trkpt><trkpt lat="42.2326225299" lon="13.4306198987"><ele>1543.80</ele><time>2026-8-28T8:30:39Z</time></trkpt><trkpt lat="42.2325566271" lon="13.4307850641"><ele>1543.75</ele><time>2026-8-28T8:30:43Z</time></trkpt><trkpt lat="42.2324851714" lon="13.4309369652"><ele>1543.58</ele><time>2026-8-28T8:30:47Z</time></trkpt><trkpt lat="42.2324134852" lon="13.4310807567"><ele>1543.51</ele><time>2026-8-28T8:30:51Z</time></trkpt><trkpt lat="42.2323367950" lon="13.4312439691"><ele>1543.62</ele><time>2026-8-28T8:30:56Z</time></trkpt><trkpt lat="42.2322642664" lon="13.4314018884"><ele>1543.75</ele><time>2026-8-28T8:31:0Z</time></trkpt><trkpt lat="42.2321742531" lon="13.4315323904"><ele>1543.72</ele><time>2026-8-28T8:31:5Z</time></trkpt><trkpt lat="42.2320699990" lon="13.4316438194"><ele>1543.83</ele><time>2026-8-28T8:31:10Z</time></trkpt><trkpt lat="42.2319785692" lon="13.4317572601"><ele>1544.06</ele><time>2026-8-28T8:31:15Z</time></trkpt><trkpt lat="42.2318990040" lon="13.4319181717"><ele>1543.96</ele><time>2026-8-28T8:31:20Z</time></trkpt><trkpt lat="42.2318252432" lon="13.4320644359"><ele>1543.95</ele><time>2026-8-28T8:31:24Z</time></trkpt><trkpt lat="42.2317464743" lon="13.4322187677"><ele>1543.84</ele><time>2026-8-28T8:31:28Z</time></trkpt><trkpt lat="42.2316650650" lon="13.4323738748"><ele>1543.79</ele><time>2026-8-28T8:31:32Z</time></trkpt><trkpt lat="42.2315863590" lon="13.4325260273"><ele>1543.70</ele><time>2026-8-28T8:31:36Z</time></trkpt><trkpt lat="42.2315170057" lon="13.4326591529"><ele>1543.65</ele><time>2026-8-28T8:31:40Z</time></trkpt><trkpt lat="42.2314495035" lon="13.4327963647"><ele>1543.56</ele><time>2026-8-28T8:31:43Z</time></trkpt><trkpt lat="42.2313692048" lon="13.4329578630"><ele>1543.46</ele><time>2026-8-28T8:31:47Z</time></trkpt><trkpt lat="42.2312878794" lon="13.4331187117"><ele>1543.25</ele><time>2026-8-28T8:31:51Z</time></trkpt><trkpt lat="42.2312120721" lon="13.4332591575"><ele>1543.14</ele><time>2026-8-28T8:31:55Z</time></trkpt><trkpt lat="42.2311310330" lon="13.4333890071"><ele>1543.17</ele><time>2026-8-28T8:31:58Z</time></trkpt><trkpt lat="42.2310509649" lon="13.4335379745"><ele>1543.11</ele><time>2026-8-28T8:32:2Z</time></trkpt><trkpt lat="42.2309689270" lon="13.4336847207"><ele>1543.08</ele><time>2026-8-28T8:32:6Z</time></trkpt><trkpt lat="42.2308820276" lon="13.4338380676"><ele>1542.94</ele><time>2026-8-28T8:32:10Z</time></trkpt><trkpt lat="42.2307910421" lon="13.4339908278"><ele>1542.80</ele><time>2026-8-28T8:32:14Z</time></trkpt><trkpt lat="42.2307146341" lon="13.4341259580"><ele>1542.64</ele><time>2026-8-28T8:32:18Z</time></trkpt><trkpt lat="42.2306332528" lon="13.4342773212"><ele>1542.54</ele><time>2026-8-28T8:32:21Z</time></trkpt><trkpt lat="42.2305561602" lon="13.4344273992"><ele>1542.35</ele><time>2026-8-28T8:32:25Z</time></trkpt><trkpt lat="42.2304789210" lon="13.4345742711"><ele>1542.12</ele><time>2026-8-28T8:32:28Z</time></trkpt><trkpt lat="42.2303991392" lon="13.4347241744"><ele>1541.79</ele><time>2026-8-28T8:32:32Z</time></trkpt><trkpt lat="42.2303300723" lon="13.4348567761"><ele>1541.69</ele><time>2026-8-28T8:32:35Z</time></trkpt><trkpt lat="42.2302560671" lon="13.4350095224"><ele>1541.57</ele><time>2026-8-28T8:32:38Z</time></trkpt><trkpt lat="42.2301814682" lon="13.4351702663"><ele>1541.43</ele><time>2026-8-28T8:32:42Z</time></trkpt><trkpt lat="42.2301050252" lon="13.4353173897"><ele>1541.33</ele><time>2026-8-28T8:32:46Z</time></trkpt><trkpt lat="42.2300179792" lon="13.4354606574"><ele>1541.18</ele><time>2026-8-28T8:32:50Z</time></trkpt><trkpt lat="42.2299337410" lon="13.4356007399"><ele>1541.13</ele><time>2026-8-28T8:32:54Z</time></trkpt><trkpt lat="42.2298545740" lon="13.4357484500"><ele>1541.12</ele><time>2026-8-28T8:32:58Z</time></trkpt><trkpt lat="42.2297772509" lon="13.4358978574"><ele>1541.15</ele><time>2026-8-28T8:33:2Z</time></trkpt><trkpt lat="42.2296939977" lon="13.4360459866"><ele>1541.11</ele><time>2026-8-28T8:33:6Z</time></trkpt><trkpt lat="42.2296102834" lon="13.4361921041"><ele>1540.81</ele><time>2026-8-28T8:33:10Z</time></trkpt><trkpt lat="42.2295285179" lon="13.4363357699"><ele>1540.53</ele><time>2026-8-28T8:33:14Z</time></trkpt><trkpt lat="42.2294441750" lon="13.4364827466"><ele>1540.34</ele><time>2026-8-28T8:33:18Z</time></trkpt><trkpt lat="42.2293577157" lon="13.4366304986"><ele>1540.34</ele><time>2026-8-28T8:33:22Z</time></trkpt><trkpt lat="42.2292660596" lon="13.4367884975"><ele>1540.22</ele><time>2026-8-28T8:33:27Z</time></trkpt><trkpt lat="42.2292343900" lon="13.4368440255"><ele>1540.05</ele><time>2026-8-28T8:34:20Z</time></trkpt><trkpt lat="42.2291922430" lon="13.4368993342"><ele>1540.12</ele><time>2026-8-28T8:35:12Z</time></trkpt><trkpt lat="42.2290954460" lon="13.4370507840"><ele>1540.31</ele><time>2026-8-28T8:35:18Z</time></trkpt><trkpt lat="42.2290124092" lon="13.4371889569"><ele>1540.11</ele><time>2026-8-28T8:35:22Z</time></trkpt><trkpt lat="42.2289418685" lon="13.4373193863"><ele>1539.81</ele><time>2026-8-28T8:35:25Z</time></trkpt><trkpt lat="42.2288571987" lon="13.4374854192"><ele>1539.26</ele><time>2026-8-28T8:35:30Z</time></trkpt><trkpt lat="42.2287765565" lon="13.4376425925"><ele>1539.01</ele><time>2026-8-28T8:35:34Z</time></trkpt><trkpt lat="42.2286994848" lon="13.4377809777"><ele>1538.89</ele><time>2026-8-28T8:35:38Z</time></trkpt><trkpt lat="42.2286211769" lon="13.4379216889"><ele>1538.68</ele><time>2026-8-28T8:35:42Z</time></trkpt><trkpt lat="42.2285486315" lon="13.4380627563"><ele>1538.37</ele><time>2026-8-28T8:35:46Z</time></trkpt><trkpt lat="42.2284661117" lon="13.4382166271"><ele>1538.29</ele><time>2026-8-28T8:35:50Z</time></trkpt><trkpt lat="42.2283819155" lon="13.4383708961"><ele>1538.21</ele><time>2026-8-28T8:35:54Z</time></trkpt><trkpt lat="42.2282975097" lon="13.4385237819"><ele>1537.93</ele><time>2026-8-28T8:35:58Z</time></trkpt><trkpt lat="42.2282161215" lon="13.4386786167"><ele>1537.62</ele><time>2026-8-28T8:36:2Z</time></trkpt><trkpt lat="42.2281475365" lon="13.4388160799"><ele>1537.50</ele><time>2026-8-28T8:36:6Z</time></trkpt><trkpt lat="42.2280816548" lon="13.4389557224"><ele>1537.33</ele><time>2026-8-28T8:36:9Z</time></trkpt><trkpt lat="42.2280073702" lon="13.4391136793"><ele>1537.20</ele><time>2026-8-28T8:36:13Z</time></trkpt><trkpt lat="42.2279323102" lon="13.4392689122"><ele>1537.07</ele><time>2026-8-28T8:36:17Z</time></trkpt><trkpt lat="42.2278525564" lon="13.4394302219"><ele>1536.92</ele><time>2026-8-28T8:36:21Z</time></trkpt><trkpt lat="42.2277823649" lon="13.4395749215"><ele>1536.74</ele><time>2026-8-28T8:36:25Z</time></trkpt><trkpt lat="42.2277144645" lon="13.4397196491"><ele>1536.60</ele><time>2026-8-28T8:36:28Z</time></trkpt><trkpt lat="42.2276404523" lon="13.4398819017"><ele>1536.40</ele><time>2026-8-28T8:36:32Z</time></trkpt><trkpt lat="42.2275762050" lon="13.4400476329"><ele>1536.12</ele><time>2026-8-28T8:36:36Z</time></trkpt><trkpt lat="42.2275031693" lon="13.4402070735"><ele>1535.87</ele><time>2026-8-28T8:36:41Z</time></trkpt><trkpt lat="42.2274204064" lon="13.4403406503"><ele>1535.65</ele><time>2026-8-28T8:36:46Z</time></trkpt><trkpt lat="42.2273194185" lon="13.4404695081"><ele>1535.56</ele><time>2026-8-28T8:36:52Z</time></trkpt><trkpt lat="42.2271926841" lon="13.4405357391"><ele>1535.31</ele><time>2026-8-28T8:36:58Z</time></trkpt><trkpt lat="42.2270584898" lon="13.4405488288"><ele>1534.85</ele><time>2026-8-28T8:37:4Z</time></trkpt><trkpt lat="42.2269282809" lon="13.4405683407"><ele>1534.94</ele><time>2026-8-28T8:37:11Z</time></trkpt><trkpt lat="42.2267953679" lon="13.4405398422"><ele>1535.24</ele><time>2026-8-28T8:37:18Z</time></trkpt><trkpt lat="42.2266670290" lon="13.4404887365"><ele>1535.40</ele><time>2026-8-28T8:37:25Z</time></trkpt><trkpt lat="42.2265372682" lon="13.4404403460"><ele>1535.58</ele><time>2026-8-28T8:37:32Z</time></trkpt><trkpt lat="42.2264101566" lon="13.4404431435"><ele>1536.19</ele><time>2026-8-28T8:37:40Z</time></trkpt><trkpt lat="42.2262821859" lon="13.4404462902"><ele>1536.58</ele><time>2026-8-28T8:37:47Z</time></trkpt><trkpt lat="42.2261611332" lon="13.4403768501"><ele>1536.51</ele><time>2026-8-28T8:37:54Z</time></trkpt><trkpt lat="42.2260419905" lon="13.4402945518"><ele>1536.02</ele><time>2026-8-28T8:38:1Z</time></trkpt><trkpt lat="42.2259035334" lon="13.4402733296"><ele>1536.12</ele><time>2026-8-28T8:38:9Z</time></trkpt><trkpt lat="42.2257572133" lon="13.4402541537"><ele>1536.91</ele><time>2026-8-28T8:38:18Z</time></trkpt><trkpt lat="42.2256333940" lon="13.4401886165"><ele>1537.14</ele><time>2026-8-28T8:38:27Z</time></trkpt><trkpt lat="42.2255137749" lon="13.4401101153"><ele>1536.93</ele><time>2026-8-28T8:38:36Z</time></trkpt><trkpt lat="42.2254016670" lon="13.4400090929"><ele>1536.86</ele><time>2026-8-28T8:38:45Z</time></trkpt><trkpt lat="42.2253100737" lon="13.4398719063"><ele>1536.92</ele><time>2026-8-28T8:38:54Z</time></trkpt><trkpt lat="42.2252192684" lon="13.4397445517"><ele>1536.04</ele><time>2026-8-28T8:39:3Z</time></trkpt><trkpt lat="42.2251319233" lon="13.4395979066"><ele>1536.52</ele><time>2026-8-28T8:39:13Z</time></trkpt><trkpt lat="42.2250688262" lon="13.4394456633"><ele>1536.66</ele><time>2026-8-28T8:39:22Z</time></trkpt><trkpt lat="42.2250117362" lon="13.4392942023"><ele>1536.57</ele><time>2026-8-28T8:39:31Z</time></trkpt><trkpt lat="42.2249094277" lon="13.4391815668"><ele>1536.85</ele><time>2026-8-28T8:39:39Z</time></trkpt><trkpt lat="42.2247985351" lon="13.4390698001"><ele>1537.16</ele><time>2026-8-28T8:39:46Z</time></trkpt><trkpt lat="42.2246813202" lon="13.4389826642"><ele>1537.07</ele><time>2026-8-28T8:39:53Z</time></trkpt><trkpt lat="42.2245720321" lon="13.4388794111"><ele>1537.36</ele><time>2026-8-28T8:40:0Z</time></trkpt><trkpt lat="42.2244539192" lon="13.4387740626"><ele>1538.30</ele><time>2026-8-28T8:40:7Z</time></trkpt><trkpt lat="42.2243525740" lon="13.4386576200"><ele>1538.14</ele><time>2026-8-28T8:40:13Z</time></trkpt><trkpt lat="42.2242754139" lon="13.4385108948"><ele>1537.84</ele><time>2026-8-28T8:40:21Z</time></trkpt><trkpt lat="42.2241944726" lon="13.4383698646"><ele>1538.15</ele><time>2026-8-28T8:40:30Z</time></trkpt><trkpt lat="42.2241265471" lon="13.4382162861"><ele>1538.36</ele><time>2026-8-28T8:40:40Z</time></trkpt><trkpt lat="42.2240464542" lon="13.4380757902"><ele>1538.62</ele><time>2026-8-28T8:40:51Z</time></trkpt><trkpt lat="42.2239523406" lon="13.4379520352"><ele>1538.99</ele><time>2026-8-28T8:41:2Z</time></trkpt><trkpt lat="42.2238301775" lon="13.4379605390"><ele>1539.97</ele><time>2026-8-28T8:41:12Z</time></trkpt><trkpt lat="42.2237012442" lon="13.4380085766"><ele>1540.65</ele><time>2026-8-28T8:41:22Z</time></trkpt><trkpt lat="42.2235807590" lon="13.4379417356"><ele>1540.50</ele><time>2026-8-28T8:41:31Z</time></trkpt><trkpt lat="42.2234758304" lon="13.4378370841"><ele>1540.33</ele><time>2026-8-28T8:41:39Z</time></trkpt><trkpt lat="42.2233864106" lon="13.4377048165"><ele>1540.17</ele><time>2026-8-28T8:41:48Z</time></trkpt><trkpt lat="42.2233033460" lon="13.4375660587"><ele>1540.44</ele><time>2026-8-28T8:41:57Z</time></trkpt><trkpt lat="42.2232112326" lon="13.4374303417"><ele>1540.77</ele><time>2026-8-28T8:42:6Z</time></trkpt><trkpt lat="42.2231008019" lon="13.4373356588"><ele>1540.99</ele><time>2026-8-28T8:42:16Z</time></trkpt><trkpt lat="42.2229815461" lon="13.4372697864"><ele>1541.48</ele><time>2026-8-28T8:42:25Z</time></trkpt><trkpt lat="42.2228540108" lon="13.4372017439"><ele>1541.74</ele><time>2026-8-28T8:42:34Z</time></trkpt><trkpt lat="42.2227275674" lon="13.4371180215"><ele>1541.92</ele><time>2026-8-28T8:42:42Z</time></trkpt><trkpt lat="42.2226211068" lon="13.4370020893"><ele>1541.99</ele><time>2026-8-28T8:42:50Z</time></trkpt><trkpt lat="42.2225517899" lon="13.4368527627"><ele>1541.64</ele><time>2026-8-28T8:42:58Z</time></trkpt><trkpt lat="42.2224338655" lon="13.4367785964"><ele>1541.57</ele><time>2026-8-28T8:43:5Z</time></trkpt><trkpt lat="42.2223047319" lon="13.4367276030"><ele>1541.91</ele><time>2026-8-28T8:43:13Z</time></trkpt><trkpt lat="42.2221927717" lon="13.4366390482"><ele>1542.32</ele><time>2026-8-28T8:43:22Z</time></trkpt><trkpt lat="42.2220755741" lon="13.4365429729"><ele>1542.41</ele><time>2026-8-28T8:43:31Z</time></trkpt><trkpt lat="42.2219664697" lon="13.4364368767"><ele>1542.78</ele><time>2026-8-28T8:43:40Z</time></trkpt><trkpt lat="42.2218620405" lon="13.4363179747"><ele>1543.12</ele><time>2026-8-28T8:43:49Z</time></trkpt><trkpt lat="42.2217539989" lon="13.4362177528"><ele>1543.46</ele><time>2026-8-28T8:43:57Z</time></trkpt><trkpt lat="42.2216446418" lon="13.4361232072"><ele>1543.97</ele><time>2026-8-28T8:44:6Z</time></trkpt><trkpt lat="42.2215396108" lon="13.4360100282"><ele>1544.44</ele><time>2026-8-28T8:44:14Z</time></trkpt><trkpt lat="42.2214420768" lon="13.4358907223"><ele>1544.99</ele><time>2026-8-28T8:44:22Z</time></trkpt><trkpt lat="42.2213424475" lon="13.4357643232"><ele>1545.19</ele><time>2026-8-28T8:44:30Z</time></trkpt><trkpt lat="42.2212471452" lon="13.4356315329"><ele>1545.37</ele><time>2026-8-28T8:44:38Z</time></trkpt><trkpt lat="42.2211581562" lon="13.4354872350"><ele>1545.87</ele><time>2026-8-28T8:44:47Z</time></trkpt><trkpt lat="42.2210739541" lon="13.4353462444"><ele>1546.50</ele><time>2026-8-28T8:44:55Z</time></trkpt><trkpt lat="42.2209854052" lon="13.4352231305"><ele>1547.08</ele><time>2026-8-28T8:45:4Z</time></trkpt><trkpt lat="42.2209090739" lon="13.4350730944"><ele>1547.75</ele><time>2026-8-28T8:45:13Z</time></trkpt><trkpt lat="42.2208261369" lon="13.4349213866"><ele>1548.55</ele><time>2026-8-28T8:45:22Z</time></trkpt><trkpt lat="42.2207446396" lon="13.4347774182"><ele>1548.95</ele><time>2026-8-28T8:45:32Z</time></trkpt><trkpt lat="42.2206666041" lon="13.4346310040"><ele>1549.27</ele><time>2026-8-28T8:45:41Z</time></trkpt><trkpt lat="42.2205901612" lon="13.4344775789"><ele>1549.87</ele><time>2026-8-28T8:45:51Z</time></trkpt><trkpt lat="42.2205155622" lon="13.4343346860"><ele>1550.51</ele><time>2026-8-28T8:46:0Z</time></trkpt><trkpt lat="42.2204542448" lon="13.4341730008"><ele>1550.82</ele><time>2026-8-28T8:46:10Z</time></trkpt><trkpt lat="42.2204048838" lon="13.4340050071"><ele>1551.40</ele><time>2026-8-28T8:46:20Z</time></trkpt><trkpt lat="42.2203346503" lon="13.4338495736"><ele>1552.27</ele><time>2026-8-28T8:46:30Z</time></trkpt><trkpt lat="42.2202655049" lon="13.4336904371"><ele>1552.59</ele><time>2026-8-28T8:46:40Z</time></trkpt><trkpt lat="42.2202022238" lon="13.4335400833"><ele>1553.34</ele><time>2026-8-28T8:46:51Z</time></trkpt><trkpt lat="42.2201390319" lon="13.4333838675"><ele>1554.30</ele><time>2026-8-28T8:47:2Z</time></trkpt><trkpt lat="42.2200629318" lon="13.4332347458"><ele>1555.69</ele><time>2026-8-28T8:47:13Z</time></trkpt><trkpt lat="42.2199605629" lon="13.4331126977"><ele>1556.58</ele><time>2026-8-28T8:47:23Z</time></trkpt><trkpt lat="42.2198692588" lon="13.4329828369"><ele>1557.54</ele><time>2026-8-28T8:47:33Z</time></trkpt><trkpt lat="42.2197857988" lon="13.4328386234"><ele>1558.18</ele><time>2026-8-28T8:47:44Z</time></trkpt><trkpt lat="42.2197056441" lon="13.4326921273"><ele>1558.87</ele><time>2026-8-28T8:47:55Z</time></trkpt><trkpt lat="42.2196267757" lon="13.4325527104"><ele>1559.29</ele><time>2026-8-28T8:48:6Z</time></trkpt><trkpt lat="42.2195277214" lon="13.4324244596"><ele>1559.58</ele><time>2026-8-28T8:48:16Z</time></trkpt><trkpt lat="42.2194303420" lon="13.4323000646"><ele>1560.37</ele><time>2026-8-28T8:48:27Z</time></trkpt><trkpt lat="42.2193404278" lon="13.4321651738"><ele>1561.53</ele><time>2026-8-28T8:48:37Z</time></trkpt><trkpt lat="42.2192539181" lon="13.4320289633"><ele>1562.08</ele><time>2026-8-28T8:48:48Z</time></trkpt><trkpt lat="42.2191746002" lon="13.4318808010"><ele>1562.13</ele><time>2026-8-28T8:48:58Z</time></trkpt><trkpt lat="42.2191000950" lon="13.4317418755"><ele>1563.01</ele><time>2026-8-28T8:49:9Z</time></trkpt><trkpt lat="42.2190073073" lon="13.4316058144"><ele>1563.31</ele><time>2026-8-28T8:49:20Z</time></trkpt><trkpt lat="42.2189133614" lon="13.4314631811"><ele>1564.51</ele><time>2026-8-28T8:49:30Z</time></trkpt><trkpt lat="42.2188263420" lon="13.4313316042"><ele>1565.77</ele><time>2026-8-28T8:49:41Z</time></trkpt><trkpt lat="42.2187299905" lon="13.4312198544"><ele>1566.53</ele><time>2026-8-28T8:49:51Z</time></trkpt><trkpt lat="42.2186438497" lon="13.4310875628"><ele>1567.35</ele><time>2026-8-28T8:50:1Z</time></trkpt><trkpt lat="42.2185809656" lon="13.4309200833"><ele>1568.31</ele><time>2026-8-28T8:50:12Z</time></trkpt><trkpt lat="42.2184957674" lon="13.4307877101"><ele>1569.14</ele><time>2026-8-28T8:50:23Z</time></trkpt><trkpt lat="42.2183895763" lon="13.4306786158"><ele>1569.89</ele><time>2026-8-28T8:50:34Z</time></trkpt><trkpt lat="42.2182796057" lon="13.4305739487"><ele>1570.84</ele><time>2026-8-28T8:50:45Z</time></trkpt><trkpt lat="42.2181639522" lon="13.4304847531"><ele>1571.58</ele><time>2026-8-28T8:50:55Z</time></trkpt><trkpt lat="42.2180486592" lon="13.4303867016"><ele>1572.16</ele><time>2026-8-28T8:51:5Z</time></trkpt><trkpt lat="42.2179389423" lon="13.4302895660"><ele>1573.17</ele><time>2026-8-28T8:51:16Z</time></trkpt><trkpt lat="42.2178202495" lon="13.4301932668"><ele>1573.97</ele><time>2026-8-28T8:51:27Z</time></trkpt><trkpt lat="42.2177091083" lon="13.4300913233"><ele>1574.60</ele><time>2026-8-28T8:51:38Z</time></trkpt><trkpt lat="42.2175989342" lon="13.4300011371"><ele>1575.24</ele><time>2026-8-28T8:51:49Z</time></trkpt><trkpt lat="42.2174815368" lon="13.4299048944"><ele>1575.61</ele><time>2026-8-28T8:52:0Z</time></trkpt><trkpt lat="42.2173727928" lon="13.4297994487"><ele>1575.86</ele><time>2026-8-28T8:52:11Z</time></trkpt><trkpt lat="42.2172652583" lon="13.4296883473"><ele>1576.49</ele><time>2026-8-28T8:52:22Z</time></trkpt><trkpt lat="42.2171539748" lon="13.4295870429"><ele>1576.61</ele><time>2026-8-28T8:52:32Z</time></trkpt><trkpt lat="42.2170395618" lon="13.4294900140"><ele>1576.63</ele><time>2026-8-28T8:52:42Z</time></trkpt><trkpt lat="42.2169291211" lon="13.4293882676"><ele>1577.50</ele><time>2026-8-28T8:52:53Z</time></trkpt><trkpt lat="42.2168242936" lon="13.4292872515"><ele>1578.32</ele><time>2026-8-28T8:53:8Z</time></trkpt><trkpt lat="42.2167261038" lon="13.4291908387"><ele>1578.58</ele><time>2026-8-28T8:53:23Z</time></trkpt><trkpt lat="42.2166117914" lon="13.4290798456"><ele>1579.03</ele><time>2026-8-28T8:53:33Z</time></trkpt><trkpt lat="42.2165070847" lon="13.4289685357"><ele>1579.66</ele><time>2026-8-28T8:53:43Z</time></trkpt><trkpt lat="42.2164083458" lon="13.4288534615"><ele>1580.31</ele><time>2026-8-28T8:53:52Z</time></trkpt><trkpt lat="42.2162985010" lon="13.4287382914"><ele>1580.54</ele><time>2026-8-28T8:54:1Z</time></trkpt><trkpt lat="42.2161863931" lon="13.4286328303"><ele>1580.73</ele><time>2026-8-28T8:54:11Z</time></trkpt><trkpt lat="42.2160783839" lon="13.4285304788"><ele>1581.50</ele><time>2026-8-28T8:54:21Z</time></trkpt><trkpt lat="42.2159664824" lon="13.4284402286"><ele>1582.36</ele><time>2026-8-28T8:54:32Z</time></trkpt><trkpt lat="42.2158491402" lon="13.4283522936"><ele>1583.51</ele><time>2026-8-28T8:54:43Z</time></trkpt><trkpt lat="42.2157337017" lon="13.4282518034"><ele>1583.81</ele><time>2026-8-28T8:54:55Z</time></trkpt><trkpt lat="42.2156199347" lon="13.4281613957"><ele>1584.58</ele><time>2026-8-28T8:55:5Z</time></trkpt><trkpt lat="42.2155083962" lon="13.4280612218"><ele>1585.18</ele><time>2026-8-28T8:55:15Z</time></trkpt><trkpt lat="42.2153947293" lon="13.4279799136"><ele>1586.09</ele><time>2026-8-28T8:55:26Z</time></trkpt><trkpt lat="42.2152812229" lon="13.4278934961"><ele>1587.62</ele><time>2026-8-28T8:55:37Z</time></trkpt><trkpt lat="42.2151568439" lon="13.4278107248"><ele>1588.18</ele><time>2026-8-28T8:55:48Z</time></trkpt><trkpt lat="42.2150591676" lon="13.4277856282"><ele>1590.71</ele><time>2026-8-28T8:56:43Z</time></trkpt><trkpt lat="42.2149435200" lon="13.4277748238"><ele>1591.05</ele><time>2026-8-28T8:57:42Z</time></trkpt><trkpt lat="42.2148093767" lon="13.4278183850"><ele>1593.68</ele><time>2026-8-28T8:58:0Z</time></trkpt><trkpt lat="42.2147039417" lon="13.4278976079"><ele>1596.62</ele><time>2026-8-28T8:58:18Z</time></trkpt><trkpt lat="42.2145926692" lon="13.4280087389"><ele>1598.36</ele><time>2026-8-28T8:58:35Z</time></trkpt><trkpt lat="42.2144735564" lon="13.4280926868"><ele>1599.55</ele><time>2026-8-28T8:58:50Z</time></trkpt><trkpt lat="42.2144181532" lon="13.4281331122"><ele>1601.45</ele><time>2026-8-28T8:59:18Z</time></trkpt><trkpt lat="42.2142819022" lon="13.4281745381"><ele>1601.22</ele><time>2026-8-28T8:59:44Z</time></trkpt><trkpt lat="42.2141537815" lon="13.4282360959"><ele>1602.15</ele><time>2026-8-28T8:59:58Z</time></trkpt><trkpt lat="42.2140298132" lon="13.4282809792"><ele>1604.37</ele><time>2026-8-28T9:0:15Z</time></trkpt><trkpt lat="42.2139058392" lon="13.4282736462"><ele>1606.37</ele><time>2026-8-28T9:0:31Z</time></trkpt><trkpt lat="42.2137787632" lon="13.4282160617"><ele>1607.31</ele><time>2026-8-28T9:0:45Z</time></trkpt><trkpt lat="42.2136422130" lon="13.4281855426"><ele>1607.04</ele><time>2026-8-28T9:0:58Z</time></trkpt><trkpt lat="42.2135050334" lon="13.4281708505"><ele>1606.67</ele><time>2026-8-28T9:1:12Z</time></trkpt><trkpt lat="42.2133666265" lon="13.4281464096"><ele>1607.31</ele><time>2026-8-28T9:1:27Z</time></trkpt><trkpt lat="42.2132369510" lon="13.4280725934"><ele>1608.35</ele><time>2026-8-28T9:1:42Z</time></trkpt><trkpt lat="42.2131280289" lon="13.4279735260"><ele>1609.69</ele><time>2026-8-28T9:1:58Z</time></trkpt><trkpt lat="42.2130527924" lon="13.4278287826"><ele>1610.68</ele><time>2026-8-28T9:2:14Z</time></trkpt><trkpt lat="42.2129609726" lon="13.4277339811"><ele>1611.38</ele><time>2026-8-28T9:2:31Z</time></trkpt><trkpt lat="42.2128276754" lon="13.4276847815"><ele>1612.47</ele><time>2026-8-28T9:2:47Z</time></trkpt><trkpt lat="42.2126900498" lon="13.4276492055"><ele>1614.59</ele><time>2026-8-28T9:3:6Z</time></trkpt><trkpt lat="42.2125621774" lon="13.4276596862"><ele>1617.94</ele><time>2026-8-28T9:3:29Z</time></trkpt><trkpt lat="42.2124270341" lon="13.4276755792"><ele>1621.08</ele><time>2026-8-28T9:3:52Z</time></trkpt><trkpt lat="42.2123200661" lon="13.4277614392"><ele>1622.70</ele><time>2026-8-28T9:4:9Z</time></trkpt><trkpt lat="42.2122295158" lon="13.4278886120"><ele>1623.48</ele><time>2026-8-28T9:4:22Z</time></trkpt><trkpt lat="42.2121489464" lon="13.4280320780"><ele>1622.38</ele><time>2026-8-28T9:4:35Z</time></trkpt><trkpt lat="42.2120939917" lon="13.4281951399"><ele>1620.99</ele><time>2026-8-28T9:4:47Z</time></trkpt><trkpt lat="42.2120008059" lon="13.4283216507"><ele>1620.65</ele><time>2026-8-28T9:4:59Z</time></trkpt><trkpt lat="42.2119024512" lon="13.4284399543"><ele>1619.89</ele><time>2026-8-28T9:5:11Z</time></trkpt><trkpt lat="42.2118071071" lon="13.4285771451"><ele>1619.03</ele><time>2026-8-28T9:5:23Z</time></trkpt><trkpt lat="42.2117274441" lon="13.4286742378"><ele>1617.52</ele><time>2026-8-28T9:5:38Z</time></trkpt><trkpt lat="42.2116970271" lon="13.4288601391"><ele>1617.53</ele><time>2026-8-28T9:5:52Z</time></trkpt><trkpt lat="42.2116571479" lon="13.4290309204"><ele>1618.14</ele><time>2026-8-28T9:6:0Z</time></trkpt><trkpt lat="42.2116314899" lon="13.4292095061"><ele>1618.69</ele><time>2026-8-28T9:6:9Z</time></trkpt><trkpt lat="42.2116315831" lon="13.4293901792"><ele>1619.23</ele><time>2026-8-28T9:6:17Z</time></trkpt><trkpt lat="42.2116551455" lon="13.4295698628"><ele>1619.85</ele><time>2026-8-28T9:6:26Z</time></trkpt><trkpt lat="42.2116871551" lon="13.4297535196"><ele>1620.30</ele><time>2026-8-28T9:6:35Z</time></trkpt><trkpt lat="42.2117142181" lon="13.4299259714"><ele>1620.80</ele><time>2026-8-28T9:6:43Z</time></trkpt><trkpt lat="42.2117370106" lon="13.4301049775"><ele>1621.33</ele><time>2026-8-28T9:6:52Z</time></trkpt><trkpt lat="42.2117687634" lon="13.4302752244"><ele>1622.05</ele><time>2026-8-28T9:7:1Z</time></trkpt><trkpt lat="42.2117992127" lon="13.4304490546"><ele>1622.67</ele><time>2026-8-28T9:7:10Z</time></trkpt><trkpt lat="42.2118250746" lon="13.4306340758"><ele>1623.20</ele><time>2026-8-28T9:7:20Z</time></trkpt><trkpt lat="42.2118430212" lon="13.4308097791"><ele>1623.69</ele><time>2026-8-28T9:7:29Z</time></trkpt><trkpt lat="42.2118590213" lon="13.4309818223"><ele>1624.30</ele><time>2026-8-28T9:7:38Z</time></trkpt><trkpt lat="42.2118754778" lon="13.4311627690"><ele>1624.67</ele><time>2026-8-28T9:7:47Z</time></trkpt><trkpt lat="42.2118848171" lon="13.4313506791"><ele>1624.95</ele><time>2026-8-28T9:7:56Z</time></trkpt><trkpt lat="42.2118939366" lon="13.4315379057"><ele>1625.36</ele><time>2026-8-28T9:8:6Z</time></trkpt><trkpt lat="42.2119140346" lon="13.4317070246"><ele>1625.73</ele><time>2026-8-28T9:8:15Z</time></trkpt><trkpt lat="42.2119282941" lon="13.4318880597"><ele>1626.08</ele><time>2026-8-28T9:8:24Z</time></trkpt><trkpt lat="42.2119276822" lon="13.4320672899"><ele>1626.44</ele><time>2026-8-28T9:8:34Z</time></trkpt><trkpt lat="42.2118835736" lon="13.4322354629"><ele>1627.73</ele><time>2026-8-28T9:8:45Z</time></trkpt><trkpt lat="42.2118082652" lon="13.4323838158"><ele>1628.72</ele><time>2026-8-28T9:8:55Z</time></trkpt><trkpt lat="42.2117357015" lon="13.4325376839"><ele>1629.25</ele><time>2026-8-28T9:9:6Z</time></trkpt><trkpt lat="42.2116644782" lon="13.4326985859"><ele>1630.70</ele><time>2026-8-28T9:9:17Z</time></trkpt><trkpt lat="42.2116086191" lon="13.4328798164"><ele>1633.13</ele><time>2026-8-28T9:9:39Z</time></trkpt><trkpt lat="42.2115873562" lon="13.4329716303"><ele>1633.69</ele><time>2026-8-28T9:10:5Z</time></trkpt><trkpt lat="42.2115224758" lon="13.4331571385"><ele>1634.22</ele><time>2026-8-28T9:10:18Z</time></trkpt><trkpt lat="42.2114623448" lon="13.4333117221"><ele>1635.14</ele><time>2026-8-28T9:10:29Z</time></trkpt><trkpt lat="42.2113921578" lon="13.4334669702"><ele>1636.07</ele><time>2026-8-28T9:10:40Z</time></trkpt><trkpt lat="42.2113211021" lon="13.4336233156"><ele>1637.32</ele><time>2026-8-28T9:10:51Z</time></trkpt><trkpt lat="42.2112587770" lon="13.4337836411"><ele>1638.34</ele><time>2026-8-28T9:11:2Z</time></trkpt><trkpt lat="42.2111740912" lon="13.4339570195"><ele>1640.35</ele><time>2026-8-28T9:11:25Z</time></trkpt><trkpt lat="42.2111618513" lon="13.4339827897"><ele>1641.05</ele><time>2026-8-28T9:12:28Z</time></trkpt><trkpt lat="42.2110846334" lon="13.4340383189"><ele>1641.22</ele><time>2026-8-28T9:13:20Z</time></trkpt><trkpt lat="42.2109620290" lon="13.4340821715"><ele>1642.40</ele><time>2026-8-28T9:13:31Z</time></trkpt><trkpt lat="42.2108294273" lon="13.4341311522"><ele>1643.52</ele><time>2026-8-28T9:13:42Z</time></trkpt><trkpt lat="42.2107055275" lon="13.4341827391"><ele>1644.89</ele><time>2026-8-28T9:13:53Z</time></trkpt><trkpt lat="42.2105804784" lon="13.4342335328"><ele>1646.16</ele><time>2026-8-28T9:14:4Z</time></trkpt><trkpt lat="42.2104517692" lon="13.4342982036"><ele>1646.81</ele><time>2026-8-28T9:14:16Z</time></trkpt><trkpt lat="42.2103291121" lon="13.4343697806"><ele>1648.30</ele><time>2026-8-28T9:14:27Z</time></trkpt><trkpt lat="42.2102135955" lon="13.4344630852"><ele>1649.01</ele><time>2026-8-28T9:14:39Z</time></trkpt><trkpt lat="42.2101172805" lon="13.4345863410"><ele>1650.11</ele><time>2026-8-28T9:14:51Z</time></trkpt><trkpt lat="42.2100105858" lon="13.4346913872"><ele>1651.74</ele><time>2026-8-28T9:15:3Z</time></trkpt><trkpt lat="42.2099033032" lon="13.4347708743"><ele>1653.45</ele><time>2026-8-28T9:15:15Z</time></trkpt><trkpt lat="42.2098131920" lon="13.4348894027"><ele>1655.16</ele><time>2026-8-28T9:15:26Z</time></trkpt><trkpt lat="42.2097662408" lon="13.4350410635"><ele>1657.00</ele><time>2026-8-28T9:15:37Z</time></trkpt><trkpt lat="42.2096919059" lon="13.4351771954"><ele>1658.39</ele><time>2026-8-28T9:15:48Z</time></trkpt><trkpt lat="42.2096396331" lon="13.4353383817"><ele>1660.14</ele><time>2026-8-28T9:16:12Z</time></trkpt><trkpt lat="42.2095538070" lon="13.4354008455"><ele>1660.68</ele><time>2026-8-28T9:16:36Z</time></trkpt><trkpt lat="42.2094442248" lon="13.4355130820"><ele>1661.99</ele><time>2026-8-28T9:16:47Z</time></trkpt><trkpt lat="42.2093441198" lon="13.4356140839"><ele>1663.48</ele><time>2026-8-28T9:16:57Z</time></trkpt><trkpt lat="42.2092471766" lon="13.4357524814"><ele>1664.71</ele><time>2026-8-28T9:17:9Z</time></trkpt><trkpt lat="42.2092077729" lon="13.4358966706"><ele>1666.01</ele><time>2026-8-28T9:17:21Z</time></trkpt><trkpt lat="42.2091685075" lon="13.4360594015"><ele>1667.41</ele><time>2026-8-28T9:17:32Z</time></trkpt><trkpt lat="42.2090934590" lon="13.4362011692"><ele>1668.73</ele><time>2026-8-28T9:17:42Z</time></trkpt><trkpt lat="42.2090671747" lon="13.4363697795"><ele>1670.29</ele><time>2026-8-28T9:17:53Z</time></trkpt><trkpt lat="42.2089976957" lon="13.4365211567"><ele>1671.42</ele><time>2026-8-28T9:18:5Z</time></trkpt><trkpt lat="42.2089431365" lon="13.4366925596"><ele>1672.05</ele><time>2026-8-28T9:18:17Z</time></trkpt><trkpt lat="42.2089029535" lon="13.4368457916"><ele>1672.96</ele><time>2026-8-28T9:18:29Z</time></trkpt><trkpt lat="42.2088388084" lon="13.4370054547"><ele>1674.16</ele><time>2026-8-28T9:18:39Z</time></trkpt><trkpt lat="42.2087671591" lon="13.4371528055"><ele>1674.86</ele><time>2026-8-28T9:18:50Z</time></trkpt><trkpt lat="42.2086878206" lon="13.4372884399"><ele>1675.63</ele><time>2026-8-28T9:19:1Z</time></trkpt><trkpt lat="42.2086031633" lon="13.4374213236"><ele>1676.42</ele><time>2026-8-28T9:19:12Z</time></trkpt><trkpt lat="42.2085207006" lon="13.4375610346"><ele>1677.24</ele><time>2026-8-28T9:19:23Z</time></trkpt><trkpt lat="42.2084375064" lon="13.4376967148"><ele>1677.99</ele><time>2026-8-28T9:19:34Z</time></trkpt><trkpt lat="42.2083684543" lon="13.4378561783"><ele>1678.86</ele><time>2026-8-28T9:19:46Z</time></trkpt><trkpt lat="42.2082849033" lon="13.4379904810"><ele>1679.83</ele><time>2026-8-28T9:19:58Z</time></trkpt><trkpt lat="42.2082093009" lon="13.4381333878"><ele>1680.44</ele><time>2026-8-28T9:20:8Z</time></trkpt><trkpt lat="42.2081331595" lon="13.4382863741"><ele>1681.54</ele><time>2026-8-28T9:20:20Z</time></trkpt><trkpt lat="42.2080651481" lon="13.4384221413"><ele>1683.61</ele><time>2026-8-28T9:20:41Z</time></trkpt><trkpt lat="42.2080445141" lon="13.4384495692"><ele>1684.70</ele><time>2026-8-28T9:21:32Z</time></trkpt><trkpt lat="42.2080450572" lon="13.4384415345"><ele>1685.06</ele><time>2026-8-28T9:22:32Z</time></trkpt><trkpt lat="42.2080467403" lon="13.4384681739"><ele>1685.05</ele><time>2026-8-28T9:23:10Z</time></trkpt><trkpt lat="42.2079583816" lon="13.4386235643"><ele>1685.40</ele><time>2026-8-28T9:23:27Z</time></trkpt><trkpt lat="42.2078737747" lon="13.4387488989"><ele>1686.04</ele><time>2026-8-28T9:23:37Z</time></trkpt><trkpt lat="42.2077976624" lon="13.4388930181"><ele>1687.62</ele><time>2026-8-28T9:23:48Z</time></trkpt><trkpt lat="42.2077271848" lon="13.4390472887"><ele>1691.14</ele><time>2026-8-28T9:24:0Z</time></trkpt><trkpt lat="42.2076685438" lon="13.4391202860"><ele>1692.71</ele><time>2026-8-28T9:24:32Z</time></trkpt><trkpt lat="42.2076323591" lon="13.4392748633"><ele>1692.57</ele><time>2026-8-28T9:25:2Z</time></trkpt><trkpt lat="42.2075782064" lon="13.4394088574"><ele>1694.16</ele><time>2026-8-28T9:25:12Z</time></trkpt><trkpt lat="42.2075031814" lon="13.4395491891"><ele>1696.07</ele><time>2026-8-28T9:25:22Z</time></trkpt><trkpt lat="42.2074437525" lon="13.4397028458"><ele>1698.43</ele><time>2026-8-28T9:25:37Z</time></trkpt><trkpt lat="42.2073855126" lon="13.4397435584"><ele>1699.49</ele><time>2026-8-28T9:26:1Z</time></trkpt><trkpt lat="42.2073155658" lon="13.4399082800"><ele>1700.38</ele><time>2026-8-28T9:26:23Z</time></trkpt><trkpt lat="42.2072478248" lon="13.4400515419"><ele>1701.92</ele><time>2026-8-28T9:26:34Z</time></trkpt><trkpt lat="42.2071836004" lon="13.4402222447"><ele>1703.19</ele><time>2026-8-28T9:26:44Z</time></trkpt><trkpt lat="42.2071262170" lon="13.4403757378"><ele>1704.18</ele><time>2026-8-28T9:26:54Z</time></trkpt><trkpt lat="42.2071235790" lon="13.4405363328"><ele>1705.49</ele><time>2026-8-28T9:27:4Z</time></trkpt><trkpt lat="42.2071027950" lon="13.4407001336"><ele>1706.94</ele><time>2026-8-28T9:27:16Z</time></trkpt><trkpt lat="42.2070458286" lon="13.4408567152"><ele>1708.14</ele><time>2026-8-28T9:27:27Z</time></trkpt><trkpt lat="42.2070039953" lon="13.4410197508"><ele>1709.21</ele><time>2026-8-28T9:27:38Z</time></trkpt><trkpt lat="42.2069020104" lon="13.4411300490"><ele>1710.46</ele><time>2026-8-28T9:27:49Z</time></trkpt><trkpt lat="42.2068145787" lon="13.4412687002"><ele>1711.58</ele><time>2026-8-28T9:27:59Z</time></trkpt><trkpt lat="42.2067409407" lon="13.4414177540"><ele>1712.67</ele><time>2026-8-28T9:28:10Z</time></trkpt><trkpt lat="42.2066695313" lon="13.4415637096"><ele>1713.71</ele><time>2026-8-28T9:28:21Z</time></trkpt><trkpt lat="42.2065912303" lon="13.4417137108"><ele>1714.93</ele><time>2026-8-28T9:28:33Z</time></trkpt><trkpt lat="42.2065373721" lon="13.4418853069"><ele>1716.99</ele><time>2026-8-28T9:28:51Z</time></trkpt><trkpt lat="42.2065116742" lon="13.4419264569"><ele>1718.20</ele><time>2026-8-28T9:29:21Z</time></trkpt><trkpt lat="42.2065336029" lon="13.4421306273"><ele>1719.39</ele><time>2026-8-28T9:29:45Z</time></trkpt><trkpt lat="42.2065541080" lon="13.4422979301"><ele>1720.68</ele><time>2026-8-28T9:29:56Z</time></trkpt><trkpt lat="42.2065626881" lon="13.4424744453"><ele>1721.79</ele><time>2026-8-28T9:30:7Z</time></trkpt><trkpt lat="42.2065604173" lon="13.4426503891"><ele>1722.86</ele><time>2026-8-28T9:30:18Z</time></trkpt><trkpt lat="42.2065690964" lon="13.4428331374"><ele>1723.70</ele><time>2026-8-28T9:30:29Z</time></trkpt><trkpt lat="42.2065724828" lon="13.4430137021"><ele>1724.49</ele><time>2026-8-28T9:30:40Z</time></trkpt><trkpt lat="42.2065794290" lon="13.4431910828"><ele>1725.22</ele><time>2026-8-28T9:30:52Z</time></trkpt><trkpt lat="42.2065768694" lon="13.4433805430"><ele>1726.17</ele><time>2026-8-28T9:31:3Z</time></trkpt><trkpt lat="42.2065690278" lon="13.4435646795"><ele>1727.02</ele><time>2026-8-28T9:31:15Z</time></trkpt><trkpt lat="42.2065596630" lon="13.4437462086"><ele>1727.99</ele><time>2026-8-28T9:31:26Z</time></trkpt><trkpt lat="42.2065424351" lon="13.4439200051"><ele>1728.97</ele><time>2026-8-28T9:31:36Z</time></trkpt><trkpt lat="42.2065111832" lon="13.4440968675"><ele>1729.86</ele><time>2026-8-28T9:31:47Z</time></trkpt><trkpt lat="42.2064687582" lon="13.4442660185"><ele>1730.70</ele><time>2026-8-28T9:31:58Z</time></trkpt><trkpt lat="42.2064140236" lon="13.4444432553"><ele>1731.64</ele><time>2026-8-28T9:32:9Z</time></trkpt><trkpt lat="42.2063491760" lon="13.4446046390"><ele>1734.32</ele><time>2026-8-28T9:32:32Z</time></trkpt><trkpt lat="42.2063551733" lon="13.4446567660"><ele>1735.70</ele><time>2026-8-28T9:33:14Z</time></trkpt><trkpt lat="42.2064478649" lon="13.4448198311"><ele>1739.87</ele><time>2026-8-28T9:33:51Z</time></trkpt><trkpt lat="42.2064827677" lon="13.4449307419"><ele>1743.17</ele><time>2026-8-28T9:34:16Z</time></trkpt><trkpt lat="42.2063748641" lon="13.4450584143"><ele>1744.16</ele><time>2026-8-28T9:34:38Z</time></trkpt><trkpt lat="42.2063474989" lon="13.4452095530"><ele>1745.43</ele><time>2026-8-28T9:34:58Z</time></trkpt><trkpt lat="42.2063343702" lon="13.4453779366"><ele>1747.40</ele><time>2026-8-28T9:35:17Z</time></trkpt><trkpt lat="42.2063033307" lon="13.4455487112"><ele>1749.55</ele><time>2026-8-28T9:35:36Z</time></trkpt><trkpt lat="42.2063161866" lon="13.4457089044"><ele>1752.08</ele><time>2026-8-28T9:35:55Z</time></trkpt><trkpt lat="42.2063798390" lon="13.4458113581"><ele>1753.61</ele><time>2026-8-28T9:36:43Z</time></trkpt><trkpt lat="42.2063712672" lon="13.4458064692"><ele>1753.03</ele><time>2026-8-28T9:39:54Z</time></trkpt><trkpt lat="42.2062846222" lon="13.4457149120"><ele>1756.50</ele><time>2026-8-28T9:42:33Z</time></trkpt><trkpt lat="42.2062653512" lon="13.4455547780"><ele>1752.40</ele><time>2026-8-28T9:42:51Z</time></trkpt><trkpt lat="42.2062899509" lon="13.4454065576"><ele>1749.75</ele><time>2026-8-28T9:43:10Z</time></trkpt><trkpt lat="42.2063100085" lon="13.4452291817"><ele>1747.74</ele><time>2026-8-28T9:43:23Z</time></trkpt><trkpt lat="42.2063360810" lon="13.4450548757"><ele>1745.63</ele><time>2026-8-28T9:43:38Z</time></trkpt><trkpt lat="42.2063368291" lon="13.4448531875"><ele>1742.68</ele><time>2026-8-28T9:43:57Z</time></trkpt><trkpt lat="42.2063178903" lon="13.4447040710"><ele>1739.41</ele><time>2026-8-28T9:44:18Z</time></trkpt><trkpt lat="42.2063350093" lon="13.4446209525"><ele>1736.70</ele><time>2026-8-28T9:45:1Z</time></trkpt><trkpt lat="42.2063328186" lon="13.4446137503"><ele>1737.00</ele><time>2026-8-28T9:46:48Z</time></trkpt><trkpt lat="42.2063282910" lon="13.4446312779"><ele>1737.61</ele><time>2026-8-28T9:48:35Z</time></trkpt><trkpt lat="42.2062392463" lon="13.4447665396"><ele>1738.50</ele><time>2026-8-28T9:49:15Z</time></trkpt><trkpt lat="42.2061774962" lon="13.4448452270"><ele>1738.03</ele><time>2026-8-28T9:50:7Z</time></trkpt><trkpt lat="42.2061888019" lon="13.4448532651"><ele>1738.75</ele><time>2026-8-28T9:51:36Z</time></trkpt><trkpt lat="42.2061769418" lon="13.4448286016"><ele>1739.15</ele><time>2026-8-28T9:53:1Z</time></trkpt><trkpt lat="42.2060744744" lon="13.4449660685"><ele>1738.95</ele><time>2026-8-28T9:53:48Z</time></trkpt><trkpt lat="42.2059829347" lon="13.4450885011"><ele>1739.80</ele><time>2026-8-28T9:53:57Z</time></trkpt><trkpt lat="42.2058881144" lon="13.4452268598"><ele>1741.06</ele><time>2026-8-28T9:54:8Z</time></trkpt><trkpt lat="42.2058024863" lon="13.4453635686"><ele>1742.79</ele><time>2026-8-28T9:54:20Z</time></trkpt><trkpt lat="42.2056977823" lon="13.4454594163"><ele>1744.55</ele><time>2026-8-28T9:54:32Z</time></trkpt><trkpt lat="42.2055947129" lon="13.4455694980"><ele>1745.79</ele><time>2026-8-28T9:54:43Z</time></trkpt><trkpt lat="42.2054960528" lon="13.4456898272"><ele>1747.29</ele><time>2026-8-28T9:54:55Z</time></trkpt><trkpt lat="42.2054344077" lon="13.4458114029"><ele>1748.64</ele><time>2026-8-28T9:55:6Z</time></trkpt><trkpt lat="42.2053402662" lon="13.4459280618"><ele>1750.16</ele><time>2026-8-28T9:55:17Z</time></trkpt><trkpt lat="42.2052391455" lon="13.4460471268"><ele>1751.55</ele><time>2026-8-28T9:55:29Z</time></trkpt><trkpt lat="42.2051522271" lon="13.4461555181"><ele>1752.91</ele><time>2026-8-28T9:55:41Z</time></trkpt><trkpt lat="42.2050301960" lon="13.4462457408"><ele>1754.16</ele><time>2026-8-28T9:55:53Z</time></trkpt><trkpt lat="42.2049276988" lon="13.4462617245"><ele>1754.95</ele><time>2026-8-28T9:56:21Z</time></trkpt><trkpt lat="42.2049277058" lon="13.4461998106"><ele>1753.85</ele><time>2026-8-28T9:57:14Z</time></trkpt><trkpt lat="42.2049339874" lon="13.4462245866"><ele>1756.24</ele><time>2026-8-28T9:57:59Z</time></trkpt><trkpt lat="42.2048995582" lon="13.4462579961"><ele>1755.27</ele><time>2026-8-28T9:58:27Z</time></trkpt><trkpt lat="42.2048181473" lon="13.4463690890"><ele>1755.81</ele><time>2026-8-28T9:58:46Z</time></trkpt><trkpt lat="42.2047645717" lon="13.4465217920"><ele>1757.24</ele><time>2026-8-28T9:58:57Z</time></trkpt><trkpt lat="42.2047167644" lon="13.4466841659"><ele>1759.16</ele><time>2026-8-28T9:59:9Z</time></trkpt><trkpt lat="42.2046616953" lon="13.4468478123"><ele>1761.01</ele><time>2026-8-28T9:59:20Z</time></trkpt><trkpt lat="42.2045936038" lon="13.4469874601"><ele>1762.58</ele><time>2026-8-28T9:59:31Z</time></trkpt><trkpt lat="42.2045459761" lon="13.4471657826"><ele>1764.23</ele><time>2026-8-28T9:59:42Z</time></trkpt><trkpt lat="42.2044974519" lon="13.4473350761"><ele>1765.60</ele><time>2026-8-28T9:59:54Z</time></trkpt><trkpt lat="42.2044320599" lon="13.4475014127"><ele>1767.03</ele><time>2026-8-28T10:0:18Z</time></trkpt><trkpt lat="42.2044240043" lon="13.4475128728"><ele>1766.46</ele><time>2026-8-28T10:2:2Z</time></trkpt><trkpt lat="42.2044196286" lon="13.4475186450"><ele>1767.46</ele><time>2026-8-28T10:4:33Z</time></trkpt><trkpt lat="42.2043585533" lon="13.4475709568"><ele>1767.06</ele><time>2026-8-28T10:5:40Z</time></trkpt><trkpt lat="42.2042284347" lon="13.4476615023"><ele>1766.85</ele><time>2026-8-28T10:5:48Z</time></trkpt><trkpt lat="42.2041137343" lon="13.4477383404"><ele>1766.71</ele><time>2026-8-28T10:5:55Z</time></trkpt><trkpt lat="42.2039803807" lon="13.4477836602"><ele>1766.29</ele><time>2026-8-28T10:6:1Z</time></trkpt><trkpt lat="42.2038503969" lon="13.4477927629"><ele>1765.54</ele><time>2026-8-28T10:6:6Z</time></trkpt><trkpt lat="42.2037081819" lon="13.4477996480"><ele>1764.71</ele><time>2026-8-28T10:6:13Z</time></trkpt><trkpt lat="42.2035741266" lon="13.4477642309"><ele>1764.71</ele><time>2026-8-28T10:6:19Z</time></trkpt><trkpt lat="42.2034369651" lon="13.4477310050"><ele>1764.60</ele><time>2026-8-28T10:6:24Z</time></trkpt><trkpt lat="42.2033117730" lon="13.4476922806"><ele>1764.34</ele><time>2026-8-28T10:6:29Z</time></trkpt><trkpt lat="42.2031759890" lon="13.4476472670"><ele>1764.25</ele><time>2026-8-28T10:6:34Z</time></trkpt><trkpt lat="42.2030460667" lon="13.4476561714"><ele>1764.24</ele><time>2026-8-28T10:6:40Z</time></trkpt><trkpt lat="42.2029286321" lon="13.4477088391"><ele>1764.25</ele><time>2026-8-28T10:6:44Z</time></trkpt><trkpt lat="42.2028108872" lon="13.4477691092"><ele>1764.23</ele><time>2026-8-28T10:6:49Z</time></trkpt><trkpt lat="42.2026888886" lon="13.4478301252"><ele>1764.40</ele><time>2026-8-28T10:6:53Z</time></trkpt><trkpt lat="42.2025587177" lon="13.4478924237"><ele>1764.56</ele><time>2026-8-28T10:6:57Z</time></trkpt><trkpt lat="42.2024306841" lon="13.4479519520"><ele>1764.57</ele><time>2026-8-28T10:7:2Z</time></trkpt><trkpt lat="42.2022948973" lon="13.4480305784"><ele>1764.67</ele><time>2026-8-28T10:7:6Z</time></trkpt><trkpt lat="42.2021690849" lon="13.4481060784"><ele>1764.74</ele><time>2026-8-28T10:7:10Z</time></trkpt><trkpt lat="42.2020519562" lon="13.4481890760"><ele>1764.79</ele><time>2026-8-28T10:7:14Z</time></trkpt><trkpt lat="42.2019298794" lon="13.4482664522"><ele>1764.86</ele><time>2026-8-28T10:7:19Z</time></trkpt><trkpt lat="42.2018073220" lon="13.4483499918"><ele>1765.05</ele><time>2026-8-28T10:7:24Z</time></trkpt><trkpt lat="42.2017017519" lon="13.4484414594"><ele>1765.15</ele><time>2026-8-28T10:7:28Z</time></trkpt><trkpt lat="42.2015992692" lon="13.4485459887"><ele>1765.60</ele><time>2026-8-28T10:7:33Z</time></trkpt><trkpt lat="42.2014956661" lon="13.4486793839"><ele>1765.98</ele><time>2026-8-28T10:7:39Z</time></trkpt><trkpt lat="42.2013789020" lon="13.4488057997"><ele>1766.40</ele><time>2026-8-28T10:7:43Z</time></trkpt><trkpt lat="42.2012989805" lon="13.4489284060"><ele>1766.55</ele><time>2026-8-28T10:7:47Z</time></trkpt><trkpt lat="42.2012385093" lon="13.4490897450"><ele>1766.67</ele><time>2026-8-28T10:7:52Z</time></trkpt><trkpt lat="42.2011673078" lon="13.4492453747"><ele>1766.59</ele><time>2026-8-28T10:7:56Z</time></trkpt><trkpt lat="42.2010818683" lon="13.4493737295"><ele>1766.50</ele><time>2026-8-28T10:7:59Z</time></trkpt><trkpt lat="42.2009748104" lon="13.4494968248"><ele>1766.30</ele><time>2026-8-28T10:8:2Z</time></trkpt><trkpt lat="42.2008691356" lon="13.4495993564"><ele>1765.95</ele><time>2026-8-28T10:8:6Z</time></trkpt><trkpt lat="42.2007873282" lon="13.4497299884"><ele>1765.90</ele><time>2026-8-28T10:8:10Z</time></trkpt><trkpt lat="42.2007530294" lon="13.4499107022"><ele>1765.55</ele><time>2026-8-28T10:8:15Z</time></trkpt><trkpt lat="42.2007916588" lon="13.4500764683"><ele>1765.13</ele><time>2026-8-28T10:8:19Z</time></trkpt><trkpt lat="42.2008499410" lon="13.4502161108"><ele>1764.83</ele><time>2026-8-28T10:8:22Z</time></trkpt><trkpt lat="42.2009307635" lon="13.4503924311"><ele>1764.30</ele><time>2026-8-28T10:8:25Z</time></trkpt><trkpt lat="42.2010060679" lon="13.4505414683"><ele>1763.49</ele><time>2026-8-28T10:8:29Z</time></trkpt><trkpt lat="42.2010832513" lon="13.4506754251"><ele>1762.88</ele><time>2026-8-28T10:8:32Z</time></trkpt><trkpt lat="42.2011585068" lon="13.4508218430"><ele>1762.40</ele><time>2026-8-28T10:8:36Z</time></trkpt><trkpt lat="42.2012402653" lon="13.4509593411"><ele>1762.12</ele><time>2026-8-28T10:8:39Z</time></trkpt><trkpt lat="42.2013295870" lon="13.4511181824"><ele>1761.96</ele><time>2026-8-28T10:8:44Z</time></trkpt><trkpt lat="42.2014039289" lon="13.4512613900"><ele>1761.89</ele><time>2026-8-28T10:8:48Z</time></trkpt><trkpt lat="42.2015042533" lon="13.4513759008"><ele>1761.84</ele><time>2026-8-28T10:8:51Z</time></trkpt><trkpt lat="42.2016447340" lon="13.4514274076"><ele>1761.75</ele><time>2026-8-28T10:8:55Z</time></trkpt><trkpt lat="42.2017600900" lon="13.4514699038"><ele>1761.86</ele><time>2026-8-28T10:8:59Z</time></trkpt><trkpt lat="42.2018759865" lon="13.4515587352"><ele>1762.06</ele><time>2026-8-28T10:9:4Z</time></trkpt><trkpt lat="42.2019782499" lon="13.4516842501"><ele>1762.09</ele><time>2026-8-28T10:9:8Z</time></trkpt><trkpt lat="42.2020695498" lon="13.4518160974"><ele>1762.08</ele><time>2026-8-28T10:9:12Z</time></trkpt><trkpt lat="42.2021618765" lon="13.4519497259"><ele>1761.91</ele><time>2026-8-28T10:9:16Z</time></trkpt><trkpt lat="42.2022544546" lon="13.4520864138"><ele>1761.83</ele><time>2026-8-28T10:9:20Z</time></trkpt><trkpt lat="42.2023414448" lon="13.4522250574"><ele>1761.81</ele><time>2026-8-28T10:9:24Z</time></trkpt><trkpt lat="42.2024287004" lon="13.4523615428"><ele>1761.61</ele><time>2026-8-28T10:9:27Z</time></trkpt><trkpt lat="42.2025166266" lon="13.4524882492"><ele>1761.04</ele><time>2026-8-28T10:9:30Z</time></trkpt><trkpt lat="42.2026063129" lon="13.4526039474"><ele>1760.58</ele><time>2026-8-28T10:9:33Z</time></trkpt><trkpt lat="42.2027100865" lon="13.4527636506"><ele>1759.95</ele><time>2026-8-28T10:9:37Z</time></trkpt><trkpt lat="42.2028038465" lon="13.4528915305"><ele>1759.08</ele><time>2026-8-28T10:9:41Z</time></trkpt><trkpt lat="42.2028820216" lon="13.4530288260"><ele>1758.28</ele><time>2026-8-28T10:9:44Z</time></trkpt><trkpt lat="42.2029762901" lon="13.4531845618"><ele>1757.49</ele><time>2026-8-28T10:9:47Z</time></trkpt><trkpt lat="42.2030519927" lon="13.4533092706"><ele>1756.76</ele><time>2026-8-28T10:9:49Z</time></trkpt><trkpt lat="42.2031472251" lon="13.4534287546"><ele>1756.13</ele><time>2026-8-28T10:9:52Z</time></trkpt><trkpt lat="42.2032534517" lon="13.4535628371"><ele>1755.46</ele><time>2026-8-28T10:9:55Z</time></trkpt><trkpt lat="42.2033478599" lon="13.4536916949"><ele>1754.84</ele><time>2026-8-28T10:9:58Z</time></trkpt><trkpt lat="42.2034499236" lon="13.4538254701"><ele>1754.10</ele><time>2026-8-28T10:10:0Z</time></trkpt><trkpt lat="42.2035439685" lon="13.4539124323"><ele>1753.51</ele><time>2026-8-28T10:10:2Z</time></trkpt><trkpt lat="42.2036406538" lon="13.4540305753"><ele>1752.95</ele><time>2026-8-28T10:10:4Z</time></trkpt><trkpt lat="42.2037326172" lon="13.4541614168"><ele>1752.13</ele><time>2026-8-28T10:10:7Z</time></trkpt><trkpt lat="42.2038492374" lon="13.4543025261"><ele>1750.93</ele><time>2026-8-28T10:10:10Z</time></trkpt><trkpt lat="42.2039203788" lon="13.4544237494"><ele>1749.92</ele><time>2026-8-28T10:10:14Z</time></trkpt><trkpt lat="42.2039427585" lon="13.4545920999"><ele>1749.67</ele><time>2026-8-28T10:10:18Z</time></trkpt><trkpt lat="42.2039535502" lon="13.4547891584"><ele>1749.54</ele><time>2026-8-28T10:10:22Z</time></trkpt><trkpt lat="42.2039669193" lon="13.4549717512"><ele>1748.94</ele><time>2026-8-28T10:10:26Z</time></trkpt><trkpt lat="42.2039819565" lon="13.4551455528"><ele>1748.03</ele><time>2026-8-28T10:10:30Z</time></trkpt><trkpt lat="42.2039754270" lon="13.4553362033"><ele>1747.08</ele><time>2026-8-28T10:10:34Z</time></trkpt><trkpt lat="42.2039843776" lon="13.4554396450"><ele>1746.13</ele><time>2026-8-28T10:10:40Z</time></trkpt><trkpt lat="42.2040738125" lon="13.4553230288"><ele>1745.41</ele><time>2026-8-28T10:10:47Z</time></trkpt><trkpt lat="42.2041917052" lon="13.4552767128"><ele>1744.85</ele><time>2026-8-28T10:10:53Z</time></trkpt><trkpt lat="42.2043132177" lon="13.4551736154"><ele>1744.18</ele><time>2026-8-28T10:10:57Z</time></trkpt><trkpt lat="42.2044302430" lon="13.4551103041"><ele>1743.86</ele><time>2026-8-28T10:11:1Z</time></trkpt><trkpt lat="42.2045635152" lon="13.4550759662"><ele>1743.41</ele><time>2026-8-28T10:11:4Z</time></trkpt><trkpt lat="42.2046963545" lon="13.4550775169"><ele>1742.90</ele><time>2026-8-28T10:11:6Z</time></trkpt><trkpt lat="42.2048187163" lon="13.4551139921"><ele>1742.28</ele><time>2026-8-28T10:11:9Z</time></trkpt><trkpt lat="42.2049581632" lon="13.4551824722"><ele>1741.22</ele><time>2026-8-28T10:11:12Z</time></trkpt><trkpt lat="42.2050862666" lon="13.4552686662"><ele>1740.24</ele><time>2026-8-28T10:11:15Z</time></trkpt><trkpt lat="42.2051946167" lon="13.4553464502"><ele>1739.50</ele><time>2026-8-28T10:11:17Z</time></trkpt><trkpt lat="42.2052847780" lon="13.4554580413"><ele>1738.66</ele><time>2026-8-28T10:11:20Z</time></trkpt><trkpt lat="42.2053541522" lon="13.4556304012"><ele>1737.50</ele><time>2026-8-28T10:11:23Z</time></trkpt><trkpt lat="42.2053777892" lon="13.4557952173"><ele>1736.69</ele><time>2026-8-28T10:11:26Z</time></trkpt><trkpt lat="42.2053304664" lon="13.4559606342"><ele>1736.22</ele><time>2026-8-28T10:11:29Z</time></trkpt><trkpt lat="42.2052218300" lon="13.4560990613"><ele>1736.03</ele><time>2026-8-28T10:11:33Z</time></trkpt><trkpt lat="42.2050925810" lon="13.4561794996"><ele>1735.83</ele><time>2026-8-28T10:11:36Z</time></trkpt><trkpt lat="42.2049723705" lon="13.4562363150"><ele>1735.39</ele><time>2026-8-28T10:11:38Z</time></trkpt><trkpt lat="42.2048443649" lon="13.4562855866"><ele>1734.93</ele><time>2026-8-28T10:11:41Z</time></trkpt><trkpt lat="42.2047178541" lon="13.4563252051"><ele>1734.45</ele><time>2026-8-28T10:11:43Z</time></trkpt><trkpt lat="42.2045961767" lon="13.4563626722"><ele>1733.55</ele><time>2026-8-28T10:11:46Z</time></trkpt><trkpt lat="42.2044412233" lon="13.4563904721"><ele>1732.90</ele><time>2026-8-28T10:11:49Z</time></trkpt><trkpt lat="42.2043017205" lon="13.4564026259"><ele>1732.34</ele><time>2026-8-28T10:11:52Z</time></trkpt><trkpt lat="42.2042044415" lon="13.4564524214"><ele>1731.24</ele><time>2026-8-28T10:11:55Z</time></trkpt><trkpt lat="42.2041584626" lon="13.4566297028"><ele>1729.85</ele><time>2026-8-28T10:12:0Z</time></trkpt><trkpt lat="42.2041778080" lon="13.4567923956"><ele>1729.01</ele><time>2026-8-28T10:12:5Z</time></trkpt><trkpt lat="42.2042561788" lon="13.4569504531"><ele>1728.53</ele><time>2026-8-28T10:12:9Z</time></trkpt><trkpt lat="42.2043412552" lon="13.4570827615"><ele>1728.09</ele><time>2026-8-28T10:12:13Z</time></trkpt><trkpt lat="42.2044332675" lon="13.4572116961"><ele>1727.72</ele><time>2026-8-28T10:12:17Z</time></trkpt><trkpt lat="42.2045454802" lon="13.4573298600"><ele>1727.49</ele><time>2026-8-28T10:12:20Z</time></trkpt><trkpt lat="42.2046346776" lon="13.4574435745"><ele>1727.32</ele><time>2026-8-28T10:12:23Z</time></trkpt><trkpt lat="42.2047417844" lon="13.4575648047"><ele>1727.21</ele><time>2026-8-28T10:12:25Z</time></trkpt><trkpt lat="42.2048387770" lon="13.4577122424"><ele>1726.77</ele><time>2026-8-28T10:12:28Z</time></trkpt><trkpt lat="42.2049302934" lon="13.4578468138"><ele>1726.01</ele><time>2026-8-28T10:12:30Z</time></trkpt><trkpt lat="42.2049879609" lon="13.4579764819"><ele>1725.35</ele><time>2026-8-28T10:12:32Z</time></trkpt><trkpt lat="42.2050245898" lon="13.4581309185"><ele>1724.73</ele><time>2026-8-28T10:12:34Z</time></trkpt><trkpt lat="42.2050706763" lon="13.4583217465"><ele>1724.02</ele><time>2026-8-28T10:12:37Z</time></trkpt><trkpt lat="42.2051256546" lon="13.4585110587"><ele>1723.31</ele><time>2026-8-28T10:12:40Z</time></trkpt><trkpt lat="42.2051884351" lon="13.4586587688"><ele>1723.19</ele><time>2026-8-28T10:12:44Z</time></trkpt><trkpt lat="42.2052752674" lon="13.4587906580"><ele>1723.75</ele><time>2026-8-28T10:12:49Z</time></trkpt><trkpt lat="42.2053793957" lon="13.4589289804"><ele>1724.73</ele><time>2026-8-28T10:12:53Z</time></trkpt><trkpt lat="42.2054711148" lon="13.4590589209"><ele>1725.04</ele><time>2026-8-28T10:12:57Z</time></trkpt><trkpt lat="42.2055570334" lon="13.4591923356"><ele>1724.97</ele><time>2026-8-28T10:13:2Z</time></trkpt><trkpt lat="42.2056480497" lon="13.4593084920"><ele>1724.26</ele><time>2026-8-28T10:13:6Z</time></trkpt><trkpt lat="42.2057667235" lon="13.4594126372"><ele>1723.01</ele><time>2026-8-28T10:13:9Z</time></trkpt><trkpt lat="42.2058516112" lon="13.4595621703"><ele>1720.49</ele><time>2026-8-28T10:13:13Z</time></trkpt><trkpt lat="42.2058478603" lon="13.4597366816"><ele>1716.99</ele><time>2026-8-28T10:13:18Z</time></trkpt><trkpt lat="42.2058205563" lon="13.4598856908"><ele>1715.17</ele><time>2026-8-28T10:13:23Z</time></trkpt><trkpt lat="42.2058346756" lon="13.4600572977"><ele>1713.35</ele><time>2026-8-28T10:13:28Z</time></trkpt><trkpt lat="42.2058696323" lon="13.4602258704"><ele>1711.26</ele><time>2026-8-28T10:13:32Z</time></trkpt><trkpt lat="42.2059465293" lon="13.4603733290"><ele>1709.64</ele><time>2026-8-28T10:13:36Z</time></trkpt><trkpt lat="42.2060462683" lon="13.4605253767"><ele>1706.79</ele><time>2026-8-28T10:13:40Z</time></trkpt><trkpt lat="42.2061292660" lon="13.4606527984"><ele>1703.60</ele><time>2026-8-28T10:13:45Z</time></trkpt><trkpt lat="42.2062330148" lon="13.4607655542"><ele>1699.92</ele><time>2026-8-28T10:13:51Z</time></trkpt><trkpt lat="42.2063250840" lon="13.4608985390"><ele>1696.43</ele><time>2026-8-28T10:13:57Z</time></trkpt><trkpt lat="42.2063801112" lon="13.4610536252"><ele>1693.95</ele><time>2026-8-28T10:14:1Z</time></trkpt><trkpt lat="42.2064506617" lon="13.4611980915"><ele>1691.34</ele><time>2026-8-28T10:14:6Z</time></trkpt><trkpt lat="42.2065171972" lon="13.4613704569"><ele>1688.67</ele><time>2026-8-28T10:14:11Z</time></trkpt><trkpt lat="42.2065585559" lon="13.4615319715"><ele>1686.17</ele><time>2026-8-28T10:14:17Z</time></trkpt><trkpt lat="42.2065902594" lon="13.4617260145"><ele>1683.61</ele><time>2026-8-28T10:14:23Z</time></trkpt><trkpt lat="42.2065947577" lon="13.4618963767"><ele>1680.41</ele><time>2026-8-28T10:14:29Z</time></trkpt><trkpt lat="42.2065799944" lon="13.4620569348"><ele>1677.63</ele><time>2026-8-28T10:14:35Z</time></trkpt><trkpt lat="42.2065083683" lon="13.4622095386"><ele>1674.43</ele><time>2026-8-28T10:14:40Z</time></trkpt><trkpt lat="42.2064437927" lon="13.4623645758"><ele>1671.54</ele><time>2026-8-28T10:14:45Z</time></trkpt><trkpt lat="42.2063758993" lon="13.4625284211"><ele>1668.81</ele><time>2026-8-28T10:14:49Z</time></trkpt><trkpt lat="42.2063123226" lon="13.4626945923"><ele>1666.08</ele><time>2026-8-28T10:14:53Z</time></trkpt><trkpt lat="42.2062702663" lon="13.4628642420"><ele>1663.68</ele><time>2026-8-28T10:14:57Z</time></trkpt><trkpt lat="42.2062428296" lon="13.4630407719"><ele>1661.03</ele><time>2026-8-28T10:15:2Z</time></trkpt><trkpt lat="42.2062136214" lon="13.4632105697"><ele>1659.10</ele><time>2026-8-28T10:15:8Z</time></trkpt><trkpt lat="42.2061851900" lon="13.4633843601"><ele>1657.65</ele><time>2026-8-28T10:15:11Z</time></trkpt><trkpt lat="42.2062115930" lon="13.4635742381"><ele>1656.23</ele><time>2026-8-28T10:15:14Z</time></trkpt><trkpt lat="42.2062646504" lon="13.4637531918"><ele>1654.57</ele><time>2026-8-28T10:15:17Z</time></trkpt><trkpt lat="42.2062976193" lon="13.4639042057"><ele>1653.28</ele><time>2026-8-28T10:15:20Z</time></trkpt><trkpt lat="42.2063016356" lon="13.4640819230"><ele>1652.11</ele><time>2026-8-28T10:15:23Z</time></trkpt><trkpt lat="42.2062798217" lon="13.4642818105"><ele>1651.14</ele><time>2026-8-28T10:15:26Z</time></trkpt><trkpt lat="42.2062637005" lon="13.4644514602"><ele>1649.91</ele><time>2026-8-28T10:15:29Z</time></trkpt><trkpt lat="42.2062504850" lon="13.4646255803"><ele>1648.45</ele><time>2026-8-28T10:15:32Z</time></trkpt><trkpt lat="42.2062822105" lon="13.4648094932"><ele>1647.39</ele><time>2026-8-28T10:15:34Z</time></trkpt><trkpt lat="42.2063470027" lon="13.4649809031"><ele>1646.67</ele><time>2026-8-28T10:15:36Z</time></trkpt><trkpt lat="42.2063902533" lon="13.4651352140"><ele>1646.13</ele><time>2026-8-28T10:15:38Z</time></trkpt><trkpt lat="42.2064371500" lon="13.4652818553"><ele>1645.54</ele><time>2026-8-28T10:15:40Z</time></trkpt><trkpt lat="42.2065064404" lon="13.4654564224"><ele>1644.87</ele><time>2026-8-28T10:15:43Z</time></trkpt><trkpt lat="42.2065816121" lon="13.4656076599"><ele>1644.24</ele><time>2026-8-28T10:15:45Z</time></trkpt><trkpt lat="42.2066512238" lon="13.4657568298"><ele>1643.27</ele><time>2026-8-28T10:15:48Z</time></trkpt><trkpt lat="42.2067510942" lon="13.4659006913"><ele>1642.41</ele><time>2026-8-28T10:15:50Z</time></trkpt><trkpt lat="42.2068505036" lon="13.4659950296"><ele>1641.40</ele><time>2026-8-28T10:15:52Z</time></trkpt><trkpt lat="42.2069762070" lon="13.4661269188"><ele>1639.71</ele><time>2026-8-28T10:15:56Z</time></trkpt><trkpt lat="42.2070514210" lon="13.4661694408"><ele>1638.27</ele><time>2026-8-28T10:16:11Z</time></trkpt><trkpt lat="42.2071220608" lon="13.4661669606"><ele>1637.25</ele><time>2026-8-28T10:16:47Z</time></trkpt><trkpt lat="42.2072109783" lon="13.4661996825"><ele>1638.62</ele><time>2026-8-28T10:17:29Z</time></trkpt><trkpt lat="42.2072700538" lon="13.4662551215"><ele>1639.04</ele><time>2026-8-28T10:18:31Z</time></trkpt><trkpt lat="42.2073350055" lon="13.4661356779"><ele>1638.55</ele><time>2026-8-28T10:19:16Z</time></trkpt><trkpt lat="42.2074456103" lon="13.4660413563"><ele>1637.86</ele><time>2026-8-28T10:19:22Z</time></trkpt><trkpt lat="42.2075872589" lon="13.4660324268"><ele>1635.68</ele><time>2026-8-28T10:19:27Z</time></trkpt><trkpt lat="42.2077092547" lon="13.4660891332"><ele>1634.03</ele><time>2026-8-28T10:19:33Z</time></trkpt><trkpt lat="42.2078172136" lon="13.4662139397"><ele>1632.57</ele><time>2026-8-28T10:19:38Z</time></trkpt><trkpt lat="42.2078857757" lon="13.4663782176"><ele>1631.18</ele><time>2026-8-28T10:19:45Z</time></trkpt><trkpt lat="42.2078984929" lon="13.4665380931"><ele>1631.17</ele><time>2026-8-28T10:19:55Z</time></trkpt><trkpt lat="42.2078915198" lon="13.4667234073"><ele>1631.78</ele><time>2026-8-28T10:20:8Z</time></trkpt><trkpt lat="42.2079022873" lon="13.4669030959"><ele>1632.78</ele><time>2026-8-28T10:20:21Z</time></trkpt><trkpt lat="42.2079110239" lon="13.4670772101"><ele>1633.84</ele><time>2026-8-28T10:20:33Z</time></trkpt><trkpt lat="42.2079049566" lon="13.4672517122"><ele>1634.99</ele><time>2026-8-28T10:20:46Z</time></trkpt><trkpt lat="42.2079077079" lon="13.4674595187"><ele>1637.82</ele><time>2026-8-28T10:21:13Z</time></trkpt><trkpt lat="42.2079111316" lon="13.4675688456"><ele>1638.94</ele><time>2026-8-28T10:21:40Z</time></trkpt><trkpt lat="42.2078901769" lon="13.4677460630"><ele>1640.95</ele><time>2026-8-28T10:21:54Z</time></trkpt><trkpt lat="42.2079042166" lon="13.4679203168"><ele>1643.00</ele><time>2026-8-28T10:22:8Z</time></trkpt><trkpt lat="42.2078677088" lon="13.4680868270"><ele>1644.73</ele><time>2026-8-28T10:22:22Z</time></trkpt><trkpt lat="42.2078369837" lon="13.4682556428"><ele>1646.42</ele><time>2026-8-28T10:22:36Z</time></trkpt><trkpt lat="42.2077976981" lon="13.4684378670"><ele>1649.27</ele><time>2026-8-28T10:23:1Z</time></trkpt><trkpt lat="42.2077305336" lon="13.4685427789"><ele>1649.41</ele><time>2026-8-28T10:23:24Z</time></trkpt><trkpt lat="42.2076413628" lon="13.4686723199"><ele>1649.94</ele><time>2026-8-28T10:23:36Z</time></trkpt><trkpt lat="42.2075522175" lon="13.4688024832"><ele>1650.67</ele><time>2026-8-28T10:23:47Z</time></trkpt><trkpt lat="42.2074695490" lon="13.4689381329"><ele>1651.10</ele><time>2026-8-28T10:23:58Z</time></trkpt><trkpt lat="42.2073875816" lon="13.4690941430"><ele>1651.21</ele><time>2026-8-28T10:24:9Z</time></trkpt><trkpt lat="42.2073150119" lon="13.4692443246"><ele>1651.42</ele><time>2026-8-28T10:24:19Z</time></trkpt><trkpt lat="42.2072573573" lon="13.4694034733"><ele>1651.71</ele><time>2026-8-28T10:24:30Z</time></trkpt><trkpt lat="42.2072186507" lon="13.4695981722"><ele>1653.23</ele><time>2026-8-28T10:24:49Z</time></trkpt><trkpt lat="42.2071956997" lon="13.4697164688"><ele>1655.07</ele><time>2026-8-28T10:25:12Z</time></trkpt><trkpt lat="42.2071387279" lon="13.4698802093"><ele>1657.39</ele><time>2026-8-28T10:25:32Z</time></trkpt><trkpt lat="42.2070857207" lon="13.4700213396"><ele>1659.60</ele><time>2026-8-28T10:25:54Z</time></trkpt><trkpt lat="42.2070388759" lon="13.4701809575"><ele>1661.36</ele><time>2026-8-28T10:26:18Z</time></trkpt><trkpt lat="42.2069933172" lon="13.4703416710"><ele>1663.19</ele><time>2026-8-28T10:26:40Z</time></trkpt><trkpt lat="42.2069723848" lon="13.4704990997"><ele>1664.95</ele><time>2026-8-28T10:27:0Z</time></trkpt><trkpt lat="42.2069762740" lon="13.4706750553"><ele>1667.44</ele><time>2026-8-28T10:27:27Z</time></trkpt><trkpt lat="42.2069767501" lon="13.4708239764"><ele>1669.92</ele><time>2026-8-28T10:27:57Z</time></trkpt><trkpt lat="42.2069904496" lon="13.4709913385"><ele>1672.90</ele><time>2026-8-28T10:28:26Z</time></trkpt><trkpt lat="42.2069725995" lon="13.4711537651"><ele>1675.92</ele><time>2026-8-28T10:28:58Z</time></trkpt><trkpt lat="42.2069243548" lon="13.4713092995"><ele>1679.76</ele><time>2026-8-28T10:29:32Z</time></trkpt><trkpt lat="42.2068915162" lon="13.4714369383"><ele>1680.87</ele><time>2026-8-28T10:30:4Z</time></trkpt><trkpt lat="42.2068438133" lon="13.4716066756"><ele>1682.63</ele><time>2026-8-28T10:30:27Z</time></trkpt><trkpt lat="42.2067839215" lon="13.4717425060"><ele>1684.72</ele><time>2026-8-28T10:31:9Z</time></trkpt><trkpt lat="42.2067511590" lon="13.4718650859"><ele>1686.21</ele><time>2026-8-28T10:31:51Z</time></trkpt><trkpt lat="42.2066771574" lon="13.4720287744"><ele>1688.44</ele><time>2026-8-28T10:32:15Z</time></trkpt><trkpt lat="42.2066039628" lon="13.4721685398"><ele>1691.74</ele><time>2026-8-28T10:32:40Z</time></trkpt><trkpt lat="42.2065274291" lon="13.4723193761"><ele>1695.23</ele><time>2026-8-28T10:33:7Z</time></trkpt><trkpt lat="42.2064556790" lon="13.4724502512"><ele>1698.31</ele><time>2026-8-28T10:33:38Z</time></trkpt><trkpt lat="42.2063953678" lon="13.4725830021"><ele>1701.92</ele><time>2026-8-28T10:34:9Z</time></trkpt><trkpt lat="42.2063419077" lon="13.4727414348"><ele>1706.40</ele><time>2026-8-28T10:34:36Z</time></trkpt><trkpt lat="42.2063003894" lon="13.4729237498"><ele>1709.77</ele><time>2026-8-28T10:35:7Z</time></trkpt><trkpt lat="42.2062795474" lon="13.4730587095"><ele>1712.15</ele><time>2026-8-28T10:35:41Z</time></trkpt><trkpt lat="42.2062642096" lon="13.4732092250"><ele>1716.53</ele><time>2026-8-28T10:36:24Z</time></trkpt><trkpt lat="42.2062518856" lon="13.4733680476"><ele>1718.94</ele><time>2026-8-28T10:37:7Z</time></trkpt><trkpt lat="42.2062247332" lon="13.4735084741"><ele>1720.50</ele><time>2026-8-28T10:37:29Z</time></trkpt><trkpt lat="42.2061884031" lon="13.4736899007"><ele>1720.54</ele><time>2026-8-28T10:37:40Z</time></trkpt><trkpt lat="42.2061658278" lon="13.4738582373"><ele>1720.36</ele><time>2026-8-28T10:37:49Z</time></trkpt><trkpt lat="42.2061482468" lon="13.4740353492"><ele>1720.24</ele><time>2026-8-28T10:37:57Z</time></trkpt><trkpt lat="42.2060864652" lon="13.4742024494"><ele>1720.19</ele><time>2026-8-28T10:38:4Z</time></trkpt><trkpt lat="42.2060495009" lon="13.4743769327"><ele>1719.65</ele><time>2026-8-28T10:38:10Z</time></trkpt><trkpt lat="42.2060634010" lon="13.4745580238"><ele>1718.78</ele><time>2026-8-28T10:38:16Z</time></trkpt><trkpt lat="42.2060923520" lon="13.4747258462"><ele>1717.05</ele><time>2026-8-28T10:38:21Z</time></trkpt><trkpt lat="42.2061141115" lon="13.4749019165"><ele>1714.48</ele><time>2026-8-28T10:38:26Z</time></trkpt><trkpt lat="42.2061441187" lon="13.4750916157"><ele>1711.74</ele><time>2026-8-28T10:38:31Z</time></trkpt><trkpt lat="42.2061757855" lon="13.4752436969"><ele>1708.86</ele><time>2026-8-28T10:38:36Z</time></trkpt><trkpt lat="42.2062055413" lon="13.4754374363"><ele>1705.94</ele><time>2026-8-28T10:38:41Z</time></trkpt><trkpt lat="42.2061913208" lon="13.4756175322"><ele>1702.74</ele><time>2026-8-28T10:38:47Z</time></trkpt><trkpt lat="42.2060937435" lon="13.4757394530"><ele>1700.02</ele><time>2026-8-28T10:38:53Z</time></trkpt><trkpt lat="42.2059879279" lon="13.4758906146"><ele>1695.35</ele><time>2026-8-28T10:39:2Z</time></trkpt><trkpt lat="42.2059201857" lon="13.4759931837"><ele>1690.94</ele><time>2026-8-28T10:39:17Z</time></trkpt><trkpt lat="42.2058742724" lon="13.4761006839"><ele>1688.66</ele><time>2026-8-28T10:39:37Z</time></trkpt><trkpt lat="42.2059131403" lon="13.4761982683"><ele>1687.26</ele><time>2026-8-28T10:40:1Z</time></trkpt><trkpt lat="42.2059990838" lon="13.4762913650"><ele>1682.70</ele><time>2026-8-28T10:40:28Z</time></trkpt><trkpt lat="42.2060582615" lon="13.4764013542"><ele>1678.99</ele><time>2026-8-28T10:40:53Z</time></trkpt><trkpt lat="42.2061177593" lon="13.4764933951"><ele>1675.76</ele><time>2026-8-28T10:41:15Z</time></trkpt><trkpt lat="42.2061220533" lon="13.4766278006"><ele>1672.14</ele><time>2026-8-28T10:41:37Z</time></trkpt><trkpt lat="42.2061912515" lon="13.4767062129"><ele>1668.94</ele><time>2026-8-28T10:41:57Z</time></trkpt><trkpt lat="42.2062970954" lon="13.4767837892"><ele>1665.38</ele><time>2026-8-28T10:42:18Z</time></trkpt><trkpt lat="42.2064296247" lon="13.4768592769"><ele>1661.09</ele><time>2026-8-28T10:42:55Z</time></trkpt><trkpt lat="42.2064996354" lon="13.4769084770"><ele>1659.21</ele><time>2026-8-28T10:43:33Z</time></trkpt><trkpt lat="42.2065707616" lon="13.4770530648"><ele>1655.69</ele><time>2026-8-28T10:43:56Z</time></trkpt><trkpt lat="42.2066454491" lon="13.4771975909"><ele>1652.22</ele><time>2026-8-28T10:44:16Z</time></trkpt><trkpt lat="42.2066942056" lon="13.4773932516"><ele>1648.37</ele><time>2026-8-28T10:44:40Z</time></trkpt><trkpt lat="42.2067200864" lon="13.4774658946"><ele>1646.49</ele><time>2026-8-28T10:45:2Z</time></trkpt><trkpt lat="42.2068191552" lon="13.4776296036"><ele>1644.91</ele><time>2026-8-28T10:45:14Z</time></trkpt><trkpt lat="42.2069017589" lon="13.4777863137"><ele>1642.61</ele><time>2026-8-28T10:45:21Z</time></trkpt><trkpt lat="42.2069793753" lon="13.4779284038"><ele>1640.53</ele><time>2026-8-28T10:45:26Z</time></trkpt><trkpt lat="42.2070684960" lon="13.4780496732"><ele>1638.59</ele><time>2026-8-28T10:45:30Z</time></trkpt><trkpt lat="42.2071522940" lon="13.4781720908"><ele>1636.90</ele><time>2026-8-28T10:45:34Z</time></trkpt><trkpt lat="42.2072360125" lon="13.4783088248"><ele>1635.20</ele><time>2026-8-28T10:45:39Z</time></trkpt><trkpt lat="42.2073147018" lon="13.4784617275"><ele>1633.28</ele><time>2026-8-28T10:45:44Z</time></trkpt><trkpt lat="42.2074056231" lon="13.4786000429"><ele>1631.34</ele><time>2026-8-28T10:45:49Z</time></trkpt><trkpt lat="42.2075114166" lon="13.4787220275"><ele>1629.21</ele><time>2026-8-28T10:45:55Z</time></trkpt><trkpt lat="42.2076126281" lon="13.4788353928"><ele>1627.50</ele><time>2026-8-28T10:46:0Z</time></trkpt><trkpt lat="42.2077163402" lon="13.4789455449"><ele>1625.96</ele><time>2026-8-28T10:46:5Z</time></trkpt><trkpt lat="42.2078114804" lon="13.4790864978"><ele>1624.22</ele><time>2026-8-28T10:46:11Z</time></trkpt><trkpt lat="42.2079270473" lon="13.4791719960"><ele>1622.80</ele><time>2026-8-28T10:46:16Z</time></trkpt><trkpt lat="42.2080394486" lon="13.4792623808"><ele>1621.06</ele><time>2026-8-28T10:46:22Z</time></trkpt><trkpt lat="42.2081488352" lon="13.4793774169"><ele>1618.57</ele><time>2026-8-28T10:46:30Z</time></trkpt><trkpt lat="42.2082278860" lon="13.4794974321"><ele>1614.85</ele><time>2026-8-28T10:46:43Z</time></trkpt><trkpt lat="42.2083242293" lon="13.4796158261"><ele>1611.53</ele><time>2026-8-28T10:46:59Z</time></trkpt><trkpt lat="42.2084323835" lon="13.4797258442"><ele>1607.95</ele><time>2026-8-28T10:47:14Z</time></trkpt><trkpt lat="42.2085538514" lon="13.4797316181"><ele>1605.59</ele><time>2026-8-28T10:47:29Z</time></trkpt><trkpt lat="42.2086791666" lon="13.4796845047"><ele>1603.25</ele><time>2026-8-28T10:47:40Z</time></trkpt><trkpt lat="42.2087843239" lon="13.4795815393"><ele>1601.09</ele><time>2026-8-28T10:47:49Z</time></trkpt><trkpt lat="42.2088487539" lon="13.4794140421"><ele>1598.46</ele><time>2026-8-28T10:47:58Z</time></trkpt><trkpt lat="42.2088471627" lon="13.4792544520"><ele>1595.55</ele><time>2026-8-28T10:48:6Z</time></trkpt><trkpt lat="42.2087719291" lon="13.4791228501"><ele>1593.60</ele><time>2026-8-28T10:48:13Z</time></trkpt><trkpt lat="42.2087133117" lon="13.4789650329"><ele>1591.34</ele><time>2026-8-28T10:48:20Z</time></trkpt><trkpt lat="42.2086660657" lon="13.4787995881"><ele>1589.14</ele><time>2026-8-28T10:48:26Z</time></trkpt><trkpt lat="42.2086047102" lon="13.4786389712"><ele>1587.39</ele><time>2026-8-28T10:48:32Z</time></trkpt><trkpt lat="42.2085225915" lon="13.4784808263"><ele>1585.05</ele><time>2026-8-28T10:48:38Z</time></trkpt><trkpt lat="42.2084505390" lon="13.4783297265"><ele>1582.66</ele><time>2026-8-28T10:48:44Z</time></trkpt><trkpt lat="42.2084211130" lon="13.4781578835"><ele>1580.71</ele><time>2026-8-28T10:48:50Z</time></trkpt><trkpt lat="42.2083969647" lon="13.4779840708"><ele>1579.52</ele><time>2026-8-28T10:48:55Z</time></trkpt><trkpt lat="42.2083999570" lon="13.4777984004"><ele>1578.44</ele><time>2026-8-28T10:49:1Z</time></trkpt><trkpt lat="42.2084618945" lon="13.4776335715"><ele>1577.04</ele><time>2026-8-28T10:49:7Z</time></trkpt><trkpt lat="42.2085623983" lon="13.4775464740"><ele>1572.88</ele><time>2026-8-28T10:49:15Z</time></trkpt><trkpt lat="42.2086830487" lon="13.4775010582"><ele>1567.00</ele><time>2026-8-28T10:49:27Z</time></trkpt><trkpt lat="42.2087955158" lon="13.4775613770"><ele>1562.62</ele><time>2026-8-28T10:49:41Z</time></trkpt><trkpt lat="42.2087961249" lon="13.4775767941"><ele>1559.03</ele><time>2026-8-28T10:50:20Z</time></trkpt><trkpt lat="42.2088023182" lon="13.4775756020"><ele>1559.38</ele><time>2026-8-28T10:51:18Z</time></trkpt><trkpt lat="42.2088232922" lon="13.4775588663"><ele>1558.49</ele><time>2026-8-28T10:52:13Z</time></trkpt><trkpt lat="42.2088207370" lon="13.4775527051"><ele>1559.20</ele><time>2026-8-28T10:53:6Z</time></trkpt><trkpt lat="42.2088234099" lon="13.4775542483"><ele>1559.38</ele><time>2026-8-28T10:54:8Z</time></trkpt><trkpt lat="42.2088541573" lon="13.4775412822"><ele>1559.32</ele><time>2026-8-28T10:55:10Z</time></trkpt><trkpt lat="42.2089894675" lon="13.4775858186"><ele>1558.61</ele><time>2026-8-28T10:55:38Z</time></trkpt><trkpt lat="42.2091291798" lon="13.4776238864"><ele>1555.82</ele><time>2026-8-28T10:55:44Z</time></trkpt><trkpt lat="42.2092624860" lon="13.4776422767"><ele>1551.70</ele><time>2026-8-28T10:55:51Z</time></trkpt><trkpt lat="42.2094008094" lon="13.4776352160"><ele>1547.11</ele><time>2026-8-28T10:55:57Z</time></trkpt><trkpt lat="42.2095276835" lon="13.4776312695"><ele>1543.93</ele><time>2026-8-28T10:56:2Z</time></trkpt><trkpt lat="42.2096622908" lon="13.4776460126"><ele>1539.98</ele><time>2026-8-28T10:56:8Z</time></trkpt><trkpt lat="42.2097931104" lon="13.4776531253"><ele>1535.70</ele><time>2026-8-28T10:56:14Z</time></trkpt><trkpt lat="42.2099363152" lon="13.4776827414"><ele>1531.64</ele><time>2026-8-28T10:56:20Z</time></trkpt><trkpt lat="42.2100674864" lon="13.4777194932"><ele>1528.34</ele><time>2026-8-28T10:56:26Z</time></trkpt><trkpt lat="42.2102060030" lon="13.4777193144"><ele>1524.33</ele><time>2026-8-28T10:56:31Z</time></trkpt><trkpt lat="42.2103236038" lon="13.4777314123"><ele>1521.07</ele><time>2026-8-28T10:56:37Z</time></trkpt><trkpt lat="42.2104418557" lon="13.4778131079"><ele>1518.01</ele><time>2026-8-28T10:56:42Z</time></trkpt><trkpt lat="42.2105656774" lon="13.4778698604"><ele>1515.43</ele><time>2026-8-28T10:56:47Z</time></trkpt><trkpt lat="42.2106945366" lon="13.4779231902"><ele>1512.63</ele><time>2026-8-28T10:56:52Z</time></trkpt><trkpt lat="42.2108207806" lon="13.4779750532"><ele>1509.44</ele><time>2026-8-28T10:56:56Z</time></trkpt><trkpt lat="42.2109362371" lon="13.4780548867"><ele>1505.95</ele><time>2026-8-28T10:57:1Z</time></trkpt><trkpt lat="42.2110435758" lon="13.4781681597"><ele>1502.17</ele><time>2026-8-28T10:57:6Z</time></trkpt><trkpt lat="42.2111508977" lon="13.4783031586"><ele>1498.99</ele><time>2026-8-28T10:57:11Z</time></trkpt><trkpt lat="42.2112500388" lon="13.4784112684"><ele>1496.17</ele><time>2026-8-28T10:57:15Z</time></trkpt><trkpt lat="42.2113561118" lon="13.4785197932"><ele>1494.11</ele><time>2026-8-28T10:57:18Z</time></trkpt><trkpt lat="42.2114777751" lon="13.4786115331"><ele>1491.50</ele><time>2026-8-28T10:57:22Z</time></trkpt><trkpt lat="42.2115936968" lon="13.4786397759"><ele>1487.49</ele><time>2026-8-28T10:57:27Z</time></trkpt><trkpt lat="42.2117191181" lon="13.4785476700"><ele>1483.85</ele><time>2026-8-28T10:57:32Z</time></trkpt><trkpt lat="42.2118305695" lon="13.4784222697"><ele>1481.13</ele><time>2026-8-28T10:57:37Z</time></trkpt><trkpt lat="42.2119304482" lon="13.4783093445"><ele>1478.92</ele><time>2026-8-28T10:57:42Z</time></trkpt><trkpt lat="42.2120571742" lon="13.4782958497"><ele>1476.94</ele><time>2026-8-28T10:57:46Z</time></trkpt><trkpt lat="42.2121687792" lon="13.4783749120"><ele>1474.78</ele><time>2026-8-28T10:57:50Z</time></trkpt><trkpt lat="42.2122926638" lon="13.4784603445"><ele>1472.70</ele><time>2026-8-28T10:57:54Z</time></trkpt><trkpt lat="42.2124144109" lon="13.4785229783"><ele>1470.46</ele><time>2026-8-28T10:57:58Z</time></trkpt><trkpt lat="42.2125292570" lon="13.4785876516"><ele>1468.11</ele><time>2026-8-28T10:58:2Z</time></trkpt><trkpt lat="42.2126476932" lon="13.4786436707"><ele>1466.36</ele><time>2026-8-28T10:58:5Z</time></trkpt><trkpt lat="42.2127752099" lon="13.4787067026"><ele>1464.40</ele><time>2026-8-28T10:58:8Z</time></trkpt><trkpt lat="42.2129151598" lon="13.4787733667"><ele>1462.34</ele><time>2026-8-28T10:58:11Z</time></trkpt><trkpt lat="42.2130433889" lon="13.4788377397"><ele>1459.34</ele><time>2026-8-28T10:58:13Z</time></trkpt><trkpt lat="42.2131650522" lon="13.4789071418"><ele>1456.84</ele><time>2026-8-28T10:58:16Z</time></trkpt><trkpt lat="42.2132920101" lon="13.4789994825"><ele>1453.96</ele><time>2026-8-28T10:58:19Z</time></trkpt><trkpt lat="42.2133938363" lon="13.4791085590"><ele>1451.82</ele><time>2026-8-28T10:58:21Z</time></trkpt><trkpt lat="42.2134958022" lon="13.4791984968"><ele>1449.93</ele><time>2026-8-28T10:58:23Z</time></trkpt><trkpt lat="42.2136130231" lon="13.4793165769"><ele>1448.11</ele><time>2026-8-28T10:58:26Z</time></trkpt><trkpt lat="42.2136691119" lon="13.4794753231"><ele>1446.50</ele><time>2026-8-28T10:58:30Z</time></trkpt><trkpt lat="42.2136980239" lon="13.4796508010"><ele>1445.22</ele><time>2026-8-28T10:58:34Z</time></trkpt><trkpt lat="42.2137908312" lon="13.4796934342"><ele>1444.28</ele><time>2026-8-28T10:58:39Z</time></trkpt><trkpt lat="42.2138000054" lon="13.4795322283"><ele>1443.29</ele><time>2026-8-28T10:58:46Z</time></trkpt><trkpt lat="42.2137557529" lon="13.4793667495"><ele>1442.73</ele><time>2026-8-28T10:58:51Z</time></trkpt><trkpt lat="42.2137034777" lon="13.4792086948"><ele>1442.50</ele><time>2026-8-28T10:58:54Z</time></trkpt><trkpt lat="42.2136604646" lon="13.4790404141"><ele>1442.14</ele><time>2026-8-28T10:58:56Z</time></trkpt><trkpt lat="42.2136698105" lon="13.4788578842"><ele>1441.57</ele><time>2026-8-28T10:58:59Z</time></trkpt><trkpt lat="42.2137456667" lon="13.4786768071"><ele>1441.15</ele><time>2026-8-28T10:59:2Z</time></trkpt><trkpt lat="42.2138544219" lon="13.4785980173"><ele>1440.77</ele><time>2026-8-28T10:59:4Z</time></trkpt><trkpt lat="42.2139218543" lon="13.4787102510"><ele>1440.47</ele><time>2026-8-28T10:59:6Z</time></trkpt><trkpt lat="42.2139214631" lon="13.4789007995"><ele>1440.11</ele><time>2026-8-28T10:59:9Z</time></trkpt><trkpt lat="42.2139601596" lon="13.4790708404"><ele>1439.36</ele><time>2026-8-28T10:59:12Z</time></trkpt><trkpt lat="42.2140666098" lon="13.4792013466"><ele>1438.63</ele><time>2026-8-28T10:59:16Z</time></trkpt><trkpt lat="42.2141350800" lon="13.4792634072"><ele>1435.83</ele><time>2026-8-28T10:59:36Z</time></trkpt><trkpt lat="42.2141601853" lon="13.4794282364"><ele>1434.62</ele><time>2026-8-28T10:59:58Z</time></trkpt><trkpt lat="42.2141450165" lon="13.4793821323"><ele>1434.74</ele><time>2026-8-28T11:0:7Z</time></trkpt><trkpt lat="42.2141227850" lon="13.4794096788"><ele>1434.71</ele><time>2026-8-28T11:0:38Z</time></trkpt><trkpt lat="42.2141836316" lon="13.4793984785"><ele>1434.22</ele><time>2026-8-28T11:1:10Z</time></trkpt><trkpt lat="42.2143109981" lon="13.4794968925"><ele>1433.93</ele><time>2026-8-28T11:1:16Z</time></trkpt><trkpt lat="42.2144354414" lon="13.4796122555"><ele>1433.63</ele><time>2026-8-28T11:1:19Z</time></trkpt><trkpt lat="42.2145512514" lon="13.4797342262"><ele>1433.07</ele><time>2026-8-28T11:1:21Z</time></trkpt><trkpt lat="42.2146575758" lon="13.4798304923"><ele>1432.55</ele><time>2026-8-28T11:1:23Z</time></trkpt><trkpt lat="42.2147865314" lon="13.4799032892"><ele>1432.16</ele><time>2026-8-28T11:1:25Z</time></trkpt><trkpt lat="42.2148972563" lon="13.4799351823"><ele>1431.93</ele><time>2026-8-28T11:1:27Z</time></trkpt><trkpt lat="42.2150128009" lon="13.4799548379"><ele>1431.58</ele><time>2026-8-28T11:1:28Z</time></trkpt><trkpt lat="42.2151673632" lon="13.4799817857"><ele>1431.04</ele><time>2026-8-28T11:1:30Z</time></trkpt><trkpt lat="42.2153176927" lon="13.4800195042"><ele>1430.49</ele><time>2026-8-28T11:1:32Z</time></trkpt><trkpt lat="42.2154322732" lon="13.4800520260"><ele>1430.09</ele><time>2026-8-28T11:1:34Z</time></trkpt><trkpt lat="42.2155450518" lon="13.4800729388"><ele>1429.76</ele><time>2026-8-28T11:1:35Z</time></trkpt><trkpt lat="42.2156963032" lon="13.4800881939"><ele>1429.33</ele><time>2026-8-28T11:1:37Z</time></trkpt><trkpt lat="42.2158330959" lon="13.4800998029"><ele>1428.64</ele><time>2026-8-28T11:1:39Z</time></trkpt><trkpt lat="42.2159498558" lon="13.4800840030"><ele>1428.04</ele><time>2026-8-28T11:1:41Z</time></trkpt><trkpt lat="42.2160702618" lon="13.4800254554"><ele>1427.64</ele><time>2026-8-28T11:1:43Z</time></trkpt><trkpt lat="42.2162080743" lon="13.4799223859"><ele>1427.13</ele><time>2026-8-28T11:1:46Z</time></trkpt><trkpt lat="42.2163385665" lon="13.4797904687"><ele>1426.66</ele><time>2026-8-28T11:1:48Z</time></trkpt><trkpt lat="42.2164407838" lon="13.4796821326"><ele>1426.07</ele><time>2026-8-28T11:1:50Z</time></trkpt><trkpt lat="42.2165647103" lon="13.4796142811"><ele>1425.51</ele><time>2026-8-28T11:1:52Z</time></trkpt><trkpt lat="42.2166911932" lon="13.4795526742"><ele>1425.21</ele><time>2026-8-28T11:1:54Z</time></trkpt><trkpt lat="42.2168124374" lon="13.4794731718"><ele>1424.93</ele><time>2026-8-28T11:1:56Z</time></trkpt><trkpt lat="42.2169326339" lon="13.4793880535"><ele>1424.55</ele><time>2026-8-28T11:1:58Z</time></trkpt><trkpt lat="42.2170571471" lon="13.4793014266"><ele>1424.18</ele><time>2026-8-28T11:2:0Z</time></trkpt><trkpt lat="42.2171662376" lon="13.4792319825"><ele>1423.71</ele><time>2026-8-28T11:2:2Z</time></trkpt><trkpt lat="42.2172386306" lon="13.4791864708"><ele>1420.48</ele><time>2026-8-28T11:2:35Z</time></trkpt><trkpt lat="42.2172200057" lon="13.4792097731"><ele>1418.51</ele><time>2026-8-28T11:3:53Z</time></trkpt><trkpt lat="42.2173133399" lon="13.4791109059"><ele>1417.48</ele><time>2026-8-28T11:4:43Z</time></trkpt><trkpt lat="42.2174364142" lon="13.4790379554"><ele>1417.44</ele><time>2026-8-28T11:4:47Z</time></trkpt><trkpt lat="42.2175497375" lon="13.4789611492"><ele>1417.44</ele><time>2026-8-28T11:4:50Z</time></trkpt><trkpt lat="42.2176673077" lon="13.4788719378"><ele>1417.35</ele><time>2026-8-28T11:4:53Z</time></trkpt><trkpt lat="42.2177878395" lon="13.4787860792"><ele>1417.25</ele><time>2026-8-28T11:4:56Z</time></trkpt><trkpt lat="42.2179146297" lon="13.4787072335"><ele>1417.30</ele><time>2026-8-28T11:4:59Z</time></trkpt><trkpt lat="42.2180451360" lon="13.4786185249"><ele>1417.34</ele><time>2026-8-28T11:5:2Z</time></trkpt><trkpt lat="42.2181607085" lon="13.4785437025"><ele>1417.28</ele><time>2026-8-28T11:5:4Z</time></trkpt><trkpt lat="42.2182746604" lon="13.4784617275"><ele>1416.93</ele><time>2026-8-28T11:5:7Z</time></trkpt><trkpt lat="42.2183974553" lon="13.4783714544"><ele>1416.39</ele><time>2026-8-28T11:5:9Z</time></trkpt><trkpt lat="42.2185020615" lon="13.4782999568"><ele>1416.06</ele><time>2026-8-28T11:5:11Z</time></trkpt><trkpt lat="42.2186104395" lon="13.4782244358"><ele>1415.85</ele><time>2026-8-28T11:5:13Z</time></trkpt><trkpt lat="42.2187566757" lon="13.4781541955"><ele>1415.58</ele><time>2026-8-28T11:5:16Z</time></trkpt><trkpt lat="42.2189102601" lon="13.4780950192"><ele>1415.06</ele><time>2026-8-28T11:5:18Z</time></trkpt><trkpt lat="42.2190431133" lon="13.4780746932"><ele>1414.85</ele><time>2026-8-28T11:5:20Z</time></trkpt><trkpt lat="42.2191853123" lon="13.4780606954"><ele>1414.66</ele><time>2026-8-28T11:5:22Z</time></trkpt><trkpt lat="42.2192950733" lon="13.4780493379"><ele>1414.38</ele><time>2026-8-28T11:5:24Z</time></trkpt><trkpt lat="42.2194055049" lon="13.4780453565"><ele>1413.82</ele><time>2026-8-28T11:5:25Z</time></trkpt><trkpt lat="42.2195556667" lon="13.4780371003"><ele>1412.91</ele><time>2026-8-28T11:5:27Z</time></trkpt><trkpt lat="42.2197082174" lon="13.4780278802"><ele>1412.28</ele><time>2026-8-28T11:5:29Z</time></trkpt><trkpt lat="42.2198246419" lon="13.4780200850"><ele>1411.92</ele><time>2026-8-28T11:5:31Z</time></trkpt><trkpt lat="42.2199441679" lon="13.4780085180"><ele>1411.57</ele><time>2026-8-28T11:5:32Z</time></trkpt><trkpt lat="42.2201058129" lon="13.4779947717"><ele>1410.89</ele><time>2026-8-28T11:5:34Z</time></trkpt><trkpt lat="42.2202290688" lon="13.4779894911"><ele>1410.34</ele><time>2026-8-28T11:5:36Z</time></trkpt><trkpt lat="42.2203529114" lon="13.4779770859"><ele>1409.70</ele><time>2026-8-28T11:5:37Z</time></trkpt><trkpt lat="42.2205200885" lon="13.4779647645"><ele>1408.99</ele><time>2026-8-28T11:5:39Z</time></trkpt><trkpt lat="42.2206493374" lon="13.4779504314"><ele>1408.57</ele><time>2026-8-28T11:5:41Z</time></trkpt><trkpt lat="42.2207826097" lon="13.4779411694"><ele>1407.57</ele><time>2026-8-28T11:5:42Z</time></trkpt><trkpt lat="42.2209171392" lon="13.4779331647"><ele>1406.83</ele><time>2026-8-28T11:5:44Z</time></trkpt><trkpt lat="42.2210530518" lon="13.4779210109"><ele>1406.11</ele><time>2026-8-28T11:5:45Z</time></trkpt><trkpt lat="42.2211900540" lon="13.4779075999"><ele>1405.47</ele><time>2026-8-28T11:5:47Z</time></trkpt><trkpt lat="42.2213282297" lon="13.4778980445"><ele>1404.88</ele><time>2026-8-28T11:5:48Z</time></trkpt><trkpt lat="42.2214686684" lon="13.4778899979"><ele>1404.16</ele><time>2026-8-28T11:5:50Z</time></trkpt><trkpt lat="42.2215629648" lon="13.4778851364"><ele>1403.60</ele><time>2026-8-28T11:5:51Z</time></trkpt><trkpt lat="42.2217023140" lon="13.4778836696"><ele>1402.44</ele><time>2026-8-28T11:5:52Z</time></trkpt><trkpt lat="42.2218363825" lon="13.4779075999"><ele>1401.31</ele><time>2026-8-28T11:5:54Z</time></trkpt><trkpt lat="42.2219600156" lon="13.4779759543"><ele>1400.53</ele><time>2026-8-28T11:5:55Z</time></trkpt><trkpt lat="42.2220851155" lon="13.4781375574"><ele>1399.56</ele><time>2026-8-28T11:5:57Z</time></trkpt><trkpt lat="42.2221340239" lon="13.4782946762"><ele>1399.01</ele><time>2026-8-28T11:5:59Z</time></trkpt><trkpt lat="42.2221641150" lon="13.4784552735"><ele>1398.53</ele><time>2026-8-28T11:6:0Z</time></trkpt><trkpt lat="42.2222059407" lon="13.4786620131"><ele>1397.65</ele><time>2026-8-28T11:6:2Z</time></trkpt><trkpt lat="42.2222368699" lon="13.4788145218"><ele>1396.86</ele><time>2026-8-28T11:6:4Z</time></trkpt><trkpt lat="42.2222779412" lon="13.4789620433"><ele>1395.57</ele><time>2026-8-28T11:6:5Z</time></trkpt><trkpt lat="42.2223573597" lon="13.4791461518"><ele>1394.63</ele><time>2026-8-28T11:6:7Z</time></trkpt><trkpt lat="42.2224340960" lon="13.4792754427"><ele>1394.00</ele><time>2026-8-28T11:6:9Z</time></trkpt><trkpt lat="42.2225240758" lon="13.4793972736"><ele>1393.41</ele><time>2026-8-28T11:6:10Z</time></trkpt><trkpt lat="42.2226174921" lon="13.4795175958"><ele>1392.74</ele><time>2026-8-28T11:6:12Z</time></trkpt><trkpt lat="42.2227101540" lon="13.4796412709"><ele>1391.99</ele><time>2026-8-28T11:6:13Z</time></trkpt><trkpt lat="42.2227994632" lon="13.4797681309"><ele>1391.43</ele><time>2026-8-28T11:6:15Z</time></trkpt><trkpt lat="42.2228911612" lon="13.4798922251"><ele>1390.34</ele><time>2026-8-28T11:6:16Z</time></trkpt><trkpt lat="42.2230102262" lon="13.4800557979"><ele>1388.77</ele><time>2026-8-28T11:6:18Z</time></trkpt><trkpt lat="42.2230955958" lon="13.4801761620"><ele>1387.61</ele><time>2026-8-28T11:6:20Z</time></trkpt><trkpt lat="42.2231809236" lon="13.4802960651"><ele>1386.45</ele><time>2026-8-28T11:6:21Z</time></trkpt><trkpt lat="42.2232975997" lon="13.4804499988"><ele>1385.27</ele><time>2026-8-28T11:6:23Z</time></trkpt><trkpt lat="42.2233860288" lon="13.4805674292"><ele>1384.52</ele><time>2026-8-28T11:6:25Z</time></trkpt><trkpt lat="42.2234758828" lon="13.4806881287"><ele>1383.63</ele><time>2026-8-28T11:6:26Z</time></trkpt><trkpt lat="42.2235662397" lon="13.4808109235"><ele>1382.10</ele><time>2026-8-28T11:6:28Z</time></trkpt><trkpt lat="42.2236578120" lon="13.4809344309"><ele>1381.31</ele><time>2026-8-28T11:6:29Z</time></trkpt><trkpt lat="42.2237516474" lon="13.4810587764"><ele>1380.67</ele><time>2026-8-28T11:6:31Z</time></trkpt><trkpt lat="42.2238467401" lon="13.4811896598"><ele>1380.11</ele><time>2026-8-28T11:6:32Z</time></trkpt><trkpt lat="42.2239430901" lon="13.4813192859"><ele>1379.59</ele><time>2026-8-28T11:6:34Z</time></trkpt><trkpt lat="42.2240425833" lon="13.4814474033"><ele>1379.08</ele><time>2026-8-28T11:6:35Z</time></trkpt><trkpt lat="42.2241438366" lon="13.4815752693"><ele>1378.48</ele><time>2026-8-28T11:6:37Z</time></trkpt><trkpt lat="42.2242475208" lon="13.4816993214"><ele>1377.73</ele><time>2026-8-28T11:6:38Z</time></trkpt><trkpt lat="42.2243546415" lon="13.4818196855"><ele>1376.72</ele><time>2026-8-28T11:6:40Z</time></trkpt><trkpt lat="42.2244734550" lon="13.4819209809"><ele>1375.56</ele><time>2026-8-28T11:6:41Z</time></trkpt><trkpt lat="42.2245964594" lon="13.4820144810"><ele>1374.57</ele><time>2026-8-28T11:6:43Z</time></trkpt><trkpt lat="42.2247186257" lon="13.4821028262"><ele>1373.96</ele><time>2026-8-28T11:6:44Z</time></trkpt><trkpt lat="42.2248410434" lon="13.4821907524"><ele>1373.57</ele><time>2026-8-28T11:6:46Z</time></trkpt><trkpt lat="42.2249637964" lon="13.4822715121"><ele>1373.29</ele><time>2026-8-28T11:6:47Z</time></trkpt><trkpt lat="42.2250843700" lon="13.4823558759"><ele>1372.92</ele><time>2026-8-28T11:6:49Z</time></trkpt><trkpt lat="42.2252040217" lon="13.4824418743"><ele>1371.96</ele><time>2026-8-28T11:6:50Z</time></trkpt><trkpt lat="42.2253262717" lon="13.4825271182"><ele>1370.80</ele><time>2026-8-28T11:6:52Z</time></trkpt><trkpt lat="42.2254094202" lon="13.4825852886"><ele>1370.10</ele><time>2026-8-28T11:6:53Z</time></trkpt><trkpt lat="42.2255317960" lon="13.4826788307"><ele>1369.22</ele><time>2026-8-28T11:6:54Z</time></trkpt><trkpt lat="42.2256510705" lon="13.4827749711"><ele>1368.63</ele><time>2026-8-28T11:6:56Z</time></trkpt><trkpt lat="42.2257572692" lon="13.4828934074"><ele>1367.94</ele><time>2026-8-28T11:6:57Z</time></trkpt><trkpt lat="42.2258393280" lon="13.4830408450"><ele>1367.19</ele><time>2026-8-28T11:6:59Z</time></trkpt><trkpt lat="42.2258857638" lon="13.4832144762"><ele>1366.65</ele><time>2026-8-28T11:7:0Z</time></trkpt><trkpt lat="42.2259124182" lon="13.4833975788"><ele>1365.42</ele><time>2026-8-28T11:7:2Z</time></trkpt><trkpt lat="42.2259309003" lon="13.4835865069"><ele>1364.41</ele><time>2026-8-28T11:7:3Z</time></trkpt><trkpt lat="42.2259495500" lon="13.4837790392"><ele>1363.38</ele><time>2026-8-28T11:7:5Z</time></trkpt><trkpt lat="42.2259634640" lon="13.4839087911"><ele>1362.79</ele><time>2026-8-28T11:7:6Z</time></trkpt><trkpt lat="42.2259830358" lon="13.4841071069"><ele>1362.13</ele><time>2026-8-28T11:7:7Z</time></trkpt><trkpt lat="42.2260014340" lon="13.4843090270"><ele>1361.38</ele><time>2026-8-28T11:7:9Z</time></trkpt><trkpt lat="42.2260151803" lon="13.4844453167"><ele>1360.85</ele><time>2026-8-28T11:7:10Z</time></trkpt><trkpt lat="42.2260360094" lon="13.4846517630"><ele>1360.04</ele><time>2026-8-28T11:7:11Z</time></trkpt><trkpt lat="42.2260539886" lon="13.4848607238"><ele>1359.27</ele><time>2026-8-28T11:7:13Z</time></trkpt><trkpt lat="42.2260666452" lon="13.4850001987"><ele>1358.58</ele><time>2026-8-28T11:7:14Z</time></trkpt><trkpt lat="42.2260885639" lon="13.4852101654"><ele>1358.10</ele><time>2026-8-28T11:7:15Z</time></trkpt><trkpt lat="42.2261103988" lon="13.4854196291"><ele>1357.64</ele><time>2026-8-28T11:7:17Z</time></trkpt><trkpt lat="42.2261250671" lon="13.4855580982"><ele>1357.30</ele><time>2026-8-28T11:7:18Z</time></trkpt><trkpt lat="42.2261394840" lon="13.4856979921"><ele>1356.87</ele><time>2026-8-28T11:7:19Z</time></trkpt><trkpt lat="42.2261596006" lon="13.4859104315"><ele>1356.26</ele><time>2026-8-28T11:7:20Z</time></trkpt><trkpt lat="42.2261847463" lon="13.4861242957"><ele>1355.62</ele><time>2026-8-28T11:7:22Z</time></trkpt><trkpt lat="42.2262080479" lon="13.4862665366"><ele>1355.10</ele><time>2026-8-28T11:7:23Z</time></trkpt><trkpt lat="42.2262384742" lon="13.4864072688"><ele>1354.55</ele><time>2026-8-28T11:7:24Z</time></trkpt><trkpt lat="42.2262906935" lon="13.4866180737"><ele>1353.07</ele><time>2026-8-28T11:7:25Z</time></trkpt><trkpt lat="42.2263448406" lon="13.4868288785"><ele>1352.33</ele><time>2026-8-28T11:7:27Z</time></trkpt><trkpt lat="42.2263807990" lon="13.4869709518"><ele>1351.85</ele><time>2026-8-28T11:7:28Z</time></trkpt><trkpt lat="42.2264132369" lon="13.4871145338"><ele>1351.31</ele><time>2026-8-28T11:7:29Z</time></trkpt><trkpt lat="42.2264461778" lon="13.4872565232"><ele>1350.71</ele><time>2026-8-28T11:7:30Z</time></trkpt><trkpt lat="42.2264955473" lon="13.4874643945"><ele>1349.70</ele><time>2026-8-28T11:7:31Z</time></trkpt><trkpt lat="42.2265446652" lon="13.4876676556"><ele>1348.74</ele><time>2026-8-28T11:7:33Z</time></trkpt><trkpt lat="42.2265761811" lon="13.4878001735"><ele>1348.12</ele><time>2026-8-28T11:7:34Z</time></trkpt><trkpt lat="42.2266247962" lon="13.4879961424"><ele>1347.04</ele><time>2026-8-28T11:7:35Z</time></trkpt><trkpt lat="42.2266702261" lon="13.4881938715"><ele>1344.94</ele><time>2026-8-28T11:7:37Z</time></trkpt><trkpt lat="42.2267031670" lon="13.4883251321"><ele>1344.17</ele><time>2026-8-28T11:7:38Z</time></trkpt><trkpt lat="42.2267565178" lon="13.4885238670"><ele>1343.14</ele><time>2026-8-28T11:7:39Z</time></trkpt><trkpt lat="42.2268197592" lon="13.4887185786"><ele>1342.17</ele><time>2026-8-28T11:7:41Z</time></trkpt><trkpt lat="42.2268699668" lon="13.4888447262"><ele>1341.57</ele><time>2026-8-28T11:7:42Z</time></trkpt><trkpt lat="42.2269292269" lon="13.4889656771"><ele>1341.05</ele><time>2026-8-28T11:7:43Z</time></trkpt><trkpt lat="42.2270258283" lon="13.4891456366"><ele>1340.29</ele><time>2026-8-28T11:7:44Z</time></trkpt><trkpt lat="42.2271254472" lon="13.4893261828"><ele>1339.54</ele><time>2026-8-28T11:7:46Z</time></trkpt><trkpt lat="42.2271928377" lon="13.4894476365"><ele>1339.14</ele><time>2026-8-28T11:7:47Z</time></trkpt><trkpt lat="42.2272603959" lon="13.4895706829"><ele>1338.47</ele><time>2026-8-28T11:7:48Z</time></trkpt><trkpt lat="42.2273260262" lon="13.4896965791"><ele>1338.02</ele><time>2026-8-28T11:7:49Z</time></trkpt><trkpt lat="42.2274274891" lon="13.4898830764"><ele>1337.28</ele><time>2026-8-28T11:7:50Z</time></trkpt><trkpt lat="42.2275316343" lon="13.4900691546"><ele>1336.65</ele><time>2026-8-28T11:7:52Z</time></trkpt><trkpt lat="42.2275977675" lon="13.4901958890"><ele>1336.24</ele><time>2026-8-28T11:7:53Z</time></trkpt><trkpt lat="42.2276628949" lon="13.4903233778"><ele>1335.81</ele><time>2026-8-28T11:7:54Z</time></trkpt><trkpt lat="42.2277293634" lon="13.4904484358"><ele>1335.47</ele><time>2026-8-28T11:7:55Z</time></trkpt><trkpt lat="42.2278003581" lon="13.4905692190"><ele>1335.14</ele><time>2026-8-28T11:7:56Z</time></trkpt><trkpt lat="42.2279117536" lon="13.4907514416"><ele>1334.27</ele><time>2026-8-28T11:7:57Z</time></trkpt><trkpt lat="42.2280337941" lon="13.4909280483"><ele>1333.05</ele><time>2026-8-28T11:7:59Z</time></trkpt><trkpt lat="42.2281249892" lon="13.4910389408"><ele>1331.59</ele><time>2026-8-28T11:8:0Z</time></trkpt><trkpt lat="42.2282207943" lon="13.4911461454"><ele>1331.15</ele><time>2026-8-28T11:8:1Z</time></trkpt><trkpt lat="42.2283195332" lon="13.4912509192"><ele>1330.81</ele><time>2026-8-28T11:8:2Z</time></trkpt><trkpt lat="42.2284193616" lon="13.4913547710"><ele>1330.49</ele><time>2026-8-28T11:8:3Z</time></trkpt><trkpt lat="42.2285180166" lon="13.4914573655"><ele>1330.14</ele><time>2026-8-28T11:8:4Z</time></trkpt><trkpt lat="42.2286139894" lon="13.4915611334"><ele>1329.68</ele><time>2026-8-28T11:8:5Z</time></trkpt><trkpt lat="42.2287064418" lon="13.4916656557"><ele>1329.13</ele><time>2026-8-28T11:8:6Z</time></trkpt><trkpt lat="42.2287933622" lon="13.4917751234"><ele>1328.52</ele><time>2026-8-28T11:8:7Z</time></trkpt><trkpt lat="42.2289136425" lon="13.4919456113"><ele>1327.61</ele><time>2026-8-28T11:8:8Z</time></trkpt><trkpt lat="42.2290286422" lon="13.4921212960"><ele>1326.75</ele><time>2026-8-28T11:8:10Z</time></trkpt><trkpt lat="42.2291032411" lon="13.4922414925"><ele>1325.30</ele><time>2026-8-28T11:8:11Z</time></trkpt><trkpt lat="42.2291780915" lon="13.4923612699"><ele>1324.45</ele><time>2026-8-28T11:8:12Z</time></trkpt><trkpt lat="42.2292539477" lon="13.4924788680"><ele>1323.66</ele><time>2026-8-28T11:8:13Z</time></trkpt><trkpt lat="42.2293265350" lon="13.4925990645"><ele>1322.98</ele><time>2026-8-28T11:8:14Z</time></trkpt><trkpt lat="42.2294349549" lon="13.4927776410"><ele>1322.03</ele><time>2026-8-28T11:8:15Z</time></trkpt><trkpt lat="42.2295408603" lon="13.4929533675"><ele>1321.31</ele><time>2026-8-28T11:8:17Z</time></trkpt><trkpt lat="42.2296076640" lon="13.4930695407"><ele>1321.05</ele><time>2026-8-28T11:8:18Z</time></trkpt><trkpt lat="42.2296735458" lon="13.4931825288"><ele>1320.85</ele><time>2026-8-28T11:8:19Z</time></trkpt><trkpt lat="42.2297724942" lon="13.4933457664"><ele>1320.31</ele><time>2026-8-28T11:8:20Z</time></trkpt><trkpt lat="42.2298727836" lon="13.4935040586"><ele>1319.49</ele><time>2026-8-28T11:8:22Z</time></trkpt><trkpt lat="42.2299394198" lon="13.4936077427"><ele>1318.28</ele><time>2026-8-28T11:8:23Z</time></trkpt><trkpt lat="42.2300345544" lon="13.4937649034"><ele>1317.44</ele><time>2026-8-28T11:8:24Z</time></trkpt><trkpt lat="42.2301285993" lon="13.4939179569"><ele>1316.70</ele><time>2026-8-28T11:8:26Z</time></trkpt><trkpt lat="42.2301900387" lon="13.4940191265"><ele>1316.35</ele><time>2026-8-28T11:8:27Z</time></trkpt><trkpt lat="42.2302823654" lon="13.4941678215"><ele>1316.08</ele><time>2026-8-28T11:8:28Z</time></trkpt><trkpt lat="42.2303744406" lon="13.4943131637"><ele>1315.90</ele><time>2026-8-28T11:8:30Z</time></trkpt><trkpt lat="42.2304643365" lon="13.4944598470"><ele>1315.75</ele><time>2026-8-28T11:8:31Z</time></trkpt><trkpt lat="42.2305538971" lon="13.4946058597"><ele>1315.50</ele><time>2026-8-28T11:8:33Z</time></trkpt><trkpt lat="42.2306469781" lon="13.4947470110"><ele>1314.63</ele><time>2026-8-28T11:8:34Z</time></trkpt><trkpt lat="42.2307396401" lon="13.4948859829"><ele>1314.20</ele><time>2026-8-28T11:8:36Z</time></trkpt><trkpt lat="42.2308322182" lon="13.4950194228"><ele>1313.82</ele><time>2026-8-28T11:8:37Z</time></trkpt><trkpt lat="42.2309283167" lon="13.4951436426"><ele>1313.48</ele><time>2026-8-28T11:8:39Z</time></trkpt><trkpt lat="42.2310286062" lon="13.4952611569"><ele>1313.07</ele><time>2026-8-28T11:8:40Z</time></trkpt><trkpt lat="42.2311293986" lon="13.4953701217"><ele>1312.64</ele><time>2026-8-28T11:8:42Z</time></trkpt><trkpt lat="42.2312261676" lon="13.4954860854"><ele>1312.41</ele><time>2026-8-28T11:8:43Z</time></trkpt><trkpt lat="42.2313211765" lon="13.4955995344"><ele>1312.24</ele><time>2026-8-28T11:8:45Z</time></trkpt><trkpt lat="42.2314163950" lon="13.4957073257"><ele>1311.72</ele><time>2026-8-28T11:8:46Z</time></trkpt><trkpt lat="42.2315378906" lon="13.4958449984"><ele>1310.85</ele><time>2026-8-28T11:8:48Z</time></trkpt><trkpt lat="42.2316496633" lon="13.4959731996"><ele>1309.94</ele><time>2026-8-28T11:8:50Z</time></trkpt><trkpt lat="42.2317548562" lon="13.4960945277"><ele>1309.18</ele><time>2026-8-28T11:8:52Z</time></trkpt><trkpt lat="42.2318515834" lon="13.4962107009"><ele>1308.38</ele><time>2026-8-28T11:8:54Z</time></trkpt><trkpt lat="42.2318939678" lon="13.4963472700"><ele>1306.74</ele><time>2026-8-28T11:8:58Z</time></trkpt><trkpt lat="42.2318833228" lon="13.4965148941"><ele>1305.73</ele><time>2026-8-28T11:9:3Z</time></trkpt><trkpt lat="42.2319045779" lon="13.4966936033"><ele>1304.98</ele><time>2026-8-28T11:9:6Z</time></trkpt><trkpt lat="42.2318630945" lon="13.4968626033"><ele>1304.20</ele><time>2026-8-28T11:9:10Z</time></trkpt><trkpt lat="42.2317817621" lon="13.4970052843"><ele>1303.93</ele><time>2026-8-28T11:9:13Z</time></trkpt><trkpt lat="42.2316843644" lon="13.4971399605"><ele>1303.60</ele><time>2026-8-28T11:9:17Z</time></trkpt><trkpt lat="42.2315999586" lon="13.4972570278"><ele>1303.34</ele><time>2026-8-28T11:9:20Z</time></trkpt><trkpt lat="42.2315005073" lon="13.4973940579"><ele>1303.32</ele><time>2026-8-28T11:9:23Z</time></trkpt><trkpt lat="42.2314092145" lon="13.4975338820"><ele>1303.34</ele><time>2026-8-28T11:9:27Z</time></trkpt><trkpt lat="42.2313160635" lon="13.4976685024"><ele>1303.29</ele><time>2026-8-28T11:9:30Z</time></trkpt><trkpt lat="42.2312232479" lon="13.4977990854"><ele>1303.25</ele><time>2026-8-28T11:9:34Z</time></trkpt><trkpt lat="42.2311364604" lon="13.4979202738"><ele>1303.30</ele><time>2026-8-28T11:9:37Z</time></trkpt><trkpt lat="42.2310393141" lon="13.4980604402"><ele>1303.25</ele><time>2026-8-28T11:9:41Z</time></trkpt><trkpt lat="42.2309505008" lon="13.4981877264"><ele>1303.20</ele><time>2026-8-28T11:9:45Z</time></trkpt><trkpt lat="42.2308461621" lon="13.4983310170"><ele>1303.21</ele><time>2026-8-28T11:9:50Z</time></trkpt><trkpt lat="42.2307636626" lon="13.4984647371"><ele>1303.63</ele><time>2026-8-28T11:9:56Z</time></trkpt><trkpt lat="42.2306676395" lon="13.4985992499"><ele>1303.78</ele><time>2026-8-28T11:10:0Z</time></trkpt><trkpt lat="42.2305754386" lon="13.4987233356"><ele>1303.77</ele><time>2026-8-28T11:10:4Z</time></trkpt><trkpt lat="42.2304799478" lon="13.4988488210"><ele>1303.80</ele><time>2026-8-28T11:10:8Z</time></trkpt><trkpt lat="42.2303817957" lon="13.4989645961"><ele>1304.00</ele><time>2026-8-28T11:10:12Z</time></trkpt><trkpt lat="42.2302861623" lon="13.4990911670"><ele>1304.23</ele><time>2026-8-28T11:10:17Z</time></trkpt><trkpt lat="42.2301980224" lon="13.4992195107"><ele>1304.32</ele><time>2026-8-28T11:10:21Z</time></trkpt><trkpt lat="42.2301077494" lon="13.4993437934"><ele>1304.10</ele><time>2026-8-28T11:10:25Z</time></trkpt><trkpt lat="42.2300104145" lon="13.4994829749"><ele>1304.02</ele><time>2026-8-28T11:10:29Z</time></trkpt><trkpt lat="42.2299038386" lon="13.4996303707"><ele>1304.24</ele><time>2026-8-28T11:10:33Z</time></trkpt><trkpt lat="42.2298134118" lon="13.4997515939"><ele>1304.25</ele><time>2026-8-28T11:10:37Z</time></trkpt><trkpt lat="42.2297265613" lon="13.4998744307"><ele>1304.28</ele><time>2026-8-28T11:10:40Z</time></trkpt><trkpt lat="42.2296275711" lon="13.5000172374"><ele>1304.21</ele><time>2026-8-28T11:10:44Z</time></trkpt><trkpt lat="42.2295362502" lon="13.5001419112"><ele>1304.11</ele><time>2026-8-28T11:10:48Z</time></trkpt><trkpt lat="42.2294426663" lon="13.5002736817"><ele>1304.02</ele><time>2026-8-28T11:10:51Z</time></trkpt><trkpt lat="42.2293467913" lon="13.5004127585"><ele>1303.97</ele><time>2026-8-28T11:10:55Z</time></trkpt><trkpt lat="42.2292605415" lon="13.5005297978"><ele>1304.02</ele><time>2026-8-28T11:10:58Z</time></trkpt><trkpt lat="42.2291550972" lon="13.5006572306"><ele>1304.05</ele><time>2026-8-28T11:11:1Z</time></trkpt><trkpt lat="42.2290495132" lon="13.5007876391"><ele>1304.05</ele><time>2026-8-28T11:11:3Z</time></trkpt><trkpt lat="42.2289574379" lon="13.5009098053"><ele>1303.86</ele><time>2026-8-28T11:11:5Z</time></trkpt><trkpt lat="42.2288665362" lon="13.5010310496"><ele>1303.48</ele><time>2026-8-28T11:11:7Z</time></trkpt><trkpt lat="42.2287696134" lon="13.5011601727"><ele>1303.03</ele><time>2026-8-28T11:11:10Z</time></trkpt><trkpt lat="42.2286771052" lon="13.5012951214"><ele>1302.46</ele><time>2026-8-28T11:11:13Z</time></trkpt><trkpt lat="42.2285836051" lon="13.5014416371"><ele>1301.99</ele><time>2026-8-28T11:11:16Z</time></trkpt><trkpt lat="42.2284984239" lon="13.5015678685"><ele>1301.95</ele><time>2026-8-28T11:11:20Z</time></trkpt><trkpt lat="42.2284098398" lon="13.5016992800"><ele>1302.56</ele><time>2026-8-28T11:11:25Z</time></trkpt><trkpt lat="42.2283212515" lon="13.5018373677"><ele>1302.84</ele><time>2026-8-28T11:11:29Z</time></trkpt><trkpt lat="42.2282193694" lon="13.5019730330"><ele>1302.98</ele><time>2026-8-28T11:11:34Z</time></trkpt><trkpt lat="42.2281205887" lon="13.5020904802"><ele>1303.17</ele><time>2026-8-28T11:11:38Z</time></trkpt><trkpt lat="42.2280252236" lon="13.5022036778"><ele>1303.39</ele><time>2026-8-28T11:11:42Z</time></trkpt><trkpt lat="42.2279105592" lon="13.5023133550"><ele>1303.46</ele><time>2026-8-28T11:11:46Z</time></trkpt><trkpt lat="42.2278017551" lon="13.5024143011"><ele>1303.37</ele><time>2026-8-28T11:11:50Z</time></trkpt><trkpt lat="42.2277077939" lon="13.5025148560"><ele>1303.25</ele><time>2026-8-28T11:11:53Z</time></trkpt><trkpt lat="42.2275925707" lon="13.5026403540"><ele>1302.98</ele><time>2026-8-28T11:11:56Z</time></trkpt><trkpt lat="42.2274832427" lon="13.5027561430"><ele>1302.65</ele><time>2026-8-28T11:12:0Z</time></trkpt><trkpt lat="42.2273773234" lon="13.5028596874"><ele>1302.56</ele><time>2026-8-28T11:12:3Z</time></trkpt><trkpt lat="42.2272737231" lon="13.5029734857"><ele>1302.52</ele><time>2026-8-28T11:12:7Z</time></trkpt><trkpt lat="42.2271699132" lon="13.5030834004"><ele>1302.48</ele><time>2026-8-28T11:12:10Z</time></trkpt><trkpt lat="42.2270609625" lon="13.5031996016"><ele>1302.42</ele><time>2026-8-28T11:12:14Z</time></trkpt><trkpt lat="42.2269564681" lon="13.5033122264"><ele>1302.21</ele><time>2026-8-28T11:12:17Z</time></trkpt><trkpt lat="42.2268428933" lon="13.5034301598"><ele>1302.07</ele><time>2026-8-28T11:12:20Z</time></trkpt><trkpt lat="42.2267276142" lon="13.5035456065"><ele>1301.90</ele><time>2026-8-28T11:12:23Z</time></trkpt><trkpt lat="42.2266190406" lon="13.5036570579"><ele>1301.70</ele><time>2026-8-28T11:12:26Z</time></trkpt><trkpt lat="42.2265181225" lon="13.5037631169"><ele>1301.57</ele><time>2026-8-28T11:12:29Z</time></trkpt><trkpt lat="42.2264202777" lon="13.5038607381"><ele>1301.41</ele><time>2026-8-28T11:12:32Z</time></trkpt><trkpt lat="42.2263152525" lon="13.5039692000"><ele>1301.19</ele><time>2026-8-28T11:12:35Z</time></trkpt><trkpt lat="42.2262041084" lon="13.5040956829"><ele>1301.04</ele><time>2026-8-28T11:12:39Z</time></trkpt><trkpt lat="42.2260896745" lon="13.5042138258"><ele>1301.02</ele><time>2026-8-28T11:12:43Z</time></trkpt><trkpt lat="42.2259888612" lon="13.5043184739"><ele>1301.11</ele><time>2026-8-28T11:12:47Z</time></trkpt><trkpt lat="42.2258864134" lon="13.5044270824"><ele>1301.04</ele><time>2026-8-28T11:12:50Z</time></trkpt><trkpt lat="42.2257740330" lon="13.5045384988"><ele>1300.74</ele><time>2026-8-28T11:12:54Z</time></trkpt><trkpt lat="42.2256682813" lon="13.5046402551"><ele>1300.39</ele><time>2026-8-28T11:12:57Z</time></trkpt><trkpt lat="42.2255551536" lon="13.5047366470"><ele>1299.97</ele><time>2026-8-28T11:13:0Z</time></trkpt><trkpt lat="42.2254356276" lon="13.5048490484"><ele>1299.64</ele><time>2026-8-28T11:13:3Z</time></trkpt><trkpt lat="42.2253326839" lon="13.5049575940"><ele>1299.27</ele><time>2026-8-28T11:13:5Z</time></trkpt><trkpt lat="42.2252355237" lon="13.5050689336"><ele>1298.89</ele><time>2026-8-28T11:13:8Z</time></trkpt><trkpt lat="42.2251220257" lon="13.5051976727"><ele>1298.34</ele><time>2026-8-28T11:13:11Z</time></trkpt><trkpt lat="42.2250199970" lon="13.5053027608"><ele>1298.12</ele><time>2026-8-28T11:13:15Z</time></trkpt><trkpt lat="42.2249203990" lon="13.5054099024"><ele>1298.09</ele><time>2026-8-28T11:13:18Z</time></trkpt><trkpt lat="42.2248052526" lon="13.5055268300"><ele>1298.10</ele><time>2026-8-28T11:13:22Z</time></trkpt><trkpt lat="42.2246946115" lon="13.5056439880"><ele>1298.15</ele><time>2026-8-28T11:13:26Z</time></trkpt><trkpt lat="42.2245896072" lon="13.5057578772"><ele>1298.06</ele><time>2026-8-28T11:13:29Z</time></trkpt><trkpt lat="42.2244814178" lon="13.5058750981"><ele>1298.05</ele><time>2026-8-28T11:13:33Z</time></trkpt><trkpt lat="42.2243785802" lon="13.5059868917"><ele>1298.01</ele><time>2026-8-28T11:13:38Z</time></trkpt><trkpt lat="42.2242676678" lon="13.5060992397"><ele>1297.99</ele><time>2026-8-28T11:13:46Z</time></trkpt><trkpt lat="42.2242047290" lon="13.5061962805"><ele>1297.57</ele><time>2026-8-28T11:14:1Z</time></trkpt><trkpt lat="42.2241162183" lon="13.5063039232"><ele>1297.14</ele><time>2026-8-28T11:14:13Z</time></trkpt><trkpt lat="42.2240101453" lon="13.5064187274"><ele>1296.98</ele><time>2026-8-28T11:14:18Z</time></trkpt><trkpt lat="42.2239044327" lon="13.5065270550"><ele>1297.29</ele><time>2026-8-28T11:14:23Z</time></trkpt><trkpt lat="42.2237900156" lon="13.5066393810"><ele>1297.47</ele><time>2026-8-28T11:14:27Z</time></trkpt><trkpt lat="42.2236706223" lon="13.5067476332"><ele>1297.53</ele><time>2026-8-28T11:14:31Z</time></trkpt><trkpt lat="42.2235675808" lon="13.5068505909"><ele>1297.49</ele><time>2026-8-28T11:14:34Z</time></trkpt><trkpt lat="42.2234713566" lon="13.5069505870"><ele>1297.50</ele><time>2026-8-28T11:14:37Z</time></trkpt><trkpt lat="42.2233568598" lon="13.5070669209"><ele>1297.73</ele><time>2026-8-28T11:14:40Z</time></trkpt><trkpt lat="42.2232469730" lon="13.5071856156"><ele>1297.93</ele><time>2026-8-28T11:14:44Z</time></trkpt><trkpt lat="42.2231432470" lon="13.5072861286"><ele>1297.71</ele><time>2026-8-28T11:14:47Z</time></trkpt><trkpt lat="42.2230372913" lon="13.5073970295"><ele>1297.54</ele><time>2026-8-28T11:14:52Z</time></trkpt><trkpt lat="42.2229329702" lon="13.5075095482"><ele>1298.10</ele><time>2026-8-28T11:14:57Z</time></trkpt><trkpt lat="42.2228240892" lon="13.5076091588"><ele>1298.45</ele><time>2026-8-28T11:15:2Z</time></trkpt><trkpt lat="42.2227130982" lon="13.5077363730"><ele>1299.09</ele><time>2026-8-28T11:15:8Z</time></trkpt><trkpt lat="42.2226114432" lon="13.5078441957"><ele>1299.64</ele><time>2026-8-28T11:15:15Z</time></trkpt><trkpt lat="42.2225015424" lon="13.5079552559"><ele>1299.84</ele><time>2026-8-28T11:15:21Z</time></trkpt><trkpt lat="42.2223923709" lon="13.5080670454"><ele>1300.29</ele><time>2026-8-28T11:15:27Z</time></trkpt><trkpt lat="42.2222894747" lon="13.5081911813"><ele>1300.47</ele><time>2026-8-28T11:15:32Z</time></trkpt><trkpt lat="42.2221898055" lon="13.5083011561"><ele>1300.58</ele><time>2026-8-28T11:15:36Z</time></trkpt><trkpt lat="42.2220845707" lon="13.5083935037"><ele>1300.47</ele><time>2026-8-28T11:15:40Z</time></trkpt><trkpt lat="42.2219805513" lon="13.5084955953"><ele>1300.63</ele><time>2026-8-28T11:15:44Z</time></trkpt><trkpt lat="42.2218696587" lon="13.5086152721"><ele>1300.76</ele><time>2026-8-28T11:15:49Z</time></trkpt><trkpt lat="42.2217591014" lon="13.5087302327"><ele>1300.97</ele><time>2026-8-28T11:15:53Z</time></trkpt><trkpt lat="42.2216589097" lon="13.5088301171"><ele>1300.97</ele><time>2026-8-28T11:15:56Z</time></trkpt><trkpt lat="42.2215470113" lon="13.5089471843"><ele>1300.73</ele><time>2026-8-28T11:15:59Z</time></trkpt><trkpt lat="42.2214255575" lon="13.5090713482"><ele>1300.57</ele><time>2026-8-28T11:16:2Z</time></trkpt><trkpt lat="42.2213268467" lon="13.5091661895"><ele>1300.53</ele><time>2026-8-28T11:16:4Z</time></trkpt><trkpt lat="42.2212227225" lon="13.5092711099"><ele>1300.17</ele><time>2026-8-28T11:16:7Z</time></trkpt><trkpt lat="42.2211015830" lon="13.5093480768"><ele>1299.51</ele><time>2026-8-28T11:16:11Z</time></trkpt><trkpt lat="42.2209969559" lon="13.5092758667"><ele>1298.99</ele><time>2026-8-28T11:16:15Z</time></trkpt><trkpt lat="42.2209282201" lon="13.5091227461"><ele>1297.63</ele><time>2026-8-28T11:16:20Z</time></trkpt><trkpt lat="42.2208640818" lon="13.5089675971"><ele>1297.24</ele><time>2026-8-28T11:16:25Z</time></trkpt><trkpt lat="42.2207794078" lon="13.5088462439"><ele>1297.14</ele><time>2026-8-28T11:16:30Z</time></trkpt><trkpt lat="42.2206503097" lon="13.5089108013"><ele>1297.49</ele><time>2026-8-28T11:16:35Z</time></trkpt><trkpt lat="42.2205365170" lon="13.5090168379"><ele>1297.82</ele><time>2026-8-28T11:16:39Z</time></trkpt><trkpt lat="42.2204407956" lon="13.5091092763"><ele>1297.84</ele><time>2026-8-28T11:16:42Z</time></trkpt><trkpt lat="42.2203308041" lon="13.5092102154"><ele>1297.76</ele><time>2026-8-28T11:16:46Z</time></trkpt><trkpt lat="42.2202169988" lon="13.5093197250"><ele>1298.03</ele><time>2026-8-28T11:16:50Z</time></trkpt><trkpt lat="42.2200988769" lon="13.5094260913"><ele>1298.10</ele><time>2026-8-28T11:16:54Z</time></trkpt><trkpt lat="42.2199924267" lon="13.5095400014"><ele>1297.92</ele><time>2026-8-28T11:16:58Z</time></trkpt><trkpt lat="42.2199025098" lon="13.5096616298"><ele>1297.95</ele><time>2026-8-28T11:17:2Z</time></trkpt><trkpt lat="42.2198021575" lon="13.5097937426"><ele>1298.15</ele><time>2026-8-28T11:17:5Z</time></trkpt><trkpt lat="42.2196986829" lon="13.5099395248"><ele>1298.04</ele><time>2026-8-28T11:17:9Z</time></trkpt><trkpt lat="42.2196002374" lon="13.5100659239"><ele>1297.82</ele><time>2026-8-28T11:17:13Z</time></trkpt><trkpt lat="42.2195034265" lon="13.5101755802"><ele>1297.39</ele><time>2026-8-28T11:17:17Z</time></trkpt><trkpt lat="42.2194099892" lon="13.5102864448"><ele>1296.74</ele><time>2026-8-28T11:17:21Z</time></trkpt><trkpt lat="42.2193199676" lon="13.5104106507"><ele>1296.26</ele><time>2026-8-28T11:17:24Z</time></trkpt><trkpt lat="42.2192057432" lon="13.5105450964"><ele>1295.96</ele><time>2026-8-28T11:17:28Z</time></trkpt><trkpt lat="42.2190896049" lon="13.5106593836"><ele>1295.78</ele><time>2026-8-28T11:17:32Z</time></trkpt><trkpt lat="42.2189849150" lon="13.5107525904"><ele>1295.83</ele><time>2026-8-28T11:17:35Z</time></trkpt><trkpt lat="42.2188800853" lon="13.5108457971"><ele>1295.79</ele><time>2026-8-28T11:17:38Z</time></trkpt><trkpt lat="42.2187626339" lon="13.5109537980"><ele>1295.28</ele><time>2026-8-28T11:17:41Z</time></trkpt><trkpt lat="42.2186517902" lon="13.5110687558"><ele>1294.71</ele><time>2026-8-28T11:17:45Z</time></trkpt><trkpt lat="42.2185450606" lon="13.5111675784"><ele>1294.42</ele><time>2026-8-28T11:17:48Z</time></trkpt><trkpt lat="42.2184281750" lon="13.5112584592"><ele>1294.25</ele><time>2026-8-28T11:17:52Z</time></trkpt><trkpt lat="42.2183032427" lon="13.5113004316"><ele>1294.35</ele><time>2026-8-28T11:17:56Z</time></trkpt><trkpt lat="42.2181811742" lon="13.5113754775"><ele>1294.45</ele><time>2026-8-28T11:18:0Z</time></trkpt><trkpt lat="42.2180812271" lon="13.5114715481"><ele>1294.31</ele><time>2026-8-28T11:18:3Z</time></trkpt><trkpt lat="42.2179690772" lon="13.5115889995"><ele>1294.22</ele><time>2026-8-28T11:18:7Z</time></trkpt><trkpt lat="42.2178638633" lon="13.5117045860"><ele>1294.29</ele><time>2026-8-28T11:18:11Z</time></trkpt><trkpt lat="42.2177559673" lon="13.5118233366"><ele>1294.23</ele><time>2026-8-28T11:18:15Z</time></trkpt><trkpt lat="42.2176537081" lon="13.5119311069"><ele>1294.31</ele><time>2026-8-28T11:18:19Z</time></trkpt><trkpt lat="42.2175487541" lon="13.5120473262"><ele>1294.46</ele><time>2026-8-28T11:18:24Z</time></trkpt><trkpt lat="42.2174376017" lon="13.5121518863"><ele>1294.62</ele><time>2026-8-28T11:18:28Z</time></trkpt><trkpt lat="42.2173292027" lon="13.5122557380"><ele>1294.89</ele><time>2026-8-28T11:18:32Z</time></trkpt><trkpt lat="42.2172148107" lon="13.5123609729"><ele>1295.07</ele><time>2026-8-28T11:18:36Z</time></trkpt><trkpt lat="42.2170818038" lon="13.5125011699"><ele>1294.23</ele><time>2026-8-28T11:18:53Z</time></trkpt><trkpt lat="42.2170650240" lon="13.5125101819"><ele>1292.12</ele><time>2026-8-28T11:20:30Z</time></trkpt><trkpt lat="42.2170390079" lon="13.5125674172"><ele>1292.31</ele><time>2026-8-28T11:21:58Z</time></trkpt><trkpt lat="42.2169494815" lon="13.5127427895"><ele>1292.02</ele><time>2026-8-28T11:22:6Z</time></trkpt><trkpt lat="42.2168907803" lon="13.5129038757"><ele>1291.92</ele><time>2026-8-28T11:22:11Z</time></trkpt><trkpt lat="42.2168289665" lon="13.5130691472"><ele>1291.90</ele><time>2026-8-28T11:22:17Z</time></trkpt><trkpt lat="42.2167535964" lon="13.5132214241"><ele>1292.04</ele><time>2026-8-28T11:22:22Z</time></trkpt><trkpt lat="42.2166701247" lon="13.5133595778"><ele>1292.36</ele><time>2026-8-28T11:22:29Z</time></trkpt><trkpt lat="42.2165862098" lon="13.5134979337"><ele>1293.14</ele><time>2026-8-28T11:22:37Z</time></trkpt><trkpt lat="42.2164908051" lon="13.5136301350"><ele>1293.93</ele><time>2026-8-28T11:22:46Z</time></trkpt><trkpt lat="42.2163832560" lon="13.5137414653"><ele>1294.55</ele><time>2026-8-28T11:22:55Z</time></trkpt><trkpt lat="42.2162945103" lon="13.5138490517"><ele>1294.97</ele><time>2026-8-28T11:23:4Z</time></trkpt><trkpt lat="42.2161916976" lon="13.5139621887"><ele>1295.32</ele><time>2026-8-28T11:23:12Z</time></trkpt><trkpt lat="42.2160804039" lon="13.5140843759"><ele>1295.32</ele><time>2026-8-28T11:23:19Z</time></trkpt><trkpt lat="42.2159725812" lon="13.5142018378"><ele>1295.95</ele><time>2026-8-28T11:23:27Z</time></trkpt><trkpt lat="42.2158837226" lon="13.5143272486"><ele>1296.45</ele><time>2026-8-28T11:23:34Z</time></trkpt><trkpt lat="42.2157935572" lon="13.5144517278"><ele>1296.53</ele><time>2026-8-28T11:23:41Z</time></trkpt><trkpt lat="42.2156823054" lon="13.5145543702"><ele>1297.48</ele><time>2026-8-28T11:23:47Z</time></trkpt><trkpt lat="42.2155627076" lon="13.5146533605"><ele>1297.81</ele><time>2026-8-28T11:23:54Z</time></trkpt><trkpt lat="42.2154396325" lon="13.5147223771"><ele>1297.86</ele><time>2026-8-28T11:24:0Z</time></trkpt><trkpt lat="42.2153148707" lon="13.5147772590"><ele>1297.82</ele><time>2026-8-28T11:24:5Z</time></trkpt><trkpt lat="42.2151848394" lon="13.5148355830"><ele>1297.71</ele><time>2026-8-28T11:24:11Z</time></trkpt><trkpt lat="42.2150567011" lon="13.5148975672"><ele>1297.74</ele><time>2026-8-28T11:24:15Z</time></trkpt><trkpt lat="42.2149202437" lon="13.5149598029"><ele>1297.85</ele><time>2026-8-28T11:24:19Z</time></trkpt><trkpt lat="42.2147832625" lon="13.5149996728"><ele>1298.01</ele><time>2026-8-28T11:24:23Z</time></trkpt><trkpt lat="42.2146495711" lon="13.5150352959"><ele>1297.87</ele><time>2026-8-28T11:24:26Z</time></trkpt><trkpt lat="42.2145284107" lon="13.5150607210"><ele>1297.20</ele><time>2026-8-28T11:24:28Z</time></trkpt><trkpt lat="42.2144029476" lon="13.5150859505"><ele>1296.19</ele><time>2026-8-28T11:24:31Z</time></trkpt><trkpt lat="42.2142579057" lon="13.5151207354"><ele>1295.27</ele><time>2026-8-28T11:24:34Z</time></trkpt><trkpt lat="42.2141350899" lon="13.5151528660"><ele>1294.66</ele><time>2026-8-28T11:24:38Z</time></trkpt><trkpt lat="42.2140153405" lon="13.5151669197"><ele>1294.10</ele><time>2026-8-28T11:24:41Z</time></trkpt><trkpt lat="42.2138631600" lon="13.5151880630"><ele>1293.67</ele><time>2026-8-28T11:24:44Z</time></trkpt><trkpt lat="42.2137145418" lon="13.5152252577"><ele>1293.07</ele><time>2026-8-28T11:24:48Z</time></trkpt><trkpt lat="42.2135955468" lon="13.5152809415"><ele>1292.61</ele><time>2026-8-28T11:24:51Z</time></trkpt><trkpt lat="42.2134893062" lon="13.5153462295"><ele>1291.95</ele><time>2026-8-28T11:24:54Z</time></trkpt><trkpt lat="42.2133683134" lon="13.5154247750"><ele>1291.40</ele><time>2026-8-28T11:24:58Z</time></trkpt><trkpt lat="42.2132436536" lon="13.5155094043"><ele>1291.11</ele><time>2026-8-28T11:25:1Z</time></trkpt><trkpt lat="42.2131253499" lon="13.5156169720"><ele>1290.96</ele><time>2026-8-28T11:25:5Z</time></trkpt><trkpt lat="42.2130194377" lon="13.5157234362"><ele>1290.96</ele><time>2026-8-28T11:25:8Z</time></trkpt><trkpt lat="42.2129185684" lon="13.5158323031"><ele>1290.88</ele><time>2026-8-28T11:25:12Z</time></trkpt><trkpt lat="42.2128112521" lon="13.5159507450"><ele>1290.73</ele><time>2026-8-28T11:25:16Z</time></trkpt><trkpt lat="42.2126982082" lon="13.5160699300"><ele>1290.50</ele><time>2026-8-28T11:25:20Z</time></trkpt><trkpt lat="42.2125898525" lon="13.5161626563"><ele>1290.42</ele><time>2026-8-28T11:25:24Z</time></trkpt><trkpt lat="42.2124605533" lon="13.5162500501"><ele>1290.41</ele><time>2026-8-28T11:25:28Z</time></trkpt><trkpt lat="42.2123510856" lon="13.5163122229"><ele>1290.49</ele><time>2026-8-28T11:25:32Z</time></trkpt><trkpt lat="42.2122169584" lon="13.5163468570"><ele>1290.73</ele><time>2026-8-28T11:25:37Z</time></trkpt><trkpt lat="42.2120810486" lon="13.5163691919"><ele>1290.78</ele><time>2026-8-28T11:25:41Z</time></trkpt><trkpt lat="42.2119558579" lon="13.5163887078"><ele>1290.61</ele><time>2026-8-28T11:25:44Z</time></trkpt><trkpt lat="42.2118091118" lon="13.5164314765"><ele>1290.38</ele><time>2026-8-28T11:25:48Z</time></trkpt><trkpt lat="42.2116864845" lon="13.5164747480"><ele>1290.33</ele><time>2026-8-28T11:25:52Z</time></trkpt><trkpt lat="42.2115547378" lon="13.5165298004"><ele>1290.18</ele><time>2026-8-28T11:25:56Z</time></trkpt><trkpt lat="42.2114167339" lon="13.5165875685"><ele>1290.03</ele><time>2026-8-28T11:26:0Z</time></trkpt><trkpt lat="42.2113000997" lon="13.5166423861"><ele>1289.98</ele><time>2026-8-28T11:26:4Z</time></trkpt><trkpt lat="42.2111807624" lon="13.5167013109"><ele>1289.90</ele><time>2026-8-28T11:26:8Z</time></trkpt><trkpt lat="42.2110459898" lon="13.5167705789"><ele>1289.76</ele><time>2026-8-28T11:26:13Z</time></trkpt><trkpt lat="42.2109199176" lon="13.5168340802"><ele>1289.69</ele><time>2026-8-28T11:26:17Z</time></trkpt><trkpt lat="42.2108014394" lon="13.5169108752"><ele>1289.57</ele><time>2026-8-28T11:26:22Z</time></trkpt><trkpt lat="42.2106696088" lon="13.5169844013"><ele>1289.29</ele><time>2026-8-28T11:26:27Z</time></trkpt><trkpt lat="42.2105351323" lon="13.5170478746"><ele>1289.35</ele><time>2026-8-28T11:26:32Z</time></trkpt><trkpt lat="42.2104193204" lon="13.5170603796"><ele>1289.39</ele><time>2026-8-28T11:26:39Z</time></trkpt><trkpt lat="42.2103345301" lon="13.5171811935"><ele>1289.02</ele><time>2026-8-28T11:26:47Z</time></trkpt><trkpt lat="42.2102288716" lon="13.5172831706"><ele>1288.85</ele><time>2026-8-28T11:26:55Z</time></trkpt><trkpt lat="42.2101160009" lon="13.5173763558"><ele>1289.22</ele><time>2026-8-28T11:27:1Z</time></trkpt><trkpt lat="42.2100017220" lon="13.5174591746"><ele>1289.48</ele><time>2026-8-28T11:27:6Z</time></trkpt><trkpt lat="42.2098818272" lon="13.5175560303"><ele>1289.85</ele><time>2026-8-28T11:27:12Z</time></trkpt><trkpt lat="42.2097661346" lon="13.5176326381"><ele>1290.18</ele><time>2026-8-28T11:27:17Z</time></trkpt><trkpt lat="42.2096379195" lon="13.5176814348"><ele>1290.49</ele><time>2026-8-28T11:27:23Z</time></trkpt><trkpt lat="42.2094984027" lon="13.5177082708"><ele>1290.72</ele><time>2026-8-28T11:27:29Z</time></trkpt><trkpt lat="42.2093648314" lon="13.5177509766"><ele>1290.68</ele><time>2026-8-28T11:27:35Z</time></trkpt><trkpt lat="42.2092320747" lon="13.5177950654"><ele>1290.57</ele><time>2026-8-28T11:27:39Z</time></trkpt><trkpt lat="42.2091138270" lon="13.5178169631"><ele>1290.31</ele><time>2026-8-28T11:27:43Z</time></trkpt><trkpt lat="42.2089671647" lon="13.5178473894"><ele>1290.20</ele><time>2026-8-28T11:27:47Z</time></trkpt><trkpt lat="42.2088259365" lon="13.5178789962"><ele>1290.04</ele><time>2026-8-28T11:27:51Z</time></trkpt><trkpt lat="42.2087014653" lon="13.5179090593"><ele>1289.89</ele><time>2026-8-28T11:27:54Z</time></trkpt><trkpt lat="42.2085691430" lon="13.5179419164"><ele>1289.69</ele><time>2026-8-28T11:27:57Z</time></trkpt><trkpt lat="42.2084393632" lon="13.5179787409"><ele>1289.47</ele><time>2026-8-28T11:28:0Z</time></trkpt><trkpt lat="42.2083089966" lon="13.5180098098"><ele>1289.25</ele><time>2026-8-28T11:28:3Z</time></trkpt><trkpt lat="42.2081861179" lon="13.5180358495"><ele>1289.13</ele><time>2026-8-28T11:28:6Z</time></trkpt><trkpt lat="42.2080466012" lon="13.5180600383"><ele>1288.98</ele><time>2026-8-28T11:28:9Z</time></trkpt><trkpt lat="42.2079057223" lon="13.5181021574"><ele>1288.87</ele><time>2026-8-28T11:28:13Z</time></trkpt><trkpt lat="42.2077632300" lon="13.5181362298"><ele>1288.80</ele><time>2026-8-28T11:28:17Z</time></trkpt><trkpt lat="42.2076381370" lon="13.5181602929"><ele>1288.80</ele><time>2026-8-28T11:28:21Z</time></trkpt><trkpt lat="42.2075094972" lon="13.5181916635"><ele>1288.65</ele><time>2026-8-28T11:28:25Z</time></trkpt><trkpt lat="42.2073719166" lon="13.5182407312"><ele>1288.67</ele><time>2026-8-28T11:28:30Z</time></trkpt><trkpt lat="42.2072395077" lon="13.5182711995"><ele>1288.98</ele><time>2026-8-28T11:28:34Z</time></trkpt><trkpt lat="42.2070978396" lon="13.5182535834"><ele>1288.98</ele><time>2026-8-28T11:28:38Z</time></trkpt><trkpt lat="42.2069853265" lon="13.5181723139"><ele>1288.96</ele><time>2026-8-28T11:28:41Z</time></trkpt><trkpt lat="42.2068769988" lon="13.5180973504"><ele>1289.01</ele><time>2026-8-28T11:28:46Z</time></trkpt><trkpt lat="42.2067672294" lon="13.5180269256"><ele>1289.28</ele><time>2026-8-28T11:28:51Z</time></trkpt><trkpt lat="42.2066625394" lon="13.5179072153"><ele>1289.52</ele><time>2026-8-28T11:28:56Z</time></trkpt><trkpt lat="42.2065843027" lon="13.5177550334"><ele>1289.62</ele><time>2026-8-28T11:29:1Z</time></trkpt><trkpt lat="42.2065267945" lon="13.5175819835"><ele>1289.90</ele><time>2026-8-28T11:29:6Z</time></trkpt><trkpt lat="42.2064315006" lon="13.5175360478"><ele>1290.24</ele><time>2026-8-28T11:29:12Z</time></trkpt><trkpt lat="42.2063048501" lon="13.5176220462"><ele>1290.42</ele><time>2026-8-28T11:29:17Z</time></trkpt><trkpt lat="42.2061847709" lon="13.5177307134"><ele>1290.33</ele><time>2026-8-28T11:29:21Z</time></trkpt><trkpt lat="42.2060759738" lon="13.5178254917"><ele>1290.09</ele><time>2026-8-28T11:29:25Z</time></trkpt><trkpt lat="42.2059605215" lon="13.5179096628"><ele>1289.83</ele><time>2026-8-28T11:29:30Z</time></trkpt><trkpt lat="42.2058515400" lon="13.5180142019"><ele>1289.74</ele><time>2026-8-28T11:29:35Z</time></trkpt><trkpt lat="42.2057511415" lon="13.5181282125"><ele>1289.59</ele><time>2026-8-28T11:29:40Z</time></trkpt><trkpt lat="42.2056489997" lon="13.5182408011"><ele>1289.58</ele><time>2026-8-28T11:29:45Z</time></trkpt><trkpt lat="42.2055308316" lon="13.5183275342"><ele>1289.40</ele><time>2026-8-28T11:29:51Z</time></trkpt><trkpt lat="42.2054309025" lon="13.5182430279"><ele>1289.69</ele><time>2026-8-28T11:29:56Z</time></trkpt><trkpt lat="42.2054018844" lon="13.5180776696"><ele>1289.72</ele><time>2026-8-28T11:30:1Z</time></trkpt><trkpt lat="42.2054161923" lon="13.5178911639"><ele>1289.83</ele><time>2026-8-28T11:30:5Z</time></trkpt><trkpt lat="42.2054204587" lon="13.5177034512"><ele>1289.97</ele><time>2026-8-28T11:30:10Z</time></trkpt><trkpt lat="42.2054185392" lon="13.5175197828"><ele>1289.91</ele><time>2026-8-28T11:30:14Z</time></trkpt><trkpt lat="42.2054223530" lon="13.5173498467"><ele>1289.94</ele><time>2026-8-28T11:30:18Z</time></trkpt><trkpt lat="42.2054214645" lon="13.5171755925"><ele>1290.07</ele><time>2026-8-28T11:30:22Z</time></trkpt><trkpt lat="42.2054302949" lon="13.5169932107"><ele>1290.34</ele><time>2026-8-28T11:30:26Z</time></trkpt><trkpt lat="42.2054311875" lon="13.5168147348"><ele>1290.47</ele><time>2026-8-28T11:30:31Z</time></trkpt><trkpt lat="42.2054379224" lon="13.5166273406"><ele>1290.42</ele><time>2026-8-28T11:30:35Z</time></trkpt><trkpt lat="42.2054442178" lon="13.5164320602"><ele>1290.51</ele><time>2026-8-28T11:30:41Z</time></trkpt><trkpt lat="42.2054397514" lon="13.5163751710"><ele>1290.86</ele><time>2026-8-28T11:30:48Z</time></trkpt><trkpt lat="42.2054325286" lon="13.5165644847"><ele>1290.58</ele><time>2026-8-28T11:30:54Z</time></trkpt><trkpt lat="42.2054101155" lon="13.5167501983"><ele>1290.51</ele><time>2026-8-28T11:30:58Z</time></trkpt><trkpt lat="42.2054229817" lon="13.5169200786"><ele>1290.62</ele><time>2026-8-28T11:31:2Z</time></trkpt><trkpt lat="42.2054435802" lon="13.5170977540"><ele>1290.85</ele><time>2026-8-28T11:31:6Z</time></trkpt><trkpt lat="42.2054434125" lon="13.5172825749"><ele>1290.91</ele><time>2026-8-28T11:31:10Z</time></trkpt><trkpt lat="42.2054385720" lon="13.5174691770"><ele>1290.87</ele><time>2026-8-28T11:31:14Z</time></trkpt><trkpt lat="42.2054402903" lon="13.5176622332"><ele>1290.81</ele><time>2026-8-28T11:31:18Z</time></trkpt><trkpt lat="42.2054380062" lon="13.5178534454"><ele>1290.54</ele><time>2026-8-28T11:31:22Z</time></trkpt><trkpt lat="42.2054378036" lon="13.5180138890"><ele>1290.49</ele><time>2026-8-28T11:31:26Z</time></trkpt><trkpt lat="42.2054471634" lon="13.5181867350"><ele>1290.45</ele><time>2026-8-28T11:31:30Z</time></trkpt><trkpt lat="42.2054565344" lon="13.5183834415"><ele>1290.23</ele><time>2026-8-28T11:31:35Z</time></trkpt><trkpt lat="42.2054659389" lon="13.5185600398"><ele>1289.99</ele><time>2026-8-28T11:31:40Z</time></trkpt><trkpt lat="42.2053728160" lon="13.5186469602"><ele>1290.01</ele><time>2026-8-28T11:31:46Z</time></trkpt><trkpt lat="42.2052491549" lon="13.5186758777"><ele>1290.22</ele><time>2026-8-28T11:31:52Z</time></trkpt><trkpt lat="42.2051442414" lon="13.5186843015"><ele>1290.24</ele><time>2026-8-28T11:31:57Z</time></trkpt><trkpt lat="42.2050341033" lon="13.5185666825"><ele>1290.13</ele><time>2026-8-28T11:32:0Z</time></trkpt><trkpt lat="42.2049307544" lon="13.5184494574"><ele>1289.90</ele><time>2026-8-28T11:32:5Z</time></trkpt><trkpt lat="42.2048118780" lon="13.5183589789"><ele>1289.79</ele><time>2026-8-28T11:32:9Z</time></trkpt><trkpt lat="42.2047066055" lon="13.5182597917"><ele>1289.55</ele><time>2026-8-28T11:32:14Z</time></trkpt><trkpt lat="42.2046032734" lon="13.5181451105"><ele>1289.25</ele><time>2026-8-28T11:32:19Z</time></trkpt><trkpt lat="42.2044862788" lon="13.5180636886"><ele>1289.24</ele><time>2026-8-28T11:32:24Z</time></trkpt><trkpt lat="42.2043498885" lon="13.5180229694"><ele>1289.49</ele><time>2026-8-28T11:32:29Z</time></trkpt><trkpt lat="42.2042156942" lon="13.5180175211"><ele>1289.47</ele><time>2026-8-28T11:32:33Z</time></trkpt><trkpt lat="42.2040756829" lon="13.5180337988"><ele>1289.02</ele><time>2026-8-28T11:32:38Z</time></trkpt><trkpt lat="42.2039385047" lon="13.5180585715"><ele>1288.81</ele><time>2026-8-28T11:32:42Z</time></trkpt><trkpt lat="42.2038009786" lon="13.5180977359"><ele>1288.88</ele><time>2026-8-28T11:32:46Z</time></trkpt><trkpt lat="42.2036840301" lon="13.5181383043"><ele>1289.08</ele><time>2026-8-28T11:32:51Z</time></trkpt><trkpt lat="42.2035487294" lon="13.5181527045"><ele>1289.41</ele><time>2026-8-28T11:32:56Z</time></trkpt><trkpt lat="42.2034123866" lon="13.5181680741"><ele>1289.60</ele><time>2026-8-28T11:33:1Z</time></trkpt><trkpt lat="42.2032746370" lon="13.5181947984"><ele>1289.59</ele><time>2026-8-28T11:33:6Z</time></trkpt><trkpt lat="42.2031477727" lon="13.5182297677"><ele>1289.76</ele><time>2026-8-28T11:33:11Z</time></trkpt><trkpt lat="42.2030137084" lon="13.5182520468"><ele>1289.92</ele><time>2026-8-28T11:33:15Z</time></trkpt><trkpt lat="42.2028828543" lon="13.5182643011"><ele>1289.87</ele><time>2026-8-28T11:33:20Z</time></trkpt><trkpt lat="42.2027482409" lon="13.5182829928"><ele>1289.77</ele><time>2026-8-28T11:33:25Z</time></trkpt><trkpt lat="42.2026163098" lon="13.5183070656"><ele>1289.82</ele><time>2026-8-28T11:33:30Z</time></trkpt><trkpt lat="42.2024812605" lon="13.5183279198"><ele>1289.91</ele><time>2026-8-28T11:33:35Z</time></trkpt><trkpt lat="42.2023425344" lon="13.5183737380"><ele>1289.99</ele><time>2026-8-28T11:33:40Z</time></trkpt><trkpt lat="42.2022189852" lon="13.5184006160"><ele>1290.24</ele><time>2026-8-28T11:33:46Z</time></trkpt><trkpt lat="42.2020812545" lon="13.5184182958"><ele>1290.90</ele><time>2026-8-28T11:33:53Z</time></trkpt><trkpt lat="42.2019479563" lon="13.5184465349"><ele>1291.48</ele><time>2026-8-28T11:33:59Z</time></trkpt><trkpt lat="42.2018217556" lon="13.5184650812"><ele>1291.80</ele><time>2026-8-28T11:34:5Z</time></trkpt><trkpt lat="42.2016829345" lon="13.5184689704"><ele>1291.87</ele><time>2026-8-28T11:34:10Z</time></trkpt><trkpt lat="42.2015333805" lon="13.5184433218"><ele>1292.04</ele><time>2026-8-28T11:34:14Z</time></trkpt><trkpt lat="42.2014070023" lon="13.5184127837"><ele>1292.10</ele><time>2026-8-28T11:34:18Z</time></trkpt><trkpt lat="42.2012872459" lon="13.5183791374"><ele>1292.02</ele><time>2026-8-28T11:34:21Z</time></trkpt><trkpt lat="42.2011505580" lon="13.5183401616"><ele>1291.86</ele><time>2026-8-28T11:34:25Z</time></trkpt><trkpt lat="42.2010115776" lon="13.5183051545"><ele>1291.35</ele><time>2026-8-28T11:34:30Z</time></trkpt><trkpt lat="42.2008774546" lon="13.5182875861"><ele>1291.05</ele><time>2026-8-28T11:34:34Z</time></trkpt><trkpt lat="42.2007544711" lon="13.5182993836"><ele>1291.10</ele><time>2026-8-28T11:34:38Z</time></trkpt><trkpt lat="42.2006278206" lon="13.5182860564"><ele>1291.35</ele><time>2026-8-28T11:34:42Z</time></trkpt><trkpt lat="42.2004953865" lon="13.5182823683"><ele>1291.42</ele><time>2026-8-28T11:34:46Z</time></trkpt><trkpt lat="42.2003450151" lon="13.5182938222"><ele>1291.26</ele><time>2026-8-28T11:34:51Z</time></trkpt><trkpt lat="42.2001991491" lon="13.5183172161"><ele>1290.91</ele><time>2026-8-28T11:34:55Z</time></trkpt><trkpt lat="42.2000680352" lon="13.5183557309"><ele>1290.61</ele><time>2026-8-28T11:34:59Z</time></trkpt><trkpt lat="42.1999567235" lon="13.5184117430"><ele>1290.35</ele><time>2026-8-28T11:35:3Z</time></trkpt><trkpt lat="42.1998417154" lon="13.5184902772"><ele>1290.30</ele><time>2026-8-28T11:35:8Z</time></trkpt><trkpt lat="42.1997045330" lon="13.5185354599"><ele>1290.30</ele><time>2026-8-28T11:35:12Z</time></trkpt><trkpt lat="42.1995771071" lon="13.5185457696"><ele>1290.32</ele><time>2026-8-28T11:35:16Z</time></trkpt><trkpt lat="42.1994355116" lon="13.5185337290"><ele>1290.39</ele><time>2026-8-28T11:35:21Z</time></trkpt><trkpt lat="42.1992971934" lon="13.5185182770"><ele>1290.55</ele><time>2026-8-28T11:35:25Z</time></trkpt><trkpt lat="42.1991667878" lon="13.5184999835"><ele>1290.68</ele><time>2026-8-28T11:35:30Z</time></trkpt><trkpt lat="42.1990298778" lon="13.5184793305"><ele>1290.67</ele><time>2026-8-28T11:35:35Z</time></trkpt><trkpt lat="42.1988903861" lon="13.5184570178"><ele>1290.90</ele><time>2026-8-28T11:35:40Z</time></trkpt><trkpt lat="42.1987535767" lon="13.5184396002"><ele>1291.13</ele><time>2026-8-28T11:35:45Z</time></trkpt><trkpt lat="42.1986239758" lon="13.5184141863"><ele>1291.25</ele><time>2026-8-28T11:35:50Z</time></trkpt><trkpt lat="42.1984931734" lon="13.5183860455"><ele>1291.17</ele><time>2026-8-28T11:35:55Z</time></trkpt><trkpt lat="42.1983624604" lon="13.5183546245"><ele>1291.35</ele><time>2026-8-28T11:36:1Z</time></trkpt><trkpt lat="42.1982370922" lon="13.5183048528"><ele>1291.32</ele><time>2026-8-28T11:36:6Z</time></trkpt><trkpt lat="42.1981039178" lon="13.5182453273"><ele>1291.31</ele><time>2026-8-28T11:36:12Z</time></trkpt><trkpt lat="42.1979693184" lon="13.5181956925"><ele>1291.59</ele><time>2026-8-28T11:36:18Z</time></trkpt><trkpt lat="42.1978459926" lon="13.5181223927"><ele>1292.12</ele><time>2026-8-28T11:36:24Z</time></trkpt><trkpt lat="42.1977412009" lon="13.5180238076"><ele>1292.66</ele><time>2026-8-28T11:36:31Z</time></trkpt><trkpt lat="42.1976632776" lon="13.5178972618"><ele>1293.00</ele><time>2026-8-28T11:36:38Z</time></trkpt><trkpt lat="42.1976120873" lon="13.5177277001"><ele>1293.85</ele><time>2026-8-28T11:36:47Z</time></trkpt><trkpt lat="42.1975573804" lon="13.5175637808"><ele>1294.81</ele><time>2026-8-28T11:36:57Z</time></trkpt><trkpt lat="42.1974988813" lon="13.5173963886"><ele>1295.96</ele><time>2026-8-28T11:37:6Z</time></trkpt><trkpt lat="42.1974393819" lon="13.5172269493"><ele>1297.58</ele><time>2026-8-28T11:37:16Z</time></trkpt><trkpt lat="42.1973882522" lon="13.5170620959"><ele>1299.15</ele><time>2026-8-28T11:37:25Z</time></trkpt><trkpt lat="42.1973330341" lon="13.5169076081"><ele>1300.26</ele><time>2026-8-28T11:37:34Z</time></trkpt><trkpt lat="42.1972774398" lon="13.5167407226"><ele>1300.99</ele><time>2026-8-28T11:37:43Z</time></trkpt><trkpt lat="42.1972180996" lon="13.5165705811"><ele>1301.44</ele><time>2026-8-28T11:37:53Z</time></trkpt><trkpt lat="42.1971573250" lon="13.5164166405"><ele>1302.51</ele><time>2026-8-28T11:38:1Z</time></trkpt><trkpt lat="42.1970993374" lon="13.5162587650"><ele>1303.58</ele><time>2026-8-28T11:38:10Z</time></trkpt><trkpt lat="42.1970267769" lon="13.5161026125"><ele>1304.11</ele><time>2026-8-28T11:38:18Z</time></trkpt><trkpt lat="42.1969451371" lon="13.5159608221"><ele>1305.04</ele><time>2026-8-28T11:38:26Z</time></trkpt><trkpt lat="42.1968517639" lon="13.5158273485"><ele>1305.59</ele><time>2026-8-28T11:38:35Z</time></trkpt><trkpt lat="42.1967533603" lon="13.5156973172"><ele>1306.13</ele><time>2026-8-28T11:38:44Z</time></trkpt><trkpt lat="42.1966595133" lon="13.5155736725"><ele>1306.95</ele><time>2026-8-28T11:38:52Z</time></trkpt><trkpt lat="42.1965638176" lon="13.5154489241"><ele>1307.75</ele><time>2026-8-28T11:39:1Z</time></trkpt><trkpt lat="42.1964692755" lon="13.5153130267"><ele>1308.49</ele><time>2026-8-28T11:39:9Z</time></trkpt><trkpt lat="42.1963731770" lon="13.5151865648"><ele>1309.05</ele><time>2026-8-28T11:39:17Z</time></trkpt><trkpt lat="42.1962823696" lon="13.5150509665"><ele>1309.23</ele><time>2026-8-28T11:39:25Z</time></trkpt><trkpt lat="42.1961878306" lon="13.5149237966"><ele>1309.47</ele><time>2026-8-28T11:39:33Z</time></trkpt><trkpt lat="42.1960935043" lon="13.5147996561"><ele>1309.71</ele><time>2026-8-28T11:39:40Z</time></trkpt><trkpt lat="42.1960000281" lon="13.5146761952"><ele>1310.08</ele><time>2026-8-28T11:39:48Z</time></trkpt><trkpt lat="42.1959055716" lon="13.5145521700"><ele>1310.38</ele><time>2026-8-28T11:39:55Z</time></trkpt><trkpt lat="42.1958104055" lon="13.5144270251"><ele>1310.39</ele><time>2026-8-28T11:40:3Z</time></trkpt><trkpt lat="42.1957141708" lon="13.5142976849"><ele>1310.71</ele><time>2026-8-28T11:40:10Z</time></trkpt><trkpt lat="42.1956170829" lon="13.5141659288"><ele>1310.80</ele><time>2026-8-28T11:40:18Z</time></trkpt><trkpt lat="42.1955242114" lon="13.5140389191"><ele>1310.96</ele><time>2026-8-28T11:40:25Z</time></trkpt><trkpt lat="42.1954319387" lon="13.5139114303"><ele>1311.15</ele><time>2026-8-28T11:40:32Z</time></trkpt><trkpt lat="42.1953346173" lon="13.5137853620"><ele>1311.22</ele><time>2026-8-28T11:40:39Z</time></trkpt><trkpt lat="42.1952260716" lon="13.5136654694"><ele>1311.54</ele><time>2026-8-28T11:40:47Z</time></trkpt><trkpt lat="42.1951128740" lon="13.5135612299"><ele>1311.80</ele><time>2026-8-28T11:40:55Z</time></trkpt><trkpt lat="42.1949991631" lon="13.5134760174"><ele>1312.29</ele><time>2026-8-28T11:41:3Z</time></trkpt><trkpt lat="42.1948907012" lon="13.5133829992"><ele>1312.70</ele><time>2026-8-28T11:41:11Z</time></trkpt><trkpt lat="42.1947741043" lon="13.5132776946"><ele>1312.96</ele><time>2026-8-28T11:41:20Z</time></trkpt><trkpt lat="42.1946787124" lon="13.5131541104"><ele>1313.77</ele><time>2026-8-28T11:41:28Z</time></trkpt><trkpt lat="42.1945935022" lon="13.5130267683"><ele>1314.44</ele><time>2026-8-28T11:41:37Z</time></trkpt><trkpt lat="42.1945071500" lon="13.5128841829"><ele>1314.62</ele><time>2026-8-28T11:41:46Z</time></trkpt><trkpt lat="42.1944154706" lon="13.5127465799"><ele>1315.19</ele><time>2026-8-28T11:41:55Z</time></trkpt><trkpt lat="42.1943278983" lon="13.5126159608"><ele>1316.17</ele><time>2026-8-28T11:42:3Z</time></trkpt><trkpt lat="42.1942323726" lon="13.5124960076"><ele>1316.78</ele><time>2026-8-28T11:42:12Z</time></trkpt><trkpt lat="42.1941181412" lon="13.5124043492"><ele>1317.75</ele><time>2026-8-28T11:42:20Z</time></trkpt><trkpt lat="42.1939974104" lon="13.5123271204"><ele>1319.07</ele><time>2026-8-28T11:42:28Z</time></trkpt><trkpt lat="42.1938671358" lon="13.5122570023"><ele>1320.36</ele><time>2026-8-28T11:42:37Z</time></trkpt><trkpt lat="42.1937445493" lon="13.5121952731"><ele>1321.31</ele><time>2026-8-28T11:42:45Z</time></trkpt><trkpt lat="42.1936169663" lon="13.5121464380"><ele>1322.41</ele><time>2026-8-28T11:42:53Z</time></trkpt><trkpt lat="42.1934896661" lon="13.5121247603"><ele>1323.20</ele><time>2026-8-28T11:43:1Z</time></trkpt><trkpt lat="42.1933508303" lon="13.5121089395"><ele>1323.94</ele><time>2026-8-28T11:43:9Z</time></trkpt><trkpt lat="42.1932243090" lon="13.5120942164"><ele>1324.99</ele><time>2026-8-28T11:43:18Z</time></trkpt><trkpt lat="42.1930876910" lon="13.5121045599"><ele>1326.20</ele><time>2026-8-28T11:43:26Z</time></trkpt><trkpt lat="42.1929564513" lon="13.5121267382"><ele>1327.02</ele><time>2026-8-28T11:43:35Z</time></trkpt><trkpt lat="42.1928216331" lon="13.5121359862"><ele>1328.14</ele><time>2026-8-28T11:43:44Z</time></trkpt><trkpt lat="42.1926952398" lon="13.5120662861"><ele>1329.25</ele><time>2026-8-28T11:43:52Z</time></trkpt><trkpt lat="42.1926133082" lon="13.5119387614"><ele>1330.10</ele><time>2026-8-28T11:44:0Z</time></trkpt><trkpt lat="42.1925889154" lon="13.5117717460"><ele>1331.14</ele><time>2026-8-28T11:44:7Z</time></trkpt><trkpt lat="42.1926064882" lon="13.5115904361"><ele>1331.70</ele><time>2026-8-28T11:44:16Z</time></trkpt><trkpt lat="42.1926238993" lon="13.5114128015"><ele>1332.32</ele><time>2026-8-28T11:44:24Z</time></trkpt><trkpt lat="42.1926372871" lon="13.5112319421"><ele>1333.06</ele><time>2026-8-28T11:44:33Z</time></trkpt><trkpt lat="42.1926541533" lon="13.5110486951"><ele>1333.53</ele><time>2026-8-28T11:44:42Z</time></trkpt><trkpt lat="42.1926697530" lon="13.5108716879"><ele>1334.16</ele><time>2026-8-28T11:44:51Z</time></trkpt><trkpt lat="42.1926809036" lon="13.5107427972"><ele>1335.95</ele><time>2026-8-28T11:45:35Z</time></trkpt><trkpt lat="42.1926769428" lon="13.5106282774"><ele>1335.60</ele><time>2026-8-28T11:46:20Z</time></trkpt><trkpt lat="42.1926927109" lon="13.5104520458"><ele>1336.00</ele><time>2026-8-28T11:46:30Z</time></trkpt><trkpt lat="42.1927044410" lon="13.5102670686"><ele>1336.81</ele><time>2026-8-28T11:46:40Z</time></trkpt><trkpt lat="42.1927203247" lon="13.5100908056"><ele>1337.40</ele><time>2026-8-28T11:46:50Z</time></trkpt><trkpt lat="42.1927324114" lon="13.5099123214"><ele>1338.69</ele><time>2026-8-28T11:47:0Z</time></trkpt><trkpt lat="42.1927241804" lon="13.5097356727"><ele>1340.24</ele><time>2026-8-28T11:47:10Z</time></trkpt><trkpt lat="42.1926909546" lon="13.5095609436"><ele>1341.40</ele><time>2026-8-28T11:47:20Z</time></trkpt><trkpt lat="42.1926428340" lon="13.5093943365"><ele>1341.56</ele><time>2026-8-28T11:47:30Z</time></trkpt><trkpt lat="42.1925919528" lon="13.5092199822"><ele>1341.93</ele><time>2026-8-28T11:47:41Z</time></trkpt><trkpt lat="42.1925375071" lon="13.5090555064"><ele>1342.66</ele><time>2026-8-28T11:47:51Z</time></trkpt><trkpt lat="42.1924820204" lon="13.5088932252"><ele>1342.98</ele><time>2026-8-28T11:48:2Z</time></trkpt><trkpt lat="42.1924321046" lon="13.5087229377"><ele>1344.07</ele><time>2026-8-28T11:48:12Z</time></trkpt><trkpt lat="42.1923789550" lon="13.5085606892"><ele>1345.20</ele><time>2026-8-28T11:48:22Z</time></trkpt><trkpt lat="42.1923231757" lon="13.5083937476"><ele>1346.85</ele><time>2026-8-28T11:48:33Z</time></trkpt><trkpt lat="42.1922686324" lon="13.5082287407"><ele>1348.09</ele><time>2026-8-28T11:48:43Z</time></trkpt><trkpt lat="42.1922194839" lon="13.5080588905"><ele>1348.66</ele><time>2026-8-28T11:48:54Z</time></trkpt><trkpt lat="42.1921799434" lon="13.5078854682"><ele>1349.93</ele><time>2026-8-28T11:49:4Z</time></trkpt><trkpt lat="42.1921300262" lon="13.5077240487"><ele>1351.00</ele><time>2026-8-28T11:49:15Z</time></trkpt><trkpt lat="42.1920765107" lon="13.5075639803"><ele>1351.99</ele><time>2026-8-28T11:49:25Z</time></trkpt><trkpt lat="42.1920233931" lon="13.5074029914"><ele>1354.19</ele><time>2026-8-28T11:49:36Z</time></trkpt><trkpt lat="42.1919668754" lon="13.5072356444"><ele>1355.95</ele><time>2026-8-28T11:49:46Z</time></trkpt><trkpt lat="42.1919085085" lon="13.5070781875"><ele>1356.34</ele><time>2026-8-28T11:49:56Z</time></trkpt><trkpt lat="42.1918386659" lon="13.5069209878"><ele>1356.84</ele><time>2026-8-28T11:50:5Z</time></trkpt><trkpt lat="42.1917721408" lon="13.5067668592"><ele>1356.64</ele><time>2026-8-28T11:50:14Z</time></trkpt><trkpt lat="42.1916972939" lon="13.5066209454"><ele>1356.24</ele><time>2026-8-28T11:50:23Z</time></trkpt><trkpt lat="42.1916277520" lon="13.5064622294"><ele>1355.86</ele><time>2026-8-28T11:50:32Z</time></trkpt><trkpt lat="42.1915840739" lon="13.5062910458"><ele>1356.06</ele><time>2026-8-28T11:50:41Z</time></trkpt><trkpt lat="42.1915569156" lon="13.5061161686"><ele>1356.78</ele><time>2026-8-28T11:50:51Z</time></trkpt><trkpt lat="42.1915285271" lon="13.5059453007"><ele>1357.41</ele><time>2026-8-28T11:51:0Z</time></trkpt><trkpt lat="42.1914871494" lon="13.5057721092"><ele>1358.01</ele><time>2026-8-28T11:51:11Z</time></trkpt><trkpt lat="42.1914484548" lon="13.5055995556"><ele>1359.64</ele><time>2026-8-28T11:51:21Z</time></trkpt><trkpt lat="42.1913895002" lon="13.5054419765"><ele>1360.78</ele><time>2026-8-28T11:51:32Z</time></trkpt><trkpt lat="42.1913240528" lon="13.5052761292"><ele>1362.02</ele><time>2026-8-28T11:51:43Z</time></trkpt><trkpt lat="42.1912328725" lon="13.5050971473"><ele>1363.49</ele><time>2026-8-28T11:52:4Z</time></trkpt><trkpt lat="42.1912004678" lon="13.5049772160"><ele>1363.79</ele><time>2026-8-28T11:52:24Z</time></trkpt><trkpt lat="42.1911905017" lon="13.5048070802"><ele>1364.41</ele><time>2026-8-28T11:52:34Z</time></trkpt><trkpt lat="42.1912240491" lon="13.5046269965"><ele>1365.18</ele><time>2026-8-28T11:52:45Z</time></trkpt><trkpt lat="42.1912661400" lon="13.5044517294"><ele>1366.37</ele><time>2026-8-28T11:52:55Z</time></trkpt><trkpt lat="42.1912954850" lon="13.5042792214"><ele>1367.63</ele><time>2026-8-28T11:53:5Z</time></trkpt><trkpt lat="42.1913318480" lon="13.5041048115"><ele>1369.31</ele><time>2026-8-28T11:53:16Z</time></trkpt><trkpt lat="42.1913985237" lon="13.5039410871"><ele>1371.08</ele><time>2026-8-28T11:53:26Z</time></trkpt><trkpt lat="42.1914901930" lon="13.5037862829"><ele>1372.03</ele><time>2026-8-28T11:53:42Z</time></trkpt><trkpt lat="42.1915154052" lon="13.5037621250"><ele>1373.19</ele><time>2026-8-28T11:54:12Z</time></trkpt><trkpt lat="42.1915696959" lon="13.5035893931"><ele>1373.16</ele><time>2026-8-28T11:54:38Z</time></trkpt><trkpt lat="42.1916214153" lon="13.5034178887"><ele>1373.17</ele><time>2026-8-28T11:54:48Z</time></trkpt><trkpt lat="42.1916656382" lon="13.5032495800"><ele>1372.79</ele><time>2026-8-28T11:54:58Z</time></trkpt><trkpt lat="42.1917014709" lon="13.5030871052"><ele>1373.92</ele><time>2026-8-28T11:55:8Z</time></trkpt><trkpt lat="42.1917490940" lon="13.5029080091"><ele>1374.95</ele><time>2026-8-28T11:55:19Z</time></trkpt><trkpt lat="42.1917968988" lon="13.5027462524"><ele>1376.31</ele><time>2026-8-28T11:55:30Z</time></trkpt><trkpt lat="42.1918639541" lon="13.5025922582"><ele>1376.66</ele><time>2026-8-28T11:55:39Z</time></trkpt><trkpt lat="42.1919308584" lon="13.5024392428"><ele>1377.27</ele><time>2026-8-28T11:55:48Z</time></trkpt><trkpt lat="42.1920105871" lon="13.5022937581"><ele>1377.77</ele><time>2026-8-28T11:55:58Z</time></trkpt><trkpt lat="42.1920738217" lon="13.5021303628"><ele>1378.98</ele><time>2026-8-28T11:56:9Z</time></trkpt><trkpt lat="42.1920969244" lon="13.5019537713"><ele>1379.97</ele><time>2026-8-28T11:56:19Z</time></trkpt><trkpt lat="42.1920357365" lon="13.5018044710"><ele>1382.53</ele><time>2026-8-28T11:56:28Z</time></trkpt><trkpt lat="42.1919131711" lon="13.5017254788"><ele>1383.43</ele><time>2026-8-28T11:56:38Z</time></trkpt><trkpt lat="42.1917855079" lon="13.5016975785"><ele>1383.39</ele><time>2026-8-28T11:56:48Z</time></trkpt><trkpt lat="42.1916487906" lon="13.5016890056"><ele>1383.38</ele><time>2026-8-28T11:56:58Z</time></trkpt><trkpt lat="42.1915251366" lon="13.5016590008"><ele>1383.75</ele><time>2026-8-28T11:57:6Z</time></trkpt><trkpt lat="42.1913907770" lon="13.5016280599"><ele>1384.26</ele><time>2026-8-28T11:57:15Z</time></trkpt><trkpt lat="42.1912603146" lon="13.5015832912"><ele>1384.71</ele><time>2026-8-28T11:57:24Z</time></trkpt><trkpt lat="42.1911323501" lon="13.5015295108"><ele>1385.27</ele><time>2026-8-28T11:57:33Z</time></trkpt><trkpt lat="42.1910073795" lon="13.5014865361"><ele>1386.02</ele><time>2026-8-28T11:57:42Z</time></trkpt><trkpt lat="42.1908888221" lon="13.5014475789"><ele>1387.11</ele><time>2026-8-28T11:57:51Z</time></trkpt><trkpt lat="42.1907551654" lon="13.5014256581"><ele>1387.12</ele><time>2026-8-28T11:58:1Z</time></trkpt><trkpt lat="42.1906328277" lon="13.5014457899"><ele>1387.42</ele><time>2026-8-28T11:58:12Z</time></trkpt><trkpt lat="42.1905149538" lon="13.5015329328"><ele>1387.91</ele><time>2026-8-28T11:58:22Z</time></trkpt><trkpt lat="42.1904035751" lon="13.5016130302"><ele>1388.85</ele><time>2026-8-28T11:58:32Z</time></trkpt><trkpt lat="42.1902858722" lon="13.5016870487"><ele>1389.31</ele><time>2026-8-28T11:58:41Z</time></trkpt><trkpt lat="42.1901517073" lon="13.5017018029"><ele>1389.15</ele><time>2026-8-28T11:58:50Z</time></trkpt><trkpt lat="42.1900149807" lon="13.5016736295"><ele>1389.60</ele><time>2026-8-28T11:59:0Z</time></trkpt><trkpt lat="42.1898844335" lon="13.5016202973"><ele>1390.24</ele><time>2026-8-28T11:59:9Z</time></trkpt><trkpt lat="42.1897719335" lon="13.5015374422"><ele>1390.97</ele><time>2026-8-28T11:59:19Z</time></trkpt><trkpt lat="42.1896518098" lon="13.5014484645"><ele>1392.08</ele><time>2026-8-28T11:59:29Z</time></trkpt><trkpt lat="42.1895418702" lon="13.5014378300"><ele>1392.68</ele><time>2026-8-28T11:59:59Z</time></trkpt><trkpt lat="42.1894771081" lon="13.5014145178"><ele>1392.70</ele><time>2026-8-28T12:0:30Z</time></trkpt><trkpt lat="42.1893462285" lon="13.5013389283"><ele>1393.01</ele><time>2026-8-28T12:0:41Z</time></trkpt><trkpt lat="42.1892378619" lon="13.5012400607"><ele>1394.44</ele><time>2026-8-28T12:0:51Z</time></trkpt><trkpt lat="42.1891385866" lon="13.5011206269"><ele>1395.88</ele><time>2026-8-28T12:1:1Z</time></trkpt><trkpt lat="42.1890606182" lon="13.5009658300"><ele>1396.94</ele><time>2026-8-28T12:1:11Z</time></trkpt><trkpt lat="42.1890007798" lon="13.5008046208"><ele>1397.98</ele><time>2026-8-28T12:1:21Z</time></trkpt><trkpt lat="42.1889593983" lon="13.5006416850"><ele>1398.52</ele><time>2026-8-28T12:1:31Z</time></trkpt><trkpt lat="42.1889202129" lon="13.5004695626"><ele>1399.15</ele><time>2026-8-28T12:1:41Z</time></trkpt><trkpt lat="42.1889087017" lon="13.5003717521"><ele>1399.94</ele><time>2026-8-28T12:2:15Z</time></trkpt><trkpt lat="42.1888645655" lon="13.5002496047"><ele>1399.67</ele><time>2026-8-28T12:2:49Z</time></trkpt><trkpt lat="42.1888103345" lon="13.5000849757"><ele>1399.72</ele><time>2026-8-28T12:2:59Z</time></trkpt><trkpt lat="42.1887490293" lon="13.4999236744"><ele>1400.22</ele><time>2026-8-28T12:3:9Z</time></trkpt><trkpt lat="42.1886773221" lon="13.4997671256"><ele>1401.01</ele><time>2026-8-28T12:3:19Z</time></trkpt><trkpt lat="42.1885969564" lon="13.4996258989"><ele>1402.48</ele><time>2026-8-28T12:3:29Z</time></trkpt><trkpt lat="42.1885428230" lon="13.4994596903"><ele>1403.06</ele><time>2026-8-28T12:3:40Z</time></trkpt><trkpt lat="42.1885188874" lon="13.4993009577"><ele>1404.97</ele><time>2026-8-28T12:3:50Z</time></trkpt><trkpt lat="42.1885741036" lon="13.4991205391"><ele>1406.78</ele><time>2026-8-28T12:4:0Z</time></trkpt><trkpt lat="42.1886175778" lon="13.4989543725"><ele>1406.70</ele><time>2026-8-28T12:4:9Z</time></trkpt><trkpt lat="42.1885854397" lon="13.4987939699"><ele>1406.69</ele><time>2026-8-28T12:4:18Z</time></trkpt><trkpt lat="42.1885147970" lon="13.4986402625"><ele>1407.57</ele><time>2026-8-28T12:4:28Z</time></trkpt><trkpt lat="42.1884407848" lon="13.4984843256"><ele>1408.74</ele><time>2026-8-28T12:4:38Z</time></trkpt><trkpt lat="42.1883655153" lon="13.4983291346"><ele>1409.23</ele><time>2026-8-28T12:4:48Z</time></trkpt><trkpt lat="42.1883007400" lon="13.4981748490"><ele>1409.46</ele><time>2026-8-28T12:4:58Z</time></trkpt><trkpt lat="42.1882403148" lon="13.4980137488"><ele>1410.58</ele><time>2026-8-28T12:5:8Z</time></trkpt><trkpt lat="42.1882001497" lon="13.4978434723"><ele>1412.37</ele><time>2026-8-28T12:5:18Z</time></trkpt><trkpt lat="42.1881726896" lon="13.4976674505"><ele>1413.54</ele><time>2026-8-28T12:5:27Z</time></trkpt><trkpt lat="42.1881400049" lon="13.4975010064"><ele>1414.41</ele><time>2026-8-28T12:5:37Z</time></trkpt><trkpt lat="42.1881279638" lon="13.4973225938"><ele>1416.50</ele><time>2026-8-28T12:5:46Z</time></trkpt><trkpt lat="42.1880931187" lon="13.4971415379"><ele>1417.29</ele><time>2026-8-28T12:5:57Z</time></trkpt><trkpt lat="42.1880184436" lon="13.4970118774"><ele>1418.48</ele><time>2026-8-28T12:6:8Z</time></trkpt><trkpt lat="42.1879011772" lon="13.4969461129"><ele>1419.06</ele><time>2026-8-28T12:6:20Z</time></trkpt><trkpt lat="42.1877794347" lon="13.4968634535"><ele>1419.67</ele><time>2026-8-28T12:6:33Z</time></trkpt><trkpt lat="42.1876610583" lon="13.4967942238"><ele>1420.80</ele><time>2026-8-28T12:6:45Z</time></trkpt><trkpt lat="42.1875495161" lon="13.4967397805"><ele>1422.44</ele><time>2026-8-28T12:6:56Z</time></trkpt><trkpt lat="42.1874215803" lon="13.4966750862"><ele>1423.51</ele><time>2026-8-28T12:7:8Z</time></trkpt><trkpt lat="42.1873103362" lon="13.4965898283"><ele>1424.11</ele><time>2026-8-28T12:7:19Z</time></trkpt><trkpt lat="42.1871964075" lon="13.4965109197"><ele>1424.80</ele><time>2026-8-28T12:7:27Z</time></trkpt><trkpt lat="42.1870586471" lon="13.4964738583"><ele>1425.25</ele><time>2026-8-28T12:7:37Z</time></trkpt><trkpt lat="42.1869480517" lon="13.4963909071"><ele>1425.75</ele><time>2026-8-28T12:7:47Z</time></trkpt><trkpt lat="42.1868743340" lon="13.4963821164"><ele>1427.32</ele><time>2026-8-28T12:8:10Z</time></trkpt><trkpt lat="42.1868153033" lon="13.4965548947"><ele>1426.27</ele><time>2026-8-28T12:8:42Z</time></trkpt><trkpt lat="42.1867516263" lon="13.4965978255"><ele>1426.39</ele><time>2026-8-28T12:9:29Z</time></trkpt><trkpt lat="42.1866816969" lon="13.4966083295"><ele>1428.26</ele><time>2026-8-28T12:10:20Z</time></trkpt><trkpt lat="42.1866374641" lon="13.4965972475"><ele>1428.45</ele><time>2026-8-28T12:10:50Z</time></trkpt><trkpt lat="42.1864673495" lon="13.4966071334"><ele>1428.79</ele><time>2026-8-28T12:11:5Z</time></trkpt><trkpt lat="42.1863589944" lon="13.4965904887"><ele>1429.36</ele><time>2026-8-28T12:11:15Z</time></trkpt><trkpt lat="42.1862517921" lon="13.4964850405"><ele>1429.39</ele><time>2026-8-28T12:11:25Z</time></trkpt><trkpt lat="42.1861416539" lon="13.4963777270"><ele>1430.09</ele><time>2026-8-28T12:11:35Z</time></trkpt><trkpt lat="42.1860657268" lon="13.4962389593"><ele>1431.71</ele><time>2026-8-28T12:11:46Z</time></trkpt><trkpt lat="42.1859767428" lon="13.4961394686"><ele>1432.69</ele><time>2026-8-28T12:11:54Z</time></trkpt><trkpt lat="42.1858844196" lon="13.4960571653"><ele>1433.46</ele><time>2026-8-28T12:12:1Z</time></trkpt><trkpt lat="42.1857814584" lon="13.4959653416"><ele>1434.27</ele><time>2026-8-28T12:12:9Z</time></trkpt><trkpt lat="42.1856756997" lon="13.4958721453"><ele>1434.98</ele><time>2026-8-28T12:12:17Z</time></trkpt><trkpt lat="42.1855548620" lon="13.4958058130"><ele>1436.34</ele><time>2026-8-28T12:12:26Z</time></trkpt><trkpt lat="42.1854527082" lon="13.4957422542"><ele>1437.33</ele><time>2026-8-28T12:12:35Z</time></trkpt><trkpt lat="42.1853474518" lon="13.4956654748"><ele>1437.69</ele><time>2026-8-28T12:12:43Z</time></trkpt><trkpt lat="42.1852462005" lon="13.4955611871"><ele>1438.34</ele><time>2026-8-28T12:12:52Z</time></trkpt><trkpt lat="42.1851882502" lon="13.4954064782"><ele>1438.49</ele><time>2026-8-28T12:13:0Z</time></trkpt><trkpt lat="42.1851232275" lon="13.4952517692"><ele>1438.18</ele><time>2026-8-28T12:13:10Z</time></trkpt><trkpt lat="42.1850542910" lon="13.4951000661"><ele>1437.79</ele><time>2026-8-28T12:13:20Z</time></trkpt><trkpt lat="42.1849528700" lon="13.4949804656"><ele>1438.62</ele><time>2026-8-28T12:13:29Z</time></trkpt><trkpt lat="42.1849009395" lon="13.4948310815"><ele>1439.43</ele><time>2026-8-28T12:13:37Z</time></trkpt><trkpt lat="42.1849033702" lon="13.4946509858"><ele>1439.90</ele><time>2026-8-28T12:13:44Z</time></trkpt><trkpt lat="42.1848973038" lon="13.4944757307"><ele>1440.25</ele><time>2026-8-28T12:13:52Z</time></trkpt><trkpt lat="42.1848632666" lon="13.4943082412"><ele>1440.89</ele><time>2026-8-28T12:14:2Z</time></trkpt><trkpt lat="42.1848585270" lon="13.4941294847"><ele>1441.13</ele><time>2026-8-28T12:14:11Z</time></trkpt><trkpt lat="42.1848167106" lon="13.4939596988"><ele>1441.07</ele><time>2026-8-28T12:14:20Z</time></trkpt><trkpt lat="42.1847506147" lon="13.4938366991"><ele>1440.95</ele><time>2026-8-28T12:14:29Z</time></trkpt><trkpt lat="42.1846414916" lon="13.4937245864"><ele>1441.82</ele><time>2026-8-28T12:14:38Z</time></trkpt><trkpt lat="42.1845438369" lon="13.4935951363"><ele>1442.99</ele><time>2026-8-28T12:14:47Z</time></trkpt><trkpt lat="42.1844690787" lon="13.4934630292"><ele>1443.01</ele><time>2026-8-28T12:14:57Z</time></trkpt><trkpt lat="42.1843757667" lon="13.4933466464"><ele>1443.79</ele><time>2026-8-28T12:15:7Z</time></trkpt><trkpt lat="42.1842894629" lon="13.4932373380"><ele>1445.18</ele><time>2026-8-28T12:15:16Z</time></trkpt><trkpt lat="42.1842249203" lon="13.4930819925"><ele>1446.26</ele><time>2026-8-28T12:15:26Z</time></trkpt><trkpt lat="42.1841373146" lon="13.4929450359"><ele>1447.74</ele><time>2026-8-28T12:15:35Z</time></trkpt><trkpt lat="42.1840622295" lon="13.4928064579"><ele>1448.59</ele><time>2026-8-28T12:15:45Z</time></trkpt><trkpt lat="42.1840173937" lon="13.4926627669"><ele>1449.07</ele><time>2026-8-28T12:15:55Z</time></trkpt><trkpt lat="42.1840096731" lon="13.4924806561"><ele>1450.51</ele><time>2026-8-28T12:16:4Z</time></trkpt><trkpt lat="42.1839990010" lon="13.4923213949"><ele>1450.86</ele><time>2026-8-28T12:16:14Z</time></trkpt><trkpt lat="42.1839912058" lon="13.4921422812"><ele>1451.30</ele><time>2026-8-28T12:16:25Z</time></trkpt><trkpt lat="42.1839868701" lon="13.4919749556"><ele>1452.72</ele><time>2026-8-28T12:16:36Z</time></trkpt><trkpt lat="42.1839876389" lon="13.4917998752"><ele>1454.18</ele><time>2026-8-28T12:16:46Z</time></trkpt><trkpt lat="42.1839708416" lon="13.4916239837"><ele>1455.33</ele><time>2026-8-28T12:16:57Z</time></trkpt><trkpt lat="42.1839307994" lon="13.4914738499"><ele>1456.56</ele><time>2026-8-28T12:17:8Z</time></trkpt><trkpt lat="42.1839111721" lon="13.4913002241"><ele>1457.35</ele><time>2026-8-28T12:17:19Z</time></trkpt><trkpt lat="42.1838798713" lon="13.4911293130"><ele>1457.77</ele><time>2026-8-28T12:17:31Z</time></trkpt><trkpt lat="42.1838301374" lon="13.4909723187"><ele>1459.90</ele><time>2026-8-28T12:17:42Z</time></trkpt><trkpt lat="42.1837792788" lon="13.4907899089"><ele>1461.43</ele><time>2026-8-28T12:17:56Z</time></trkpt><trkpt lat="42.1837652455" lon="13.4907294111"><ele>1463.32</ele><time>2026-8-28T12:18:24Z</time></trkpt><trkpt lat="42.1837058020" lon="13.4905851141"><ele>1463.59</ele><time>2026-8-28T12:18:51Z</time></trkpt><trkpt lat="42.1836376038" lon="13.4904416464"><ele>1464.20</ele><time>2026-8-28T12:19:2Z</time></trkpt><trkpt lat="42.1835455690" lon="13.4903267305"><ele>1464.94</ele><time>2026-8-28T12:19:12Z</time></trkpt><trkpt lat="42.1834516703" lon="13.4902134987"><ele>1466.79</ele><time>2026-8-28T12:19:23Z</time></trkpt><trkpt lat="42.1833515516" lon="13.4900958580"><ele>1469.65</ele><time>2026-8-28T12:19:34Z</time></trkpt><trkpt lat="42.1832620539" lon="13.4900219925"><ele>1470.97</ele><time>2026-8-28T12:19:43Z</time></trkpt><trkpt lat="42.1831507646" lon="13.4899818823"><ele>1472.18</ele><time>2026-8-28T12:19:51Z</time></trkpt><trkpt lat="42.1831090333" lon="13.4898139181"><ele>1473.52</ele><time>2026-8-28T12:20:2Z</time></trkpt><trkpt lat="42.1830729386" lon="13.4896415938"><ele>1473.60</ele><time>2026-8-28T12:20:12Z</time></trkpt><trkpt lat="42.1830709750" lon="13.4895096426"><ele>1473.91</ele><time>2026-8-28T12:20:40Z</time></trkpt><trkpt lat="42.1830431592" lon="13.4894105276"><ele>1473.74</ele><time>2026-8-28T12:21:9Z</time></trkpt><trkpt lat="42.1830260859" lon="13.4892457375"><ele>1473.29</ele><time>2026-8-28T12:21:18Z</time></trkpt><trkpt lat="42.1830322660" lon="13.4890662959"><ele>1473.49</ele><time>2026-8-28T12:21:26Z</time></trkpt><trkpt lat="42.1830474772" lon="13.4888714226"><ele>1473.34</ele><time>2026-8-28T12:21:32Z</time></trkpt><trkpt lat="42.1830427793" lon="13.4886914811"><ele>1472.80</ele><time>2026-8-28T12:21:39Z</time></trkpt><trkpt lat="42.1830211420" lon="13.4885142876"><ele>1472.87</ele><time>2026-8-28T12:21:46Z</time></trkpt><trkpt lat="42.1829900052" lon="13.4883491602"><ele>1473.53</ele><time>2026-8-28T12:21:52Z</time></trkpt><trkpt lat="42.1829653590" lon="13.4881687991"><ele>1473.95</ele><time>2026-8-28T12:21:59Z</time></trkpt><trkpt lat="42.1829369398" lon="13.4879892812"><ele>1474.39</ele><time>2026-8-28T12:22:7Z</time></trkpt><trkpt lat="42.1829244987" lon="13.4878221340"><ele>1474.78</ele><time>2026-8-28T12:22:14Z</time></trkpt><trkpt lat="42.1829239000" lon="13.4876370302"><ele>1475.04</ele><time>2026-8-28T12:22:21Z</time></trkpt><trkpt lat="42.1829242353" lon="13.4874459647"><ele>1474.53</ele><time>2026-8-28T12:22:29Z</time></trkpt><trkpt lat="42.1829130993" lon="13.4872724009"><ele>1473.78</ele><time>2026-8-28T12:22:37Z</time></trkpt><trkpt lat="42.1829226636" lon="13.4870923113"><ele>1473.20</ele><time>2026-8-28T12:22:44Z</time></trkpt><trkpt lat="42.1829234569" lon="13.4869117636"><ele>1472.93</ele><time>2026-8-28T12:22:52Z</time></trkpt><trkpt lat="42.1829204993" lon="13.4867344743"><ele>1473.56</ele><time>2026-8-28T12:22:59Z</time></trkpt><trkpt lat="42.1829067650" lon="13.4865441453"><ele>1474.29</ele><time>2026-8-28T12:23:6Z</time></trkpt><trkpt lat="42.1828806773" lon="13.4863820253"><ele>1474.12</ele><time>2026-8-28T12:23:12Z</time></trkpt><trkpt lat="42.1828575632" lon="13.4862135750"><ele>1473.95</ele><time>2026-8-28T12:23:19Z</time></trkpt><trkpt lat="42.1828118938" lon="13.4860447515"><ele>1474.21</ele><time>2026-8-28T12:23:26Z</time></trkpt><trkpt lat="42.1827446425" lon="13.4858811367"><ele>1474.60</ele><time>2026-8-28T12:23:33Z</time></trkpt><trkpt lat="42.1826854663" lon="13.4857073380"><ele>1475.21</ele><time>2026-8-28T12:23:41Z</time></trkpt><trkpt lat="42.1826228220" lon="13.4855476208"><ele>1475.83</ele><time>2026-8-28T12:23:49Z</time></trkpt><trkpt lat="42.1825565631" lon="13.4853943158"><ele>1477.36</ele><time>2026-8-28T12:23:57Z</time></trkpt><trkpt lat="42.1824954276" lon="13.4852335928"><ele>1478.22</ele><time>2026-8-28T12:24:5Z</time></trkpt><trkpt lat="42.1824228537" lon="13.4850785455"><ele>1478.49</ele><time>2026-8-28T12:24:13Z</time></trkpt><trkpt lat="42.1823476302" lon="13.4849387454"><ele>1478.89</ele><time>2026-8-28T12:24:19Z</time></trkpt><trkpt lat="42.1822728496" lon="13.4848095802"><ele>1479.31</ele><time>2026-8-28T12:24:25Z</time></trkpt><trkpt lat="42.1822148915" lon="13.4846503884"><ele>1478.77</ele><time>2026-8-28T12:24:31Z</time></trkpt><trkpt lat="42.1821579407" lon="13.4844771051"><ele>1478.27</ele><time>2026-8-28T12:24:35Z</time></trkpt><trkpt lat="42.1821108274" lon="13.4843058139"><ele>1477.83</ele><time>2026-8-28T12:24:39Z</time></trkpt><trkpt lat="42.1820434858" lon="13.4841407603"><ele>1477.15</ele><time>2026-8-28T12:24:42Z</time></trkpt><trkpt lat="42.1819547843" lon="13.4839944542"><ele>1476.75</ele><time>2026-8-28T12:24:46Z</time></trkpt><trkpt lat="42.1818498597" lon="13.4838717934"><ele>1476.58</ele><time>2026-8-28T12:24:50Z</time></trkpt><trkpt lat="42.1817410458" lon="13.4837938752"><ele>1476.44</ele><time>2026-8-28T12:24:55Z</time></trkpt><trkpt lat="42.1816077017" lon="13.4837501696"><ele>1474.91</ele><time>2026-8-28T12:25:1Z</time></trkpt><trkpt lat="42.1815432329" lon="13.4837309530"><ele>1473.53</ele><time>2026-8-28T12:25:32Z</time></trkpt><trkpt lat="42.1814864594" lon="13.4837418609"><ele>1473.31</ele><time>2026-8-28T12:26:4Z</time></trkpt><trkpt lat="42.1813335037" lon="13.4837924782"><ele>1473.58</ele><time>2026-8-28T12:26:11Z</time></trkpt><trkpt lat="42.1812160872" lon="13.4838858414"><ele>1473.71</ele><time>2026-8-28T12:26:17Z</time></trkpt><trkpt lat="42.1810990926" lon="13.4839618318"><ele>1473.94</ele><time>2026-8-28T12:26:22Z</time></trkpt><trkpt lat="42.1809886966" lon="13.4840633010"><ele>1474.22</ele><time>2026-8-28T12:26:28Z</time></trkpt><trkpt lat="42.1809100849" lon="13.4841739421"><ele>1474.59</ele><time>2026-8-28T12:26:36Z</time></trkpt><trkpt lat="42.1808051464" lon="13.4841672890"><ele>1474.81</ele><time>2026-8-28T12:26:44Z</time></trkpt><trkpt lat="42.1808448527" lon="13.4840267804"><ele>1474.47</ele><time>2026-8-28T12:26:50Z</time></trkpt><trkpt lat="42.1809269115" lon="13.4838755988"><ele>1474.03</ele><time>2026-8-28T12:26:56Z</time></trkpt><trkpt lat="42.1810056386" lon="13.4837365011"><ele>1473.35</ele><time>2026-8-28T12:27:0Z</time></trkpt><trkpt lat="42.1810932225" lon="13.4835907957"><ele>1472.14</ele><time>2026-8-28T12:27:5Z</time></trkpt><trkpt lat="42.1811819393" lon="13.4834461101"><ele>1470.65</ele><time>2026-8-28T12:27:11Z</time></trkpt><trkpt lat="42.1812604945" lon="13.4833139610"><ele>1469.79</ele><time>2026-8-28T12:27:16Z</time></trkpt><trkpt lat="42.1813503094" lon="13.4831876401"><ele>1468.90</ele><time>2026-8-28T12:27:21Z</time></trkpt><trkpt lat="42.1814517444" lon="13.4830430104"><ele>1467.99</ele><time>2026-8-28T12:27:27Z</time></trkpt><trkpt lat="42.1815356053" lon="13.4828977324"><ele>1466.69</ele><time>2026-8-28T12:27:33Z</time></trkpt><trkpt lat="42.1816031006" lon="13.4827472898"><ele>1466.00</ele><time>2026-8-28T12:27:37Z</time></trkpt><trkpt lat="42.1816793382" lon="13.4825987332"><ele>1465.40</ele><time>2026-8-28T12:27:42Z</time></trkpt><trkpt lat="42.1817729599" lon="13.4824597068"><ele>1464.46</ele><time>2026-8-28T12:27:46Z</time></trkpt><trkpt lat="42.1818666067" lon="13.4823388187"><ele>1463.72</ele><time>2026-8-28T12:27:50Z</time></trkpt><trkpt lat="42.1819663304" lon="13.4822285548"><ele>1462.96</ele><time>2026-8-28T12:27:54Z</time></trkpt><trkpt lat="42.1820828933" lon="13.4821200595"><ele>1462.41</ele><time>2026-8-28T12:27:59Z</time></trkpt><trkpt lat="42.1821791846" lon="13.4820025954"><ele>1461.76</ele><time>2026-8-28T12:28:4Z</time></trkpt><trkpt lat="42.1822258760" lon="13.4818515997"><ele>1460.61</ele><time>2026-8-28T12:28:8Z</time></trkpt><trkpt lat="42.1822873447" lon="13.4816897828"><ele>1459.43</ele><time>2026-8-28T12:28:13Z</time></trkpt><trkpt lat="42.1823599236" lon="13.4815326682"><ele>1458.15</ele><time>2026-8-28T12:28:17Z</time></trkpt><trkpt lat="42.1824385249" lon="13.4813863831"><ele>1457.37</ele><time>2026-8-28T12:28:21Z</time></trkpt><trkpt lat="42.1825054754" lon="13.4812197927"><ele>1456.68</ele><time>2026-8-28T12:28:26Z</time></trkpt><trkpt lat="42.1825644999" lon="13.4810262666"><ele>1455.32</ele><time>2026-8-28T12:28:39Z</time></trkpt><trkpt lat="42.1826176291" lon="13.4809882027"><ele>1455.02</ele><time>2026-8-28T12:29:11Z</time></trkpt><trkpt lat="42.1826315432" lon="13.4809641379"><ele>1454.90</ele><time>2026-8-28T12:30:3Z</time></trkpt><trkpt lat="42.1826345853" lon="13.4809766789"><ele>1455.64</ele><time>2026-8-28T12:31:12Z</time></trkpt><trkpt lat="42.1826695406" lon="13.4808582603"><ele>1455.31</ele><time>2026-8-28T12:31:54Z</time></trkpt><trkpt lat="42.1826877147" lon="13.4806757904"><ele>1455.83</ele><time>2026-8-28T12:32:1Z</time></trkpt><trkpt lat="42.1826918721" lon="13.4805033244"><ele>1455.84</ele><time>2026-8-28T12:32:6Z</time></trkpt><trkpt lat="42.1826985441" lon="13.4803058636"><ele>1455.70</ele><time>2026-8-28T12:32:11Z</time></trkpt><trkpt lat="42.1827247320" lon="13.4801227553"><ele>1455.57</ele><time>2026-8-28T12:32:16Z</time></trkpt><trkpt lat="42.1827515681" lon="13.4799412312"><ele>1455.34</ele><time>2026-8-28T12:32:21Z</time></trkpt><trkpt lat="42.1827523364" lon="13.4797660355"><ele>1455.26</ele><time>2026-8-28T12:32:27Z</time></trkpt><trkpt lat="42.1827670466" lon="13.4796042228"><ele>1455.04</ele><time>2026-8-28T12:32:33Z</time></trkpt><trkpt lat="42.1827968543" lon="13.4794184858"><ele>1454.95</ele><time>2026-8-28T12:32:40Z</time></trkpt><trkpt lat="42.1828374407" lon="13.4792337148"><ele>1454.84</ele><time>2026-8-28T12:32:46Z</time></trkpt><trkpt lat="42.1828708186" lon="13.4790559326"><ele>1454.52</ele><time>2026-8-28T12:32:53Z</time></trkpt><trkpt lat="42.1829042624" lon="13.4788962454"><ele>1454.33</ele><time>2026-8-28T12:33:0Z</time></trkpt><trkpt lat="42.1829822548" lon="13.4787655547"><ele>1453.58</ele><time>2026-8-28T12:33:6Z</time></trkpt><trkpt lat="42.1830384247" lon="13.4785897052"><ele>1452.75</ele><time>2026-8-28T12:33:11Z</time></trkpt><trkpt lat="42.1830759309" lon="13.4784279149"><ele>1452.06</ele><time>2026-8-28T12:33:17Z</time></trkpt><trkpt lat="42.1831120457" lon="13.4782528505"><ele>1451.25</ele><time>2026-8-28T12:33:22Z</time></trkpt><trkpt lat="42.1831392870" lon="13.4780733660"><ele>1450.59</ele><time>2026-8-28T12:33:28Z</time></trkpt><trkpt lat="42.1831508149" lon="13.4778854381"><ele>1450.58</ele><time>2026-8-28T12:33:34Z</time></trkpt><trkpt lat="42.1831617664" lon="13.4777069012"><ele>1451.32</ele><time>2026-8-28T12:33:40Z</time></trkpt><trkpt lat="42.1831731498" lon="13.4775372315"><ele>1451.72</ele><time>2026-8-28T12:33:46Z</time></trkpt><trkpt lat="42.1832003561" lon="13.4773660870"><ele>1451.15</ele><time>2026-8-28T12:33:51Z</time></trkpt><trkpt lat="42.1832461842" lon="13.4771732404"><ele>1449.85</ele><time>2026-8-28T12:33:55Z</time></trkpt><trkpt lat="42.1832816396" lon="13.4770005941"><ele>1448.70</ele><time>2026-8-28T12:33:59Z</time></trkpt><trkpt lat="42.1833178215" lon="13.4768289747"><ele>1447.92</ele><time>2026-8-28T12:34:3Z</time></trkpt><trkpt lat="42.1833488834" lon="13.4766529338"><ele>1447.54</ele><time>2026-8-28T12:34:8Z</time></trkpt><trkpt lat="42.1833996568" lon="13.4765069000"><ele>1447.51</ele><time>2026-8-28T12:34:13Z</time></trkpt><trkpt lat="42.1834627893" lon="13.4763337634"><ele>1447.35</ele><time>2026-8-28T12:34:18Z</time></trkpt><trkpt lat="42.1835114714" lon="13.4761433769"><ele>1446.92</ele><time>2026-8-28T12:34:23Z</time></trkpt><trkpt lat="42.1835514531" lon="13.4759861324"><ele>1446.80</ele><time>2026-8-28T12:34:27Z</time></trkpt><trkpt lat="42.1835921053" lon="13.4758192208"><ele>1446.98</ele><time>2026-8-28T12:34:32Z</time></trkpt><trkpt lat="42.1836064383" lon="13.4756226512"><ele>1447.08</ele><time>2026-8-28T12:34:38Z</time></trkpt><trkpt lat="42.1836089809" lon="13.4754440328"><ele>1447.27</ele><time>2026-8-28T12:34:44Z</time></trkpt><trkpt lat="42.1836362660" lon="13.4752821962"><ele>1447.55</ele><time>2026-8-28T12:34:51Z</time></trkpt><trkpt lat="42.1837026626" lon="13.4751298372"><ele>1447.49</ele><time>2026-8-28T12:34:57Z</time></trkpt><trkpt lat="42.1837642836" lon="13.4749778733"><ele>1447.36</ele><time>2026-8-28T12:35:3Z</time></trkpt><trkpt lat="42.1838345099" lon="13.4748151566"><ele>1447.74</ele><time>2026-8-28T12:35:10Z</time></trkpt><trkpt lat="42.1839570219" lon="13.4747315396"><ele>1447.96</ele><time>2026-8-28T12:35:17Z</time></trkpt><trkpt lat="42.1840796974" lon="13.4746889323"><ele>1448.04</ele><time>2026-8-28T12:35:26Z</time></trkpt><trkpt lat="42.1842063159" lon="13.4746270449"><ele>1448.09</ele><time>2026-8-28T12:35:37Z</time></trkpt><trkpt lat="42.1843023179" lon="13.4745044494"><ele>1448.16</ele><time>2026-8-28T12:35:48Z</time></trkpt><trkpt lat="42.1843618231" lon="13.4743505031"><ele>1448.58</ele><time>2026-8-28T12:36:0Z</time></trkpt><trkpt lat="42.1844056109" lon="13.4741842328"><ele>1448.68</ele><time>2026-8-28T12:36:11Z</time></trkpt><trkpt lat="42.1844364068" lon="13.4740060907"><ele>1448.76</ele><time>2026-8-28T12:36:23Z</time></trkpt><trkpt lat="42.1844704114" lon="13.4738327880"><ele>1448.94</ele><time>2026-8-28T12:36:33Z</time></trkpt><trkpt lat="42.1844985383" lon="13.4736537910"><ele>1448.90</ele><time>2026-8-28T12:36:44Z</time></trkpt><trkpt lat="42.1845234947" lon="13.4734778022"><ele>1449.45</ele><time>2026-8-28T12:36:56Z</time></trkpt><trkpt lat="42.1845730394" lon="13.4733154439"><ele>1449.67</ele><time>2026-8-28T12:37:6Z</time></trkpt><trkpt lat="42.1845958277" lon="13.4731429909"><ele>1449.61</ele><time>2026-8-28T12:37:14Z</time></trkpt><trkpt lat="42.1845923807" lon="13.4729696217"><ele>1450.61</ele><time>2026-8-28T12:37:22Z</time></trkpt><trkpt lat="42.1845662128" lon="13.4727865737"><ele>1450.85</ele><time>2026-8-28T12:37:31Z</time></trkpt><trkpt lat="42.1845295059" lon="13.4726047365"><ele>1451.12</ele><time>2026-8-28T12:37:39Z</time></trkpt><trkpt lat="42.1844842227" lon="13.4724392567"><ele>1451.38</ele><time>2026-8-28T12:37:47Z</time></trkpt><trkpt lat="42.1844415274" lon="13.4722751600"><ele>1451.73</ele><time>2026-8-28T12:37:55Z</time></trkpt><trkpt lat="42.1844115294" lon="13.4720936045"><ele>1451.80</ele><time>2026-8-28T12:38:4Z</time></trkpt><trkpt lat="42.1843805909" lon="13.4719167184"><ele>1452.01</ele><time>2026-8-28T12:38:12Z</time></trkpt><trkpt lat="42.1843563486" lon="13.4717490058"><ele>1452.31</ele><time>2026-8-28T12:38:21Z</time></trkpt><trkpt lat="42.1843458584" lon="13.4715606656"><ele>1452.49</ele><time>2026-8-28T12:38:29Z</time></trkpt><trkpt lat="42.1843507199" lon="13.4713805595"><ele>1452.90</ele><time>2026-8-28T12:38:37Z</time></trkpt><trkpt lat="42.1843677352" lon="13.4712017001"><ele>1453.17</ele><time>2026-8-28T12:38:45Z</time></trkpt><trkpt lat="42.1843910404" lon="13.4710189328"><ele>1453.71</ele><time>2026-8-28T12:38:54Z</time></trkpt><trkpt lat="42.1844158997" lon="13.4708456684"><ele>1453.76</ele><time>2026-8-28T12:39:2Z</time></trkpt><trkpt lat="42.1844416205" lon="13.4706678987"><ele>1454.05</ele><time>2026-8-28T12:39:11Z</time></trkpt><trkpt lat="42.1844664845" lon="13.4704900871"><ele>1454.05</ele><time>2026-8-28T12:39:19Z</time></trkpt><trkpt lat="42.1845014114" lon="13.4703190438"><ele>1454.38</ele><time>2026-8-28T12:39:28Z</time></trkpt><trkpt lat="42.1845493559" lon="13.4701433498"><ele>1455.05</ele><time>2026-8-28T12:39:37Z</time></trkpt><trkpt lat="42.1845939627" lon="13.4699729865"><ele>1455.26</ele><time>2026-8-28T12:39:45Z</time></trkpt><trkpt lat="42.1846298128" lon="13.4698067512"><ele>1454.65</ele><time>2026-8-28T12:39:54Z</time></trkpt><trkpt lat="42.1846396336" lon="13.4696183838"><ele>1454.56</ele><time>2026-8-28T12:40:3Z</time></trkpt><trkpt lat="42.1846267569" lon="13.4694358532"><ele>1455.39</ele><time>2026-8-28T12:40:12Z</time></trkpt><trkpt lat="42.1845907532" lon="13.4692576527"><ele>1455.49</ele><time>2026-8-28T12:40:21Z</time></trkpt><trkpt lat="42.1845793931" lon="13.4691682338"><ele>1456.21</ele><time>2026-8-28T12:41:18Z</time></trkpt><trkpt lat="42.1845264267" lon="13.4690301213"><ele>1455.66</ele><time>2026-8-28T12:42:16Z</time></trkpt><trkpt lat="42.1844719257" lon="13.4688601922"><ele>1455.51</ele><time>2026-8-28T12:42:25Z</time></trkpt><trkpt lat="42.1844262723" lon="13.4686915297"><ele>1455.45</ele><time>2026-8-28T12:42:34Z</time></trkpt><trkpt lat="42.1843887773" lon="13.4685188159"><ele>1455.74</ele><time>2026-8-28T12:42:43Z</time></trkpt><trkpt lat="42.1843519062" lon="13.4683446493"><ele>1455.87</ele><time>2026-8-28T12:42:52Z</time></trkpt><trkpt lat="42.1843006695" lon="13.4681727905"><ele>1455.82</ele><time>2026-8-28T12:43:1Z</time></trkpt><trkpt lat="42.1842602081" lon="13.4680020343"><ele>1456.21</ele><time>2026-8-28T12:43:11Z</time></trkpt><trkpt lat="42.1842353512" lon="13.4678282682"><ele>1456.52</ele><time>2026-8-28T12:43:20Z</time></trkpt><trkpt lat="42.1842137156" lon="13.4676481169"><ele>1456.60</ele><time>2026-8-28T12:43:29Z</time></trkpt><trkpt lat="42.1841851063" lon="13.4674690478"><ele>1456.77</ele><time>2026-8-28T12:43:39Z</time></trkpt><trkpt lat="42.1841558302" lon="13.4672995051"><ele>1457.02</ele><time>2026-8-28T12:43:47Z</time></trkpt><trkpt lat="42.1840659762" lon="13.4671741538"><ele>1457.55</ele><time>2026-8-28T12:43:55Z</time></trkpt><trkpt lat="42.1839798521" lon="13.4670364112"><ele>1457.75</ele><time>2026-8-28T12:44:4Z</time></trkpt><trkpt lat="42.1839544026" lon="13.4668624413"><ele>1457.65</ele><time>2026-8-28T12:44:12Z</time></trkpt><trkpt lat="42.1839802712" lon="13.4666934097"><ele>1457.75</ele><time>2026-8-28T12:44:21Z</time></trkpt><trkpt lat="42.1840239326" lon="13.4665265009"><ele>1458.04</ele><time>2026-8-28T12:44:31Z</time></trkpt><trkpt lat="42.1840273309" lon="13.4663460031"><ele>1458.31</ele><time>2026-8-28T12:44:41Z</time></trkpt><trkpt lat="42.1840009242" lon="13.4661704795"><ele>1458.63</ele><time>2026-8-28T12:44:50Z</time></trkpt><trkpt lat="42.1839978732" lon="13.4659773856"><ele>1458.89</ele><time>2026-8-28T12:45:0Z</time></trkpt><trkpt lat="42.1839988686" lon="13.4658085846"><ele>1459.06</ele><time>2026-8-28T12:45:8Z</time></trkpt><trkpt lat="42.1839542780" lon="13.4656382259"><ele>1459.49</ele><time>2026-8-28T12:45:17Z</time></trkpt><trkpt lat="42.1838847082" lon="13.4654729534"><ele>1459.66</ele><time>2026-8-28T12:45:26Z</time></trkpt><trkpt lat="42.1838028356" lon="13.4653291199"><ele>1459.99</ele><time>2026-8-28T12:45:35Z</time></trkpt><trkpt lat="42.1837180958" lon="13.4651972191"><ele>1460.18</ele><time>2026-8-28T12:45:43Z</time></trkpt><trkpt lat="42.1836289205" lon="13.4650622308"><ele>1460.41</ele><time>2026-8-28T12:45:52Z</time></trkpt><trkpt lat="42.1835357882" lon="13.4649305604"><ele>1460.72</ele><time>2026-8-28T12:46:1Z</time></trkpt><trkpt lat="42.1834508982" lon="13.4647994582"><ele>1461.07</ele><time>2026-8-28T12:46:10Z</time></trkpt><trkpt lat="42.1833871584" lon="13.4646474570"><ele>1461.47</ele><time>2026-8-28T12:46:19Z</time></trkpt><trkpt lat="42.1833509020" lon="13.4644746687"><ele>1462.03</ele><time>2026-8-28T12:46:28Z</time></trkpt><trkpt lat="42.1833393164" lon="13.4642899223"><ele>1462.49</ele><time>2026-8-28T12:46:37Z</time></trkpt><trkpt lat="42.1833401546" lon="13.4641060326"><ele>1462.85</ele><time>2026-8-28T12:46:46Z</time></trkpt><trkpt lat="42.1833439264" lon="13.4639251605"><ele>1463.14</ele><time>2026-8-28T12:46:55Z</time></trkpt><trkpt lat="42.1833514888" lon="13.4637465421"><ele>1463.64</ele><time>2026-8-28T12:47:4Z</time></trkpt><trkpt lat="42.1833513519" lon="13.4635626935"><ele>1464.08</ele><time>2026-8-28T12:47:13Z</time></trkpt><trkpt lat="42.1833644714" lon="13.4633809980"><ele>1464.34</ele><time>2026-8-28T12:47:23Z</time></trkpt><trkpt lat="42.1833712421" lon="13.4632073715"><ele>1464.31</ele><time>2026-8-28T12:47:32Z</time></trkpt><trkpt lat="42.1833744775" lon="13.4630249776"><ele>1464.45</ele><time>2026-8-28T12:47:41Z</time></trkpt><trkpt lat="42.1833779849" lon="13.4628381114"><ele>1464.53</ele><time>2026-8-28T12:47:51Z</time></trkpt><trkpt lat="42.1833851188" lon="13.4626634233"><ele>1464.97</ele><time>2026-8-28T12:48:0Z</time></trkpt><trkpt lat="42.1833863854" lon="13.4624861367"><ele>1465.17</ele><time>2026-8-28T12:48:9Z</time></trkpt><trkpt lat="42.1833851393" lon="13.4623041842"><ele>1465.43</ele><time>2026-8-28T12:48:18Z</time></trkpt><trkpt lat="42.1833861033" lon="13.4621164883"><ele>1465.70</ele><time>2026-8-28T12:48:28Z</time></trkpt><trkpt lat="42.1833806671" lon="13.4619426541"><ele>1465.86</ele><time>2026-8-28T12:48:38Z</time></trkpt><trkpt lat="42.1833818620" lon="13.4617682202"><ele>1465.98</ele><time>2026-8-28T12:48:47Z</time></trkpt><trkpt lat="42.1833880143" lon="13.4615848074"><ele>1466.35</ele><time>2026-8-28T12:48:57Z</time></trkpt><trkpt lat="42.1833968656" lon="13.4614015873"><ele>1466.52</ele><time>2026-8-28T12:49:7Z</time></trkpt><trkpt lat="42.1834089141" lon="13.4612177033"><ele>1467.20</ele><time>2026-8-28T12:49:17Z</time></trkpt><trkpt lat="42.1834173799" lon="13.4610421397"><ele>1467.51</ele><time>2026-8-28T12:49:26Z</time></trkpt><trkpt lat="42.1834161505" lon="13.4608688205"><ele>1467.80</ele><time>2026-8-28T12:49:35Z</time></trkpt><trkpt lat="42.1834192453" lon="13.4606858063"><ele>1468.06</ele><time>2026-8-28T12:49:44Z</time></trkpt><trkpt lat="42.1834103298" lon="13.4605004918"><ele>1468.14</ele><time>2026-8-28T12:49:54Z</time></trkpt><trkpt lat="42.1834015762" lon="13.4603194837"><ele>1468.41</ele><time>2026-8-28T12:50:3Z</time></trkpt><trkpt lat="42.1834027674" lon="13.4601376858"><ele>1468.74</ele><time>2026-8-28T12:50:13Z</time></trkpt><trkpt lat="42.1833949462" lon="13.4599583661"><ele>1469.17</ele><time>2026-8-28T12:50:22Z</time></trkpt><trkpt lat="42.1833306235" lon="13.4598026304"><ele>1469.31</ele><time>2026-8-28T12:50:32Z</time></trkpt><trkpt lat="42.1832655463" lon="13.4596524701"><ele>1469.73</ele><time>2026-8-28T12:50:43Z</time></trkpt><trkpt lat="42.1832467937" lon="13.4594647155"><ele>1470.31</ele><time>2026-8-28T12:50:54Z</time></trkpt><trkpt lat="42.1833027871" lon="13.4593104869"><ele>1470.98</ele><time>2026-8-28T12:51:4Z</time></trkpt><trkpt lat="42.1833586007" lon="13.4591610620"><ele>1471.17</ele><time>2026-8-28T12:51:15Z</time></trkpt><trkpt lat="42.1834062709" lon="13.4590005104"><ele>1471.46</ele><time>2026-8-28T12:51:26Z</time></trkpt><trkpt lat="42.1834514486" lon="13.4588315198"><ele>1471.44</ele><time>2026-8-28T12:51:36Z</time></trkpt><trkpt lat="42.1834588917" lon="13.4586486770"><ele>1471.51</ele><time>2026-8-28T12:51:46Z</time></trkpt><trkpt lat="42.1834687237" lon="13.4584709639"><ele>1472.01</ele><time>2026-8-28T12:51:56Z</time></trkpt><trkpt lat="42.1834557410" lon="13.4582896438"><ele>1472.25</ele><time>2026-8-28T12:52:6Z</time></trkpt><trkpt lat="42.1834300244" lon="13.4581098128"><ele>1472.66</ele><time>2026-8-28T12:52:15Z</time></trkpt><trkpt lat="42.1834136022" lon="13.4579310834"><ele>1473.02</ele><time>2026-8-28T12:52:24Z</time></trkpt><trkpt lat="42.1834021609" lon="13.4577618737"><ele>1473.33</ele><time>2026-8-28T12:52:32Z</time></trkpt><trkpt lat="42.1833823249" lon="13.4575798363"><ele>1473.32</ele><time>2026-8-28T12:52:41Z</time></trkpt><trkpt lat="42.1833228879" lon="13.4574072808"><ele>1473.35</ele><time>2026-8-28T12:52:50Z</time></trkpt><trkpt lat="42.1832768724" lon="13.4572474135"><ele>1473.98</ele><time>2026-8-28T12:52:58Z</time></trkpt><trkpt lat="42.1832226124" lon="13.4570831992"><ele>1474.52</ele><time>2026-8-28T12:53:7Z</time></trkpt><trkpt lat="42.1831840428" lon="13.4569155111"><ele>1475.09</ele><time>2026-8-28T12:53:15Z</time></trkpt><trkpt lat="42.1831589937" lon="13.4567378275"><ele>1475.34</ele><time>2026-8-28T12:53:24Z</time></trkpt><trkpt lat="42.1831499599" lon="13.4565501474"><ele>1475.79</ele><time>2026-8-28T12:53:33Z</time></trkpt><trkpt lat="42.1831292671" lon="13.4563676175"><ele>1476.01</ele><time>2026-8-28T12:53:41Z</time></trkpt><trkpt lat="42.1831099634" lon="13.4561793994"><ele>1476.52</ele><time>2026-8-28T12:53:54Z</time></trkpt><trkpt lat="42.1831296830" lon="13.4561390740"><ele>1476.88</ele><time>2026-8-28T12:54:25Z</time></trkpt><trkpt lat="42.1831410139" lon="13.4561405592"><ele>1476.99</ele><time>2026-8-28T12:55:33Z</time></trkpt><trkpt lat="42.1831469903" lon="13.4561282477"><ele>1476.84</ele><time>2026-8-28T12:56:56Z</time></trkpt><trkpt lat="42.1831322426" lon="13.4561320166"><ele>1477.17</ele><time>2026-8-28T12:58:6Z</time></trkpt><trkpt lat="42.1831174272" lon="13.4561221224"><ele>1476.63</ele><time>2026-8-28T12:59:5Z</time></trkpt><trkpt lat="42.1830632671" lon="13.4559270766"><ele>1477.32</ele><time>2026-8-28T12:59:36Z</time></trkpt><trkpt lat="42.1830202080" lon="13.4557682156"><ele>1477.39</ele><time>2026-8-28T12:59:43Z</time></trkpt><trkpt lat="42.1829702519" lon="13.4555963507"><ele>1477.69</ele><time>2026-8-28T12:59:50Z</time></trkpt><trkpt lat="42.1829356107" lon="13.4554132660"><ele>1478.03</ele><time>2026-8-28T12:59:57Z</time></trkpt><trkpt lat="42.1829076391" lon="13.4552365874"><ele>1478.34</ele><time>2026-8-28T13:0:4Z</time></trkpt><trkpt lat="42.1828695538" lon="13.4550657612"><ele>1478.82</ele><time>2026-8-28T13:0:11Z</time></trkpt><trkpt lat="42.1828282205" lon="13.4548909671"><ele>1479.14</ele><time>2026-8-28T13:0:19Z</time></trkpt><trkpt lat="42.1828420088" lon="13.4547121543"><ele>1478.56</ele><time>2026-8-28T13:0:28Z</time></trkpt><trkpt lat="42.1828461788" lon="13.4545429505"><ele>1478.50</ele><time>2026-8-28T13:0:36Z</time></trkpt><trkpt lat="42.1828386351" lon="13.4543659247"><ele>1479.22</ele><time>2026-8-28T13:0:44Z</time></trkpt><trkpt lat="42.1828148409" lon="13.4541890141"><ele>1479.70</ele><time>2026-8-28T13:0:52Z</time></trkpt><trkpt lat="42.1827944834" lon="13.4540075343"><ele>1480.69</ele><time>2026-8-28T13:1:1Z</time></trkpt><trkpt lat="42.1827721142" lon="13.4538251767"><ele>1481.09</ele><time>2026-8-28T13:1:9Z</time></trkpt><trkpt lat="42.1827510023" lon="13.4536520799"><ele>1481.03</ele><time>2026-8-28T13:1:17Z</time></trkpt><trkpt lat="42.1827167738" lon="13.4534727503"><ele>1481.42</ele><time>2026-8-28T13:1:26Z</time></trkpt><trkpt lat="42.1826732706" lon="13.4533049958"><ele>1482.52</ele><time>2026-8-28T13:1:34Z</time></trkpt><trkpt lat="42.1826433262" lon="13.4531306103"><ele>1482.97</ele><time>2026-8-28T13:1:42Z</time></trkpt><trkpt lat="42.1826300304" lon="13.4529480525"><ele>1483.36</ele><time>2026-8-28T13:1:50Z</time></trkpt><trkpt lat="42.1826054086" lon="13.4527775226"><ele>1483.58</ele><time>2026-8-28T13:1:58Z</time></trkpt><trkpt lat="42.1825725096" lon="13.4525931312"><ele>1484.31</ele><time>2026-8-28T13:2:6Z</time></trkpt><trkpt lat="42.1825322017" lon="13.4524177773"><ele>1484.98</ele><time>2026-8-28T13:2:14Z</time></trkpt><trkpt lat="42.1824928786" lon="13.4522522467"><ele>1485.29</ele><time>2026-8-28T13:2:21Z</time></trkpt><trkpt lat="42.1824605903" lon="13.4520749096"><ele>1485.17</ele><time>2026-8-28T13:2:27Z</time></trkpt><trkpt lat="42.1824334469" lon="13.4519006917"><ele>1485.20</ele><time>2026-8-28T13:2:33Z</time></trkpt><trkpt lat="42.1824047668" lon="13.4517135657"><ele>1485.48</ele><time>2026-8-28T13:2:39Z</time></trkpt><trkpt lat="42.1824077927" lon="13.4515328519"><ele>1485.56</ele><time>2026-8-28T13:2:45Z</time></trkpt><trkpt lat="42.1824217569" lon="13.4513586257"><ele>1485.59</ele><time>2026-8-28T13:2:50Z</time></trkpt><trkpt lat="42.1824420662" lon="13.4511863440"><ele>1485.66</ele><time>2026-8-28T13:2:54Z</time></trkpt><trkpt lat="42.1824523844" lon="13.4510119501"><ele>1485.75</ele><time>2026-8-28T13:2:59Z</time></trkpt><trkpt lat="42.1824548627" lon="13.4508282133"><ele>1486.08</ele><time>2026-8-28T13:3:4Z</time></trkpt><trkpt lat="42.1824487467" lon="13.4506478235"><ele>1486.13</ele><time>2026-8-28T13:3:10Z</time></trkpt><trkpt lat="42.1824339777" lon="13.4504661110"><ele>1486.20</ele><time>2026-8-28T13:3:16Z</time></trkpt><trkpt lat="42.1824010054" lon="13.4502876573"><ele>1486.45</ele><time>2026-8-28T13:3:23Z</time></trkpt><trkpt lat="42.1823605403" lon="13.4501139993"><ele>1486.97</ele><time>2026-8-28T13:3:31Z</time></trkpt><trkpt lat="42.1823418885" lon="13.4499427490"><ele>1487.37</ele><time>2026-8-28T13:3:39Z</time></trkpt><trkpt lat="42.1823706210" lon="13.4497642179"><ele>1487.69</ele><time>2026-8-28T13:3:47Z</time></trkpt><trkpt lat="42.1824029527" lon="13.4495964407"><ele>1488.34</ele><time>2026-8-28T13:3:55Z</time></trkpt><trkpt lat="42.1824399708" lon="13.4494157089"><ele>1489.09</ele><time>2026-8-28T13:4:2Z</time></trkpt><trkpt lat="42.1824913658" lon="13.4492461570"><ele>1489.43</ele><time>2026-8-28T13:4:9Z</time></trkpt><trkpt lat="42.1825610474" lon="13.4490966877"><ele>1489.69</ele><time>2026-8-28T13:4:16Z</time></trkpt><trkpt lat="42.1826368896" lon="13.4489386110"><ele>1489.75</ele><time>2026-8-28T13:4:22Z</time></trkpt><trkpt lat="42.1827051603" lon="13.4487861581"><ele>1489.69</ele><time>2026-8-28T13:4:28Z</time></trkpt><trkpt lat="42.1827640291" lon="13.4486247506"><ele>1489.87</ele><time>2026-8-28T13:4:34Z</time></trkpt><trkpt lat="42.1828102078" lon="13.4484572131"><ele>1490.20</ele><time>2026-8-28T13:4:40Z</time></trkpt><trkpt lat="42.1828436684" lon="13.4482925758"><ele>1490.47</ele><time>2026-8-28T13:4:45Z</time></trkpt><trkpt lat="42.1828784561" lon="13.4481028374"><ele>1490.66</ele><time>2026-8-28T13:4:50Z</time></trkpt><trkpt lat="42.1829320095" lon="13.4479329922"><ele>1490.74</ele><time>2026-8-28T13:4:55Z</time></trkpt><trkpt lat="42.1829755660" lon="13.4477741048"><ele>1490.95</ele><time>2026-8-28T13:5:0Z</time></trkpt><trkpt lat="42.1829989739" lon="13.4475881886"><ele>1491.13</ele><time>2026-8-28T13:5:5Z</time></trkpt><trkpt lat="42.1830280200" lon="13.4474026691"><ele>1491.52</ele><time>2026-8-28T13:5:11Z</time></trkpt><trkpt lat="42.1830675239" lon="13.4472350590"><ele>1491.73</ele><time>2026-8-28T13:5:16Z</time></trkpt><trkpt lat="42.1831109002" lon="13.4470652376"><ele>1491.80</ele><time>2026-8-28T13:5:23Z</time></trkpt><trkpt lat="42.1831473735" lon="13.4468890740"><ele>1491.90</ele><time>2026-8-28T13:5:30Z</time></trkpt><trkpt lat="42.1831710943" lon="13.4467122278"><ele>1491.81</ele><time>2026-8-28T13:5:37Z</time></trkpt><trkpt lat="42.1832185478" lon="13.4465431409"><ele>1491.97</ele><time>2026-8-28T13:5:44Z</time></trkpt><trkpt lat="42.1832869441" lon="13.4463862915"><ele>1492.30</ele><time>2026-8-28T13:5:51Z</time></trkpt><trkpt lat="42.1833651114" lon="13.4462417636"><ele>1492.58</ele><time>2026-8-28T13:5:58Z</time></trkpt><trkpt lat="42.1834207672" lon="13.4460771669"><ele>1492.94</ele><time>2026-8-28T13:6:5Z</time></trkpt><trkpt lat="42.1834658499" lon="13.4459036136"><ele>1493.12</ele><time>2026-8-28T13:6:12Z</time></trkpt><trkpt lat="42.1835206915" lon="13.4457016135"><ele>1493.74</ele><time>2026-8-28T13:6:22Z</time></trkpt><trkpt lat="42.1835588689" lon="13.4456631986"><ele>1494.36</ele><time>2026-8-28T13:7:28Z</time></trkpt><trkpt lat="42.1835675822" lon="13.4456461914"><ele>1495.21</ele><time>2026-8-28T13:8:49Z</time></trkpt><trkpt lat="42.1836055687" lon="13.4454345249"><ele>1494.82</ele><time>2026-8-28T13:9:14Z</time></trkpt><trkpt lat="42.1836432070" lon="13.4452684503"><ele>1494.95</ele><time>2026-8-28T13:9:23Z</time></trkpt><trkpt lat="42.1836829465" lon="13.4450901300"><ele>1495.01</ele><time>2026-8-28T13:9:32Z</time></trkpt><trkpt lat="42.1837298304" lon="13.4449216363"><ele>1495.21</ele><time>2026-8-28T13:9:40Z</time></trkpt><trkpt lat="42.1837884747" lon="13.4447602555"><ele>1495.42</ele><time>2026-8-28T13:9:49Z</time></trkpt><trkpt lat="42.1838619094" lon="13.4446036536"><ele>1496.24</ele><time>2026-8-28T13:9:58Z</time></trkpt><trkpt lat="42.1839367692" lon="13.4444505209"><ele>1496.75</ele><time>2026-8-28T13:10:6Z</time></trkpt><trkpt lat="42.1840005450" lon="13.4442889912"><ele>1497.09</ele><time>2026-8-28T13:10:14Z</time></trkpt><trkpt lat="42.1840469178" lon="13.4441284777"><ele>1497.41</ele><time>2026-8-28T13:10:22Z</time></trkpt><trkpt lat="42.1840876993" lon="13.4439611249"><ele>1497.78</ele><time>2026-8-28T13:10:31Z</time></trkpt><trkpt lat="42.1841163188" lon="13.4437761735"><ele>1498.32</ele><time>2026-8-28T13:10:40Z</time></trkpt><trkpt lat="42.1841294377" lon="13.4435976413"><ele>1498.60</ele><time>2026-8-28T13:10:48Z</time></trkpt><trkpt lat="42.1841340791" lon="13.4434203431"><ele>1499.32</ele><time>2026-8-28T13:10:57Z</time></trkpt><trkpt lat="42.1841320151" lon="13.4432417457"><ele>1499.77</ele><time>2026-8-28T13:11:5Z</time></trkpt><trkpt lat="42.1841117938" lon="13.4430682717"><ele>1500.07</ele><time>2026-8-28T13:11:13Z</time></trkpt><trkpt lat="42.1840855107" lon="13.4428856149"><ele>1500.05</ele><time>2026-8-28T13:11:22Z</time></trkpt><trkpt lat="42.1840661019" lon="13.4427025798"><ele>1500.08</ele><time>2026-8-28T13:11:30Z</time></trkpt><trkpt lat="42.1840505430" lon="13.4425266332"><ele>1500.52</ele><time>2026-8-28T13:11:38Z</time></trkpt><trkpt lat="42.1840353869" lon="13.4423420765"><ele>1500.93</ele><time>2026-8-28T13:11:47Z</time></trkpt><trkpt lat="42.1840100584" lon="13.4421588562"><ele>1501.43</ele><time>2026-8-28T13:11:55Z</time></trkpt><trkpt lat="42.1839923226" lon="13.4419817571"><ele>1501.86</ele><time>2026-8-28T13:12:4Z</time></trkpt><trkpt lat="42.1839880943" lon="13.4418006334"><ele>1502.07</ele><time>2026-8-28T13:12:13Z</time></trkpt><trkpt lat="42.1840010583" lon="13.4416286927"><ele>1502.60</ele><time>2026-8-28T13:12:22Z</time></trkpt><trkpt lat="42.1839963552" lon="13.4414435923"><ele>1502.76</ele><time>2026-8-28T13:12:31Z</time></trkpt><trkpt lat="42.1839862224" lon="13.4412600752"><ele>1503.13</ele><time>2026-8-28T13:12:39Z</time></trkpt><trkpt lat="42.1839692909" lon="13.4410837944"><ele>1503.61</ele><time>2026-8-28T13:12:48Z</time></trkpt><trkpt lat="42.1839467604" lon="13.4409064846"><ele>1503.70</ele><time>2026-8-28T13:12:57Z</time></trkpt><trkpt lat="42.1839225702" lon="13.4407293834"><ele>1504.63</ele><time>2026-8-28T13:13:7Z</time></trkpt><trkpt lat="42.1839010874" lon="13.4405522319"><ele>1505.46</ele><time>2026-8-28T13:13:17Z</time></trkpt><trkpt lat="42.1838953397" lon="13.4403771255"><ele>1506.28</ele><time>2026-8-28T13:13:28Z</time></trkpt><trkpt lat="42.1838807035" lon="13.4401890729"><ele>1507.10</ele><time>2026-8-28T13:13:38Z</time></trkpt><trkpt lat="42.1838547522" lon="13.4400154359"><ele>1507.29</ele><time>2026-8-28T13:13:46Z</time></trkpt><trkpt lat="42.1838096660" lon="13.4398459056"><ele>1507.83</ele><time>2026-8-28T13:13:55Z</time></trkpt><trkpt lat="42.1837532642" lon="13.4396779323"><ele>1508.49</ele><time>2026-8-28T13:14:5Z</time></trkpt><trkpt lat="42.1837007576" lon="13.4395201064"><ele>1509.40</ele><time>2026-8-28T13:14:16Z</time></trkpt><trkpt lat="42.1836507024" lon="13.4393474240"><ele>1509.98</ele><time>2026-8-28T13:14:27Z</time></trkpt><trkpt lat="42.1836297527" lon="13.4392061174"><ele>1510.44</ele><time>2026-8-28T13:15:9Z</time></trkpt><trkpt lat="42.1836612235" lon="13.4391965319"><ele>1509.82</ele><time>2026-8-28T13:19:4Z</time></trkpt><trkpt lat="42.1836337596" lon="13.4391489439"><ele>1511.39</ele><time>2026-8-28T13:22:45Z</time></trkpt><trkpt lat="42.1835840663" lon="13.4390130394"><ele>1511.51</ele><time>2026-8-28T13:23:13Z</time></trkpt><trkpt lat="42.1835443201" lon="13.4388478305"><ele>1511.70</ele><time>2026-8-28T13:23:23Z</time></trkpt><trkpt lat="42.1835049670" lon="13.4386693798"><ele>1511.94</ele><time>2026-8-28T13:23:33Z</time></trkpt><trkpt lat="42.1834650671" lon="13.4384890075"><ele>1512.04</ele><time>2026-8-28T13:23:42Z</time></trkpt><trkpt lat="42.1834474243" lon="13.4383154474"><ele>1511.89</ele><time>2026-8-28T13:23:51Z</time></trkpt><trkpt lat="42.1834202204" lon="13.4381390270"><ele>1512.28</ele><time>2026-8-28T13:24:0Z</time></trkpt><trkpt lat="42.1833938104" lon="13.4379621839"><ele>1512.58</ele><time>2026-8-28T13:24:8Z</time></trkpt><trkpt lat="42.1833633871" lon="13.4377928650"><ele>1512.76</ele><time>2026-8-28T13:24:16Z</time></trkpt><trkpt lat="42.1833383537" lon="13.4376183897"><ele>1512.71</ele><time>2026-8-28T13:24:23Z</time></trkpt><trkpt lat="42.1833167225" lon="13.4374359157"><ele>1512.54</ele><time>2026-8-28T13:24:32Z</time></trkpt><trkpt lat="42.1833041403" lon="13.4372469783"><ele>1512.82</ele><time>2026-8-28T13:24:41Z</time></trkpt><trkpt lat="42.1833053918" lon="13.4370738908"><ele>1513.23</ele><time>2026-8-28T13:24:49Z</time></trkpt><trkpt lat="42.1833024896" lon="13.4368951887"><ele>1513.42</ele><time>2026-8-28T13:24:57Z</time></trkpt><trkpt lat="42.1833001995" lon="13.4367138506"><ele>1513.49</ele><time>2026-8-28T13:25:5Z</time></trkpt><trkpt lat="42.1832882613" lon="13.4365370643"><ele>1513.45</ele><time>2026-8-28T13:25:12Z</time></trkpt><trkpt lat="42.1832997073" lon="13.4363627061"><ele>1513.69</ele><time>2026-8-28T13:25:20Z</time></trkpt><trkpt lat="42.1833231133" lon="13.4361810107"><ele>1514.24</ele><time>2026-8-28T13:25:29Z</time></trkpt><trkpt lat="42.1833409835" lon="13.4360098559"><ele>1514.64</ele><time>2026-8-28T13:25:39Z</time></trkpt><trkpt lat="42.1833543869" lon="13.4358260721"><ele>1515.04</ele><time>2026-8-28T13:25:49Z</time></trkpt><trkpt lat="42.1833505769" lon="13.4356473547"><ele>1515.40</ele><time>2026-8-28T13:26:0Z</time></trkpt><trkpt lat="42.1833222164" lon="13.4354721196"><ele>1515.50</ele><time>2026-8-28T13:26:10Z</time></trkpt><trkpt lat="42.1832911340" lon="13.4353017612"><ele>1516.08</ele><time>2026-8-28T13:26:21Z</time></trkpt><trkpt lat="42.1832580445" lon="13.4351188308"><ele>1516.64</ele><time>2026-8-28T13:26:31Z</time></trkpt><trkpt lat="42.1832178626" lon="13.4349395614"><ele>1517.11</ele><time>2026-8-28T13:26:41Z</time></trkpt><trkpt lat="42.1831866412" lon="13.4347689094"><ele>1517.23</ele><time>2026-8-28T13:26:49Z</time></trkpt><trkpt lat="42.1831859881" lon="13.4345834143"><ele>1517.01</ele><time>2026-8-28T13:26:56Z</time></trkpt><trkpt lat="42.1831983374" lon="13.4344109567"><ele>1516.59</ele><time>2026-8-28T13:27:2Z</time></trkpt><trkpt lat="42.1831831615" lon="13.4342331812"><ele>1516.37</ele><time>2026-8-28T13:27:10Z</time></trkpt><trkpt lat="42.1831436176" lon="13.4340533521"><ele>1516.58</ele><time>2026-8-28T13:27:19Z</time></trkpt><trkpt lat="42.1831007488" lon="13.4338787850"><ele>1517.04</ele><time>2026-8-28T13:27:28Z</time></trkpt><trkpt lat="42.1830598544" lon="13.4337132983"><ele>1517.47</ele><time>2026-8-28T13:27:37Z</time></trkpt><trkpt lat="42.1830322966" lon="13.4335388523"><ele>1517.49</ele><time>2026-8-28T13:27:46Z</time></trkpt><trkpt lat="42.1830237284" lon="13.4333621431"><ele>1517.44</ele><time>2026-8-28T13:27:55Z</time></trkpt><trkpt lat="42.1830178518" lon="13.4331801627"><ele>1517.75</ele><time>2026-8-28T13:28:4Z</time></trkpt><trkpt lat="42.1829995140" lon="13.4329990577"><ele>1518.04</ele><time>2026-8-28T13:28:13Z</time></trkpt><trkpt lat="42.1829721984" lon="13.4328265861"><ele>1518.34</ele><time>2026-8-28T13:28:22Z</time></trkpt><trkpt lat="42.1829486517" lon="13.4326478541"><ele>1518.66</ele><time>2026-8-28T13:28:31Z</time></trkpt><trkpt lat="42.1829203516" lon="13.4324720316"><ele>1518.94</ele><time>2026-8-28T13:28:41Z</time></trkpt><trkpt lat="42.1828905735" lon="13.4322972223"><ele>1519.02</ele><time>2026-8-28T13:28:50Z</time></trkpt><trkpt lat="42.1828701110" lon="13.4321150302"><ele>1519.26</ele><time>2026-8-28T13:29:1Z</time></trkpt><trkpt lat="42.1828485718" lon="13.4319377057"><ele>1519.37</ele><time>2026-8-28T13:29:11Z</time></trkpt><trkpt lat="42.1828399971" lon="13.4317580061"><ele>1519.68</ele><time>2026-8-28T13:29:21Z</time></trkpt><trkpt lat="42.1828158386" lon="13.4315780178"><ele>1519.72</ele><time>2026-8-28T13:29:31Z</time></trkpt><trkpt lat="42.1827817345" lon="13.4314057231"><ele>1519.74</ele><time>2026-8-28T13:29:40Z</time></trkpt><trkpt lat="42.1827746462" lon="13.4312285110"><ele>1520.15</ele><time>2026-8-28T13:29:50Z</time></trkpt><trkpt lat="42.1827610228" lon="13.4310553679"><ele>1520.41</ele><time>2026-8-28T13:29:59Z</time></trkpt><trkpt lat="42.1827477207" lon="13.4308706140"><ele>1520.62</ele><time>2026-8-28T13:30:9Z</time></trkpt><trkpt lat="42.1827264810" lon="13.4306866732"><ele>1520.89</ele><time>2026-8-28T13:30:19Z</time></trkpt><trkpt lat="42.1826922521" lon="13.4305110015"><ele>1521.16</ele><time>2026-8-28T13:30:29Z</time></trkpt><trkpt lat="42.1826679837" lon="13.4303480191"><ele>1521.28</ele><time>2026-8-28T13:30:38Z</time></trkpt><trkpt lat="42.1826351853" lon="13.4301736588"><ele>1521.62</ele><time>2026-8-28T13:30:48Z</time></trkpt><trkpt lat="42.1825923771" lon="13.4300002176"><ele>1521.98</ele><time>2026-8-28T13:30:58Z</time></trkpt><trkpt lat="42.1825632183" lon="13.4298251057"><ele>1522.25</ele><time>2026-8-28T13:31:7Z</time></trkpt><trkpt lat="42.1825331776" lon="13.4296466718"><ele>1522.56</ele><time>2026-8-28T13:31:17Z</time></trkpt><trkpt lat="42.1825094428" lon="13.4294736758"><ele>1522.77</ele><time>2026-8-28T13:31:27Z</time></trkpt><trkpt lat="42.1824699864" lon="13.4293054277"><ele>1522.93</ele><time>2026-8-28T13:31:36Z</time></trkpt><trkpt lat="42.1824207436" lon="13.4291277733"><ele>1523.07</ele><time>2026-8-28T13:31:46Z</time></trkpt><trkpt lat="42.1824027039" lon="13.4289560281"><ele>1523.28</ele><time>2026-8-28T13:31:55Z</time></trkpt><trkpt lat="42.1823824477" lon="13.4287778474"><ele>1523.83</ele><time>2026-8-28T13:32:4Z</time></trkpt><trkpt lat="42.1823529899" lon="13.4286037181"><ele>1524.19</ele><time>2026-8-28T13:32:13Z</time></trkpt><trkpt lat="42.1823176369" lon="13.4284297703"><ele>1524.41</ele><time>2026-8-28T13:32:21Z</time></trkpt><trkpt lat="42.1822952852" lon="13.4282582346"><ele>1524.76</ele><time>2026-8-28T13:32:30Z</time></trkpt><trkpt lat="42.1822460555" lon="13.4280885011"><ele>1525.22</ele><time>2026-8-28T13:32:39Z</time></trkpt><trkpt lat="42.1822069036" lon="13.4279097402"><ele>1525.81</ele><time>2026-8-28T13:32:48Z</time></trkpt><trkpt lat="42.1821775660" lon="13.4277300257"><ele>1526.10</ele><time>2026-8-28T13:32:58Z</time></trkpt><trkpt lat="42.1821592655" lon="13.4275582060"><ele>1526.40</ele><time>2026-8-28T13:33:7Z</time></trkpt><trkpt lat="42.1821441874" lon="13.4273793735"><ele>1526.77</ele><time>2026-8-28T13:33:16Z</time></trkpt><trkpt lat="42.1821208484" lon="13.4271899424"><ele>1527.04</ele><time>2026-8-28T13:33:25Z</time></trkpt><trkpt lat="42.1820812149" lon="13.4270224907"><ele>1527.41</ele><time>2026-8-28T13:33:33Z</time></trkpt><trkpt lat="42.1820470039" lon="13.4268544801"><ele>1527.72</ele><time>2026-8-28T13:33:42Z</time></trkpt><trkpt lat="42.1820060292" lon="13.4266798385"><ele>1528.11</ele><time>2026-8-28T13:33:50Z</time></trkpt><trkpt lat="42.1819661523" lon="13.4265075903"><ele>1528.38</ele><time>2026-8-28T13:33:58Z</time></trkpt><trkpt lat="42.1819166001" lon="13.4263387043"><ele>1528.57</ele><time>2026-8-28T13:34:7Z</time></trkpt><trkpt lat="42.1818748126" lon="13.4261706127"><ele>1528.94</ele><time>2026-8-28T13:34:16Z</time></trkpt><trkpt lat="42.1818487784" lon="13.4259908712"><ele>1529.44</ele><time>2026-8-28T13:34:26Z</time></trkpt><trkpt lat="42.1818208666" lon="13.4258179357"><ele>1529.77</ele><time>2026-8-28T13:34:36Z</time></trkpt><trkpt lat="42.1817593945" lon="13.4256553565"><ele>1530.16</ele><time>2026-8-28T13:34:47Z</time></trkpt><trkpt lat="42.1817009674" lon="13.4254952950"><ele>1530.99</ele><time>2026-8-28T13:34:59Z</time></trkpt><trkpt lat="42.1816284209" lon="13.4253407363"><ele>1532.19</ele><time>2026-8-28T13:35:10Z</time></trkpt><trkpt lat="42.1815861389" lon="13.4251863416"><ele>1533.11</ele><time>2026-8-28T13:35:19Z</time></trkpt><trkpt lat="42.1815157298" lon="13.4250347537"><ele>1533.64</ele><time>2026-8-28T13:35:27Z</time></trkpt><trkpt lat="42.1814294695" lon="13.4249131952"><ele>1533.99</ele><time>2026-8-28T13:35:35Z</time></trkpt><trkpt lat="42.1813505748" lon="13.4247820394"><ele>1534.15</ele><time>2026-8-28T13:35:43Z</time></trkpt><trkpt lat="42.1813091263" lon="13.4246128984"><ele>1534.27</ele><time>2026-8-28T13:35:52Z</time></trkpt><trkpt lat="42.1812408697" lon="13.4244805109"><ele>1534.76</ele><time>2026-8-28T13:36:1Z</time></trkpt><trkpt lat="42.1811609267" lon="13.4243272440"><ele>1535.09</ele><time>2026-8-28T13:36:11Z</time></trkpt><trkpt lat="42.1811708563" lon="13.4241535119"><ele>1535.01</ele><time>2026-8-28T13:36:20Z</time></trkpt><trkpt lat="42.1812706915" lon="13.4240763736"><ele>1535.21</ele><time>2026-8-28T13:36:30Z</time></trkpt><trkpt lat="42.1813499462" lon="13.4239376303"><ele>1535.69</ele><time>2026-8-28T13:36:41Z</time></trkpt><trkpt lat="42.1813582143" lon="13.4237536442"><ele>1536.10</ele><time>2026-8-28T13:36:53Z</time></trkpt><trkpt lat="42.1813551125" lon="13.4235959915"><ele>1537.06</ele><time>2026-8-28T13:37:6Z</time></trkpt><trkpt lat="42.1813571165" lon="13.4234173655"><ele>1537.65</ele><time>2026-8-28T13:37:17Z</time></trkpt><trkpt lat="42.1813657651" lon="13.4232557624"><ele>1538.98</ele><time>2026-8-28T13:37:28Z</time></trkpt><trkpt lat="42.1813132800" lon="13.4230781440"><ele>1540.14</ele><time>2026-8-28T13:37:38Z</time></trkpt><trkpt lat="42.1812532526" lon="13.4229850045"><ele>1541.83</ele><time>2026-8-28T13:38:0Z</time></trkpt><trkpt lat="42.1812584391" lon="13.4229933059"><ele>1541.30</ele><time>2026-8-28T13:39:11Z</time></trkpt><trkpt lat="42.1812521545" lon="13.4230136208"><ele>1542.72</ele><time>2026-8-28T13:40:30Z</time></trkpt><trkpt lat="42.1812402885" lon="13.4229957126"><ele>1543.08</ele><time>2026-8-28T13:41:10Z</time></trkpt><trkpt lat="42.1812350094" lon="13.4228232200"><ele>1543.48</ele><time>2026-8-28T13:41:29Z</time></trkpt><trkpt lat="42.1812642831" lon="13.4226582407"><ele>1544.88</ele><time>2026-8-28T13:41:42Z</time></trkpt><trkpt lat="42.1812737337" lon="13.4225331475"><ele>1546.26</ele><time>2026-8-28T13:42:0Z</time></trkpt><trkpt lat="42.1813190309" lon="13.4223886766"><ele>1548.14</ele><time>2026-8-28T13:42:19Z</time></trkpt><trkpt lat="42.1813499821" lon="13.4222627671"><ele>1549.80</ele><time>2026-8-28T13:42:35Z</time></trkpt><trkpt lat="42.1814315283" lon="13.4221346833"><ele>1551.48</ele><time>2026-8-28T13:42:50Z</time></trkpt><trkpt lat="42.1814840806" lon="13.4220007967"><ele>1553.65</ele><time>2026-8-28T13:43:12Z</time></trkpt><trkpt lat="42.1814978459" lon="13.4219986682"><ele>1554.78</ele><time>2026-8-28T13:43:47Z</time></trkpt><trkpt lat="42.1815279325" lon="13.4219893549"><ele>1554.68</ele><time>2026-8-28T13:44:26Z</time></trkpt><trkpt lat="42.1814555875" lon="13.4219889273"><ele>1554.41</ele><time>2026-8-28T13:44:54Z</time></trkpt><trkpt lat="42.1813954320" lon="13.4218312777"><ele>1554.90</ele><time>2026-8-28T13:45:10Z</time></trkpt><trkpt lat="42.1813239250" lon="13.4216745198"><ele>1555.72</ele><time>2026-8-28T13:45:21Z</time></trkpt><trkpt lat="42.1812899013" lon="13.4215283055"><ele>1557.06</ele><time>2026-8-28T13:45:31Z</time></trkpt><trkpt lat="42.1812179592" lon="13.4213774633"><ele>1559.21</ele><time>2026-8-28T13:45:44Z</time></trkpt><trkpt lat="42.1811927646" lon="13.4212884028"><ele>1561.39</ele><time>2026-8-28T13:46:3Z</time></trkpt><trkpt lat="42.1811720060" lon="13.4211249150"><ele>1562.10</ele><time>2026-8-28T13:46:21Z</time></trkpt><trkpt lat="42.1811403462" lon="13.4209626576"><ele>1563.93</ele><time>2026-8-28T13:46:34Z</time></trkpt><trkpt lat="42.1811738377" lon="13.4208062245"><ele>1565.56</ele><time>2026-8-28T13:46:51Z</time></trkpt><trkpt lat="42.1812098817" lon="13.4206770258"><ele>1568.03</ele><time>2026-8-28T13:47:15Z</time></trkpt><trkpt lat="42.1812587001" lon="13.4205972189"><ele>1570.68</ele><time>2026-8-28T13:47:41Z</time></trkpt><trkpt lat="42.1813180763" lon="13.4204682149"><ele>1572.47</ele><time>2026-8-28T13:48:1Z</time></trkpt><trkpt lat="42.1813647612" lon="13.4203285823"><ele>1574.40</ele><time>2026-8-28T13:48:18Z</time></trkpt><trkpt lat="42.1813856890" lon="13.4201884296"><ele>1575.74</ele><time>2026-8-28T13:48:37Z</time></trkpt><trkpt lat="42.1814121137" lon="13.4200644947"><ele>1577.78</ele><time>2026-8-28T13:48:55Z</time></trkpt><trkpt lat="42.1814252863" lon="13.4199101150"><ele>1579.35</ele><time>2026-8-28T13:49:13Z</time></trkpt><trkpt lat="42.1813953551" lon="13.4197975590"><ele>1581.86</ele><time>2026-8-28T13:49:34Z</time></trkpt><trkpt lat="42.1813572340" lon="13.4196259596"><ele>1584.63</ele><time>2026-8-28T13:49:56Z</time></trkpt><trkpt lat="42.1813842434" lon="13.4194727467"><ele>1587.06</ele><time>2026-8-28T13:50:16Z</time></trkpt><trkpt lat="42.1814010638" lon="13.4193521272"><ele>1589.05</ele><time>2026-8-28T13:50:41Z</time></trkpt><trkpt lat="42.1813854371" lon="13.4192133326"><ele>1591.08</ele><time>2026-8-28T13:51:8Z</time></trkpt><trkpt lat="42.1814545523" lon="13.4190895222"><ele>1592.95</ele><time>2026-8-28T13:51:31Z</time></trkpt><trkpt lat="42.1815135609" lon="13.4189901288"><ele>1594.79</ele><time>2026-8-28T13:51:51Z</time></trkpt><trkpt lat="42.1815206654" lon="13.4188782580"><ele>1596.77</ele><time>2026-8-28T13:52:14Z</time></trkpt><trkpt lat="42.1815356426" lon="13.4187260363"><ele>1599.14</ele><time>2026-8-28T13:52:35Z</time></trkpt><trkpt lat="42.1815447731" lon="13.4185903327"><ele>1601.09</ele><time>2026-8-28T13:52:52Z</time></trkpt><trkpt lat="42.1816071092" lon="13.4184676874"><ele>1603.50</ele><time>2026-8-28T13:53:14Z</time></trkpt><trkpt lat="42.1816156777" lon="13.4183387719"><ele>1605.63</ele><time>2026-8-28T13:53:42Z</time></trkpt><trkpt lat="42.1816183018" lon="13.4182375856"><ele>1605.79</ele><time>2026-8-28T13:54:11Z</time></trkpt><trkpt lat="42.1816560064" lon="13.4181309175"><ele>1607.15</ele><time>2026-8-28T13:54:38Z</time></trkpt><trkpt lat="42.1817128870" lon="13.4179992792"><ele>1609.10</ele><time>2026-8-28T13:55:0Z</time></trkpt><trkpt lat="42.1817583498" lon="13.4178798227"><ele>1611.45</ele><time>2026-8-28T13:55:18Z</time></trkpt><trkpt lat="42.1817831230" lon="13.4177122684"><ele>1613.30</ele><time>2026-8-28T13:55:36Z</time></trkpt><trkpt lat="42.1817912337" lon="13.4175563193"><ele>1614.97</ele><time>2026-8-28T13:55:54Z</time></trkpt><trkpt lat="42.1818064646" lon="13.4173838049"><ele>1616.75</ele><time>2026-8-28T13:56:13Z</time></trkpt><trkpt lat="42.1818271389" lon="13.4172500152"><ele>1618.69</ele><time>2026-8-28T13:56:35Z</time></trkpt><trkpt lat="42.1818645245" lon="13.4170817829"><ele>1620.54</ele><time>2026-8-28T13:56:56Z</time></trkpt><trkpt lat="42.1818653704" lon="13.4169301344"><ele>1622.16</ele><time>2026-8-28T13:57:11Z</time></trkpt><trkpt lat="42.1818382611" lon="13.4167593235"><ele>1623.63</ele><time>2026-8-28T13:57:26Z</time></trkpt><trkpt lat="42.1818600479" lon="13.4166113078"><ele>1625.22</ele><time>2026-8-28T13:57:44Z</time></trkpt><trkpt lat="42.1818511606" lon="13.4164947579"><ele>1626.35</ele><time>2026-8-28T13:58:16Z</time></trkpt><trkpt lat="42.1818473353" lon="13.4163254709"><ele>1627.27</ele><time>2026-8-28T13:58:43Z</time></trkpt><trkpt lat="42.1818253637" lon="13.4161690277"><ele>1628.80</ele><time>2026-8-28T13:59:0Z</time></trkpt><trkpt lat="42.1817669114" lon="13.4161358159"><ele>1629.58</ele><time>2026-8-28T13:59:38Z</time></trkpt><trkpt lat="42.1818165206" lon="13.4161441092"><ele>1629.94</ele><time>2026-8-28T14:0:51Z</time></trkpt><trkpt lat="42.1818208189" lon="13.4161562832"><ele>1630.56</ele><time>2026-8-28T14:2:7Z</time></trkpt><trkpt lat="42.1817684546" lon="13.4160878044"><ele>1630.80</ele><time>2026-8-28T14:2:43Z</time></trkpt><trkpt lat="42.1816900466" lon="13.4159423038"><ele>1631.77</ele><time>2026-8-28T14:2:52Z</time></trkpt><trkpt lat="42.1815934963" lon="13.4158360492"><ele>1633.29</ele><time>2026-8-28T14:3:1Z</time></trkpt><trkpt lat="42.1814802149" lon="13.4157619905"><ele>1635.61</ele><time>2026-8-28T14:3:14Z</time></trkpt><trkpt lat="42.1813841496" lon="13.4156916139"><ele>1637.71</ele><time>2026-8-28T14:3:31Z</time></trkpt><trkpt lat="42.1813246375" lon="13.4155670041"><ele>1639.44</ele><time>2026-8-28T14:3:48Z</time></trkpt><trkpt lat="42.1813408466" lon="13.4153983259"><ele>1641.43</ele><time>2026-8-28T14:4:5Z</time></trkpt><trkpt lat="42.1813593824" lon="13.4153122440"><ele>1643.65</ele><time>2026-8-28T14:4:32Z</time></trkpt><trkpt lat="42.1813155546" lon="13.4151774172"><ele>1646.11</ele><time>2026-8-28T14:4:58Z</time></trkpt><trkpt lat="42.1812495600" lon="13.4150500413"><ele>1648.17</ele><time>2026-8-28T14:5:17Z</time></trkpt><trkpt lat="42.1812303218" lon="13.4149242375"><ele>1650.66</ele><time>2026-8-28T14:5:42Z</time></trkpt><trkpt lat="42.1812102115" lon="13.4149689556"><ele>1652.07</ele><time>2026-8-28T14:6:13Z</time></trkpt><trkpt lat="42.1811524248" lon="13.4149139970"><ele>1653.08</ele><time>2026-8-28T14:6:45Z</time></trkpt><trkpt lat="42.1810799488" lon="13.4147867421"><ele>1656.20</ele><time>2026-8-28T14:7:14Z</time></trkpt><trkpt lat="42.1810582091" lon="13.4146665916"><ele>1658.68</ele><time>2026-8-28T14:7:49Z</time></trkpt><trkpt lat="42.1810171082" lon="13.4145474083"><ele>1662.14</ele><time>2026-8-28T14:8:23Z</time></trkpt><trkpt lat="42.1810025114" lon="13.4143854946"><ele>1664.48</ele><time>2026-8-28T14:8:49Z</time></trkpt><trkpt lat="42.1810717373" lon="13.4142657937"><ele>1667.58</ele><time>2026-8-28T14:9:13Z</time></trkpt><trkpt lat="42.1811451474" lon="13.4142128009"><ele>1669.61</ele><time>2026-8-28T14:9:43Z</time></trkpt><trkpt lat="42.1812347744" lon="13.4141520960"><ele>1670.40</ele><time>2026-8-28T14:10:7Z</time></trkpt><trkpt lat="42.1813190750" lon="13.4140330811"><ele>1671.26</ele><time>2026-8-28T14:10:23Z</time></trkpt><trkpt lat="42.1813388771" lon="13.4138789861"><ele>1672.49</ele><time>2026-8-28T14:10:38Z</time></trkpt><trkpt lat="42.1813469173" lon="13.4137131066"><ele>1674.02</ele><time>2026-8-28T14:10:57Z</time></trkpt><trkpt lat="42.1813587352" lon="13.4135791214"><ele>1674.62</ele><time>2026-8-28T14:11:15Z</time></trkpt><trkpt lat="42.1814090506" lon="13.4134235113"><ele>1675.11</ele><time>2026-8-28T14:11:26Z</time></trkpt><trkpt lat="42.1814544685" lon="13.4132677875"><ele>1675.89</ele><time>2026-8-28T14:11:34Z</time></trkpt><trkpt lat="42.1815025304" lon="13.4131213180"><ele>1677.10</ele><time>2026-8-28T14:11:48Z</time></trkpt><trkpt lat="42.1815443435" lon="13.4129595431"><ele>1677.73</ele><time>2026-8-28T14:12:4Z</time></trkpt><trkpt lat="42.1815605606" lon="13.4127887084"><ele>1678.59</ele><time>2026-8-28T14:12:16Z</time></trkpt><trkpt lat="42.1815649540" lon="13.4126213033"><ele>1680.19</ele><time>2026-8-28T14:12:28Z</time></trkpt><trkpt lat="42.1815470466" lon="13.4124425054"><ele>1681.89</ele><time>2026-8-28T14:12:40Z</time></trkpt><trkpt lat="42.1815195540" lon="13.4122699340"><ele>1683.34</ele><time>2026-8-28T14:12:52Z</time></trkpt><trkpt lat="42.1814843462" lon="13.4121092409"><ele>1684.35</ele><time>2026-8-28T14:13:5Z</time></trkpt><trkpt lat="42.1814367268" lon="13.4119486809"><ele>1685.78</ele><time>2026-8-28T14:13:19Z</time></trkpt><trkpt lat="42.1813734900" lon="13.4117967263"><ele>1687.39</ele><time>2026-8-28T14:13:37Z</time></trkpt><trkpt lat="42.1813448081" lon="13.4116716888"><ele>1689.43</ele><time>2026-8-28T14:13:56Z</time></trkpt><trkpt lat="42.1813023222" lon="13.4115296076"><ele>1691.59</ele><time>2026-8-28T14:14:15Z</time></trkpt><trkpt lat="42.1812838090" lon="13.4113630958"><ele>1693.69</ele><time>2026-8-28T14:14:34Z</time></trkpt><trkpt lat="42.1812547793" lon="13.4112194696"><ele>1695.61</ele><time>2026-8-28T14:14:51Z</time></trkpt><trkpt lat="42.1812087683" lon="13.4110639337"><ele>1697.60</ele><time>2026-8-28T14:15:8Z</time></trkpt><trkpt lat="42.1811290250" lon="13.4108902027"><ele>1699.76</ele><time>2026-8-28T14:15:26Z</time></trkpt><trkpt lat="42.1810943718" lon="13.4107898074"><ele>1701.93</ele><time>2026-8-28T14:15:49Z</time></trkpt><trkpt lat="42.1811017318" lon="13.4107468307"><ele>1702.75</ele><time>2026-8-28T14:16:13Z</time></trkpt><trkpt lat="42.1810685378" lon="13.4105858114"><ele>1704.54</ele><time>2026-8-28T14:16:35Z</time></trkpt><trkpt lat="42.1809926456" lon="13.4105208224"><ele>1706.55</ele><time>2026-8-28T14:16:59Z</time></trkpt><trkpt lat="42.1809076145" lon="13.4103937882"><ele>1709.66</ele><time>2026-8-28T14:17:23Z</time></trkpt><trkpt lat="42.1808626608" lon="13.4103007789"><ele>1711.96</ele><time>2026-8-28T14:17:48Z</time></trkpt><trkpt lat="42.1808200702" lon="13.4101244781"><ele>1714.13</ele><time>2026-8-28T14:18:11Z</time></trkpt><trkpt lat="42.1807319813" lon="13.4101098909"><ele>1716.61</ele><time>2026-8-28T14:18:33Z</time></trkpt><trkpt lat="42.1806173338" lon="13.4100795028"><ele>1719.52</ele><time>2026-8-28T14:19:0Z</time></trkpt><trkpt lat="42.1805973112" lon="13.4100606948"><ele>1720.61</ele><time>2026-8-28T14:19:30Z</time></trkpt><trkpt lat="42.1806109888" lon="13.4099015579"><ele>1722.23</ele><time>2026-8-28T14:19:54Z</time></trkpt><trkpt lat="42.1806695416" lon="13.4097641688"><ele>1725.18</ele><time>2026-8-28T14:20:21Z</time></trkpt><trkpt lat="42.1807063815" lon="13.4097048640"><ele>1728.12</ele><time>2026-8-28T14:20:58Z</time></trkpt><trkpt lat="42.1806540981" lon="13.4096680350"><ele>1731.09</ele><time>2026-8-28T14:21:39Z</time></trkpt><trkpt lat="42.1805999458" lon="13.4095831397"><ele>1734.48</ele><time>2026-8-28T14:22:21Z</time></trkpt><trkpt lat="42.1805283546" lon="13.4095028144"><ele>1737.57</ele><time>2026-8-28T14:22:58Z</time></trkpt><trkpt lat="42.1805043569" lon="13.4094995201"><ele>1739.30</ele><time>2026-8-28T14:23:36Z</time></trkpt><trkpt lat="42.1804499654" lon="13.4095423953"><ele>1740.73</ele><time>2026-8-28T14:24:25Z</time></trkpt><trkpt lat="42.1803917794" lon="13.4095286782"><ele>1742.13</ele><time>2026-8-28T14:25:7Z</time></trkpt><trkpt lat="42.1802758798" lon="13.4094675677"><ele>1743.58</ele><time>2026-8-28T14:25:32Z</time></trkpt><trkpt lat="42.1802149443" lon="13.4093264574"><ele>1744.65</ele><time>2026-8-28T14:25:51Z</time></trkpt><trkpt lat="42.1801722888" lon="13.4092056332"><ele>1746.61</ele><time>2026-8-28T14:26:10Z</time></trkpt><trkpt lat="42.1800928086" lon="13.4090671919"><ele>1748.41</ele><time>2026-8-28T14:26:28Z</time></trkpt><trkpt lat="42.1800368784" lon="13.4090215654"><ele>1750.40</ele><time>2026-8-28T14:27:5Z</time></trkpt><trkpt lat="42.1799981268" lon="13.4089315217"><ele>1751.47</ele><time>2026-8-28T14:27:39Z</time></trkpt><trkpt lat="42.1799496731" lon="13.4087877975"><ele>1752.37</ele><time>2026-8-28T14:27:51Z</time></trkpt><trkpt lat="42.1798583167" lon="13.4086600388"><ele>1753.37</ele><time>2026-8-28T14:28:2Z</time></trkpt><trkpt lat="42.1797449025" lon="13.4085691581"><ele>1753.89</ele><time>2026-8-28T14:28:14Z</time></trkpt><trkpt lat="42.1796478424" lon="13.4084634297"><ele>1754.90</ele><time>2026-8-28T14:28:25Z</time></trkpt><trkpt lat="42.1796061436" lon="13.4082773700"><ele>1755.75</ele><time>2026-8-28T14:28:33Z</time></trkpt><trkpt lat="42.1795895047" lon="13.4081455388"><ele>1757.59</ele><time>2026-8-28T14:28:50Z</time></trkpt><trkpt lat="42.1795898461" lon="13.4079644107"><ele>1759.16</ele><time>2026-8-28T14:29:11Z</time></trkpt><trkpt lat="42.1796365223" lon="13.4078544671"><ele>1762.04</ele><time>2026-8-28T14:29:37Z</time></trkpt><trkpt lat="42.1796818540" lon="13.4077479046"><ele>1764.27</ele><time>2026-8-28T14:30:7Z</time></trkpt><trkpt lat="42.1796536895" lon="13.4075708048"><ele>1766.64</ele><time>2026-8-28T14:30:32Z</time></trkpt><trkpt lat="42.1796923761" lon="13.4075037672"><ele>1769.31</ele><time>2026-8-28T14:31:5Z</time></trkpt><trkpt lat="42.1797253992" lon="13.4073901344"><ele>1772.17</ele><time>2026-8-28T14:31:41Z</time></trkpt><trkpt lat="42.1797569365" lon="13.4073128838"><ele>1774.62</ele><time>2026-8-28T14:32:9Z</time></trkpt><trkpt lat="42.1797850449" lon="13.4072862575"><ele>1776.82</ele><time>2026-8-28T14:32:37Z</time></trkpt><trkpt lat="42.1797932388" lon="13.4072028456"><ele>1779.60</ele><time>2026-8-28T14:33:9Z</time></trkpt><trkpt lat="42.1798261060" lon="13.4070998219"><ele>1782.21</ele><time>2026-8-28T14:33:42Z</time></trkpt><trkpt lat="42.1797838167" lon="13.4070543010"><ele>1784.31</ele><time>2026-8-28T14:34:10Z</time></trkpt><trkpt lat="42.1797348773" lon="13.4069467356"><ele>1786.42</ele><time>2026-8-28T14:34:33Z</time></trkpt><trkpt lat="42.1797053539" lon="13.4067768866"><ele>1788.77</ele><time>2026-8-28T14:34:58Z</time></trkpt><trkpt lat="42.1796490453" lon="13.4066575286"><ele>1790.54</ele><time>2026-8-28T14:35:25Z</time></trkpt><trkpt lat="42.1796324908" lon="13.4065576601"><ele>1792.14</ele><time>2026-8-28T14:36:3Z</time></trkpt><trkpt lat="42.1796390885" lon="13.4065486025"><ele>1792.66</ele><time>2026-8-28T14:36:56Z</time></trkpt><trkpt lat="42.1796223609" lon="13.4064345204"><ele>1793.60</ele><time>2026-8-28T14:37:35Z</time></trkpt><trkpt lat="42.1795833763" lon="13.4062729936"><ele>1795.81</ele><time>2026-8-28T14:37:55Z</time></trkpt><trkpt lat="42.1795352322" lon="13.4061299065"><ele>1798.08</ele><time>2026-8-28T14:38:16Z</time></trkpt><trkpt lat="42.1794958659" lon="13.4059718337"><ele>1800.11</ele><time>2026-8-28T14:38:39Z</time></trkpt><trkpt lat="42.1794546047" lon="13.4058007399"><ele>1802.35</ele><time>2026-8-28T14:39:3Z</time></trkpt><trkpt lat="42.1794240981" lon="13.4056327252"><ele>1804.77</ele><time>2026-8-28T14:39:24Z</time></trkpt><trkpt lat="42.1793908579" lon="13.4054613216"><ele>1806.37</ele><time>2026-8-28T14:39:48Z</time></trkpt><trkpt lat="42.1793736726" lon="13.4053942410"><ele>1806.79</ele><time>2026-8-28T14:40:18Z</time></trkpt><trkpt lat="42.1793135019" lon="13.4052350287"><ele>1808.87</ele><time>2026-8-28T14:40:43Z</time></trkpt><trkpt lat="42.1792790565" lon="13.4050729882"><ele>1812.08</ele><time>2026-8-28T14:41:11Z</time></trkpt><trkpt lat="42.1792814322" lon="13.4049581457"><ele>1814.23</ele><time>2026-8-28T14:41:42Z</time></trkpt><trkpt lat="42.1792887573" lon="13.4048686571"><ele>1816.65</ele><time>2026-8-28T14:42:21Z</time></trkpt><trkpt lat="42.1793002541" lon="13.4048314846"><ele>1819.21</ele><time>2026-8-28T14:43:20Z</time></trkpt><trkpt lat="42.1793012668" lon="13.4048597608"><ele>1819.55</ele><time>2026-8-28T14:44:11Z</time></trkpt><trkpt lat="42.1793291811" lon="13.4047345910"><ele>1821.24</ele><time>2026-8-28T14:44:35Z</time></trkpt><trkpt lat="42.1793854455" lon="13.4047016370"><ele>1823.66</ele><time>2026-8-28T14:44:58Z</time></trkpt><trkpt lat="42.1794927852" lon="13.4047405274"><ele>1826.48</ele><time>2026-8-28T14:45:31Z</time></trkpt><trkpt lat="42.1795540710" lon="13.4047614576"><ele>1828.97</ele><time>2026-8-28T14:46:4Z</time></trkpt><trkpt lat="42.1795677999" lon="13.4047367121"><ele>1831.21</ele><time>2026-8-28T14:46:38Z</time></trkpt><trkpt lat="42.1796424667" lon="13.4047621595"><ele>1833.46</ele><time>2026-8-28T14:47:17Z</time></trkpt><trkpt lat="42.1796999226" lon="13.4047369499"><ele>1835.87</ele><time>2026-8-28T14:47:59Z</time></trkpt><trkpt lat="42.1797728483" lon="13.4047685663"><ele>1837.93</ele><time>2026-8-28T14:48:44Z</time></trkpt><trkpt lat="42.1797949255" lon="13.4048058828"><ele>1839.19</ele><time>2026-8-28T14:49:53Z</time></trkpt><trkpt lat="42.1798108161" lon="13.4048072496"><ele>1839.22</ele><time>2026-8-28T14:51:13Z</time></trkpt><trkpt lat="42.1798646981" lon="13.4048145565"><ele>1840.61</ele><time>2026-8-28T14:52:6Z</time></trkpt><trkpt lat="42.1799426666" lon="13.4047626425"><ele>1842.20</ele><time>2026-8-28T14:52:38Z</time></trkpt><trkpt lat="42.1799745979" lon="13.4047307923"><ele>1844.00</ele><time>2026-8-28T14:53:42Z</time></trkpt><trkpt lat="42.1800362767" lon="13.4046524733"><ele>1846.13</ele><time>2026-8-28T14:55:5Z</time></trkpt><trkpt lat="42.1800735773" lon="13.4045839227"><ele>1848.25</ele><time>2026-8-28T14:56:0Z</time></trkpt><trkpt lat="42.1801192489" lon="13.4045042973"><ele>1850.42</ele><time>2026-8-28T14:56:45Z</time></trkpt><trkpt lat="42.1801831167" lon="13.4044048070"><ele>1853.33</ele><time>2026-8-28T14:57:28Z</time></trkpt><trkpt lat="42.1801567242" lon="13.4042914043"><ele>1855.04</ele><time>2026-8-28T14:58:3Z</time></trkpt><trkpt lat="42.1800761058" lon="13.4042036663"><ele>1856.97</ele><time>2026-8-28T14:58:50Z</time></trkpt><trkpt lat="42.1800093055" lon="13.4042546041"><ele>1858.57</ele><time>2026-8-28T14:59:46Z</time></trkpt><trkpt lat="42.1800397311" lon="13.4042244093"><ele>1857.96</ele><time>2026-8-28T15:0:39Z</time></trkpt><trkpt lat="42.1800809866" lon="13.4042169894"><ele>1856.34</ele><time>2026-8-28T15:2:0Z</time></trkpt><trkpt lat="42.1800580120" lon="13.4041728778"><ele>1856.64</ele><time>2026-8-28T15:3:10Z</time></trkpt><trkpt lat="42.1799997533" lon="13.4040105982"><ele>1858.37</ele><time>2026-8-28T15:3:41Z</time></trkpt><trkpt lat="42.1799946483" lon="13.4038558084"><ele>1860.68</ele><time>2026-8-28T15:4:2Z</time></trkpt><trkpt lat="42.1799959564" lon="13.4037210246"><ele>1862.56</ele><time>2026-8-28T15:4:23Z</time></trkpt><trkpt lat="42.1799084794" lon="13.4036410923"><ele>1864.35</ele><time>2026-8-28T15:4:44Z</time></trkpt><trkpt lat="42.1799018842" lon="13.4034618211"><ele>1865.81</ele><time>2026-8-28T15:5:3Z</time></trkpt><trkpt lat="42.1798756878" lon="13.4033270821"><ele>1867.38</ele><time>2026-8-28T15:5:21Z</time></trkpt><trkpt lat="42.1798806206" lon="13.4031642547"><ele>1868.99</ele><time>2026-8-28T15:5:39Z</time></trkpt><trkpt lat="42.1799515095" lon="13.4030337297"><ele>1870.92</ele><time>2026-8-28T15:6:3Z</time></trkpt><trkpt lat="42.1800135390" lon="13.4030092217"><ele>1872.34</ele><time>2026-8-28T15:6:30Z</time></trkpt><trkpt lat="42.1800830511" lon="13.4029207422"><ele>1874.15</ele><time>2026-8-28T15:6:51Z</time></trkpt><trkpt lat="42.1800566185" lon="13.4027564619"><ele>1875.74</ele><time>2026-8-28T15:7:9Z</time></trkpt><trkpt lat="42.1800515518" lon="13.4026125822"><ele>1878.41</ele><time>2026-8-28T15:7:34Z</time></trkpt><trkpt lat="42.1800455923" lon="13.4024734807"><ele>1880.91</ele><time>2026-8-28T15:8:4Z</time></trkpt><trkpt lat="42.1800629322" lon="13.4023743854"><ele>1883.18</ele><time>2026-8-28T15:8:39Z</time></trkpt><trkpt lat="42.1800522954" lon="13.4022692444"><ele>1885.62</ele><time>2026-8-28T15:9:12Z</time></trkpt><trkpt lat="42.1801201188" lon="13.4021758499"><ele>1887.56</ele><time>2026-8-28T15:9:42Z</time></trkpt><trkpt lat="42.1801221260" lon="13.4021081431"><ele>1889.72</ele><time>2026-8-28T15:10:21Z</time></trkpt><trkpt lat="42.1800624540" lon="13.4021024466"><ele>1892.54</ele><time>2026-8-28T15:11:28Z</time></trkpt><trkpt lat="42.1799649673" lon="13.4021066696"><ele>1894.65</ele><time>2026-8-28T15:12:31Z</time></trkpt><trkpt lat="42.1799472438" lon="13.4020451237"><ele>1896.16</ele><time>2026-8-28T15:13:7Z</time></trkpt><trkpt lat="42.1799698676" lon="13.4020016855"><ele>1897.73</ele><time>2026-8-28T15:13:49Z</time></trkpt><trkpt lat="42.1800083539" lon="13.4019367828"><ele>1900.27</ele><time>2026-8-28T15:14:49Z</time></trkpt><trkpt lat="42.1800241862" lon="13.4018853165"><ele>1902.35</ele><time>2026-8-28T15:16:10Z</time></trkpt><trkpt lat="42.1800636612" lon="13.4018186797"><ele>1904.31</ele><time>2026-8-28T15:17:17Z</time></trkpt><trkpt lat="42.1800978254" lon="13.4017705610"><ele>1905.58</ele><time>2026-8-28T15:18:3Z</time></trkpt><trkpt lat="42.1801063798" lon="13.4017417026"><ele>1907.06</ele><time>2026-8-28T15:19:6Z</time></trkpt><trkpt lat="42.1801143938" lon="13.4016986755"><ele>1908.79</ele><time>2026-8-28T15:20:25Z</time></trkpt><trkpt lat="42.1801151757" lon="13.4016322990"><ele>1911.19</ele><time>2026-8-28T15:21:38Z</time></trkpt><trkpt lat="42.1800582071" lon="13.4015448378"><ele>1914.50</ele><time>2026-8-28T15:22:45Z</time></trkpt><trkpt lat="42.1800421159" lon="13.4015235420"><ele>1915.03</ele><time>2026-8-28T15:24:0Z</time></trkpt><trkpt lat="42.1800435998" lon="13.4013628062"><ele>1916.08</ele><time>2026-8-28T15:24:57Z</time></trkpt><trkpt lat="42.1800072957" lon="13.4011924267"><ele>1917.24</ele><time>2026-8-28T15:25:23Z</time></trkpt><trkpt lat="42.1799484243" lon="13.4010823911"><ele>1918.14</ele><time>2026-8-28T15:26:2Z</time></trkpt><trkpt lat="42.1799569635" lon="13.4010026519"><ele>1919.89</ele><time>2026-8-28T15:26:50Z</time></trkpt><trkpt lat="42.1799510736" lon="13.4008769274"><ele>1923.27</ele><time>2026-8-28T15:27:36Z</time></trkpt><trkpt lat="42.1799492838" lon="13.4007811892"><ele>1925.49</ele><time>2026-8-28T15:28:20Z</time></trkpt><trkpt lat="42.1799483612" lon="13.4006460093"><ele>1926.42</ele><time>2026-8-28T15:28:52Z</time></trkpt><trkpt lat="42.1799806952" lon="13.4004921243"><ele>1928.47</ele><time>2026-8-28T15:29:17Z</time></trkpt><trkpt lat="42.1800322932" lon="13.4003835308"><ele>1931.38</ele><time>2026-8-28T15:29:53Z</time></trkpt><trkpt lat="42.1800984298" lon="13.4002411279"><ele>1934.12</ele><time>2026-8-28T15:30:31Z</time></trkpt><trkpt lat="42.1801462554" lon="13.4001190579"><ele>1935.77</ele><time>2026-8-28T15:30:56Z</time></trkpt><trkpt lat="42.1801625029" lon="13.3999244138"><ele>1936.78</ele><time>2026-8-28T15:31:17Z</time></trkpt><trkpt lat="42.1801648049" lon="13.3997507154"><ele>1938.66</ele><time>2026-8-28T15:31:38Z</time></trkpt><trkpt lat="42.1801709215" lon="13.3995797730"><ele>1939.87</ele><time>2026-8-28T15:31:56Z</time></trkpt><trkpt lat="42.1801893120" lon="13.3994034811"><ele>1941.20</ele><time>2026-8-28T15:32:15Z</time></trkpt><trkpt lat="42.1801558691" lon="13.3992354714"><ele>1942.88</ele><time>2026-8-28T15:32:35Z</time></trkpt><trkpt lat="42.1801237785" lon="13.3991012475"><ele>1944.55</ele><time>2026-8-28T15:33:0Z</time></trkpt><trkpt lat="42.1800412797" lon="13.3990015557"><ele>1946.71</ele><time>2026-8-28T15:33:36Z</time></trkpt><trkpt lat="42.1800027153" lon="13.3989082946"><ele>1949.13</ele><time>2026-8-28T15:34:13Z</time></trkpt><trkpt lat="42.1799750773" lon="13.3987664392"><ele>1952.08</ele><time>2026-8-28T15:34:49Z</time></trkpt><trkpt lat="42.1799233339" lon="13.3986929251"><ele>1954.47</ele><time>2026-8-28T15:35:26Z</time></trkpt><trkpt lat="42.1799642046" lon="13.3986079722"><ele>1956.23</ele><time>2026-8-28T15:36:14Z</time></trkpt><trkpt lat="42.1799542023" lon="13.3986076393"><ele>1956.78</ele><time>2026-8-28T15:37:16Z</time></trkpt><trkpt lat="42.1799808629" lon="13.3985642153"><ele>1958.36</ele><time>2026-8-28T15:38:17Z</time></trkpt><trkpt lat="42.1799735634" lon="13.3984336031"><ele>1960.91</ele><time>2026-8-28T15:39:5Z</time></trkpt><trkpt lat="42.1799639264" lon="13.3982998332"><ele>1963.71</ele><time>2026-8-28T15:39:44Z</time></trkpt><trkpt lat="42.1799504403" lon="13.3981844955"><ele>1966.41</ele><time>2026-8-28T15:40:26Z</time></trkpt><trkpt lat="42.1799880472" lon="13.3981508501"><ele>1968.77</ele><time>2026-8-28T15:41:3Z</time></trkpt><trkpt lat="42.1799908141" lon="13.3980545753"><ele>1970.29</ele><time>2026-8-28T15:41:33Z</time></trkpt><trkpt lat="42.1800204802" lon="13.3979511242"><ele>1973.31</ele><time>2026-8-28T15:42:3Z</time></trkpt><trkpt lat="42.1800849265" lon="13.3978904547"><ele>1976.89</ele><time>2026-8-28T15:42:37Z</time></trkpt><trkpt lat="42.1801463224" lon="13.3977720724"><ele>1979.48</ele><time>2026-8-28T15:43:5Z</time></trkpt><trkpt lat="42.1802145798" lon="13.3976265897"><ele>1981.43</ele><time>2026-8-28T15:43:32Z</time></trkpt><trkpt lat="42.1802125638" lon="13.3975478550"><ele>1982.59</ele><time>2026-8-28T15:44:16Z</time></trkpt><trkpt lat="42.1802141573" lon="13.3973983061"><ele>1984.60</ele><time>2026-8-28T15:45:9Z</time></trkpt><trkpt lat="42.1802309062" lon="13.3972328436"><ele>1986.39</ele><time>2026-8-28T15:45:42Z</time></trkpt><trkpt lat="42.1802188443" lon="13.3970829312"><ele>1988.25</ele><time>2026-8-28T15:46:3Z</time></trkpt><trkpt lat="42.1802007553" lon="13.3969203463"><ele>1990.23</ele><time>2026-8-28T15:46:24Z</time></trkpt><trkpt lat="42.1801383026" lon="13.3968056410"><ele>1991.92</ele><time>2026-8-28T15:46:43Z</time></trkpt><trkpt lat="42.1801141149" lon="13.3966651233"><ele>1993.75</ele><time>2026-8-28T15:47:3Z</time></trkpt><trkpt lat="42.1800726727" lon="13.3965400178"><ele>1995.52</ele><time>2026-8-28T15:47:23Z</time></trkpt><trkpt lat="42.1800527136" lon="13.3963999864"><ele>1996.78</ele><time>2026-8-28T15:47:39Z</time></trkpt><trkpt lat="42.1800147928" lon="13.3962406344"><ele>1998.18</ele><time>2026-8-28T15:47:57Z</time></trkpt><trkpt lat="42.1799882920" lon="13.3960990096"><ele>1999.85</ele><time>2026-8-28T15:48:19Z</time></trkpt><trkpt lat="42.1799258273" lon="13.3959678286"><ele>2001.67</ele><time>2026-8-28T15:48:41Z</time></trkpt><trkpt lat="42.1799206601" lon="13.3958053615"><ele>2003.37</ele><time>2026-8-28T15:49:2Z</time></trkpt><trkpt lat="42.1799028479" lon="13.3956720727"><ele>2005.02</ele><time>2026-8-28T15:49:21Z</time></trkpt><trkpt lat="42.1798894163" lon="13.3955637440"><ele>2006.77</ele><time>2026-8-28T15:49:45Z</time></trkpt><trkpt lat="42.1798529331" lon="13.3955908122"><ele>2006.87</ele><time>2026-8-28T15:50:25Z</time></trkpt><trkpt lat="42.1798471851" lon="13.3955923173"><ele>2007.69</ele><time>2026-8-28T15:51:13Z</time></trkpt><trkpt lat="42.1798190657" lon="13.3954822756"><ele>2009.09</ele><time>2026-8-28T15:51:49Z</time></trkpt><trkpt lat="42.1798249483" lon="13.3954506945"><ele>2009.02</ele><time>2026-8-28T15:52:32Z</time></trkpt><trkpt lat="42.1798084397" lon="13.3954549146"><ele>2010.11</ele><time>2026-8-28T15:53:16Z</time></trkpt><trkpt lat="42.1798107773" lon="13.3953525197"><ele>2011.17</ele><time>2026-8-28T15:53:38Z</time></trkpt><trkpt lat="42.1798313808" lon="13.3952066622"><ele>2013.03</ele><time>2026-8-28T15:53:57Z</time></trkpt><trkpt lat="42.1798834819" lon="13.3950773645"><ele>2014.79</ele><time>2026-8-28T15:54:17Z</time></trkpt><trkpt lat="42.1799029088" lon="13.3950194216"><ele>2017.20</ele><time>2026-8-28T15:54:45Z</time></trkpt><trkpt lat="42.1798946620" lon="13.3949199442"><ele>2020.27</ele><time>2026-8-28T15:55:21Z</time></trkpt><trkpt lat="42.1798593480" lon="13.3947768679"><ele>2023.53</ele><time>2026-8-28T15:55:56Z</time></trkpt><trkpt lat="42.1798906811" lon="13.3946852119"><ele>2026.66</ele><time>2026-8-28T15:56:32Z</time></trkpt><trkpt lat="42.1799898841" lon="13.3946773680"><ele>2029.95</ele><time>2026-8-28T15:57:20Z</time></trkpt><trkpt lat="42.1799882012" lon="13.3945783138"><ele>2032.22</ele><time>2026-8-28T15:58:3Z</time></trkpt><trkpt lat="42.1799658318" lon="13.3944390173"><ele>2035.19</ele><time>2026-8-28T15:58:41Z</time></trkpt><trkpt lat="42.1799385714" lon="13.3943156180"><ele>2037.81</ele><time>2026-8-28T15:59:25Z</time></trkpt><trkpt lat="42.1799501762" lon="13.3941729294"><ele>2041.21</ele><time>2026-8-28T16:0:2Z</time></trkpt><trkpt lat="42.1799582759" lon="13.3940397626"><ele>2044.43</ele><time>2026-8-28T16:0:35Z</time></trkpt><trkpt lat="42.1799722061" lon="13.3938863702"><ele>2047.39</ele><time>2026-8-28T16:1:10Z</time></trkpt><trkpt lat="42.1799885156" lon="13.3937432911"><ele>2049.98</ele><time>2026-8-28T16:1:48Z</time></trkpt><trkpt lat="42.1800368918" lon="13.3936527482"><ele>2052.18</ele><time>2026-8-28T16:2:29Z</time></trkpt><trkpt lat="42.1800306272" lon="13.3936733436"><ele>2054.55</ele><time>2026-8-28T16:3:13Z</time></trkpt><trkpt lat="42.1800508501" lon="13.3935668183"><ele>2057.13</ele><time>2026-8-28T16:3:55Z</time></trkpt><trkpt lat="42.1800164133" lon="13.3933881018"><ele>2059.55</ele><time>2026-8-28T16:4:32Z</time></trkpt><trkpt lat="42.1799933796" lon="13.3932422869"><ele>2061.75</ele><time>2026-8-28T16:5:7Z</time></trkpt><trkpt lat="42.1799216134" lon="13.3932104176"><ele>2064.53</ele><time>2026-8-28T16:5:46Z</time></trkpt><trkpt lat="42.1798253725" lon="13.3931860749"><ele>2067.48</ele><time>2026-8-28T16:6:35Z</time></trkpt><trkpt lat="42.1797494864" lon="13.3931570023"><ele>2070.15</ele><time>2026-8-28T16:7:37Z</time></trkpt><trkpt lat="42.1796918825" lon="13.3930703168"><ele>2072.74</ele><time>2026-8-28T16:8:45Z</time></trkpt><trkpt lat="42.1796498448" lon="13.3929894144"><ele>2075.89</ele><time>2026-8-28T16:9:45Z</time></trkpt><trkpt lat="42.1796141005" lon="13.3928920708"><ele>2078.95</ele><time>2026-8-28T16:10:44Z</time></trkpt><trkpt lat="42.1795726326" lon="13.3928360982"><ele>2081.86</ele><time>2026-8-28T16:11:42Z</time></trkpt><trkpt lat="42.1795394719" lon="13.3927289916"><ele>2085.65</ele><time>2026-8-28T16:12:32Z</time></trkpt><trkpt lat="42.1795040185" lon="13.3926143842"><ele>2088.17</ele><time>2026-8-28T16:13:17Z</time></trkpt><trkpt lat="42.1794912649" lon="13.3924809625"><ele>2090.37</ele><time>2026-8-28T16:13:52Z</time></trkpt><trkpt lat="42.1794411493" lon="13.3923208946"><ele>2091.86</ele><time>2026-8-28T16:14:15Z</time></trkpt><trkpt lat="42.1793474651" lon="13.3921892634"><ele>2092.92</ele><time>2026-8-28T16:14:33Z</time></trkpt><trkpt lat="42.1792370360" lon="13.3920984459"><ele>2093.42</ele><time>2026-8-28T16:14:47Z</time></trkpt><trkpt lat="42.1791883008" lon="13.3919955883"><ele>2092.71</ele><time>2026-8-28T16:15:43Z</time></trkpt><trkpt lat="42.1791831045" lon="13.3919895076"><ele>2094.17</ele><time>2026-8-28T16:17:0Z</time></trkpt><trkpt lat="42.1791778641" lon="13.3919766171"><ele>2092.59</ele><time>2026-8-28T16:18:55Z</time></trkpt><trkpt lat="42.1791867589" lon="13.3919758338"><ele>2093.47</ele><time>2026-8-28T16:20:43Z</time></trkpt><trkpt lat="42.1791713524" lon="13.3918040271"><ele>2093.47</ele><time>2026-8-28T16:21:9Z</time></trkpt><trkpt lat="42.1792555414" lon="13.3916565497"><ele>2093.07</ele><time>2026-8-28T16:21:19Z</time></trkpt><trkpt lat="42.1793315985" lon="13.3915925394"><ele>2091.17</ele><time>2026-8-28T16:21:35Z</time></trkpt><trkpt lat="42.1794434404" lon="13.3915197244"><ele>2090.35</ele><time>2026-8-28T16:21:50Z</time></trkpt><trkpt lat="42.1795698954" lon="13.3915155195"><ele>2088.69</ele><time>2026-8-28T16:21:57Z</time></trkpt><trkpt lat="42.1797135263" lon="13.3915709169"><ele>2086.78</ele><time>2026-8-28T16:22:2Z</time></trkpt><trkpt lat="42.1798530724" lon="13.3916153535"><ele>2085.12</ele><time>2026-8-28T16:22:7Z</time></trkpt><trkpt lat="42.1799871046" lon="13.3916078042"><ele>2082.82</ele><time>2026-8-28T16:22:14Z</time></trkpt><trkpt lat="42.1800772380" lon="13.3917214828"><ele>2079.68</ele><time>2026-8-28T16:22:22Z</time></trkpt><trkpt lat="42.1801089048" lon="13.3918992151"><ele>2077.48</ele><time>2026-8-28T16:22:28Z</time></trkpt><trkpt lat="42.1801336762" lon="13.3920681384"><ele>2075.60</ele><time>2026-8-28T16:22:33Z</time></trkpt><trkpt lat="42.1802128069" lon="13.3922241311"><ele>2073.42</ele><time>2026-8-28T16:22:39Z</time></trkpt><trkpt lat="42.1803165833" lon="13.3923001634"><ele>2071.40</ele><time>2026-8-28T16:22:44Z</time></trkpt><trkpt lat="42.1804294735" lon="13.3922224632"><ele>2069.51</ele><time>2026-8-28T16:22:50Z</time></trkpt><trkpt lat="42.1805502708" lon="13.3920887718"><ele>2068.42</ele><time>2026-8-28T16:22:54Z</time></trkpt><trkpt lat="42.1806411306" lon="13.3919883566"><ele>2067.62</ele><time>2026-8-28T16:22:56Z</time></trkpt><trkpt lat="42.1807323676" lon="13.3918758296"><ele>2066.02</ele><time>2026-8-28T16:22:59Z</time></trkpt><trkpt lat="42.1808339353" lon="13.3917125082"><ele>2064.45</ele><time>2026-8-28T16:23:4Z</time></trkpt><trkpt lat="42.1808907066" lon="13.3915580716"><ele>2064.48</ele><time>2026-8-28T16:23:17Z</time></trkpt><trkpt lat="42.1808846212" lon="13.3915277519"><ele>2064.47</ele><time>2026-8-28T16:24:22Z</time></trkpt><trkpt lat="42.1808612812" lon="13.3914637892"><ele>2064.68</ele><time>2026-8-28T16:25:25Z</time></trkpt><trkpt lat="42.1809156239" lon="13.3912699716"><ele>2063.74</ele><time>2026-8-28T16:25:34Z</time></trkpt><trkpt lat="42.1809881832" lon="13.3911384232"><ele>2062.03</ele><time>2026-8-28T16:25:40Z</time></trkpt><trkpt lat="42.1810915321" lon="13.3910283186"><ele>2060.04</ele><time>2026-8-28T16:25:45Z</time></trkpt><trkpt lat="42.1812011506" lon="13.3909129165"><ele>2057.91</ele><time>2026-8-28T16:25:50Z</time></trkpt><trkpt lat="42.1813074779" lon="13.3907991182"><ele>2055.71</ele><time>2026-8-28T16:25:54Z</time></trkpt><trkpt lat="42.1813858417" lon="13.3906623186"><ele>2054.02</ele><time>2026-8-28T16:25:57Z</time></trkpt><trkpt lat="42.1814563964" lon="13.3905048855"><ele>2052.09</ele><time>2026-8-28T16:26:1Z</time></trkpt><trkpt lat="42.1815315611" lon="13.3903462161"><ele>2050.11</ele><time>2026-8-28T16:26:4Z</time></trkpt><trkpt lat="42.1816015709" lon="13.3901855629"><ele>2049.28</ele><time>2026-8-28T16:26:8Z</time></trkpt><trkpt lat="42.1816664636" lon="13.3900328334"><ele>2048.08</ele><time>2026-8-28T16:26:12Z</time></trkpt><trkpt lat="42.1817670483" lon="13.3898897469"><ele>2045.69</ele><time>2026-8-28T16:26:19Z</time></trkpt><trkpt lat="42.1818638072" lon="13.3898268565"><ele>2044.38</ele><time>2026-8-28T16:26:26Z</time></trkpt><trkpt lat="42.1819733921" lon="13.3897391358"><ele>2043.40</ele><time>2026-8-28T16:26:30Z</time></trkpt><trkpt lat="42.1821071254" lon="13.3896575798"><ele>2041.75</ele><time>2026-8-28T16:26:34Z</time></trkpt><trkpt lat="42.1822141204" lon="13.3895646594"><ele>2039.76</ele><time>2026-8-28T16:26:38Z</time></trkpt><trkpt lat="42.1823180281" lon="13.3894932456"><ele>2038.28</ele><time>2026-8-28T16:26:41Z</time></trkpt><trkpt lat="42.1824764111" lon="13.3894788148"><ele>2036.76</ele><time>2026-8-28T16:26:44Z</time></trkpt><trkpt lat="42.1826157141" lon="13.3894619923"><ele>2034.97</ele><time>2026-8-28T16:26:49Z</time></trkpt><trkpt lat="42.1827307474" lon="13.3894425128"><ele>2033.21</ele><time>2026-8-28T16:26:54Z</time></trkpt><trkpt lat="42.1828548750" lon="13.3894029376"><ele>2031.94</ele><time>2026-8-28T16:26:58Z</time></trkpt><trkpt lat="42.1830009716" lon="13.3893324249"><ele>2030.09</ele><time>2026-8-28T16:27:2Z</time></trkpt><trkpt lat="42.1831418085" lon="13.3892874559"><ele>2028.06</ele><time>2026-8-28T16:27:6Z</time></trkpt><trkpt lat="42.1832674462" lon="13.3892174810"><ele>2026.47</ele><time>2026-8-28T16:27:10Z</time></trkpt><trkpt lat="42.1834031492" lon="13.3891579695"><ele>2024.59</ele><time>2026-8-28T16:27:13Z</time></trkpt><trkpt lat="42.1835195390" lon="13.3891141391"><ele>2023.26</ele><time>2026-8-28T16:27:16Z</time></trkpt><trkpt lat="42.1836218192" lon="13.3890432911"><ele>2021.75</ele><time>2026-8-28T16:27:20Z</time></trkpt><trkpt lat="42.1837481596" lon="13.3889550548"><ele>2019.50</ele><time>2026-8-28T16:27:25Z</time></trkpt><trkpt lat="42.1838743742" lon="13.3889905270"><ele>2017.34</ele><time>2026-8-28T16:27:30Z</time></trkpt><trkpt lat="42.1839991808" lon="13.3890514132"><ele>2015.09</ele><time>2026-8-28T16:27:35Z</time></trkpt><trkpt lat="42.1841450874" lon="13.3890848933"><ele>2012.11</ele><time>2026-8-28T16:27:40Z</time></trkpt><trkpt lat="42.1842547506" lon="13.3890714403"><ele>2008.44</ele><time>2026-8-28T16:27:46Z</time></trkpt><trkpt lat="42.1843850166" lon="13.3890862819"><ele>2005.42</ele><time>2026-8-28T16:27:52Z</time></trkpt><trkpt lat="42.1844984195" lon="13.3891894296"><ele>2002.97</ele><time>2026-8-28T16:27:56Z</time></trkpt><trkpt lat="42.1846083272" lon="13.3893052555"><ele>2000.01</ele><time>2026-8-28T16:28:2Z</time></trkpt><trkpt lat="42.1847110475" lon="13.3894083090"><ele>1997.03</ele><time>2026-8-28T16:28:8Z</time></trkpt><trkpt lat="42.1848457754" lon="13.3894457184"><ele>1992.42</ele><time>2026-8-28T16:28:34Z</time></trkpt><trkpt lat="42.1848779799" lon="13.3894554100"><ele>1991.61</ele><time>2026-8-28T16:29:15Z</time></trkpt><trkpt lat="42.1850271989" lon="13.3895188104"><ele>1990.09</ele><time>2026-8-28T16:29:36Z</time></trkpt><trkpt lat="42.1851599163" lon="13.3895558744"><ele>1988.65</ele><time>2026-8-28T16:29:43Z</time></trkpt><trkpt lat="42.1852766792" lon="13.3895298187"><ele>1987.58</ele><time>2026-8-28T16:29:48Z</time></trkpt><trkpt lat="42.1854223777" lon="13.3894734085"><ele>1986.15</ele><time>2026-8-28T16:29:52Z</time></trkpt><trkpt lat="42.1855310351" lon="13.3893864602"><ele>1984.23</ele><time>2026-8-28T16:29:56Z</time></trkpt><trkpt lat="42.1856630221" lon="13.3893254511"><ele>1982.18</ele><time>2026-8-28T16:30:0Z</time></trkpt><trkpt lat="42.1858088044" lon="13.3893200825"><ele>1980.21</ele><time>2026-8-28T16:30:4Z</time></trkpt><trkpt lat="42.1859380603" lon="13.3893668745"><ele>1978.91</ele><time>2026-8-28T16:30:8Z</time></trkpt><trkpt lat="42.1860566153" lon="13.3894482837"><ele>1977.63</ele><time>2026-8-28T16:30:11Z</time></trkpt><trkpt lat="42.1861890704" lon="13.3895089268"><ele>1976.23</ele><time>2026-8-28T16:30:15Z</time></trkpt><trkpt lat="42.1863159723" lon="13.3895153683"><ele>1975.35</ele><time>2026-8-28T16:30:20Z</time></trkpt><trkpt lat="42.1864316846" lon="13.3894731151"><ele>1974.76</ele><time>2026-8-28T16:30:24Z</time></trkpt><trkpt lat="42.1865582094" lon="13.3893936966"><ele>1974.08</ele><time>2026-8-28T16:30:28Z</time></trkpt><trkpt lat="42.1866771067" lon="13.3893115120"><ele>1972.44</ele><time>2026-8-28T16:30:33Z</time></trkpt><trkpt lat="42.1867993148" lon="13.3892572392"><ele>1970.45</ele><time>2026-8-28T16:30:38Z</time></trkpt><trkpt lat="42.1869263593" lon="13.3891798742"><ele>1968.40</ele><time>2026-8-28T16:30:43Z</time></trkpt><trkpt lat="42.1870565135" lon="13.3891365398"><ele>1966.05</ele><time>2026-8-28T16:30:48Z</time></trkpt><trkpt lat="42.1871946114" lon="13.3891015154"><ele>1962.77</ele><time>2026-8-28T16:30:55Z</time></trkpt><trkpt lat="42.1873253212" lon="13.3890974801"><ele>1959.66</ele><time>2026-8-28T16:31:1Z</time></trkpt><trkpt lat="42.1874466911" lon="13.3891475536"><ele>1957.18</ele><time>2026-8-28T16:31:7Z</time></trkpt><trkpt lat="42.1875603916" lon="13.3892389457"><ele>1955.11</ele><time>2026-8-28T16:31:11Z</time></trkpt><trkpt lat="42.1876797290" lon="13.3892785502"><ele>1952.63</ele><time>2026-8-28T16:31:15Z</time></trkpt><trkpt lat="42.1878237259" lon="13.3893182762"><ele>1950.69</ele><time>2026-8-28T16:31:20Z</time></trkpt><trkpt lat="42.1879476439" lon="13.3893571347"><ele>1948.84</ele><time>2026-8-28T16:31:25Z</time></trkpt><trkpt lat="42.1880592196" lon="13.3894722769"><ele>1947.52</ele><time>2026-8-28T16:31:29Z</time></trkpt><trkpt lat="42.1881521121" lon="13.3895901516"><ele>1946.45</ele><time>2026-8-28T16:31:34Z</time></trkpt><trkpt lat="42.1882663742" lon="13.3896975406"><ele>1945.55</ele><time>2026-8-28T16:31:39Z</time></trkpt><trkpt lat="42.1883782139" lon="13.3897919627"><ele>1945.09</ele><time>2026-8-28T16:31:44Z</time></trkpt><trkpt lat="42.1884918725" lon="13.3898823615"><ele>1944.72</ele><time>2026-8-28T16:31:49Z</time></trkpt><trkpt lat="42.1886062715" lon="13.3899482991"><ele>1944.30</ele><time>2026-8-28T16:31:53Z</time></trkpt><trkpt lat="42.1887154179" lon="13.3900586958"><ele>1943.92</ele><time>2026-8-28T16:31:56Z</time></trkpt><trkpt lat="42.1887975521" lon="13.3902122900"><ele>1942.89</ele><time>2026-8-28T16:32:1Z</time></trkpt><trkpt lat="42.1889096895" lon="13.3903192054"><ele>1942.16</ele><time>2026-8-28T16:32:5Z</time></trkpt><trkpt lat="42.1890087635" lon="13.3904334717"><ele>1941.02</ele><time>2026-8-28T16:32:9Z</time></trkpt><trkpt lat="42.1891080681" lon="13.3905543387"><ele>1938.83</ele><time>2026-8-28T16:32:13Z</time></trkpt><trkpt lat="42.1892084163" lon="13.3906677794"><ele>1936.72</ele><time>2026-8-28T16:32:18Z</time></trkpt><trkpt lat="42.1893350920" lon="13.3907338511"><ele>1934.09</ele><time>2026-8-28T16:32:23Z</time></trkpt><trkpt lat="42.1894614911" lon="13.3907598630"><ele>1931.84</ele><time>2026-8-28T16:32:28Z</time></trkpt><trkpt lat="42.1895749122" lon="13.3908507787"><ele>1930.10</ele><time>2026-8-28T16:32:32Z</time></trkpt><trkpt lat="42.1896942817" lon="13.3909561839"><ele>1927.62</ele><time>2026-8-28T16:32:36Z</time></trkpt><trkpt lat="42.1898130001" lon="13.3910294389"><ele>1925.03</ele><time>2026-8-28T16:32:41Z</time></trkpt><trkpt lat="42.1899386309" lon="13.3910772353"><ele>1922.67</ele><time>2026-8-28T16:32:47Z</time></trkpt><trkpt lat="42.1900775191" lon="13.3910725080"><ele>1920.49</ele><time>2026-8-28T16:32:51Z</time></trkpt><trkpt lat="42.1902157646" lon="13.3910618629"><ele>1918.59</ele><time>2026-8-28T16:32:55Z</time></trkpt><trkpt lat="42.1903510485" lon="13.3910532296"><ele>1916.74</ele><time>2026-8-28T16:32:58Z</time></trkpt><trkpt lat="42.1904769167" lon="13.3910118230"><ele>1915.30</ele><time>2026-8-28T16:33:2Z</time></trkpt><trkpt lat="42.1905901562" lon="13.3910294082"><ele>1914.68</ele><time>2026-8-28T16:33:7Z</time></trkpt><trkpt lat="42.1906783842" lon="13.3911682125"><ele>1913.94</ele><time>2026-8-28T16:33:12Z</time></trkpt><trkpt lat="42.1907805372" lon="13.3912607934"><ele>1913.22</ele><time>2026-8-28T16:33:16Z</time></trkpt><trkpt lat="42.1908983798" lon="13.3913655393"><ele>1912.31</ele><time>2026-8-28T16:33:19Z</time></trkpt><trkpt lat="42.1909985561" lon="13.3915026169"><ele>1910.90</ele><time>2026-8-28T16:33:24Z</time></trkpt><trkpt lat="42.1910721576" lon="13.3916706825"><ele>1909.90</ele><time>2026-8-28T16:33:28Z</time></trkpt><trkpt lat="42.1911390033" lon="13.3918133173"><ele>1908.62</ele><time>2026-8-28T16:33:33Z</time></trkpt><trkpt lat="42.1912331530" lon="13.3919374994"><ele>1907.21</ele><time>2026-8-28T16:33:37Z</time></trkpt><trkpt lat="42.1913418621" lon="13.3920409363"><ele>1905.75</ele><time>2026-8-28T16:33:42Z</time></trkpt><trkpt lat="42.1914547286" lon="13.3921453706"><ele>1903.93</ele><time>2026-8-28T16:33:46Z</time></trkpt><trkpt lat="42.1915351320" lon="13.3923124150"><ele>1902.69</ele><time>2026-8-28T16:33:50Z</time></trkpt><trkpt lat="42.1915985831" lon="13.3924517082"><ele>1901.75</ele><time>2026-8-28T16:33:52Z</time></trkpt><trkpt lat="42.1916860482" lon="13.3925783797"><ele>1900.55</ele><time>2026-8-28T16:33:55Z</time></trkpt><trkpt lat="42.1918049958" lon="13.3926491439"><ele>1899.72</ele><time>2026-8-28T16:34:0Z</time></trkpt><trkpt lat="42.1919190567" lon="13.3927479833"><ele>1899.29</ele><time>2026-8-28T16:34:5Z</time></trkpt><trkpt lat="42.1919900459" lon="13.3928868547"><ele>1898.41</ele><time>2026-8-28T16:34:9Z</time></trkpt><trkpt lat="42.1920432430" lon="13.3930657804"><ele>1897.46</ele><time>2026-8-28T16:34:12Z</time></trkpt><trkpt lat="42.1920944005" lon="13.3932345081"><ele>1896.41</ele><time>2026-8-28T16:34:15Z</time></trkpt><trkpt lat="42.1921463124" lon="13.3934058622"><ele>1895.02</ele><time>2026-8-28T16:34:18Z</time></trkpt><trkpt lat="42.1922090091" lon="13.3935792837"><ele>1893.78</ele><time>2026-8-28T16:34:21Z</time></trkpt><trkpt lat="42.1922674030" lon="13.3937398531"><ele>1892.97</ele><time>2026-8-28T16:34:24Z</time></trkpt><trkpt lat="42.1923330333" lon="13.3938843291"><ele>1892.14</ele><time>2026-8-28T16:34:27Z</time></trkpt><trkpt lat="42.1924087778" lon="13.3940155618"><ele>1891.52</ele><time>2026-8-28T16:34:30Z</time></trkpt><trkpt lat="42.1924772300" lon="13.3941761032"><ele>1891.04</ele><time>2026-8-28T16:34:33Z</time></trkpt><trkpt lat="42.1925389487" lon="13.3943528496"><ele>1890.43</ele><time>2026-8-28T16:34:36Z</time></trkpt><trkpt lat="42.1925877314" lon="13.3945259359"><ele>1889.74</ele><time>2026-8-28T16:34:39Z</time></trkpt><trkpt lat="42.1926299482" lon="13.3946903888"><ele>1888.86</ele><time>2026-8-28T16:34:42Z</time></trkpt><trkpt lat="42.1926801559" lon="13.3948421012"><ele>1888.12</ele><time>2026-8-28T16:34:45Z</time></trkpt><trkpt lat="42.1927465685" lon="13.3950113109"><ele>1887.17</ele><time>2026-8-28T16:34:48Z</time></trkpt><trkpt lat="42.1928001289" lon="13.3951919200"><ele>1885.98</ele><time>2026-8-28T16:34:52Z</time></trkpt><trkpt lat="42.1928520798" lon="13.3953576386"><ele>1884.67</ele><time>2026-8-28T16:34:57Z</time></trkpt><trkpt lat="42.1928977110" lon="13.3955224939"><ele>1883.08</ele><time>2026-8-28T16:35:2Z</time></trkpt><trkpt lat="42.1929499470" lon="13.3956878688"><ele>1880.99</ele><time>2026-8-28T16:35:7Z</time></trkpt><trkpt lat="42.1930094459" lon="13.3958487469"><ele>1879.23</ele><time>2026-8-28T16:35:11Z</time></trkpt><trkpt lat="42.1930666315" lon="13.3960292721"><ele>1877.46</ele><time>2026-8-28T16:35:15Z</time></trkpt><trkpt lat="42.1931177750" lon="13.3962043002"><ele>1875.83</ele><time>2026-8-28T16:35:19Z</time></trkpt><trkpt lat="42.1931854728" lon="13.3963423502"><ele>1874.55</ele><time>2026-8-28T16:35:22Z</time></trkpt><trkpt lat="42.1932489588" lon="13.3964921627"><ele>1873.31</ele><time>2026-8-28T16:35:25Z</time></trkpt><trkpt lat="42.1933068987" lon="13.3966573072"><ele>1871.82</ele><time>2026-8-28T16:35:29Z</time></trkpt><trkpt lat="42.1933716238" lon="13.3968144804"><ele>1870.47</ele><time>2026-8-28T16:35:34Z</time></trkpt><trkpt lat="42.1934520230" lon="13.3969495632"><ele>1868.72</ele><time>2026-8-28T16:35:39Z</time></trkpt><trkpt lat="42.1935249400" lon="13.3971228451"><ele>1867.42</ele><time>2026-8-28T16:35:43Z</time></trkpt><trkpt lat="42.1935720742" lon="13.3972978312"><ele>1866.61</ele><time>2026-8-28T16:35:46Z</time></trkpt><trkpt lat="42.1935989801" lon="13.3974587638"><ele>1865.59</ele><time>2026-8-28T16:35:49Z</time></trkpt><trkpt lat="42.1936196443" lon="13.3976435009"><ele>1864.56</ele><time>2026-8-28T16:35:53Z</time></trkpt><trkpt lat="42.1936220163" lon="13.3978387155"><ele>1864.04</ele><time>2026-8-28T16:35:57Z</time></trkpt><trkpt lat="42.1936296020" lon="13.3980056271"><ele>1863.50</ele><time>2026-8-28T16:36:1Z</time></trkpt><trkpt lat="42.1936484403" lon="13.3981793770"><ele>1862.95</ele><time>2026-8-28T16:36:4Z</time></trkpt><trkpt lat="42.1936709247" lon="13.3983474131"><ele>1862.44</ele><time>2026-8-28T16:36:8Z</time></trkpt><trkpt lat="42.1937044244" lon="13.3985158615"><ele>1861.61</ele><time>2026-8-28T16:36:11Z</time></trkpt><trkpt lat="42.1937423176" lon="13.3987190877"><ele>1860.24</ele><time>2026-8-28T16:36:14Z</time></trkpt><trkpt lat="42.1937774308" lon="13.3988896664"><ele>1859.40</ele><time>2026-8-28T16:36:18Z</time></trkpt><trkpt lat="42.1938231904" lon="13.3990567401"><ele>1858.31</ele><time>2026-8-28T16:36:22Z</time></trkpt><trkpt lat="42.1938667260" lon="13.3992444235"><ele>1857.13</ele><time>2026-8-28T16:36:26Z</time></trkpt><trkpt lat="42.1939106891" lon="13.3993977285"><ele>1855.97</ele><time>2026-8-28T16:36:30Z</time></trkpt><trkpt lat="42.1939558676" lon="13.3995676786"><ele>1854.66</ele><time>2026-8-28T16:36:35Z</time></trkpt><trkpt lat="42.1939834161" lon="13.3997540083"><ele>1853.19</ele><time>2026-8-28T16:36:41Z</time></trkpt><trkpt lat="42.1939521656" lon="13.3999293158"><ele>1851.72</ele><time>2026-8-28T16:36:47Z</time></trkpt><trkpt lat="42.1939051850" lon="13.4000874125"><ele>1850.12</ele><time>2026-8-28T16:36:53Z</time></trkpt><trkpt lat="42.1938931849" lon="13.4002707247"><ele>1848.94</ele><time>2026-8-28T16:36:59Z</time></trkpt><trkpt lat="42.1938870242" lon="13.4004366584"><ele>1847.58</ele><time>2026-8-28T16:37:5Z</time></trkpt><trkpt lat="42.1938700548" lon="13.4006193999"><ele>1846.30</ele><time>2026-8-28T16:37:12Z</time></trkpt><trkpt lat="42.1938096788" lon="13.4007867314"><ele>1845.19</ele><time>2026-8-28T16:37:18Z</time></trkpt><trkpt lat="42.1937681883" lon="13.4009608570"><ele>1843.94</ele><time>2026-8-28T16:37:23Z</time></trkpt><trkpt lat="42.1938044694" lon="13.4011267475"><ele>1842.55</ele><time>2026-8-28T16:37:27Z</time></trkpt><trkpt lat="42.1938103158" lon="13.4012925345"><ele>1841.49</ele><time>2026-8-28T16:37:31Z</time></trkpt><trkpt lat="42.1937801074" lon="13.4014780037"><ele>1840.25</ele><time>2026-8-28T16:37:35Z</time></trkpt><trkpt lat="42.1937544564" lon="13.4016780702"><ele>1839.27</ele><time>2026-8-28T16:37:41Z</time></trkpt><trkpt lat="42.1937053864" lon="13.4018109113"><ele>1838.90</ele><time>2026-8-28T16:37:48Z</time></trkpt><trkpt lat="42.1936013340" lon="13.4019136615"><ele>1838.77</ele><time>2026-8-28T16:37:53Z</time></trkpt><trkpt lat="42.1934891333" lon="13.4020421561"><ele>1838.03</ele><time>2026-8-28T16:37:59Z</time></trkpt><trkpt lat="42.1934239939" lon="13.4021836426"><ele>1836.89</ele><time>2026-8-28T16:38:5Z</time></trkpt><trkpt lat="42.1933510474" lon="13.4023194893"><ele>1834.75</ele><time>2026-8-28T16:38:12Z</time></trkpt><trkpt lat="42.1933267219" lon="13.4024992213"><ele>1832.22</ele><time>2026-8-28T16:38:18Z</time></trkpt><trkpt lat="42.1933414800" lon="13.4026781989"><ele>1829.53</ele><time>2026-8-28T16:38:25Z</time></trkpt><trkpt lat="42.1933396720" lon="13.4028531611"><ele>1827.29</ele><time>2026-8-28T16:38:31Z</time></trkpt><trkpt lat="42.1933612693" lon="13.4030414466"><ele>1825.59</ele><time>2026-8-28T16:38:36Z</time></trkpt><trkpt lat="42.1934179380" lon="13.4031973291"><ele>1824.04</ele><time>2026-8-28T16:38:39Z</time></trkpt><trkpt lat="42.1934742434" lon="13.4033719451"><ele>1822.63</ele><time>2026-8-28T16:38:42Z</time></trkpt><trkpt lat="42.1934883948" lon="13.4035570733"><ele>1821.22</ele><time>2026-8-28T16:38:45Z</time></trkpt><trkpt lat="42.1934883669" lon="13.4037316544"><ele>1819.79</ele><time>2026-8-28T16:38:47Z</time></trkpt><trkpt lat="42.1934790630" lon="13.4039145266"><ele>1818.77</ele><time>2026-8-28T16:38:50Z</time></trkpt><trkpt lat="42.1934981737" lon="13.4040786512"><ele>1818.00</ele><time>2026-8-28T16:38:54Z</time></trkpt><trkpt lat="42.1935811546" lon="13.4041956905"><ele>1817.05</ele><time>2026-8-28T16:38:57Z</time></trkpt><trkpt lat="42.1936996118" lon="13.4043172770"><ele>1815.39</ele><time>2026-8-28T16:39:0Z</time></trkpt><trkpt lat="42.1938154288" lon="13.4044125164"><ele>1813.72</ele><time>2026-8-28T16:39:3Z</time></trkpt><trkpt lat="42.1938765887" lon="13.4045730158"><ele>1812.22</ele><time>2026-8-28T16:39:6Z</time></trkpt><trkpt lat="42.1939153830" lon="13.4047546238"><ele>1810.77</ele><time>2026-8-28T16:39:8Z</time></trkpt><trkpt lat="42.1939660516" lon="13.4049273748"><ele>1809.67</ele><time>2026-8-28T16:39:11Z</time></trkpt><trkpt lat="42.1940329811" lon="13.4050898580"><ele>1808.94</ele><time>2026-8-28T16:39:13Z</time></trkpt><trkpt lat="42.1940924507" lon="13.4052199032"><ele>1808.34</ele><time>2026-8-28T16:39:15Z</time></trkpt><trkpt lat="42.1941677481" lon="13.4053863399"><ele>1807.67</ele><time>2026-8-28T16:39:18Z</time></trkpt><trkpt lat="42.1942447918" lon="13.4055511141"><ele>1806.87</ele><time>2026-8-28T16:39:20Z</time></trkpt><trkpt lat="42.1942959214" lon="13.4056901280"><ele>1806.32</ele><time>2026-8-28T16:39:22Z</time></trkpt><trkpt lat="42.1943674050" lon="13.4058494400"><ele>1805.57</ele><time>2026-8-28T16:39:25Z</time></trkpt><trkpt lat="42.1944192611" lon="13.4060217580"><ele>1804.73</ele><time>2026-8-28T16:39:27Z</time></trkpt><trkpt lat="42.1944589075" lon="13.4061927069"><ele>1803.95</ele><time>2026-8-28T16:39:30Z</time></trkpt><trkpt lat="42.1945097577" lon="13.4063847363"><ele>1803.31</ele><time>2026-8-28T16:39:33Z</time></trkpt><trkpt lat="42.1945670899" lon="13.4065560624"><ele>1802.72</ele><time>2026-8-28T16:39:36Z</time></trkpt><trkpt lat="42.1946247015" lon="13.4067184478"><ele>1802.17</ele><time>2026-8-28T16:39:39Z</time></trkpt><trkpt lat="42.1946798544" lon="13.4068850521"><ele>1801.47</ele><time>2026-8-28T16:39:42Z</time></trkpt><trkpt lat="42.1947354265" lon="13.4070481360"><ele>1801.03</ele><time>2026-8-28T16:39:45Z</time></trkpt><trkpt lat="42.1947822813" lon="13.4072099906"><ele>1800.59</ele><time>2026-8-28T16:39:48Z</time></trkpt><trkpt lat="42.1948333690" lon="13.4073595517"><ele>1800.12</ele><time>2026-8-28T16:39:50Z</time></trkpt><trkpt lat="42.1948676650" lon="13.4075305983"><ele>1799.61</ele><time>2026-8-28T16:39:53Z</time></trkpt><trkpt lat="42.1949137934" lon="13.4076979710"><ele>1799.34</ele><time>2026-8-28T16:39:55Z</time></trkpt><trkpt lat="42.1950040664" lon="13.4078433551"><ele>1799.06</ele><time>2026-8-28T16:39:58Z</time></trkpt><trkpt lat="42.1950852871" lon="13.4079894517"><ele>1798.76</ele><time>2026-8-28T16:40:0Z</time></trkpt><trkpt lat="42.1951596905" lon="13.4081368055"><ele>1798.19</ele><time>2026-8-28T16:40:3Z</time></trkpt><trkpt lat="42.1952492930" lon="13.4082976543"><ele>1797.48</ele><time>2026-8-28T16:40:6Z</time></trkpt><trkpt lat="42.1953440784" lon="13.4083971056"><ele>1797.17</ele><time>2026-8-28T16:40:8Z</time></trkpt><trkpt lat="42.1954536438" lon="13.4084864426"><ele>1796.39</ele><time>2026-8-28T16:40:11Z</time></trkpt><trkpt lat="42.1955608763" lon="13.4086128138"><ele>1795.07</ele><time>2026-8-28T16:40:14Z</time></trkpt><trkpt lat="42.1956598666" lon="13.4087313619"><ele>1793.92</ele><time>2026-8-28T16:40:17Z</time></trkpt><trkpt lat="42.1957687754" lon="13.4088109340"><ele>1793.04</ele><time>2026-8-28T16:40:20Z</time></trkpt><trkpt lat="42.1958435560" lon="13.4089577920"><ele>1792.00</ele><time>2026-8-28T16:40:23Z</time></trkpt><trkpt lat="42.1958759241" lon="13.4091395047"><ele>1791.05</ele><time>2026-8-28T16:40:27Z</time></trkpt><trkpt lat="42.1959119383" lon="13.4092964698"><ele>1790.42</ele><time>2026-8-28T16:40:30Z</time></trkpt><trkpt lat="42.1959471982" lon="13.4094658401"><ele>1789.95</ele><time>2026-8-28T16:40:33Z</time></trkpt><trkpt lat="42.1960449731" lon="13.4096634267"><ele>1788.97</ele><time>2026-8-28T16:40:39Z</time></trkpt><trkpt lat="42.1960314363" lon="13.4096736301"><ele>1787.57</ele><time>2026-8-28T16:41:32Z</time></trkpt><trkpt lat="42.1960256381" lon="13.4096575136"><ele>1786.39</ele><time>2026-8-28T16:42:49Z</time></trkpt><trkpt lat="42.1960431794" lon="13.4097235249"><ele>1786.34</ele><time>2026-8-28T16:43:22Z</time></trkpt><trkpt lat="42.1960950864" lon="13.4098719468"><ele>1785.57</ele><time>2026-8-28T16:43:39Z</time></trkpt><trkpt lat="42.1961363658" lon="13.4100120528"><ele>1785.26</ele><time>2026-8-28T16:43:55Z</time></trkpt><trkpt lat="42.1962041538" lon="13.4101880919"><ele>1784.82</ele><time>2026-8-28T16:44:1Z</time></trkpt><trkpt lat="42.1962800994" lon="13.4103336744"><ele>1784.44</ele><time>2026-8-28T16:44:5Z</time></trkpt><trkpt lat="42.1963502211" lon="13.4104619874"><ele>1783.93</ele><time>2026-8-28T16:44:8Z</time></trkpt><trkpt lat="42.1964342077" lon="13.4106266918"><ele>1783.48</ele><time>2026-8-28T16:44:12Z</time></trkpt><trkpt lat="42.1964957379" lon="13.4107923322"><ele>1783.05</ele><time>2026-8-28T16:44:16Z</time></trkpt><trkpt lat="42.1965308022" lon="13.4109505545"><ele>1782.61</ele><time>2026-8-28T16:44:19Z</time></trkpt><trkpt lat="42.1965529304" lon="13.4111197851"><ele>1782.10</ele><time>2026-8-28T16:44:22Z</time></trkpt><trkpt lat="42.1965681016" lon="13.4112978447"><ele>1781.59</ele><time>2026-8-28T16:44:25Z</time></trkpt><trkpt lat="42.1966098086" lon="13.4114962723"><ele>1781.10</ele><time>2026-8-28T16:44:28Z</time></trkpt><trkpt lat="42.1966693830" lon="13.4116644133"><ele>1780.61</ele><time>2026-8-28T16:44:31Z</time></trkpt><trkpt lat="42.1967072412" lon="13.4118130803"><ele>1780.29</ele><time>2026-8-28T16:44:34Z</time></trkpt><trkpt lat="42.1967521752" lon="13.4120072332"><ele>1779.87</ele><time>2026-8-28T16:44:37Z</time></trkpt><trkpt lat="42.1967973188" lon="13.4121793136"><ele>1779.51</ele><time>2026-8-28T16:44:41Z</time></trkpt><trkpt lat="42.1968374737" lon="13.4123325683"><ele>1779.11</ele><time>2026-8-28T16:44:45Z</time></trkpt><trkpt lat="42.1969155116" lon="13.4124956227"><ele>1778.82</ele><time>2026-8-28T16:44:51Z</time></trkpt><trkpt lat="42.1970173539" lon="13.4126094195"><ele>1779.28</ele><time>2026-8-28T16:45:0Z</time></trkpt><trkpt lat="42.1971270535" lon="13.4126977436"><ele>1780.50</ele><time>2026-8-28T16:45:10Z</time></trkpt><trkpt lat="42.1972488691" lon="13.4127665046"><ele>1782.53</ele><time>2026-8-28T16:45:21Z</time></trkpt><trkpt lat="42.1973193270" lon="13.4128288128"><ele>1782.62</ele><time>2026-8-28T16:45:53Z</time></trkpt><trkpt lat="42.1972768125" lon="13.4128248212"><ele>1781.33</ele><time>2026-8-28T16:47:25Z</time></trkpt><trkpt lat="42.1972448095" lon="13.4128424733"><ele>1782.13</ele><time>2026-8-28T16:49:3Z</time></trkpt><trkpt lat="42.1973039156" lon="13.4128479670"><ele>1781.76</ele><time>2026-8-28T16:49:49Z</time></trkpt><trkpt lat="42.1974548152" lon="13.4129550468"><ele>1781.58</ele><time>2026-8-28T16:50:6Z</time></trkpt><trkpt lat="42.1975643667" lon="13.4130422904"><ele>1781.13</ele><time>2026-8-28T16:50:13Z</time></trkpt><trkpt lat="42.1976820175" lon="13.4131450262"><ele>1780.85</ele><time>2026-8-28T16:50:19Z</time></trkpt><trkpt lat="42.1977809351" lon="13.4132806817"><ele>1779.74</ele><time>2026-8-28T16:50:24Z</time></trkpt><trkpt lat="42.1978297233" lon="13.4134494066"><ele>1778.61</ele><time>2026-8-28T16:50:30Z</time></trkpt><trkpt lat="42.1978722364" lon="13.4135982022"><ele>1777.34</ele><time>2026-8-28T16:50:35Z</time></trkpt><trkpt lat="42.1979341116" lon="13.4137603920"><ele>1775.21</ele><time>2026-8-28T16:50:40Z</time></trkpt><trkpt lat="42.1980579849" lon="13.4138698317"><ele>1773.54</ele><time>2026-8-28T16:50:44Z</time></trkpt><trkpt lat="42.1981770918" lon="13.4139413014"><ele>1772.38</ele><time>2026-8-28T16:50:47Z</time></trkpt><trkpt lat="42.1982562030" lon="13.4140520822"><ele>1771.18</ele><time>2026-8-28T16:50:50Z</time></trkpt><trkpt lat="42.1983296033" lon="13.4142091926"><ele>1770.04</ele><time>2026-8-28T16:50:55Z</time></trkpt><trkpt lat="42.1984279691" lon="13.4143480368"><ele>1768.04</ele><time>2026-8-28T16:51:1Z</time></trkpt><trkpt lat="42.1985355439" lon="13.4144146973"><ele>1765.53</ele><time>2026-8-28T16:51:8Z</time></trkpt><trkpt lat="42.1986435866" lon="13.4144994803"><ele>1763.34</ele><time>2026-8-28T16:51:14Z</time></trkpt><trkpt lat="42.1987514477" lon="13.4146091295"><ele>1761.03</ele><time>2026-8-28T16:51:20Z</time></trkpt><trkpt lat="42.1988476217" lon="13.4147143029"><ele>1758.70</ele><time>2026-8-28T16:51:26Z</time></trkpt><trkpt lat="42.1989730317" lon="13.4148308113"><ele>1756.72</ele><time>2026-8-28T16:51:31Z</time></trkpt><trkpt lat="42.1990299951" lon="13.4149770755"><ele>1754.99</ele><time>2026-8-28T16:51:36Z</time></trkpt><trkpt lat="42.1991006378" lon="13.4151225979"><ele>1753.27</ele><time>2026-8-28T16:51:40Z</time></trkpt><trkpt lat="42.1992013045" lon="13.4152366757"><ele>1751.85</ele><time>2026-8-28T16:51:44Z</time></trkpt><trkpt lat="42.1992984507" lon="13.4153497685"><ele>1750.14</ele><time>2026-8-28T16:51:49Z</time></trkpt><trkpt lat="42.1993919369" lon="13.4154927218"><ele>1748.27</ele><time>2026-8-28T16:51:54Z</time></trkpt><trkpt lat="42.1994660469" lon="13.4156422131"><ele>1746.38</ele><time>2026-8-28T16:51:59Z</time></trkpt><trkpt lat="42.1995349252" lon="13.4157773922"><ele>1744.92</ele><time>2026-8-28T16:52:3Z</time></trkpt><trkpt lat="42.1995889004" lon="13.4159499463"><ele>1743.12</ele><time>2026-8-28T16:52:8Z</time></trkpt><trkpt lat="42.1996748680" lon="13.4160841489"><ele>1740.22</ele><time>2026-8-28T16:52:13Z</time></trkpt><trkpt lat="42.1998051578" lon="13.4161808761"><ele>1737.71</ele><time>2026-8-28T16:52:18Z</time></trkpt><trkpt lat="42.1998957787" lon="13.4162810482"><ele>1735.34</ele><time>2026-8-28T16:52:23Z</time></trkpt><trkpt lat="42.1999898040" lon="13.4164166171"><ele>1732.72</ele><time>2026-8-28T16:52:28Z</time></trkpt><trkpt lat="42.2000715835" lon="13.4165355284"><ele>1729.95</ele><time>2026-8-28T16:52:34Z</time></trkpt><trkpt lat="42.2001917660" lon="13.4166388493"><ele>1728.26</ele><time>2026-8-28T16:52:39Z</time></trkpt><trkpt lat="42.2002820671" lon="13.4167573415"><ele>1727.30</ele><time>2026-8-28T16:52:42Z</time></trkpt><trkpt lat="42.2003885452" lon="13.4168721177"><ele>1726.30</ele><time>2026-8-28T16:52:45Z</time></trkpt><trkpt lat="42.2004785109" lon="13.4170085750"><ele>1725.14</ele><time>2026-8-28T16:52:48Z</time></trkpt><trkpt lat="42.2005555266" lon="13.4171540989"><ele>1724.02</ele><time>2026-8-28T16:52:51Z</time></trkpt><trkpt lat="42.2006160580" lon="13.4173133690"><ele>1723.18</ele><time>2026-8-28T16:52:55Z</time></trkpt><trkpt lat="42.2006947082" lon="13.4174451186"><ele>1722.19</ele><time>2026-8-28T16:52:58Z</time></trkpt><trkpt lat="42.2008018428" lon="13.4175720764"><ele>1721.31</ele><time>2026-8-28T16:53:3Z</time></trkpt><trkpt lat="42.2009064455" lon="13.4176291223"><ele>1720.98</ele><time>2026-8-28T16:53:10Z</time></trkpt><trkpt lat="42.2010329659" lon="13.4176930972"><ele>1720.73</ele><time>2026-8-28T16:53:18Z</time></trkpt><trkpt lat="42.2011609934" lon="13.4177688444"><ele>1721.33</ele><time>2026-8-28T16:53:26Z</time></trkpt><trkpt lat="42.2012741491" lon="13.4178555175"><ele>1721.32</ele><time>2026-8-28T16:53:35Z</time></trkpt><trkpt lat="42.2013973910" lon="13.4179368289"><ele>1721.11</ele><time>2026-8-28T16:53:42Z</time></trkpt><trkpt lat="42.2015091944" lon="13.4179826668"><ele>1721.13</ele><time>2026-8-28T16:53:50Z</time></trkpt><trkpt lat="42.2016425652" lon="13.4179879201"><ele>1722.15</ele><time>2026-8-28T16:53:59Z</time></trkpt><trkpt lat="42.2017868981" lon="13.4179779980"><ele>1722.92</ele><time>2026-8-28T16:54:6Z</time></trkpt><trkpt lat="42.2018964456" lon="13.4180477834"><ele>1722.13</ele><time>2026-8-28T16:54:13Z</time></trkpt><trkpt lat="42.2020247625" lon="13.4180918802"><ele>1721.30</ele><time>2026-8-28T16:54:19Z</time></trkpt><trkpt lat="42.2021605075" lon="13.4180834005"><ele>1719.83</ele><time>2026-8-28T16:54:25Z</time></trkpt><trkpt lat="42.2022922654" lon="13.4180718418"><ele>1717.99</ele><time>2026-8-28T16:54:31Z</time></trkpt><trkpt lat="42.2024145070" lon="13.4180275351"><ele>1716.23</ele><time>2026-8-28T16:54:36Z</time></trkpt><trkpt lat="42.2025240731" lon="13.4179388946"><ele>1713.06</ele><time>2026-8-28T16:54:50Z</time></trkpt><trkpt lat="42.2025300804" lon="13.4179216559"><ele>1712.54</ele><time>2026-8-28T16:55:17Z</time></trkpt><trkpt lat="42.2025625433" lon="13.4179570916"><ele>1711.27</ele><time>2026-8-28T16:56:19Z</time></trkpt><trkpt lat="42.2025132295" lon="13.4179196804"><ele>1711.72</ele><time>2026-8-28T16:57:26Z</time></trkpt><trkpt lat="42.2025984144" lon="13.4178935085"><ele>1711.21</ele><time>2026-8-28T16:57:51Z</time></trkpt><trkpt lat="42.2026583326" lon="13.4179200112"><ele>1710.61</ele><time>2026-8-28T16:58:7Z</time></trkpt><trkpt lat="42.2027314006" lon="13.4179110319"><ele>1710.46</ele><time>2026-8-28T16:58:25Z</time></trkpt><trkpt lat="42.2028720053" lon="13.4178581648"><ele>1710.15</ele><time>2026-8-28T16:58:36Z</time></trkpt><trkpt lat="42.2030103430" lon="13.4178213067"><ele>1709.51</ele><time>2026-8-28T16:58:42Z</time></trkpt><trkpt lat="42.2031350364" lon="13.4177786973"><ele>1708.90</ele><time>2026-8-28T16:58:46Z</time></trkpt><trkpt lat="42.2032566788" lon="13.4177175095"><ele>1708.17</ele><time>2026-8-28T16:58:50Z</time></trkpt><trkpt lat="42.2033760161" lon="13.4176350734"><ele>1707.17</ele><time>2026-8-28T16:58:54Z</time></trkpt><trkpt lat="42.2034877050" lon="13.4175428725"><ele>1706.46</ele><time>2026-8-28T16:58:58Z</time></trkpt><trkpt lat="42.2035874915" lon="13.4174077353"><ele>1705.76</ele><time>2026-8-28T16:59:2Z</time></trkpt><trkpt lat="42.2036784562" lon="13.4172578040"><ele>1705.13</ele><time>2026-8-28T16:59:6Z</time></trkpt><trkpt lat="42.2037909162" lon="13.4171668142"><ele>1704.51</ele><time>2026-8-28T16:59:11Z</time></trkpt><trkpt lat="42.2039075084" lon="13.4171456415"><ele>1703.55</ele><time>2026-8-28T16:59:16Z</time></trkpt><trkpt lat="42.2040432086" lon="13.4171550907"><ele>1701.80</ele><time>2026-8-28T16:59:21Z</time></trkpt><trkpt lat="42.2041778360" lon="13.4172090981"><ele>1699.72</ele><time>2026-8-28T16:59:27Z</time></trkpt><trkpt lat="42.2043120582" lon="13.4172070725"><ele>1697.68</ele><time>2026-8-28T16:59:33Z</time></trkpt><trkpt lat="42.2044480406" lon="13.4171720152"><ele>1696.16</ele><time>2026-8-28T16:59:38Z</time></trkpt><trkpt lat="42.2045510122" lon="13.4170766082"><ele>1694.57</ele><time>2026-8-28T16:59:42Z</time></trkpt><trkpt lat="42.2046670429" lon="13.4170021434"><ele>1693.21</ele><time>2026-8-28T16:59:47Z</time></trkpt><trkpt lat="42.2047993681" lon="13.4169928101"><ele>1691.89</ele><time>2026-8-28T16:59:51Z</time></trkpt><trkpt lat="42.2049259907" lon="13.4170521749"><ele>1690.35</ele><time>2026-8-28T16:59:56Z</time></trkpt><trkpt lat="42.2050475502" lon="13.4170443857"><ele>1688.73</ele><time>2026-8-28T17:0:3Z</time></trkpt><trkpt lat="42.2051929543" lon="13.4170104331"><ele>1686.90</ele><time>2026-8-28T17:0:9Z</time></trkpt><trkpt lat="42.2053172439" lon="13.4169544559"><ele>1684.69</ele><time>2026-8-28T17:0:15Z</time></trkpt><trkpt lat="42.2054454272" lon="13.4168883746"><ele>1682.68</ele><time>2026-8-28T17:0:22Z</time></trkpt><trkpt lat="42.2055674857" lon="13.4168331139"><ele>1680.33</ele><time>2026-8-28T17:0:28Z</time></trkpt><trkpt lat="42.2056894004" lon="13.4168089740"><ele>1678.94</ele><time>2026-8-28T17:0:33Z</time></trkpt><trkpt lat="42.2058349103" lon="13.4168487042"><ele>1677.87</ele><time>2026-8-28T17:0:36Z</time></trkpt><trkpt lat="42.2059755865" lon="13.4168768953"><ele>1676.50</ele><time>2026-8-28T17:0:40Z</time></trkpt><trkpt lat="42.2061029007" lon="13.4168487671"><ele>1675.62</ele><time>2026-8-28T17:0:43Z</time></trkpt><trkpt lat="42.2062294674" lon="13.4168072452"><ele>1674.45</ele><time>2026-8-28T17:0:49Z</time></trkpt><trkpt lat="42.2063602880" lon="13.4167609736"><ele>1674.71</ele><time>2026-8-28T17:0:56Z</time></trkpt><trkpt lat="42.2064886289" lon="13.4167775978"><ele>1674.51</ele><time>2026-8-28T17:1:2Z</time></trkpt><trkpt lat="42.2065936569" lon="13.4168679155"><ele>1673.06</ele><time>2026-8-28T17:1:8Z</time></trkpt><trkpt lat="42.2066620784" lon="13.4170216648"><ele>1671.22</ele><time>2026-8-28T17:1:13Z</time></trkpt><trkpt lat="42.2066968046" lon="13.4171915073"><ele>1669.32</ele><time>2026-8-28T17:1:19Z</time></trkpt><trkpt lat="42.2067677951" lon="13.4173335345"><ele>1667.75</ele><time>2026-8-28T17:1:23Z</time></trkpt><trkpt lat="42.2068899195" lon="13.4173711483"><ele>1666.07</ele><time>2026-8-28T17:1:27Z</time></trkpt><trkpt lat="42.2070255387" lon="13.4173764917"><ele>1665.02</ele><time>2026-8-28T17:1:31Z</time></trkpt><trkpt lat="42.2071654871" lon="13.4173405878"><ele>1663.73</ele><time>2026-8-28T17:1:36Z</time></trkpt><trkpt lat="42.2072441764" lon="13.4171862435"><ele>1662.50</ele><time>2026-8-28T17:1:41Z</time></trkpt><trkpt lat="42.2072927957" lon="13.4170418652"><ele>1661.64</ele><time>2026-8-28T17:1:45Z</time></trkpt><trkpt lat="42.2074029548" lon="13.4169604979"><ele>1660.52</ele><time>2026-8-28T17:1:49Z</time></trkpt><trkpt lat="42.2075459920" lon="13.4169436432"><ele>1659.33</ele><time>2026-8-28T17:1:53Z</time></trkpt><trkpt lat="42.2076599021" lon="13.4169064835"><ele>1658.22</ele><time>2026-8-28T17:1:56Z</time></trkpt><trkpt lat="42.2078046156" lon="13.4168506740"><ele>1656.58</ele><time>2026-8-28T17:1:59Z</time></trkpt><trkpt lat="42.2079365468" lon="13.4168103151"><ele>1655.42</ele><time>2026-8-28T17:2:2Z</time></trkpt><trkpt lat="42.2080613952" lon="13.4167833883"><ele>1654.52</ele><time>2026-8-28T17:2:5Z</time></trkpt><trkpt lat="42.2081895545" lon="13.4167295135"><ele>1653.52</ele><time>2026-8-28T17:2:9Z</time></trkpt><trkpt lat="42.2083124542" lon="13.4166626679"><ele>1652.55</ele><time>2026-8-28T17:2:12Z</time></trkpt><trkpt lat="42.2084502108" lon="13.4166463860"><ele>1652.06</ele><time>2026-8-28T17:2:16Z</time></trkpt><trkpt lat="42.2085793968" lon="13.4166558786"><ele>1651.59</ele><time>2026-8-28T17:2:20Z</time></trkpt><trkpt lat="42.2087184526" lon="13.4166888110"><ele>1651.04</ele><time>2026-8-28T17:2:25Z</time></trkpt><trkpt lat="42.2088567121" lon="13.4167104447"><ele>1650.42</ele><time>2026-8-28T17:2:29Z</time></trkpt><trkpt lat="42.2089842847" lon="13.4167206288"><ele>1649.77</ele><time>2026-8-28T17:2:33Z</time></trkpt><trkpt lat="42.2091186550" lon="13.4166956842"><ele>1649.07</ele><time>2026-8-28T17:2:38Z</time></trkpt><trkpt lat="42.2092586034" lon="13.4166681999"><ele>1648.54</ele><time>2026-8-28T17:2:42Z</time></trkpt><trkpt lat="42.2093864400" lon="13.4166780654"><ele>1647.99</ele><time>2026-8-28T17:2:47Z</time></trkpt><trkpt lat="42.2095172759" lon="13.4167057555"><ele>1647.40</ele><time>2026-8-28T17:2:54Z</time></trkpt><trkpt lat="42.2096198006" lon="13.4168052126"><ele>1646.94</ele><time>2026-8-28T17:3:2Z</time></trkpt><trkpt lat="42.2096023363" lon="13.4169732832"><ele>1646.89</ele><time>2026-8-28T17:3:10Z</time></trkpt><trkpt lat="42.2095802171" lon="13.4171470790"><ele>1646.64</ele><time>2026-8-28T17:3:15Z</time></trkpt><trkpt lat="42.2096530683" lon="13.4172826018"><ele>1646.07</ele><time>2026-8-28T17:3:20Z</time></trkpt><trkpt lat="42.2097587166" lon="13.4173662448"><ele>1645.43</ele><time>2026-8-28T17:3:25Z</time></trkpt><trkpt lat="42.2098898236" lon="13.4174477588"><ele>1645.11</ele><time>2026-8-28T17:3:30Z</time></trkpt><trkpt lat="42.2100234521" lon="13.4174948023"><ele>1644.54</ele><time>2026-8-28T17:3:33Z</time></trkpt><trkpt lat="42.2101568710" lon="13.4174885787"><ele>1643.80</ele><time>2026-8-28T17:3:37Z</time></trkpt><trkpt lat="42.2102689371" lon="13.4174204129"><ele>1643.09</ele><time>2026-8-28T17:3:41Z</time></trkpt><trkpt lat="42.2103608705" lon="13.4173724162"><ele>1642.05</ele><time>2026-8-28T17:4:7Z</time></trkpt><trkpt lat="42.2104779994" lon="13.4173046312"><ele>1641.26</ele><time>2026-8-28T17:4:40Z</time></trkpt><trkpt lat="42.2105538519" lon="13.4172036080"><ele>1640.90</ele><time>2026-8-28T17:4:52Z</time></trkpt><trkpt lat="42.2106667701" lon="13.4171093814"><ele>1640.73</ele><time>2026-8-28T17:4:58Z</time></trkpt><trkpt lat="42.2107796744" lon="13.4170170827"><ele>1640.72</ele><time>2026-8-28T17:5:4Z</time></trkpt><trkpt lat="42.2108884555" lon="13.4169234468"><ele>1640.95</ele><time>2026-8-28T17:5:11Z</time></trkpt><trkpt lat="42.2109854341" lon="13.4168020529"><ele>1641.20</ele><time>2026-8-28T17:5:18Z</time></trkpt><trkpt lat="42.2110891482" lon="13.4167105704"><ele>1641.51</ele><time>2026-8-28T17:5:24Z</time></trkpt><trkpt lat="42.2112357393" lon="13.4167325646"><ele>1641.52</ele><time>2026-8-28T17:5:30Z</time></trkpt><trkpt lat="42.2113589198" lon="13.4167942777"><ele>1641.28</ele><time>2026-8-28T17:5:34Z</time></trkpt><trkpt lat="42.2114711255" lon="13.4168589302"><ele>1641.06</ele><time>2026-8-28T17:5:37Z</time></trkpt><trkpt lat="42.2115951497" lon="13.4169051144"><ele>1640.78</ele><time>2026-8-28T17:5:40Z</time></trkpt><trkpt lat="42.2117326129" lon="13.4169198386"><ele>1640.08</ele><time>2026-8-28T17:5:43Z</time></trkpt><trkpt lat="42.2118745465" lon="13.4169218224"><ele>1639.43</ele><time>2026-8-28T17:5:46Z</time></trkpt><trkpt lat="42.2120117583" lon="13.4169230517"><ele>1638.83</ele><time>2026-8-28T17:5:49Z</time></trkpt><trkpt lat="42.2121451981" lon="13.4169293102"><ele>1638.40</ele><time>2026-8-28T17:5:52Z</time></trkpt><trkpt lat="42.2122773808" lon="13.4169356245"><ele>1638.05</ele><time>2026-8-28T17:5:55Z</time></trkpt><trkpt lat="42.2124062665" lon="13.4169488959"><ele>1637.64</ele><time>2026-8-28T17:5:58Z</time></trkpt><trkpt lat="42.2125468659" lon="13.4169623628"><ele>1637.00</ele><time>2026-8-28T17:6:1Z</time></trkpt><trkpt lat="42.2126825619" lon="13.4169552662"><ele>1636.52</ele><time>2026-8-28T17:6:5Z</time></trkpt><trkpt lat="42.2128208284" lon="13.4169324604"><ele>1636.18</ele><time>2026-8-28T17:6:8Z</time></trkpt><trkpt lat="42.2129719052" lon="13.4168998618"><ele>1635.73</ele><time>2026-8-28T17:6:12Z</time></trkpt><trkpt lat="42.2130872263" lon="13.4168718802"><ele>1635.39</ele><time>2026-8-28T17:6:14Z</time></trkpt><trkpt lat="42.2132046148" lon="13.4168447927"><ele>1635.14</ele><time>2026-8-28T17:6:17Z</time></trkpt><trkpt lat="42.2133468278" lon="13.4168167692"><ele>1634.86</ele><time>2026-8-28T17:6:20Z</time></trkpt><trkpt lat="42.2134851851" lon="13.4167905338"><ele>1634.41</ele><time>2026-8-28T17:6:23Z</time></trkpt><trkpt lat="42.2136163060" lon="13.4167687967"><ele>1633.86</ele><time>2026-8-28T17:6:26Z</time></trkpt><trkpt lat="42.2137436271" lon="13.4167446010"><ele>1633.41</ele><time>2026-8-28T17:6:29Z</time></trkpt><trkpt lat="42.2138791625" lon="13.4167159908"><ele>1632.86</ele><time>2026-8-28T17:6:32Z</time></trkpt><trkpt lat="42.2140201460" lon="13.4166853130"><ele>1632.50</ele><time>2026-8-28T17:6:35Z</time></trkpt><trkpt lat="42.2141608503" lon="13.4166547749"><ele>1632.04</ele><time>2026-8-28T17:6:38Z</time></trkpt><trkpt lat="42.2143007163" lon="13.4166123066"><ele>1631.68</ele><time>2026-8-28T17:6:41Z</time></trkpt><trkpt lat="42.2144257743" lon="13.4165683715"><ele>1631.55</ele><time>2026-8-28T17:6:43Z</time></trkpt><trkpt lat="42.2145472281" lon="13.4165254981"><ele>1631.30</ele><time>2026-8-28T17:6:46Z</time></trkpt><trkpt lat="42.2146808356" lon="13.4164821636"><ele>1630.61</ele><time>2026-8-28T17:6:49Z</time></trkpt><trkpt lat="42.2148090228" lon="13.4164386895"><ele>1630.12</ele><time>2026-8-28T17:6:52Z</time></trkpt><trkpt lat="42.2149338852" lon="13.4163752943"><ele>1629.76</ele><time>2026-8-28T17:6:55Z</time></trkpt><trkpt lat="42.2150607663" lon="13.4162983904"><ele>1629.19</ele><time>2026-8-28T17:6:58Z</time></trkpt><trkpt lat="42.2151869349" lon="13.4162724484"><ele>1628.71</ele><time>2026-8-28T17:7:2Z</time></trkpt><trkpt lat="42.2153182165" lon="13.4162096470"><ele>1628.29</ele><time>2026-8-28T17:7:5Z</time></trkpt><trkpt lat="42.2154458240" lon="13.4161355440"><ele>1628.21</ele><time>2026-8-28T17:7:9Z</time></trkpt><trkpt lat="42.2155700089" lon="13.4160587937"><ele>1628.40</ele><time>2026-8-28T17:7:12Z</time></trkpt><trkpt lat="42.2157014790" lon="13.4159776569"><ele>1628.39</ele><time>2026-8-28T17:7:16Z</time></trkpt><trkpt lat="42.2158173379" lon="13.4158992861"><ele>1628.31</ele><time>2026-8-28T17:7:20Z</time></trkpt><trkpt lat="42.2159298230" lon="13.4158488480"><ele>1628.31</ele><time>2026-8-28T17:7:24Z</time></trkpt><trkpt lat="42.2160529322" lon="13.4157853550"><ele>1628.34</ele><time>2026-8-28T17:7:28Z</time></trkpt><trkpt lat="42.2161916108" lon="13.4157195361"><ele>1628.31</ele><time>2026-8-28T17:7:32Z</time></trkpt><trkpt lat="42.2163251694" lon="13.4156519081"><ele>1628.16</ele><time>2026-8-28T17:7:36Z</time></trkpt><trkpt lat="42.2164520155" lon="13.4155734535"><ele>1627.95</ele><time>2026-8-28T17:7:39Z</time></trkpt><trkpt lat="42.2165801749" lon="13.4155078791"><ele>1627.57</ele><time>2026-8-28T17:7:42Z</time></trkpt><trkpt lat="42.2167060431" lon="13.4154631756"><ele>1626.93</ele><time>2026-8-28T17:7:45Z</time></trkpt><trkpt lat="42.2168301512" lon="13.4154065139"><ele>1626.63</ele><time>2026-8-28T17:7:48Z</time></trkpt><trkpt lat="42.2169592325" lon="13.4153425600"><ele>1626.37</ele><time>2026-8-28T17:7:51Z</time></trkpt><trkpt lat="42.2170706839" lon="13.4152782709"><ele>1626.07</ele><time>2026-8-28T17:7:53Z</time></trkpt><trkpt lat="42.2172011063" lon="13.4152144427"><ele>1625.65</ele><time>2026-8-28T17:7:56Z</time></trkpt><trkpt lat="42.2173521761" lon="13.4151889197"><ele>1625.15</ele><time>2026-8-28T17:8:0Z</time></trkpt><trkpt lat="42.2174959554" lon="13.4151215921"><ele>1625.12</ele><time>2026-8-28T17:8:9Z</time></trkpt><trkpt lat="42.2175461173" lon="13.4150690106"><ele>1625.25</ele><time>2026-8-28T17:8:21Z</time></trkpt><trkpt lat="42.2176595544" lon="13.4149547294"><ele>1625.04</ele><time>2026-8-28T17:8:26Z</time></trkpt><trkpt lat="42.2177776135" lon="13.4148428030"><ele>1624.49</ele><time>2026-8-28T17:8:30Z</time></trkpt><trkpt lat="42.2178979777" lon="13.4147645859"><ele>1623.90</ele><time>2026-8-28T17:8:32Z</time></trkpt><trkpt lat="42.2180344910" lon="13.4146976564"><ele>1623.25</ele><time>2026-8-28T17:8:35Z</time></trkpt><trkpt lat="42.2181646899" lon="13.4146445152"><ele>1622.46</ele><time>2026-8-28T17:8:37Z</time></trkpt><trkpt lat="42.2182877641" lon="13.4145835787"><ele>1621.83</ele><time>2026-8-28T17:8:40Z</time></trkpt><trkpt lat="42.2184032807" lon="13.4145181999"><ele>1621.28</ele><time>2026-8-28T17:8:42Z</time></trkpt><trkpt lat="42.2185041569" lon="13.4144259151"><ele>1620.92</ele><time>2026-8-28T17:8:45Z</time></trkpt><trkpt lat="42.2186446167" lon="13.4143425990"><ele>1620.35</ele><time>2026-8-28T17:8:48Z</time></trkpt><trkpt lat="42.2187764011" lon="13.4142526053"><ele>1620.05</ele><time>2026-8-28T17:8:52Z</time></trkpt><trkpt lat="42.2188946698" lon="13.4141907608"><ele>1619.81</ele><time>2026-8-28T17:8:55Z</time></trkpt><trkpt lat="42.2190148663" lon="13.4141221340"><ele>1619.88</ele><time>2026-8-28T17:8:59Z</time></trkpt><trkpt lat="42.2191331349" lon="13.4140548762"><ele>1619.96</ele><time>2026-8-28T17:9:3Z</time></trkpt><trkpt lat="42.2192528914" lon="13.4139906219"><ele>1619.59</ele><time>2026-8-28T17:9:6Z</time></trkpt><trkpt lat="42.2194009368" lon="13.4139435156"><ele>1618.90</ele><time>2026-8-28T17:9:10Z</time></trkpt><trkpt lat="42.2195433174" lon="13.4139407706"><ele>1618.03</ele><time>2026-8-28T17:9:14Z</time></trkpt><trkpt lat="42.2196659725" lon="13.4139767709"><ele>1617.12</ele><time>2026-8-28T17:9:16Z</time></trkpt><trkpt lat="42.2197942994" lon="13.4140288085"><ele>1616.28</ele><time>2026-8-28T17:9:19Z</time></trkpt><trkpt lat="42.2199241771" lon="13.4140885435"><ele>1615.43</ele><time>2026-8-28T17:9:21Z</time></trkpt><trkpt lat="42.2200445551" lon="13.4141507372"><ele>1614.75</ele><time>2026-8-28T17:9:24Z</time></trkpt><trkpt lat="42.2201782744" lon="13.4142223746"><ele>1614.03</ele><time>2026-8-28T17:9:27Z</time></trkpt><trkpt lat="42.2203074396" lon="13.4142962750"><ele>1613.36</ele><time>2026-8-28T17:9:30Z</time></trkpt><trkpt lat="42.2204269935" lon="13.4143766575"><ele>1612.85</ele><time>2026-8-28T17:9:33Z</time></trkpt><trkpt lat="42.2205483075" lon="13.4144644719"><ele>1612.52</ele><time>2026-8-28T17:9:36Z</time></trkpt><trkpt lat="42.2206661850" lon="13.4145508334"><ele>1612.06</ele><time>2026-8-28T17:9:39Z</time></trkpt><trkpt lat="42.2207760718" lon="13.4146335069"><ele>1611.44</ele><time>2026-8-28T17:9:42Z</time></trkpt><trkpt lat="42.2208888293" lon="13.4147254843"><ele>1610.82</ele><time>2026-8-28T17:9:45Z</time></trkpt><trkpt lat="42.2209945042" lon="13.4148273873"><ele>1610.08</ele><time>2026-8-28T17:9:49Z</time></trkpt><trkpt lat="42.2210924886" lon="13.4149349062"><ele>1609.19</ele><time>2026-8-28T17:9:53Z</time></trkpt><trkpt lat="42.2212166456" lon="13.4150410211"><ele>1608.68</ele><time>2026-8-28T17:9:57Z</time></trkpt><trkpt lat="42.2213484161" lon="13.4151056875"><ele>1608.46</ele><time>2026-8-28T17:10:1Z</time></trkpt><trkpt lat="42.2214735020" lon="13.4151177574"><ele>1607.98</ele><time>2026-8-28T17:10:4Z</time></trkpt><trkpt lat="42.2216010746" lon="13.4151039272"><ele>1607.72</ele><time>2026-8-28T17:10:7Z</time></trkpt><trkpt lat="42.2217374342" lon="13.4151012451"><ele>1607.37</ele><time>2026-8-28T17:10:10Z</time></trkpt><trkpt lat="42.2218773700" lon="13.4151378181"><ele>1607.00</ele><time>2026-8-28T17:10:14Z</time></trkpt><trkpt lat="42.2219787911" lon="13.4152243193"><ele>1606.84</ele><time>2026-8-28T17:10:17Z</time></trkpt><trkpt lat="42.2221071599" lon="13.4153056378"><ele>1606.65</ele><time>2026-8-28T17:10:20Z</time></trkpt><trkpt lat="42.2222162504" lon="13.4154322464"><ele>1606.57</ele><time>2026-8-28T17:10:24Z</time></trkpt><trkpt lat="42.2223200854" lon="13.4155159648"><ele>1606.49</ele><time>2026-8-28T17:10:29Z</time></trkpt><trkpt lat="42.2224299290" lon="13.4156083622"><ele>1606.99</ele><time>2026-8-28T17:10:35Z</time></trkpt><trkpt lat="42.2225536555" lon="13.4156739973"><ele>1608.04</ele><time>2026-8-28T17:10:41Z</time></trkpt><trkpt lat="42.2226711084" lon="13.4157643793"><ele>1608.31</ele><time>2026-8-28T17:10:46Z</time></trkpt><trkpt lat="42.2227981361" lon="13.4158265451"><ele>1608.30</ele><time>2026-8-28T17:10:52Z</time></trkpt><trkpt lat="42.2229312966" lon="13.4158616094"><ele>1608.57</ele><time>2026-8-28T17:10:58Z</time></trkpt><trkpt lat="42.2230703663" lon="13.4158491287"><ele>1608.56</ele><time>2026-8-28T17:11:4Z</time></trkpt><trkpt lat="42.2231979249" lon="13.4158763196"><ele>1608.28</ele><time>2026-8-28T17:11:9Z</time></trkpt><trkpt lat="42.2233171854" lon="13.4159231605"><ele>1608.15</ele><time>2026-8-28T17:11:15Z</time></trkpt><trkpt lat="42.2234471328" lon="13.4159147926"><ele>1608.17</ele><time>2026-8-28T17:11:21Z</time></trkpt><trkpt lat="42.2235900653" lon="13.4158788342"><ele>1607.89</ele><time>2026-8-28T17:11:25Z</time></trkpt><trkpt lat="42.2237306088" lon="13.4158484359"><ele>1607.43</ele><time>2026-8-28T17:11:29Z</time></trkpt><trkpt lat="42.2238620371" lon="13.4158299956"><ele>1607.07</ele><time>2026-8-28T17:11:32Z</time></trkpt><trkpt lat="42.2240010090" lon="13.4158084821"><ele>1606.53</ele><time>2026-8-28T17:11:35Z</time></trkpt><trkpt lat="42.2241241392" lon="13.4157992341"><ele>1605.91</ele><time>2026-8-28T17:11:38Z</time></trkpt><trkpt lat="42.2242397256" lon="13.4158744756"><ele>1605.16</ele><time>2026-8-28T17:11:42Z</time></trkpt><trkpt lat="42.2243620735" lon="13.4159372281"><ele>1604.52</ele><time>2026-8-28T17:11:47Z</time></trkpt><trkpt lat="42.2244803868" lon="13.4160225000"><ele>1605.49</ele><time>2026-8-28T17:11:53Z</time></trkpt><trkpt lat="42.2246088479" lon="13.4160968307"><ele>1605.77</ele><time>2026-8-28T17:11:58Z</time></trkpt><trkpt lat="42.2247400973" lon="13.4161250805"><ele>1605.45</ele><time>2026-8-28T17:12:3Z</time></trkpt><trkpt lat="42.2248745039" lon="13.4161530062"><ele>1605.50</ele><time>2026-8-28T17:12:9Z</time></trkpt><trkpt lat="42.2250153765" lon="13.4161646047"><ele>1606.19</ele><time>2026-8-28T17:12:15Z</time></trkpt><trkpt lat="42.2251538201" lon="13.4161516891"><ele>1607.30</ele><time>2026-8-28T17:12:23Z</time></trkpt><trkpt lat="42.2252831189" lon="13.4161386453"><ele>1607.89</ele><time>2026-8-28T17:12:29Z</time></trkpt><trkpt lat="42.2254128429" lon="13.4161915071"><ele>1607.48</ele><time>2026-8-28T17:12:35Z</time></trkpt><trkpt lat="42.2255277727" lon="13.4162864462"><ele>1606.36</ele><time>2026-8-28T17:12:41Z</time></trkpt><trkpt lat="42.2256498761" lon="13.4163804282"><ele>1604.62</ele><time>2026-8-28T17:12:45Z</time></trkpt><trkpt lat="42.2257845383" lon="13.4164338279"><ele>1603.48</ele><time>2026-8-28T17:12:49Z</time></trkpt><trkpt lat="42.2259163368" lon="13.4164365660"><ele>1602.06</ele><time>2026-8-28T17:12:52Z</time></trkpt><trkpt lat="42.2260435112" lon="13.4164042678"><ele>1600.50</ele><time>2026-8-28T17:12:56Z</time></trkpt><trkpt lat="42.2261636518" lon="13.4163705446"><ele>1599.47</ele><time>2026-8-28T17:12:59Z</time></trkpt><trkpt lat="42.2262967844" lon="13.4163158108"><ele>1598.54</ele><time>2026-8-28T17:13:2Z</time></trkpt><trkpt lat="42.2264332417" lon="13.4163216222"><ele>1597.60</ele><time>2026-8-28T17:13:5Z</time></trkpt><trkpt lat="42.2265495602" lon="13.4164049327"><ele>1596.64</ele><time>2026-8-28T17:13:9Z</time></trkpt><trkpt lat="42.2266829247" lon="13.4164671181"><ele>1596.11</ele><time>2026-8-28T17:13:13Z</time></trkpt><trkpt lat="42.2268129420" lon="13.4164741729"><ele>1595.90</ele><time>2026-8-28T17:13:17Z</time></trkpt><trkpt lat="42.2269543517" lon="13.4164454928"><ele>1595.43</ele><time>2026-8-28T17:13:20Z</time></trkpt><trkpt lat="42.2270961525" lon="13.4164730483"><ele>1594.86</ele><time>2026-8-28T17:13:24Z</time></trkpt><trkpt lat="42.2272297810" lon="13.4165037261"><ele>1594.46</ele><time>2026-8-28T17:13:28Z</time></trkpt><trkpt lat="42.2273492441" lon="13.4165658485"><ele>1593.92</ele><time>2026-8-28T17:13:33Z</time></trkpt><trkpt lat="42.2274609958" lon="13.4166681790"><ele>1593.00</ele><time>2026-8-28T17:13:37Z</time></trkpt><trkpt lat="42.2275459114" lon="13.4167804197"><ele>1592.09</ele><time>2026-8-28T17:13:41Z</time></trkpt><trkpt lat="42.2276077210" lon="13.4169422253"><ele>1590.97</ele><time>2026-8-28T17:13:44Z</time></trkpt><trkpt lat="42.2276509087" lon="13.4171091020"><ele>1590.01</ele><time>2026-8-28T17:13:48Z</time></trkpt><trkpt lat="42.2276571323" lon="13.4172982467"><ele>1588.91</ele><time>2026-8-28T17:13:51Z</time></trkpt><trkpt lat="42.2276488971" lon="13.4174903389"><ele>1587.87</ele><time>2026-8-28T17:13:55Z</time></trkpt><trkpt lat="42.2276857565" lon="13.4176546452"><ele>1586.99</ele><time>2026-8-28T17:13:58Z</time></trkpt><trkpt lat="42.2277418803" lon="13.4178079013"><ele>1586.12</ele><time>2026-8-28T17:14:2Z</time></trkpt><trkpt lat="42.2277913056" lon="13.4179682191"><ele>1585.37</ele><time>2026-8-28T17:14:5Z</time></trkpt><trkpt lat="42.2278393968" lon="13.4181587328"><ele>1584.55</ele><time>2026-8-28T17:14:8Z</time></trkpt><trkpt lat="42.2278655414" lon="13.4183524177"><ele>1583.60</ele><time>2026-8-28T17:14:12Z</time></trkpt><trkpt lat="42.2278785892" lon="13.4185252525"><ele>1582.89</ele><time>2026-8-28T17:14:15Z</time></trkpt><trkpt lat="42.2279033717" lon="13.4186793678"><ele>1581.99</ele><time>2026-8-28T17:14:18Z</time></trkpt><trkpt lat="42.2279486549" lon="13.4188523982"><ele>1581.10</ele><time>2026-8-28T17:14:21Z</time></trkpt><trkpt lat="42.2280216404" lon="13.4190282505"><ele>1580.04</ele><time>2026-8-28T17:14:25Z</time></trkpt><trkpt lat="42.2280922718" lon="13.4191742632"><ele>1578.85</ele><time>2026-8-28T17:14:29Z</time></trkpt><trkpt lat="42.2281527892" lon="13.4193128999"><ele>1578.12</ele><time>2026-8-28T17:14:32Z</time></trkpt><trkpt lat="42.2282071878" lon="13.4194765147"><ele>1577.35</ele><time>2026-8-28T17:14:35Z</time></trkpt><trkpt lat="42.2282444034" lon="13.4196579550"><ele>1576.52</ele><time>2026-8-28T17:14:38Z</time></trkpt><trkpt lat="42.2282428388" lon="13.4198451229"><ele>1575.61</ele><time>2026-8-28T17:14:41Z</time></trkpt><trkpt lat="42.2282109316" lon="13.4200174548"><ele>1575.03</ele><time>2026-8-28T17:14:44Z</time></trkpt><trkpt lat="42.2281761398" lon="13.4201994329"><ele>1574.52</ele><time>2026-8-28T17:14:47Z</time></trkpt><trkpt lat="42.2281455249" lon="13.4203838138"><ele>1573.98</ele><time>2026-8-28T17:14:51Z</time></trkpt><trkpt lat="42.2281376794" lon="13.4205584507"><ele>1573.48</ele><time>2026-8-28T17:14:56Z</time></trkpt><trkpt lat="42.2282012226" lon="13.4207009012"><ele>1573.22</ele><time>2026-8-28T17:14:59Z</time></trkpt><trkpt lat="42.2282988578" lon="13.4208282363"><ele>1572.74</ele><time>2026-8-28T17:15:2Z</time></trkpt><trkpt lat="42.2284386400" lon="13.4209113708"><ele>1572.18</ele><time>2026-8-28T17:15:4Z</time></trkpt><trkpt lat="42.2285593813" lon="13.4209394502"><ele>1571.45</ele><time>2026-8-28T17:15:6Z</time></trkpt><trkpt lat="42.2286876384" lon="13.4209273662"><ele>1570.37</ele><time>2026-8-28T17:15:9Z</time></trkpt><trkpt lat="42.2287839186" lon="13.4208098520"><ele>1569.37</ele><time>2026-8-28T17:15:12Z</time></trkpt><trkpt lat="42.2288390603" lon="13.4206377771"><ele>1568.62</ele><time>2026-8-28T17:15:16Z</time></trkpt><trkpt lat="42.2289063921" lon="13.4204849834"><ele>1568.34</ele><time>2026-8-28T17:15:20Z</time></trkpt><trkpt lat="42.2289866489" lon="13.4203679091"><ele>1568.17</ele><time>2026-8-28T17:15:24Z</time></trkpt><trkpt lat="42.2290922189" lon="13.4202569328"><ele>1567.84</ele><time>2026-8-28T17:15:28Z</time></trkpt><trkpt lat="42.2292070929" lon="13.4201446991"><ele>1567.37</ele><time>2026-8-28T17:15:32Z</time></trkpt><trkpt lat="42.2293183417" lon="13.4200271219"><ele>1566.94</ele><time>2026-8-28T17:15:36Z</time></trkpt><trkpt lat="42.2293945961" lon="13.4198879823"><ele>1566.53</ele><time>2026-8-28T17:15:41Z</time></trkpt><trkpt lat="42.2293262417" lon="13.4197712014"><ele>1565.97</ele><time>2026-8-28T17:15:45Z</time></trkpt><trkpt lat="42.2292372259" lon="13.4196492238"><ele>1565.35</ele><time>2026-8-28T17:15:49Z</time></trkpt><trkpt lat="42.2291615373" lon="13.4194871807"><ele>1565.59</ele><time>2026-8-28T17:15:53Z</time></trkpt><trkpt lat="42.2291439213" lon="13.4193077590"><ele>1565.97</ele><time>2026-8-28T17:15:57Z</time></trkpt><trkpt lat="42.2291471833" lon="13.4191325004"><ele>1565.86</ele><time>2026-8-28T17:16:0Z</time></trkpt><trkpt lat="42.2291692067" lon="13.4189469251"><ele>1565.35</ele><time>2026-8-28T17:16:4Z</time></trkpt><trkpt lat="42.2292569862" lon="13.4188388405"><ele>1565.26</ele><time>2026-8-28T17:16:8Z</time></trkpt><trkpt lat="42.2293533152" lon="13.4187214729"><ele>1565.17</ele><time>2026-8-28T17:16:13Z</time></trkpt><trkpt lat="42.2293827579" lon="13.4186208530"><ele>1564.65</ele><time>2026-8-28T17:16:33Z</time></trkpt></trkseg></trk></gpx>